# Wetter Temperatur Luftdruck Luftfeuchtigkeit Sichtweite Windgeschwindigkeit Windrichtung Zeit
1 Clear 13 1022 63 10000 4.02 270 14:37 01.02.2023
2 Clear 11 1024 68 10000 3.6 10 13:20 01.02.2023
3 Clear 10 1024 67 10000 3.6 30 12:59 01.02.2023
4 Clouds 9 1024 73 10000 2.57 50 11:56 01.02.2023
5 Fog 5 1023 80 9000 3.6 20 08:56 01.02.2023
6 Clear 8 1019 71 10000 2.57 330 03:18 01.02.2023
7 Clear 10 1023 66 10000 5.66 360 21:44 31.01.2023
8 Clear 11 1023 61 10000 3.6 10 19:57 31.01.2023
9 Clear 14 1028 50 10000 5.14 350 18:50 31.01.2023
10 Clear 14 1024 43 10000 4.02 360 15:37 31.01.2023
11 Clear 14 1024 43 10000 4.02 360 15:18 31.01.2023
12 Clear 13 1024 45 10000 3.6 10 14:52 31.01.2023
13 Clear 10 1027 56 10000 5.14 30 12:23 31.01.2023
14 Clear 9 1024 56 10000 5.36 360 11:20 31.01.2023
15 Clear 6 1030 68 10000 3.6 30 09:53 31.01.2023
16 Clear 6 1030 69 10000 5.14 30 08:59 31.01.2023
17 Clear 6 1030 73 10000 5.14 30 08:35 31.01.2023
18 Clear 7 1023 65 10000 3.13 360 05:44 31.01.2023
19 Clear 9 1023 61 10000 4.02 360 23:57 30.01.2023
20 Clear 10 1023 62 10000 4.92 360 22:51 30.01.2023
21 Clear 10 1023 61 10000 4.92 360 22:30 30.01.2023
22 Clear 10 1023 61 10000 3.6 50 21:22 30.01.2023
23 Clear 10 1024 64 10000 4.47 360 20:34 30.01.2023
24 Clear 13 1027 52 10000 3.6 40 17:54 30.01.2023
25 Clear 13 1022 48 10000 4.47 360 16:34 30.01.2023
26 Clear 10 1027 61 10000 4.63 20 14:27 30.01.2023
27 Clear 9 1025 57 10000 7.6 360 12:44 30.01.2023
28 Clear 8 1023 59 10000 7.6 360 11:28 30.01.2023
29 Clear 6 1024 64 10000 6.71 292 09:54 30.01.2023
30 Clear 5 1022 64 10000 4.12 50 08:57 30.01.2023
31 Clear 5 1020 65 10000 4.63 40 07:29 30.01.2023
32 Clear 6 1021 67 10000 4.92 360 01:42 30.01.2023
33 Clear 8 1021 64 10000 4.47 360 23:35 29.01.2023
34 Clear 8 1021 63 10000 4.92 360 22:37 29.01.2023
35 Clear 9 1020 61 10000 4.47 360 21:41 29.01.2023
36 Clear 9 1020 58 10000 5.81 247 20:41 29.01.2023
37 Clear 10 1020 56 10000 4.02 315 19:48 29.01.2023
38 Clear 10 1023 56 10000 3.6 20 19:27 29.01.2023
39 Clear 13 1022 49 10000 3.6 50 17:49 29.01.2023
40 Clear 12 1019 50 10000 5.36 360 16:21 29.01.2023
41 Clear 11 1020 53 10000 4.92 360 14:53 29.01.2023
42 Clear 10 1024 56 10000 5.14 40 13:30 29.01.2023
43 Clear 9 1021 55 10000 8.49 315 12:45 29.01.2023
44 Clear 8 1021 57 10000 8.49 315 12:23 29.01.2023
45 Clear 8 1021 54 10000 6.69 40 11:54 29.01.2023
46 Clear 7 1020 54 10000 9.39 360 11:27 29.01.2023
47 Clear 6 1018 54 10000 7.6 360 09:59 29.01.2023
48 Clear 6 1018 65 10000 6.71 360 07:20 29.01.2023
49 Clear 7 1018 67 10000 4.47 337 03:41 29.01.2023
50 Clear 9 1019 64 10000 6.71 360 23:39 28.01.2023
51 Clear 10 1019 61 10000 4.12 330 20:45 28.01.2023
52 Clear 10 1018 59 10000 4.63 360 19:52 28.01.2023
53 Clear 12 1018 44 10000 5.36 360 18:35 28.01.2023
54 Clouds 13 1017 41 10000 9.39 360 17:20 28.01.2023
55 Clear 13 1017 41 10000 8.05 360 16:27 28.01.2023
56 Clear 13 1018 41 10000 9.83 360 15:49 28.01.2023
57 Clear 12 1017 39 10000 7.15 180 14:53 28.01.2023
58 Clear 11 1018 47 10000 13.86 315 13:30 28.01.2023
59 Clouds 10 1021 53 10000 6.17 40 11:55 28.01.2023
60 Clouds 8 1020 60 10000 4.02 360 10:34 28.01.2023
61 Clear 7 1018 61 10000 4.47 360 08:53 28.01.2023
62 Clear 8 1018 68 10000 3.6 340 01:48 28.01.2023
63 Clear 9 1018 64 10000 5.66 330 00:27 28.01.2023
64 Clouds 10 1017 69 10000 6.17 350 21:54 27.01.2023
65 Clouds 12 1017 65 10000 8.49 360 18:54 27.01.2023
66 Clouds 13 1017 61 10000 9.26 350 17:58 27.01.2023
67 Clouds 13 1017 61 10000 13.86 360 17:19 27.01.2023
68 Clouds 14 1017 57 10000 9.77 350 16:35 27.01.2023
69 Clouds 14 1017 58 10000 12.96 360 15:25 27.01.2023
70 Clouds 14 1018 55 10000 13.86 270 14:26 27.01.2023
71 Clouds 13 1022 60 10000 7.2 360 13:32 27.01.2023
72 Clear 7 1017 72 10000 3.6 330 08:48 27.01.2023
73 Clear 7 1016 71 10000 8.05 360 06:30 27.01.2023
74 Clear 8 1017 72 10000 5.81 360 00:27 27.01.2023
75 Clear 9 1016 77 10000 8.49 315 21:57 26.01.2023
76 Clear 10 1016 77 10000 7.15 360 20:55 26.01.2023
77 Clouds 10 1016 79 10000 4.63 330 19:57 26.01.2023
78 Clouds 13 1017 63 10000 14.31 360 17:57 26.01.2023
79 Clouds 13 1017 58 10000 11.83 350 16:41 26.01.2023
80 Clouds 13 1018 59 10000 10.73 315 16:20 26.01.2023
81 Clouds 12 1018 58 10000 19.22 292 15:42 26.01.2023
82 Clouds 12 1018 58 10000 18.78 360 15:24 26.01.2023
83 Clouds 12 1020 60 10000 13.86 360 13:50 26.01.2023
84 Clouds 12 1021 66 10000 16.54 292 12:31 26.01.2023
85 Clouds 10 1021 72 10000 4.63 320 10:35 26.01.2023
86 Clouds 8 1021 74 10000 4.63 320 09:58 26.01.2023
87 Clouds 7 1021 76 10000 5.81 360 09:34 26.01.2023
88 Clear 8 1019 68 10000 7.6 315 06:55 26.01.2023
89 Clear 8 1025 66 10000 4.02 360 23:42 25.01.2023
90 Clear 9 1024 65 10000 4.92 360 22:51 25.01.2023
91 Clear 9 1025 66 10000 4.12 10 21:41 25.01.2023
92 Clear 9 1023 64 10000 4.12 330 21:18 25.01.2023
93 Clear 12 1027 51 10000 4.12 60 18:30 25.01.2023
94 Clear 12 1023 46 10000 10.73 360 16:22 25.01.2023
95 Clear 12 1022 45 10000 7.6 360 15:34 25.01.2023
96 Clear 9 1029 57 10000 6.69 50 12:37 25.01.2023
97 Clear 5 1028 72 10000 5.14 30 09:54 25.01.2023
98 Clear 5 1028 75 10000 4.12 40 09:29 25.01.2023
99 Clear 6 1022 69 10000 5.36 360 06:53 25.01.2023
100 Clear 8 1022 61 10000 6.17 30 00:42 25.01.2023
101 Clear 9 1022 63 10000 4.02 360 22:45 24.01.2023
102 Clear 9 1022 66 10000 4.02 360 21:29 24.01.2023
103 Clear 10 1021 57 10000 5.36 360 19:40 24.01.2023
104 Clear 12 1021 45 10000 5.81 360 18:31 24.01.2023
105 Clear 12 1021 45 10000 5.81 360 18:31 24.01.2023
106 Clear 13 1020 42 10000 6.71 360 17:19 24.01.2023
107 Clear 13 1020 44 10000 10.28 360 16:52 24.01.2023
108 Clear 12 1021 46 10000 12.96 292 14:50 24.01.2023
109 Clear 9 1023 54 10000 14.75 292 12:47 24.01.2023
110 Clear 9 1021 53 10000 7.2 50 11:20 24.01.2023
111 Clear 6 1021 63 10000 5.66 30 08:21 24.01.2023
112 Clear 6 1020 61 10000 7.15 360 07:51 24.01.2023
113 Clear 7 1019 57 10000 9.83 360 05:31 24.01.2023
114 Clear 8 1019 54 10000 7.6 360 01:29 24.01.2023
115 Clear 9 1019 53 10000 5.66 20 23:51 23.01.2023
116 Clear 9 1017 54 10000 7.6 360 22:20 23.01.2023
117 Clear 10 1019 58 10000 4.12 360 19:53 23.01.2023
118 Clear 13 1022 41 10000 2.57 40 18:26 23.01.2023
119 Clear 14 1022 37 10000 5.14 20 16:19 23.01.2023
120 Clear 13 1020 41 10000 4.63 30 14:45 23.01.2023
121 Clear 12 1022 48 10000 3.6 20 13:44 23.01.2023
122 Clear 11 1026 52 10000 3.09 40 12:54 23.01.2023
123 Clear 10 1026 52 10000 5.66 30 11:44 23.01.2023
124 Clear 5 1023 59 10000 3.6 40 08:59 23.01.2023
125 Clear 6 1022 56 10000 3.13 360 07:38 23.01.2023
126 Clear 9 1024 63 10000 5.14 30 23:37 22.01.2023
127 Clear 10 1023 65 10000 4.63 340 21:49 22.01.2023
128 Clear 10 1023 63 10000 4.02 360 20:58 22.01.2023
129 Clear 11 1023 54 10000 3.13 360 19:53 22.01.2023
130 Clear 11 1022 52 10000 3.13 360 19:20 22.01.2023
131 Clear 13 1022 45 10000 6.71 315 18:22 22.01.2023
132 Clear 13 1022 41 10000 6.71 315 17:44 22.01.2023
133 Clear 13 1027 43 10000 4.12 60 17:21 22.01.2023
134 Clear 13 1022 44 10000 8.49 360 14:56 22.01.2023
135 Clear 12 1028 51 10000 6.17 30 13:51 22.01.2023
136 Clear 12 1028 52 10000 6.17 30 13:25 22.01.2023
137 Clear 11 1029 51 10000 5.66 50 12:26 22.01.2023
138 Clear 10 1023 54 10000 8.49 135 09:56 22.01.2023
139 Clear 9 1023 58 10000 8.49 135 08:44 22.01.2023
140 Clear 12 1020 76 10000 7.6 135 02:56 22.01.2023
141 Clouds 13 1024 84 10000 4.63 350 23:43 21.01.2023
142 Clouds 13 1024 83 10000 5.66 340 22:48 21.01.2023
143 Clouds 14 1020 73 10000 9.77 350 20:59 21.01.2023
144 Clouds 14 1023 77 10000 9.77 350 18:50 21.01.2023
145 Clouds 17 1023 76 10000 9.26 350 15:36 21.01.2023
146 Clouds 16 1024 79 10000 11.32 350 13:31 21.01.2023
147 Clouds 16 1024 79 10000 9.77 360 12:52 21.01.2023
148 Clouds 15 1024 82 10000 11.32 350 11:28 21.01.2023
149 Clouds 14 1024 85 10000 10.29 350 10:47 21.01.2023
150 Clouds 13 1023 90 10000 4.63 360 08:28 21.01.2023
151 Clouds 14 1025 87 10000 3.09 330 01:19 21.01.2023
152 Clouds 14 1025 87 10000 3.09 340 22:27 20.01.2023
153 Clouds 14 1025 87 10000 2.57 330 21:36 20.01.2023
154 Clouds 14 1024 89 10000 5.14 350 20:42 20.01.2023
155 Clouds 15 1024 86 10000 6.17 340 18:34 20.01.2023
156 Clouds 17 1023 79 10000 6.17 340 15:47 20.01.2023
157 Clouds 16 1024 81 10000 8.75 340 14:38 20.01.2023
158 Clouds 16 1024 85 10000 6.17 340 12:42 20.01.2023
159 Mist 14 1024 95 10000 3.6 320 09:37 20.01.2023
160 Clouds 14 1023 95 9000 4.12 320 08:22 20.01.2023
161 Clouds 14 1023 95 9000 4.12 320 08:22 20.01.2023
162 Clouds 13 1024 92 10000 5.14 300 02:34 20.01.2023
163 Clouds 13 1024 87 10000 5.14 310 22:54 19.01.2023
164 Clouds 13 1024 88 10000 6.69 300 22:31 19.01.2023
165 Clouds 13 1025 85 10000 6.17 300 20:22 19.01.2023
166 Clouds 13 1024 77 10000 9.83 292 18:58 19.01.2023
167 Clouds 14 1024 69 10000 7.2 320 15:37 19.01.2023
168 Clouds 11 1026 79 10000 3.13 225 10:53 19.01.2023
169 Clouds 8 1026 87 10000 1.54 280 08:59 19.01.2023
170 Clouds 9 1024 74 10000 2.57 340 23:35 18.01.2023
171 Clouds 10 1023 75 10000 2.24 337 20:55 18.01.2023
172 Clouds 10 1023 76 10000 2.24 337 20:19 18.01.2023
173 Clouds 10 1022 79 10000 3.09 340 19:37 18.01.2023
174 Clouds 12 1021 64 10000 8.23 340 17:34 18.01.2023
175 Clouds 13 1019 62 10000 12.52 135 15:22 18.01.2023
176 Clouds 11 1019 67 10000 8.23 340 13:27 18.01.2023
177 Clouds 10 1018 71 10000 9.83 135 10:41 18.01.2023
178 Clouds 9 1016 77 10000 8.23 330 08:23 18.01.2023
179 Clouds 10 1013 73 10000 7.72 300 01:27 18.01.2023
180 Clouds 11 1013 74 10000 10.28 360 23:32 17.01.2023
181 Rain 11 1012 74 8000 14.31 360 20:32 17.01.2023
182 Clouds 12 1012 73 8000 9.39 315 19:33 17.01.2023
183 Clouds 12 1011 70 10000 12.52 315 18:18 17.01.2023
184 Clouds 14 1013 62 10000 9.26 310 16:24 17.01.2023
185 Clouds 14 1013 66 10000 11.62 315 14:56 17.01.2023
186 Clouds 15 1013 58 10000 19.67 360 13:52 17.01.2023
187 Clouds 14 1013 60 10000 15.2 315 12:27 17.01.2023
188 Clouds 14 1014 67 10000 8.23 310 11:38 17.01.2023
189 Clouds 14 1011 69 10000 10.28 360 09:34 17.01.2023
190 Rain 14 1010 78 10000 9.83 315 07:54 17.01.2023
191 Clouds 15 1014 86 10000 7.2 260 03:57 17.01.2023
192 Clouds 14 1015 76 10000 7.72 280 00:57 17.01.2023
193 Clouds 14 1014 76 6000 9.83 360 23:38 16.01.2023
194 Clouds 14 1016 77 10000 9.39 315 21:52 16.01.2023
195 Clouds 14 1017 78 10000 8.49 270 20:27 16.01.2023
196 Clouds 14 1017 77 10000 7.6 292 19:35 16.01.2023
197 Clouds 14 1017 79 10000 6.17 280 18:53 16.01.2023
198 Clouds 14 1017 78 10000 8.49 315 18:21 16.01.2023
199 Clouds 14 1018 75 10000 7.2 290 17:35 16.01.2023
200 Clouds 15 1020 75 10000 9.39 360 15:33 16.01.2023
201 Clouds 15 1022 73 10000 11.62 135 13:39 16.01.2023
202 Clouds 13 1023 81 10000 9.39 337 10:53 16.01.2023
203 Clouds 13 1023 75 10000 10.73 315 10:18 16.01.2023
204 Clouds 11 1027 65 10000 2.06 290 23:38 15.01.2023
205 Clouds 11 1027 64 10000 2.57 310 22:26 15.01.2023
206 Clouds 11 1027 62 10000 4.02 360 20:40 15.01.2023
207 Clouds 11 1027 63 10000 5.14 340 19:49 15.01.2023
208 Clouds 14 1027 53 10000 14.75 360 17:55 15.01.2023
209 Clouds 14 1028 59 10000 8.23 350 16:18 15.01.2023
210 Clouds 14 1027 70 10000 5.81 135 12:34 15.01.2023
211 Clouds 13 1028 86 10000 7.2 10 11:36 15.01.2023
212 Clouds 13 1027 90 10000 7.2 360 10:30 15.01.2023
213 Clouds 13 1024 81 8000 6.69 360 09:36 15.01.2023
214 Clouds 12 1024 78 9000 1.03 70 01:50 15.01.2023
215 Clouds 12 1024 78 10000 1.54 50 23:20 14.01.2023
216 Clouds 12 1024 74 10000 1.34 337 22:00 14.01.2023
217 Clouds 12 1024 78 10000 2.06 30 21:36 14.01.2023
218 Clouds 12 1024 78 10000 2.06 30 21:36 14.01.2023
219 Clouds 12 1023 73 10000 2.06 10 21:18 14.01.2023
220 Clouds 13 1024 77 10000 1.54 120 20:39 14.01.2023
221 Clouds 14 1024 78 10000 2.06 30 18:40 14.01.2023
222 Clouds 14 1024 77 10000 2.68 270 17:35 14.01.2023
223 Clouds 13 1024 76 10000 2.57 10 15:29 14.01.2023
224 Clouds 13 1027 91 6000 3.09 10 14:25 14.01.2023
225 Mist 12 1028 91 3000 2.57 30 13:42 14.01.2023
226 Drizzle 12 1029 92 2000 2.06 70 11:51 14.01.2023
227 Drizzle 10 1028 95 10000 2.06 60 10:46 14.01.2023
228 Clouds 12 1028 89 9000 2.57 60 08:19 14.01.2023
229 Fog 12 1027 79 10000 1.54 280 23:39 13.01.2023
230 Fog 12 1027 79 10000 2.06 140 22:50 13.01.2023
231 Fog 12 1027 79 10000 2.06 140 22:31 13.01.2023
232 Clear 13 1026 75 10000 2.06 350 21:45 13.01.2023
233 Clouds 14 1026 73 10000 2.06 310 19:43 13.01.2023
234 Clouds 15 1026 67 10000 4.02 360 18:21 13.01.2023
235 Clouds 16 1026 64 10000 6.71 315 16:45 13.01.2023
236 Clouds 15 1030 71 10000 2.57 310 13:37 13.01.2023
237 Clouds 15 1027 68 10000 3.13 135 12:20 13.01.2023
238 Clouds 11 1028 75 10000 1.54 60 10:27 13.01.2023
239 Clouds 11 1028 74 10000 1.03 80 09:46 13.01.2023
240 Clouds 11 1027 76 10000 1.54 60 08:56 13.01.2023
241 Clouds 11 1027 75 10000 2.06 20 08:27 13.01.2023
242 Clouds 11 1026 72 10000 1.34 360 06:53 13.01.2023
243 Clouds 11 1026 68 10000 1.34 360 05:23 13.01.2023
244 Clouds 10 1028 77 10000 2.57 310 00:37 13.01.2023
245 Clouds 11 1028 75 10000 3.09 330 22:44 12.01.2023
246 Clear 12 1028 75 10000 3.6 330 20:56 12.01.2023
247 Clear 13 1028 74 10000 4.02 180 19:54 12.01.2023
248 Clear 15 1029 71 10000 4.63 350 17:53 12.01.2023
249 Clouds 16 1029 65 10000 4.63 340 16:48 12.01.2023
250 Clouds 15 1030 70 10000 4.12 20 14:49 12.01.2023
251 Clouds 15 1030 67 10000 4.12 20 14:24 12.01.2023
252 Clouds 15 1029 68 10000 4.63 10 13:29 12.01.2023
253 Clear 12 1031 83 10000 4.12 10 10:54 12.01.2023
254 Clear 9 1029 76 10000 4.12 360 09:31 12.01.2023
255 Clear 11 1027 69 10000 4.12 340 05:48 12.01.2023
256 Clear 12 1030 74 10000 4.92 135 00:21 12.01.2023
257 Clear 11 1030 73 10000 5.14 340 23:41 11.01.2023
258 Clear 12 1030 74 10000 5.14 340 23:22 11.01.2023
259 Clouds 12 1029 74 10000 5.36 157 22:47 11.01.2023
260 Clouds 13 1031 76 10000 6.69 10 20:53 11.01.2023
261 Clouds 15 1029 68 10000 7.72 350 18:46 11.01.2023
262 Clouds 16 1030 67 10000 7.72 340 17:27 11.01.2023
263 Clouds 17 1028 62 10000 10.28 135 15:30 11.01.2023
264 Clouds 17 1029 64 10000 9.83 135 13:53 11.01.2023
265 Clouds 16 1030 66 10000 8.23 10 12:21 11.01.2023
266 Clouds 15 1028 69 10000 13.86 360 10:47 11.01.2023
267 Clouds 15 1026 80 10000 5.14 340 08:21 11.01.2023
268 Rain 15 1026 78 10000 3.6 240 07:26 11.01.2023
269 Clouds 15 1027 78 10000 4.02 225 04:37 11.01.2023
270 Clouds 15 1028 76 10000 1.54 230 22:46 10.01.2023
271 Clouds 15 1028 76 10000 1.54 230 22:46 10.01.2023
272 Clouds 15 1028 74 10000 1.79 315 22:18 10.01.2023
273 Clouds 15 1028 76 10000 2.24 315 20:43 10.01.2023
274 Clouds 15 1028 76 10000 3.13 360 19:51 10.01.2023
275 Clouds 16 1027 78 10000 2.57 300 18:48 10.01.2023
276 Clouds 16 1027 73 9000 4.12 280 17:59 10.01.2023
277 Clouds 16 1027 75 10000 4.47 315 16:59 10.01.2023
278 Drizzle 16 1028 77 4000 4.92 292 15:33 10.01.2023
279 Drizzle 16 1028 79 3000 4.47 180 14:35 10.01.2023
280 Drizzle 15 1029 79 2000 2.57 170 12:47 10.01.2023
281 Mist 14 1029 80 9000 1.03 0 09:43 10.01.2023
282 Drizzle 14 1029 80 8000 1.03 0 09:43 10.01.2023
283 Clouds 14 1028 80 9000 2.57 130 08:37 10.01.2023
284 Clouds 14 1027 76 10000 1.03 0 07:55 10.01.2023
285 Clouds 14 1028 75 10000 1.79 135 05:33 10.01.2023
286 Clouds 15 1028 72 10000 1.54 300 00:19 10.01.2023
287 Clouds 15 1027 73 10000 2.06 300 21:57 09.01.2023
288 Clouds 15 1027 77 10000 2.57 330 20:46 09.01.2023
289 Clouds 16 1027 75 10000 2.57 230 19:50 09.01.2023
290 Clouds 17 1028 80 10000 2.57 340 18:23 09.01.2023
291 Clouds 17 1028 79 10000 2.57 340 17:49 09.01.2023
292 Clouds 18 1025 73 10000 5.36 315 16:34 09.01.2023
293 Clouds 17 1027 84 10000 2.57 0 15:31 09.01.2023
294 Clouds 18 1027 82 10000 1.54 260 14:53 09.01.2023
295 Clouds 18 1028 82 10000 3.09 220 14:33 09.01.2023
296 Clouds 16 1026 77 10000 2.06 350 12:54 09.01.2023
297 Clouds 16 1026 83 10000 2.68 180 11:51 09.01.2023
298 Drizzle 16 1025 83 10000 2.24 225 11:19 09.01.2023
299 Clouds 15 1022 83 7000 2.57 290 06:56 09.01.2023
300 Drizzle 16 1021 81 5000 9.83 315 02:55 09.01.2023
301 Clouds 16 1021 81 8000 5.66 270 00:58 09.01.2023
302 Clouds 17 1020 81 10000 6.17 270 22:19 08.01.2023
303 Clouds 17 1021 94 10000 5.66 280 21:22 08.01.2023
304 Clouds 17 1019 85 6000 14.31 360 20:33 08.01.2023
305 Clouds 17 1020 96 8000 7.72 250 18:45 08.01.2023
306 Clouds 17 1020 92 10000 6.69 260 17:21 08.01.2023
307 Clouds 16 1018 83 4000 12.96 360 16:37 08.01.2023
308 Rain 17 1018 77 10000 7.6 315 15:34 08.01.2023
309 Clouds 17 1020 89 10000 5.14 240 13:58 08.01.2023
310 Clouds 17 1021 86 10000 6.69 260 13:30 08.01.2023
311 Clouds 17 1021 88 10000 5.66 240 12:46 08.01.2023
312 Clouds 16 1020 93 10000 6.69 240 10:28 08.01.2023
313 Clouds 16 1020 92 9000 7.72 240 09:36 08.01.2023
314 Clouds 16 1019 93 9000 6.69 230 07:47 08.01.2023
315 Mist 16 1021 95 5000 4.12 220 00:24 08.01.2023
316 Clouds 15 1021 96 8000 3.6 250 22:48 07.01.2023
317 Clouds 16 1021 92 10000 3.09 240 22:24 07.01.2023
318 Clouds 15 1021 94 10000 4.12 250 21:47 07.01.2023
319 Clouds 16 1020 96 8000 6.17 250 20:43 07.01.2023
320 Clouds 16 1020 97 8000 6.17 250 20:22 07.01.2023
321 Clouds 17 1020 95 10000 7.72 230 18:45 07.01.2023
322 Clouds 17 1020 96 8000 8.75 230 17:51 07.01.2023
323 Clouds 16 1020 96 8000 9.26 230 17:28 07.01.2023
324 Clouds 16 1020 96 8000 9.26 230 17:28 07.01.2023
325 Clouds 17 1020 96 10000 9.26 220 16:37 07.01.2023
326 Clouds 17 1020 96 6000 8.75 220 15:46 07.01.2023
327 Mist 16 1021 96 2800 6.69 240 15:26 07.01.2023
328 Rain 16 1020 81 5000 12.07 225 14:28 07.01.2023
329 Rain 16 1020 79 7000 12.07 225 13:54 07.01.2023
330 Rain 16 1022 93 10000 8.23 210 13:24 07.01.2023
331 Rain 16 1021 79 9000 14.31 225 12:22 07.01.2023
332 Clouds 16 1021 77 10000 18.78 225 11:50 07.01.2023
333 Clouds 16 1021 73 10000 16.99 315 10:25 07.01.2023
334 Clouds 15 1021 76 10000 10.28 360 08:27 07.01.2023
335 Clouds 15 1023 91 10000 5.14 220 07:44 07.01.2023
336 Clouds 15 1020 74 10000 9.83 225 06:56 07.01.2023
337 Clouds 14 1023 71 10000 10.28 315 00:43 07.01.2023
338 Clouds 14 1023 74 10000 5.36 270 22:23 06.01.2023
339 Clouds 14 1023 74 10000 5.36 270 21:59 06.01.2023
340 Clouds 14 1023 75 10000 5.81 270 21:26 06.01.2023
341 Clouds 14 1023 72 10000 4.92 270 19:58 06.01.2023
342 Clouds 14 1023 75 10000 4.92 270 19:40 06.01.2023
343 Clouds 14 1023 76 10000 3.6 210 19:22 06.01.2023
344 Clouds 15 1022 71 10000 7.6 292 18:34 06.01.2023
345 Clouds 16 1022 71 10000 8.49 225 17:21 06.01.2023
346 Clouds 16 1025 74 10000 4.12 170 16:24 06.01.2023
347 Clouds 16 1025 79 10000 3.6 180 15:56 06.01.2023
348 Clouds 16 1025 76 10000 4.12 180 15:38 06.01.2023
349 Clouds 14 1026 83 10000 2.57 170 14:52 06.01.2023
350 Clouds 12 1025 73 9000 2.24 135 12:37 06.01.2023
351 Clouds 10 1025 77 6000 1.54 0 10:58 06.01.2023
352 Mist 9 1024 79 4000 2.68 135 08:55 06.01.2023
353 Mist 9 1024 76 2000 1.79 135 06:42 06.01.2023
354 Mist 10 1025 73 10000 1.54 100 01:43 06.01.2023
355 Fog 12 1025 71 10000 2.57 320 22:55 05.01.2023
356 Fog 12 1025 73 10000 2.57 320 21:47 05.01.2023
357 Clear 13 1025 82 10000 2.06 10 19:29 05.01.2023
358 Clouds 15 1027 76 10000 3.09 10 17:28 05.01.2023
359 Clouds 14 1027 78 10000 2.57 20 16:21 05.01.2023
360 Clouds 14 1027 78 10000 3.09 20 15:46 05.01.2023
361 Clouds 14 1028 80 10000 2.57 10 14:36 05.01.2023
362 Clear 12 1028 70 10000 4.12 30 12:43 05.01.2023
363 Clear 11 1028 73 10000 4.12 40 11:51 05.01.2023
364 Clouds 8 1027 76 10000 3.6 40 09:54 05.01.2023
365 Clear 8 1027 72 10000 3.09 40 08:29 05.01.2023
366 Clear 8 1026 66 10000 2.06 20 07:19 05.01.2023
367 Clear 8 1027 63 10000 1.54 60 04:57 05.01.2023
368 Clear 12 1032 80 10000 2.57 60 23:19 04.01.2023
369 Clear 11 1030 73 10000 3.09 20 21:33 04.01.2023
370 Clear 12 1030 75 10000 3.6 20 20:47 04.01.2023
371 Clear 12 1030 75 10000 3.09 20 19:56 04.01.2023
372 Clear 13 1029 71 10000 4.92 135 19:32 04.01.2023
373 Clear 14 1030 71 10000 4.02 135 18:37 04.01.2023
374 Clear 15 1030 69 10000 5.36 180 16:32 04.01.2023
375 Clear 15 1030 69 10000 5.36 180 16:32 04.01.2023
376 Clear 15 1030 69 10000 5.36 180 16:32 04.01.2023
377 Clear 15 1030 68 10000 7.6 135 15:48 04.01.2023
378 Clear 14 1030 67 10000 7.15 157 14:22 04.01.2023
379 Clear 10 1032 70 10000 6.69 30 11:41 04.01.2023
380 Clear 10 1032 68 10000 4.47 135 11:20 04.01.2023
381 Clear 10 1032 73 10000 5.66 20 10:43 04.01.2023
382 Clear 8 1031 71 10000 3.6 40 10:22 04.01.2023
383 Clear 8 1031 76 10000 7.15 135 08:49 04.01.2023
384 Clear 8 1031 79 10000 4.12 30 05:35 04.01.2023
385 Clear 10 1031 71 10000 3.09 20 00:32 04.01.2023
386 Clear 10 1033 80 10000 3.09 350 23:35 03.01.2023
387 Clear 11 1031 74 10000 4.02 135 22:44 03.01.2023
388 Clear 11 1030 74 10000 4.92 135 20:53 03.01.2023
389 Clear 12 1032 72 10000 3.6 350 19:26 03.01.2023
390 Clouds 15 1029 60 10000 9.39 135 17:37 03.01.2023
391 Clouds 15 1031 64 10000 5.14 360 16:36 03.01.2023
392 Clouds 14 1031 65 10000 5.81 135 13:56 03.01.2023
393 Clouds 14 1030 64 10000 3.6 10 13:30 03.01.2023
394 Clouds 12 1031 70 10000 3.13 135 12:58 03.01.2023
395 Clouds 13 1030 67 10000 2.68 360 12:30 03.01.2023
396 Clouds 11 1030 72 10000 2.06 10 11:21 03.01.2023
397 Clouds 8 1028 72 10000 1.54 90 07:29 03.01.2023
398 Clouds 9 1028 71 10000 2.06 320 04:22 03.01.2023
399 Clouds 9 1027 71 10000 2.06 320 03:44 03.01.2023
400 Clouds 9 1028 74 10000 1.54 320 01:56 03.01.2023
401 Clear 11 1029 77 10000 3.09 310 22:42 02.01.2023
402 Clear 11 1029 77 10000 3.09 310 22:19 02.01.2023
403 Clear 11 1026 72 10000 3.09 330 20:40 02.01.2023
404 Clouds 12 1028 72 10000 3.09 330 19:53 02.01.2023
405 Clouds 15 1025 61 10000 4.63 340 17:53 02.01.2023
406 Clouds 15 1027 64 10000 4.63 10 15:23 02.01.2023
407 Clouds 15 1025 65 10000 4.02 135 13:25 02.01.2023
408 Clouds 12 1025 69 10000 3.09 360 11:57 02.01.2023
409 Clouds 11 1026 87 10000 2.06 350 10:52 02.01.2023
410 Fog 10 1023 72 10000 2.06 80 07:34 02.01.2023
411 Clouds 12 1023 91 10000 2.06 330 00:58 02.01.2023
412 Clouds 13 1019 76 10000 3.6 300 22:38 01.01.2023
413 Clouds 13 1018 74 10000 8.49 360 21:33 01.01.2023
414 Clouds 14 1017 74 10000 4.12 310 20:48 01.01.2023
415 Clouds 14 1018 93 10000 4.63 300 19:48 01.01.2023
416 Rain 15 1015 79 9000 6.69 300 18:24 01.01.2023
417 Rain 16 1014 81 7000 14.75 292 17:21 01.01.2023
418 Rain 15 1014 78 6000 10.73 225 16:33 01.01.2023
419 Clouds 18 1015 78 10000 26.38 225 14:59 01.01.2023
420 Rain 18 1016 75 10000 16.54 292 13:41 01.01.2023
421 Clouds 19 1016 73 10000 19.67 270 12:41 01.01.2023
422 Clouds 18 1016 75 10000 21.01 315 11:38 01.01.2023
423 Clouds 18 1016 75 10000 21.9 315 10:44 01.01.2023
424 Clouds 18 1016 72 10000 16.99 315 08:56 01.01.2023
425 Clouds 17 1016 73 10000 8.05 225 08:22 01.01.2023
426 Clouds 18 1016 69 10000 13.86 360 07:23 01.01.2023
427 Clouds 17 1017 73 10000 16.54 270 03:47 01.01.2023
428 Clouds 18 1019 69 10000 16.09 315 23:44 31.12.2022
429 Clouds 18 1019 71 10000 10.73 157 22:35 31.12.2022
430 Clouds 18 1019 70 10000 15.2 225 21:41 31.12.2022
431 Clouds 18 1019 70 8000 14.75 315 21:20 31.12.2022
432 Clouds 18 1019 73 10000 10.28 270 19:43 31.12.2022
433 Clouds 18 1019 73 10000 21.46 292 18:45 31.12.2022
434 Clouds 18 1018 72 10000 16.99 292 18:19 31.12.2022
435 Clouds 18 1018 72 10000 16.09 135 17:49 31.12.2022
436 Clouds 18 1020 79 10000 7.2 200 16:59 31.12.2022
437 Clouds 18 1019 72 10000 21.9 225 16:30 31.12.2022
438 Clouds 18 1019 74 10000 15.2 315 15:19 31.12.2022
439 Clouds 17 1019 70 10000 10.28 270 13:44 31.12.2022
440 Clouds 16 1021 72 10000 6.69 150 12:47 31.12.2022
441 Clouds 16 1023 91 9000 6.69 150 12:20 31.12.2022
442 Clouds 15 1023 93 9000 5.66 150 11:50 31.12.2022
443 Mist 14 1023 96 3500 4.12 140 10:37 31.12.2022
444 Mist 14 1022 95 1600 4.12 120 09:55 31.12.2022
445 Mist 14 1022 95 1200 4.12 120 09:35 31.12.2022
446 Mist 13 1022 94 5000 5.14 110 07:51 31.12.2022
447 Clouds 16 1022 72 10000 8.05 225 00:59 31.12.2022
448 Clouds 16 1022 71 10000 18.78 225 23:50 30.12.2022
449 Clouds 16 1022 73 10000 14.31 315 22:50 30.12.2022
450 Clouds 16 1022 74 10000 9.39 225 21:50 30.12.2022
451 Clouds 16 1022 74 10000 12.96 315 21:30 30.12.2022
452 Clouds 17 1022 72 10000 12.96 270 19:52 30.12.2022
453 Clouds 18 1021 73 10000 19.67 180 17:53 30.12.2022
454 Clouds 18 1021 73 10000 19.67 180 17:33 30.12.2022
455 Clouds 18 1021 73 10000 16.99 315 15:58 30.12.2022
456 Clouds 18 1022 72 10000 15.2 270 14:54 30.12.2022
457 Clouds 18 1023 72 10000 10.73 315 12:52 30.12.2022
458 Clear 16 1023 84 10000 5.66 230 08:23 30.12.2022
459 Clouds 17 1020 73 10000 9.83 315 03:47 30.12.2022
460 Clear 17 1021 74 10000 16.09 292 02:25 30.12.2022
461 Clouds 16 1020 70 10000 19.22 292 23:18 29.12.2022
462 Clouds 17 1021 75 10000 12.96 270 21:32 29.12.2022
463 Clouds 16 1021 77 10000 11.62 180 20:54 29.12.2022
464 Clouds 16 1020 74 10000 12.07 225 20:30 29.12.2022
465 Clouds 17 1023 90 10000 6.69 220 18:37 29.12.2022
466 Clouds 18 1023 87 10000 6.17 220 17:51 29.12.2022
467 Clouds 18 1023 87 10000 6.69 220 17:18 29.12.2022
468 Clouds 18 1023 88 10000 6.17 220 16:44 29.12.2022
469 Clouds 18 1021 75 10000 10.73 270 15:47 29.12.2022
470 Clouds 18 1023 71 10000 7.72 230 13:34 29.12.2022
471 Clouds 17 1023 77 10000 7.15 225 11:48 29.12.2022
472 Clouds 15 1022 79 10000 5.81 360 09:29 29.12.2022
473 Clouds 16 1022 75 10000 9.39 315 02:31 29.12.2022
474 Clouds 16 1022 78 10000 6.71 360 23:28 28.12.2022
475 Clouds 16 1022 74 10000 4.47 270 21:49 28.12.2022
476 Clouds 16 1022 73 10000 2.68 135 21:19 28.12.2022
477 Clouds 16 1022 74 10000 5.81 270 19:47 28.12.2022
478 Fog 16 1023 82 10000 8.49 292 16:58 28.12.2022
479 Fog 17 1023 76 8000 7.6 315 16:20 28.12.2022
480 Mist 13 1027 95 1000 1.54 140 12:59 28.12.2022
481 Fog 14 1027 86 250 1.54 40 12:32 28.12.2022
482 Fog 12 1027 95 50 1.54 10 11:32 28.12.2022
483 Fog 11 1027 92 50 2.06 70 09:19 28.12.2022
484 Fog 12 1027 88 50 0.51 0 07:28 28.12.2022
485 Fog 11 1027 92 150 1.03 0 06:43 28.12.2022
486 Fog 13 1026 75 10000 1.54 0 00:24 28.12.2022
487 Clear 15 1027 79 10000 3.09 20 20:59 27.12.2022
488 Clear 15 1027 84 10000 2.06 320 19:41 27.12.2022
489 Clouds 18 1029 84 10000 1.54 80 17:58 27.12.2022
490 Clouds 17 1029 87 10000 2.06 300 16:44 27.12.2022
491 Clouds 17 1029 88 10000 1.54 0 15:49 27.12.2022
492 Fog 16 1030 87 7000 3.09 360 13:57 27.12.2022
493 Mist 13 1029 76 650 3.09 30 11:30 27.12.2022
494 Fog 12 1028 80 250 2.24 360 09:47 27.12.2022
495 Fog 12 1028 80 250 4.02 135 09:23 27.12.2022
496 Fog 12 1028 71 150 2.24 360 08:41 27.12.2022
497 Fog 13 1027 77 100 4.12 10 04:32 27.12.2022
498 Clouds 14 1026 77 9000 2.57 350 23:25 26.12.2022
499 Clear 16 1025 69 10000 0 0 21:32 26.12.2022
500 Clouds 16 1025 75 10000 1.54 180 20:42 26.12.2022
501 Clouds 17 1025 78 10000 2.68 337 18:50 26.12.2022
502 Clouds 18 1025 72 10000 4.92 270 17:52 26.12.2022
503 Clouds 19 1024 72 10000 4.47 270 16:22 26.12.2022
504 Clouds 17 1023 73 10000 2.57 80 14:48 26.12.2022
505 Mist 16 1024 78 3000 4.12 30 12:52 26.12.2022
506 Clouds 13 1020 80 7000 5.36 135 08:52 26.12.2022
507 Clouds 13 1017 74 10000 4.02 180 00:25 26.12.2022
508 Clouds 14 1017 76 10000 4.63 110 23:38 25.12.2022
509 Clouds 14 1017 74 10000 3.6 180 22:39 25.12.2022
510 Clouds 14 1017 75 10000 5.81 270 21:49 25.12.2022
511 Clouds 15 1016 76 10000 5.66 140 19:23 25.12.2022
512 Rain 14 1016 79 10000 8.05 270 17:52 25.12.2022
513 Clouds 14 1016 79 10000 4.12 160 17:34 25.12.2022
514 Clouds 14 1015 77 10000 4.63 230 15:50 25.12.2022
515 Rain 15 1015 77 10000 8.49 202 12:59 25.12.2022
516 Rain 15 1013 77 9000 15.2 225 09:31 25.12.2022
517 Clouds 17 1014 70 10000 22.8 180 00:28 25.12.2022
518 Clouds 17 1014 66 10000 22.8 270 22:29 24.12.2022
519 Clouds 17 1015 70 10000 11.62 180 19:51 24.12.2022
520 Clouds 18 1016 71 10000 21.9 315 16:47 24.12.2022
521 Clouds 18 1017 71 10000 11.62 180 14:55 24.12.2022
522 Clouds 19 1017 71 10000 16.99 247 13:30 24.12.2022
523 Clouds 17 1016 73 10000 12.07 180 11:29 24.12.2022
524 Clouds 16 1018 77 10000 8.49 315 10:22 24.12.2022
525 Clouds 16 1017 79 10000 8.05 315 09:37 24.12.2022
526 Clouds 16 1017 78 10000 8.05 135 07:24 24.12.2022
527 Clouds 16 1019 78 10000 7.15 315 02:51 24.12.2022
528 Clouds 15 1020 73 10000 6.71 315 23:57 23.12.2022
529 Clouds 16 1018 67 10000 9.83 225 22:29 23.12.2022
530 Clouds 16 1021 78 10000 5.36 270 20:55 23.12.2022
531 Clouds 16 1021 78 10000 6.71 247 19:39 23.12.2022
532 Clouds 16 1020 75 10000 6.71 270 19:21 23.12.2022
533 Clouds 17 1021 77 10000 6.71 315 18:52 23.12.2022
534 Clouds 17 1021 78 10000 8.49 270 18:21 23.12.2022
535 Clouds 18 1021 73 10000 10.28 180 16:39 23.12.2022
536 Clouds 18 1022 75 10000 12.07 225 15:43 23.12.2022
537 Clouds 17 1024 80 10000 8.05 225 12:18 23.12.2022
538 Clouds 16 1024 82 9000 8.05 270 09:52 23.12.2022
539 Clouds 16 1023 82 8000 6.71 135 09:33 23.12.2022
540 Clouds 16 1027 94 10000 2.06 180 07:20 23.12.2022
541 Clouds 16 1027 95 10000 3.09 170 06:48 23.12.2022
542 Clouds 16 1031 74 10000 7.6 292 23:24 22.12.2022
543 Clouds 16 1032 74 10000 4.47 270 22:58 22.12.2022
544 Clouds 16 1032 71 10000 2.57 200 21:49 22.12.2022
545 Clouds 17 1031 74 10000 2.57 200 19:46 22.12.2022
546 Clouds 17 1031 74 10000 3.09 210 19:18 22.12.2022
547 Clouds 18 1031 78 10000 8.49 270 17:33 22.12.2022
548 Clouds 18 1031 75 10000 7.15 292 16:39 22.12.2022
549 Clouds 18 1031 78 10000 8.49 270 15:35 22.12.2022
550 Clouds 18 1032 75 10000 8.49 270 14:53 22.12.2022
551 Clouds 18 1032 77 10000 7.6 315 13:54 22.12.2022
552 Clouds 18 1033 70 10000 7.6 360 13:19 22.12.2022
553 Clouds 17 1032 76 10000 6.71 315 11:34 22.12.2022
554 Clouds 17 1033 71 10000 2.68 225 10:31 22.12.2022
555 Fog 17 1032 71 10000 6.71 360 09:22 22.12.2022
556 Fog 16 1032 71 10000 5.36 315 08:32 22.12.2022
557 Clouds 16 1032 72 10000 3.13 270 07:22 22.12.2022
558 Clouds 16 1033 64 10000 2.68 315 04:18 22.12.2022
559 Drizzle 17 1032 77 10000 10.73 292 00:25 22.12.2022
560 Clouds 17 1032 77 10000 3.09 230 22:26 21.12.2022
561 Clouds 17 1032 76 10000 4.47 292 21:24 21.12.2022
562 Clouds 17 1030 78 10000 3.09 200 20:54 21.12.2022
563 Clouds 17 1030 79 10000 3.09 200 20:30 21.12.2022
564 Clouds 17 1029 78 10000 5.36 270 19:44 21.12.2022
565 Clouds 17 1027 92 10000 3.09 200 19:26 21.12.2022
566 Clouds 18 1027 91 10000 3.6 230 18:47 21.12.2022
567 Clouds 18 1027 91 10000 3.09 220 18:21 21.12.2022
568 Clouds 19 1029 75 10000 7.6 315 15:25 21.12.2022
569 Clouds 18 1027 87 10000 5.66 220 13:41 21.12.2022
570 Clouds 17 1030 76 10000 4.92 247 11:48 21.12.2022
571 Clouds 17 1030 76 10000 9.39 247 11:20 21.12.2022
572 Clouds 16 1029 79 10000 6.71 315 09:50 21.12.2022
573 Clouds 16 1028 78 10000 5.36 315 08:48 21.12.2022
574 Clouds 15 1029 74 10000 3.13 180 06:29 21.12.2022
575 Clouds 16 1028 75 10000 7.15 225 00:22 21.12.2022
576 Clouds 16 1027 75 10000 5.36 270 21:47 20.12.2022
577 Clouds 16 1026 77 10000 4.12 240 20:33 20.12.2022
578 Clouds 17 1025 76 10000 5.36 315 19:42 20.12.2022
579 Clouds 17 1021 84 10000 5.14 250 18:41 20.12.2022
580 Clouds 17 1024 74 10000 5.14 250 18:21 20.12.2022
581 Clouds 18 1023 74 10000 4.92 315 17:46 20.12.2022
582 Clouds 19 1023 75 10000 6.69 250 16:53 20.12.2022
583 Clouds 19 1023 75 10000 12.52 315 15:48 20.12.2022
584 Clouds 19 1022 71 10000 10.73 225 14:50 20.12.2022
585 Clouds 19 1024 67 10000 8.05 360 14:29 20.12.2022
586 Clouds 19 1024 68 10000 10.28 225 13:25 20.12.2022
587 Clouds 19 1020 91 10000 5.66 230 12:32 20.12.2022
588 Clouds 18 1022 79 10000 12.96 360 11:38 20.12.2022
589 Rain 18 1018 95 10000 7.2 210 08:51 20.12.2022
590 Clouds 17 1022 82 10000 16.09 292 04:38 20.12.2022
591 Mist 17 1023 74 4000 11.62 225 22:46 19.12.2022
592 Clouds 17 1023 72 10000 19.22 337 21:56 19.12.2022
593 Clouds 17 1022 75 10000 16.54 315 20:28 19.12.2022
594 Clouds 17 1022 75 10000 10.73 315 19:39 19.12.2022
595 Clouds 17 1023 76 10000 12.96 315 18:42 19.12.2022
596 Clouds 17 1023 75 10000 12.96 360 17:36 19.12.2022
597 Clouds 17 1024 73 10000 18.78 180 13:55 19.12.2022
598 Rain 17 1025 76 10000 14.31 270 12:21 19.12.2022
599 Clouds 16 1024 76 10000 12.96 315 10:56 19.12.2022
600 Clouds 15 1025 76 10000 7.6 225 07:45 19.12.2022
601 Clouds 16 1026 72 10000 7.6 225 03:48 19.12.2022
602 Clouds 16 1026 72 10000 12.52 225 22:40 18.12.2022
603 Clouds 16 1026 74 10000 12.07 225 21:46 18.12.2022
604 Clouds 16 1026 74 10000 20.12 315 21:23 18.12.2022
605 Clouds 16 1025 76 10000 14.75 225 20:32 18.12.2022
606 Clouds 17 1025 71 10000 12.96 225 19:41 18.12.2022
607 Clouds 17 1025 74 10000 9.83 360 18:39 18.12.2022
608 Clouds 17 1022 81 10000 6.17 160 17:49 18.12.2022
609 Clouds 16 1024 75 10000 16.09 202 15:41 18.12.2022
610 Clouds 16 1025 74 10000 11.62 315 15:20 18.12.2022
611 Clouds 16 1026 70 10000 7.2 150 14:21 18.12.2022
612 Clouds 15 1026 76 10000 6.69 150 12:57 18.12.2022
613 Clouds 15 1026 76 10000 6.69 150 12:30 18.12.2022
614 Clouds 14 1026 76 10000 5.66 130 11:20 18.12.2022
615 Fog 12 1025 82 10000 4.63 120 09:20 18.12.2022
616 Clouds 13 1025 80 10000 4.63 150 08:45 18.12.2022
617 Fog 12 1025 77 2500 4.12 130 06:24 18.12.2022
618 Fog 12 1025 76 5000 3.6 140 04:20 18.12.2022
619 Fog 12 1025 75 10000 4.12 140 01:49 18.12.2022
620 Clouds 13 1025 77 10000 2.06 200 22:29 17.12.2022
621 Clouds 14 1023 82 10000 3.13 270 20:18 17.12.2022
622 Clouds 17 1022 68 10000 4.92 270 17:20 17.12.2022
623 Clouds 17 1023 67 10000 7.15 292 15:18 17.12.2022
624 Clouds 15 1022 76 10000 2.57 160 12:33 17.12.2022
625 Clouds 14 1022 73 10000 2.57 60 11:18 17.12.2022
626 Clouds 14 1021 79 10000 1.03 120 10:38 17.12.2022
627 Clouds 12 1020 79 10000 1.79 270 08:36 17.12.2022
628 Clouds 13 1019 74 10000 2.06 230 06:47 17.12.2022
629 Clouds 13 1018 78 10000 3.09 240 00:32 17.12.2022
630 Clouds 14 1017 76 10000 4.92 315 22:22 16.12.2022
631 Clouds 14 1014 73 10000 2.57 300 20:25 16.12.2022
632 Clouds 15 1012 78 10000 3.6 250 17:47 16.12.2022
633 Clouds 17 1011 67 10000 9.39 360 15:19 16.12.2022
634 Clouds 17 1011 69 10000 7.15 360 14:36 16.12.2022
635 Clouds 16 1011 69 10000 8.49 180 12:22 16.12.2022
636 Clouds 15 1010 75 10000 8.05 360 11:35 16.12.2022
637 Clouds 15 1008 74 10000 4.92 360 09:40 16.12.2022
638 Clouds 15 1004 89 10000 4.63 250 08:27 16.12.2022
639 Clouds 15 1004 89 10000 4.63 250 08:27 16.12.2022
640 Clouds 15 1004 89 10000 4.63 250 08:27 16.12.2022
641 Clouds 15 1007 77 10000 13.86 315 07:54 16.12.2022
642 Clouds 15 1006 79 10000 5.81 360 02:43 16.12.2022
643 Clouds 15 1006 82 10000 7.15 247 22:33 15.12.2022
644 Clouds 14 1006 81 10000 8.05 315 21:25 15.12.2022
645 Clouds 14 1005 78 10000 8.05 225 19:46 15.12.2022
646 Clouds 14 1005 79 10000 8.05 360 18:53 15.12.2022
647 Clouds 16 1004 72 10000 11.62 270 17:27 15.12.2022
648 Clouds 16 1004 67 10000 9.39 315 15:46 15.12.2022
649 Clouds 16 1004 68 10000 9.83 315 14:55 15.12.2022
650 Clouds 16 1006 64 10000 9.83 315 12:54 15.12.2022
651 Clouds 15 1005 72 10000 7.6 225 12:24 15.12.2022
652 Clouds 12 1000 90 10000 1.54 230 08:59 15.12.2022
653 Clouds 13 1000 84 10000 2.57 290 08:21 15.12.2022
654 Clouds 13 1000 89 10000 3.6 230 05:43 15.12.2022
655 Clouds 14 1000 85 10000 3.09 240 00:59 15.12.2022
656 Rain 15 999 86 10000 4.63 270 21:24 14.12.2022
657 Clouds 15 999 90 10000 4.63 230 20:45 14.12.2022
658 Clouds 15 999 90 10000 4.63 240 19:51 14.12.2022
659 Clouds 17 999 84 10000 6.17 220 17:41 14.12.2022
660 Clouds 17 1000 81 10000 6.17 220 16:54 14.12.2022
661 Clouds 17 1001 87 10000 7.2 230 14:58 14.12.2022
662 Clouds 16 1002 92 10000 4.63 190 13:19 14.12.2022
663 Rain 17 1003 97 10000 5.14 200 10:55 14.12.2022
664 Rain 17 1003 97 10000 5.66 210 10:23 14.12.2022
665 Clouds 16 1004 95 10000 4.63 220 08:46 14.12.2022
666 Fog 17 1007 95 10000 3.6 220 22:42 13.12.2022
667 Clouds 17 1007 93 10000 3.6 240 21:45 13.12.2022
668 Clouds 17 1007 92 10000 4.12 250 20:48 13.12.2022
669 Clouds 17 1007 92 10000 4.12 250 20:48 13.12.2022
670 Clouds 17 1006 92 10000 6.69 260 19:39 13.12.2022
671 Mist 17 1002 97 2500 9.26 250 16:42 13.12.2022
672 Mist 19 1001 97 5000 10.8 220 14:59 13.12.2022
673 Mist 19 1002 97 1500 7.72 210 13:42 13.12.2022
674 Drizzle 18 1003 97 6000 9.26 220 10:55 13.12.2022
675 Clouds 18 1003 96 8000 8.23 230 10:35 13.12.2022
676 Drizzle 18 1003 97 7000 5.66 220 08:45 13.12.2022
677 Clouds 19 1008 97 6000 6.69 220 22:50 12.12.2022
678 Rain 19 1008 95 6000 8.23 220 22:20 12.12.2022
679 Mist 19 1009 97 4500 7.72 220 20:41 12.12.2022
680 Mist 19 1008 96 3000 8.75 230 18:32 12.12.2022
681 Rain 19 1007 96 5000 10.29 230 15:46 12.12.2022
682 Drizzle 19 1008 96 3500 10.8 230 14:26 12.12.2022
683 Mist 18 1008 94 6000 10.29 220 10:19 12.12.2022
684 Clouds 18 1008 96 8000 9.26 220 09:18 12.12.2022
685 Clouds 18 1009 95 9000 8.75 210 04:53 12.12.2022
686 Rain 18 1011 96 7000 6.17 220 01:52 12.12.2022
687 Clouds 18 1010 94 9000 3.6 220 22:19 11.12.2022
688 Drizzle 18 1010 95 9000 4.12 220 20:41 11.12.2022
689 Clouds 18 1009 93 9000 4.12 250 19:41 11.12.2022
690 Clouds 18 1009 91 9000 5.14 240 18:55 11.12.2022
691 Clouds 18 1009 91 9000 5.14 240 18:55 11.12.2022
692 Clouds 18 1009 89 10000 6.69 250 17:58 11.12.2022
693 Clouds 19 1009 88 10000 6.69 250 17:29 11.12.2022
694 Clouds 19 1009 89 8000 6.17 260 16:49 11.12.2022
695 Clouds 19 1008 88 10000 6.17 260 15:46 11.12.2022
696 Clouds 19 1008 87 10000 8.23 260 13:55 11.12.2022
697 Clouds 19 1008 89 10000 7.2 270 12:43 11.12.2022
698 Clouds 18 1006 94 10000 8.23 260 11:29 11.12.2022
699 Clouds 18 1002 96 6000 10.29 240 06:25 11.12.2022
700 Drizzle 14 1008 96 3500 5.14 140 00:32 11.12.2022
701 Rain 13 1010 91 10000 3.6 130 22:53 10.12.2022
702 Rain 13 1011 89 10000 2.57 140 22:32 10.12.2022
703 Rain 14 1013 81 10000 1.54 140 21:19 10.12.2022
704 Clouds 13 1013 85 10000 1.54 80 20:24 10.12.2022
705 Rain 15 1013 71 10000 2.06 250 18:33 10.12.2022
706 Clouds 15 1014 65 10000 3.6 240 16:47 10.12.2022
707 Clouds 16 1013 64 10000 2.57 270 15:57 10.12.2022
708 Clouds 16 1013 64 10000 3.09 230 15:35 10.12.2022
709 Clouds 15 1014 66 10000 3.09 320 13:59 10.12.2022
710 Clouds 15 1014 69 10000 4.12 340 12:45 10.12.2022
711 Clouds 15 1014 69 10000 3.09 240 11:28 10.12.2022
712 Clouds 14 1013 76 10000 2.06 280 10:28 10.12.2022
713 Clouds 13 1011 83 10000 2.57 330 07:42 10.12.2022
714 Clouds 14 1010 81 10000 3.6 340 07:18 10.12.2022
715 Clouds 15 1007 90 10000 2.57 320 23:54 09.12.2022
716 Clouds 15 1006 90 10000 3.6 310 22:43 09.12.2022
717 Clouds 15 1004 91 10000 3.09 310 21:48 09.12.2022
718 Clouds 15 1004 91 10000 3.09 310 21:21 09.12.2022
719 Clouds 16 1003 87 10000 3.09 300 19:49 09.12.2022
720 Clouds 16 1001 83 10000 4.12 290 18:36 09.12.2022
721 Clouds 17 1000 79 10000 5.14 280 17:44 09.12.2022
722 Clouds 18 999 75 10000 6.17 280 16:30 09.12.2022
723 Clouds 17 999 76 10000 5.66 270 15:32 09.12.2022
724 Clouds 18 999 78 10000 5.66 270 14:23 09.12.2022
725 Clouds 16 997 94 10000 4.12 240 10:52 09.12.2022
726 Clouds 16 997 93 8000 4.63 250 10:29 09.12.2022
727 Clouds 16 996 94 10000 6.17 220 08:23 09.12.2022
728 Rain 15 997 96 10000 5.66 180 03:18 09.12.2022
729 Rain 14 999 93 10000 2.57 230 23:37 08.12.2022
730 Clouds 15 998 86 10000 4.12 210 20:56 08.12.2022
731 Clouds 15 998 88 10000 4.12 200 20:21 08.12.2022
732 Clouds 18 997 73 10000 6.17 220 16:51 08.12.2022
733 Clouds 18 998 73 10000 7.72 210 14:46 08.12.2022
734 Clouds 18 998 73 10000 7.72 220 14:21 08.12.2022
735 Clouds 17 998 89 10000 7.72 200 10:56 08.12.2022
736 Rain 16 998 93 10000 5.14 180 09:35 08.12.2022
737 Rain 16 998 94 10000 4.63 190 08:58 08.12.2022
738 Rain 15 1001 95 10000 8.23 130 22:44 07.12.2022
739 Rain 15 1001 95 10000 8.23 130 22:19 07.12.2022
740 Rain 15 1001 95 10000 8.23 130 22:19 07.12.2022
741 Clouds 15 1001 95 4500 8.75 130 21:47 07.12.2022
742 Drizzle 15 1002 96 6000 8.75 120 20:36 07.12.2022
743 Clouds 15 1004 94 2200 7.2 110 18:42 07.12.2022
744 Clouds 15 1006 94 10000 7.2 120 16:21 07.12.2022
745 Mist 14 1008 95 2500 5.14 120 14:40 07.12.2022
746 Mist 12 1011 95 2000 4.12 90 11:37 07.12.2022
747 Fog 11 1011 96 250 4.12 90 10:36 07.12.2022
748 Fog 11 1011 96 200 4.12 90 09:37 07.12.2022
749 Fog 11 1011 96 300 3.09 70 08:44 07.12.2022
750 Fog 12 1013 93 2000 2.06 70 05:28 07.12.2022
751 Fog 13 1013 93 300 2.06 70 04:35 07.12.2022
752 Clear 13 1015 93 10000 1.54 150 22:37 06.12.2022
753 Clouds 13 1015 94 10000 1.54 30 20:20 06.12.2022
754 Clouds 16 1015 87 10000 2.57 230 17:39 06.12.2022
755 Clouds 16 1015 87 10000 2.06 200 16:41 06.12.2022
756 Clouds 16 1017 75 10000 4.47 360 15:49 06.12.2022
757 Clouds 16 1018 80 10000 10.28 247 14:55 06.12.2022
758 Clouds 16 1018 80 10000 5.36 315 14:24 06.12.2022
759 Clouds 16 1018 79 10000 1.54 0 12:54 06.12.2022
760 Clouds 15 1018 82 10000 2.06 0 12:36 06.12.2022
761 Fog 11 1016 89 10000 2.68 315 07:59 06.12.2022
762 Fog 13 1013 94 10000 2.57 310 05:56 06.12.2022
763 Fog 13 1013 83 10000 2.06 270 01:25 06.12.2022
764 Clouds 14 1011 84 10000 2.06 320 22:34 05.12.2022
765 Clouds 14 1010 87 10000 2.57 10 20:55 05.12.2022
766 Clouds 15 1010 87 10000 2.57 10 20:26 05.12.2022
767 Clouds 15 1009 86 10000 2.57 20 19:45 05.12.2022
768 Clouds 16 1005 88 10000 2.57 110 17:49 05.12.2022
769 Clouds 17 1006 78 10000 1.54 70 16:47 05.12.2022
770 Clouds 16 1006 79 10000 3.09 130 15:22 05.12.2022
771 Clouds 15 1005 91 10000 4.12 70 12:59 05.12.2022
772 Clouds 15 1005 92 10000 4.12 60 12:40 05.12.2022
773 Clouds 15 1007 86 10000 4.92 135 12:19 05.12.2022
774 Clouds 14 1006 88 10000 4.92 135 10:58 05.12.2022
775 Clouds 14 1006 88 10000 4.92 135 10:58 05.12.2022
776 Clouds 14 1009 82 10000 7.6 180 00:21 05.12.2022
777 Clouds 14 1007 88 10000 5.14 110 22:58 04.12.2022
778 Clouds 14 1007 88 10000 5.14 110 22:36 04.12.2022
779 Clouds 14 1007 88 10000 5.14 110 22:18 04.12.2022
780 Clouds 14 1007 88 10000 3.09 60 20:53 04.12.2022
781 Clouds 13 1007 92 10000 3.09 60 19:39 04.12.2022
782 Clouds 14 1007 88 10000 3.09 50 19:18 04.12.2022
783 Clouds 14 1007 89 10000 3.09 20 17:24 04.12.2022
784 Clouds 14 1007 88 10000 3.6 10 16:56 04.12.2022
785 Clouds 14 1007 87 9000 3.6 10 16:36 04.12.2022
786 Clouds 14 1007 89 9000 3.6 10 16:18 04.12.2022
787 Mist 13 1008 87 3000 4.47 135 14:44 04.12.2022
788 Fog 13 1008 90 500 3.09 10 13:37 04.12.2022
789 Fog 13 1009 91 250 3.09 120 12:44 04.12.2022
790 Fog 12 1009 91 150 2.57 50 11:59 04.12.2022
791 Fog 9 1007 94 500 2.06 90 09:33 04.12.2022
792 Clouds 9 1007 91 9000 1.03 120 07:32 04.12.2022
793 Fog 11 1007 84 2000 2.06 260 02:22 04.12.2022
794 Clouds 11 1006 85 8000 0.51 0 23:43 03.12.2022
795 Clouds 11 1006 86 10000 1.03 100 22:23 03.12.2022
796 Clouds 12 1006 85 10000 1.03 80 21:28 03.12.2022
797 Mist 12 1006 85 10000 1.03 0 20:34 03.12.2022
798 Clouds 13 1006 84 7000 1.03 80 18:40 03.12.2022
799 Clouds 13 1006 85 8000 1.03 0 17:22 03.12.2022
800 Clouds 12 1006 78 10000 4.47 180 14:32 03.12.2022
801 Clouds 11 1007 81 10000 5.14 30 12:55 03.12.2022
802 Clouds 10 1008 82 10000 5.14 30 12:24 03.12.2022
803 Clouds 9 1008 84 10000 7.15 135 10:26 03.12.2022
804 Clouds 7 1007 86 10000 4.63 30 07:58 03.12.2022
805 Clouds 9 1008 84 10000 3.13 135 01:31 03.12.2022
806 Clear 11 1009 85 10000 2.06 60 23:25 02.12.2022
807 Clear 12 1008 79 10000 2.57 50 20:59 02.12.2022
808 Clear 13 1009 74 10000 2.06 320 19:34 02.12.2022
809 Clear 15 1009 65 10000 7.15 135 15:59 02.12.2022
810 Clear 14 1010 65 10000 4.47 135 14:45 02.12.2022
811 Clear 14 1010 66 10000 4.02 135 14:26 02.12.2022
812 Clear 12 1011 72 10000 4.63 50 13:36 02.12.2022
813 Clear 10 1012 75 10000 5.14 30 11:44 02.12.2022
814 Clear 9 1012 72 10000 3.6 40 09:46 02.12.2022
815 Clear 9 1012 72 10000 3.6 40 09:46 02.12.2022
816 Clear 8 1012 78 10000 3.09 40 09:46 02.12.2022
817 Clear 9 1012 72 10000 3.6 40 09:46 02.12.2022
818 Clear 8 1012 78 10000 3.09 40 09:46 02.12.2022
819 Clear 8 1012 73 10000 5.36 135 07:25 02.12.2022
820 Clear 9 1012 74 10000 3.13 135 05:58 02.12.2022
821 Clear 12 1014 79 10000 3.6 30 22:30 01.12.2022
822 Clear 12 1013 74 10000 3.6 340 21:39 01.12.2022
823 Clear 13 1013 73 10000 3.09 340 20:30 01.12.2022
824 Clear 15 1013 67 10000 4.02 135 18:57 01.12.2022
825 Clear 16 1012 63 10000 5.66 60 16:25 01.12.2022
826 Clouds 15 1014 72 10000 7.72 20 13:41 01.12.2022
827 Clouds 11 1014 89 10000 5.81 360 10:43 01.12.2022
828 Clouds 11 1014 92 10000 5.81 360 09:54 01.12.2022
829 Clouds 10 1014 93 10000 5.81 135 09:36 01.12.2022
830 Clouds 10 1012 94 8000 11.62 135 05:45 01.12.2022
831 Mist 13 1012 96 1500 4.92 135 22:41 30.11.2022
832 Mist 13 1012 96 2000 3.13 135 21:20 30.11.2022
833 Fog 13 1011 96 900 3.6 50 20:55 30.11.2022
834 Clouds 14 1011 96 7000 4.12 50 20:23 30.11.2022
835 Rain 15 1011 95 2000 4.63 330 18:36 30.11.2022
836 Drizzle 15 1011 94 3500 9.39 225 17:39 30.11.2022
837 Mist 15 1012 94 2000 6.17 170 16:20 30.11.2022
838 Mist 14 1014 91 2500 9.83 225 14:45 30.11.2022
839 Mist 14 1015 91 3000 9.83 270 14:24 30.11.2022
840 Clouds 13 1013 78 10000 3.6 190 11:57 30.11.2022
841 Clouds 10 1017 88 10000 1.03 0 09:21 30.11.2022
842 Clouds 10 1017 88 10000 1.03 0 09:21 30.11.2022
843 Clouds 10 1012 85 10000 2.57 110 07:59 30.11.2022
844 Clouds 12 1010 76 10000 0.51 0 04:57 30.11.2022
845 Clouds 12 1021 74 10000 2.57 310 23:26 29.11.2022
846 Clear 12 1016 72 10000 3.09 310 21:48 29.11.2022
847 Clear 13 1017 71 10000 2.57 320 20:50 29.11.2022
848 Clear 13 1021 72 10000 3.09 330 19:48 29.11.2022
849 Clear 16 1021 63 10000 4.63 350 17:53 29.11.2022
850 Clear 16 1021 61 10000 5.14 350 16:31 29.11.2022
851 Clear 16 1022 61 10000 4.63 360 15:22 29.11.2022
852 Clear 16 1023 63 10000 4.12 20 13:50 29.11.2022
853 Clear 15 1020 61 10000 3.6 30 12:36 29.11.2022
854 Clear 13 1021 73 10000 2.06 30 11:31 29.11.2022
855 Clear 12 1021 78 10000 2.57 10 10:26 29.11.2022
856 Clear 10 1021 83 10000 3.13 135 09:26 29.11.2022
857 Clear 10 1019 81 10000 2.57 320 06:46 29.11.2022
858 Clear 11 1021 81 10000 1.54 20 00:27 29.11.2022
859 Clear 12 1027 80 10000 2.57 320 23:23 28.11.2022
860 Clear 13 1022 74 10000 3.13 135 21:56 28.11.2022
861 Clear 13 1022 74 10000 3.6 330 21:38 28.11.2022
862 Clear 13 1027 74 10000 3.09 350 20:24 28.11.2022
863 Clouds 14 1026 71 10000 3.6 340 19:24 28.11.2022
864 Clouds 15 1026 68 10000 4.12 360 18:28 28.11.2022
865 Clouds 16 1022 64 10000 6.17 340 17:22 28.11.2022
866 Clouds 16 1027 69 10000 5.14 360 14:57 28.11.2022
867 Clouds 16 1028 67 10000 5.66 350 13:54 28.11.2022
868 Clouds 16 1028 69 10000 4.12 350 12:59 28.11.2022
869 Clouds 15 1029 67 10000 2.57 330 11:32 28.11.2022
870 Clouds 12 1023 76 10000 2.57 300 08:20 28.11.2022
871 Clouds 13 1021 74 10000 2.57 310 04:56 28.11.2022
872 Clouds 13 1021 74 10000 2.57 300 04:37 28.11.2022
873 Clouds 12 1021 78 10000 2.06 290 03:21 28.11.2022
874 Clear 14 1026 82 10000 5.66 360 00:29 28.11.2022
875 Clouds 15 1025 91 10000 5.66 340 21:55 27.11.2022
876 Clouds 15 1024 93 10000 6.17 340 20:46 27.11.2022
877 Clouds 16 1019 91 9000 4.12 270 18:37 27.11.2022
878 Clouds 17 1019 79 10000 4.92 360 16:22 27.11.2022
879 Clouds 19 1018 70 10000 5.81 225 13:47 27.11.2022
880 Clouds 15 1021 75 10000 1.54 60 12:24 27.11.2022
881 Clouds 10 1025 94 10000 1.03 0 09:31 27.11.2022
882 Clouds 10 1025 91 10000 1.54 40 07:20 27.11.2022
883 Clear 13 1026 82 10000 3.09 40 23:23 26.11.2022
884 Clear 14 1022 76 10000 2.57 10 21:27 26.11.2022
885 Clear 15 1022 77 10000 2.06 360 19:57 26.11.2022
886 Clear 16 1021 70 10000 2.06 330 18:41 26.11.2022
887 Clear 17 1022 68 10000 3.13 135 16:40 26.11.2022
888 Clear 17 1023 67 10000 4.02 135 15:22 26.11.2022
889 Clear 13 1024 73 10000 4.63 40 12:51 26.11.2022
890 Clear 13 1024 73 10000 4.63 40 12:51 26.11.2022
891 Clear 11 1027 78 10000 4.63 40 10:53 26.11.2022
892 Clear 10 1027 80 10000 4.02 135 09:43 26.11.2022
893 Clear 9 1026 82 10000 4.02 135 08:21 26.11.2022
894 Clear 13 1028 82 10000 2.57 360 22:43 25.11.2022
895 Clear 13 1028 82 10000 2.57 30 21:35 25.11.2022
896 Clear 14 1026 77 10000 1.54 330 20:33 25.11.2022
897 Clouds 18 1025 58 10000 6.71 135 16:59 25.11.2022
898 Clouds 18 1025 60 10000 13.86 180 15:40 25.11.2022
899 Clouds 14 1027 81 10000 3.09 320 10:29 25.11.2022
900 Clouds 12 1024 84 10000 2.57 320 08:53 25.11.2022
901 Clear 12 1025 86 10000 2.57 320 08:33 25.11.2022
902 Clear 13 1022 83 10000 2.06 340 06:42 25.11.2022
903 Clouds 15 1021 87 10000 2.57 300 01:25 25.11.2022
904 Clear 16 1019 84 10000 4.92 135 23:22 24.11.2022
905 Clouds 16 1019 86 10000 8.05 360 22:29 24.11.2022
906 Clouds 16 1019 87 10000 3.09 330 21:39 24.11.2022
907 Clouds 17 1018 87 10000 4.92 360 19:48 24.11.2022
908 Clouds 18 1016 78 10000 3.09 300 17:47 24.11.2022
909 Clouds 18 1016 80 10000 3.09 290 17:23 24.11.2022
910 Mist 18 1016 85 10000 3.6 250 16:39 24.11.2022
911 Clouds 18 1016 91 9000 12.07 315 14:23 24.11.2022
912 Clouds 19 1017 84 10000 18.78 315 12:40 24.11.2022
913 Clouds 19 1017 84 10000 14.31 180 11:37 24.11.2022
914 Clouds 18 1016 89 10000 12.52 225 08:47 24.11.2022
915 Drizzle 17 1016 92 10000 8.05 247 04:46 24.11.2022
916 Clouds 17 1018 91 10000 4.02 270 00:40 24.11.2022
917 Drizzle 17 1018 91 8000 4.92 270 23:32 23.11.2022
918 Clouds 17 1018 89 10000 2.68 270 21:48 23.11.2022
919 Clouds 17 1018 90 10000 3.13 315 20:51 23.11.2022
920 Clouds 17 1018 86 10000 4.02 270 19:34 23.11.2022
921 Clouds 18 1017 85 10000 2.57 250 18:55 23.11.2022
922 Clouds 19 1017 84 10000 4.12 230 17:29 23.11.2022
923 Clouds 20 1017 76 10000 4.92 337 14:19 23.11.2022
924 Clouds 18 1018 85 10000 3.6 260 13:24 23.11.2022
925 Mist 18 1018 85 4000 6.17 230 12:23 23.11.2022
926 Mist 18 1018 84 3000 6.17 240 11:46 23.11.2022
927 Clouds 18 1017 81 10000 6.71 315 10:48 23.11.2022
928 Clouds 18 1017 80 10000 12.96 337 10:18 23.11.2022
929 Clouds 18 1017 81 10000 6.71 360 09:28 23.11.2022
930 Clouds 18 1017 82 10000 7.15 315 08:58 23.11.2022
931 Clouds 18 1017 82 10000 6.71 270 08:36 23.11.2022
932 Clouds 18 1016 81 10000 8.05 225 05:19 23.11.2022
933 Clouds 18 1017 83 10000 9.83 247 01:42 23.11.2022
934 Clouds 18 1017 83 9000 8.49 315 22:37 22.11.2022
935 Drizzle 18 1017 83 9000 5.36 270 21:51 22.11.2022
936 Clouds 18 1019 87 10000 5.14 240 21:31 22.11.2022
937 Clouds 18 1017 83 10000 9.39 360 20:44 22.11.2022
938 Clouds 18 1017 85 10000 4.92 315 19:47 22.11.2022
939 Clouds 19 1017 84 9000 7.6 315 17:54 22.11.2022
940 Clouds 19 1017 84 10000 10.73 292 16:48 22.11.2022
941 Clouds 18 1018 86 4500 7.72 240 14:43 22.11.2022
942 Clouds 18 1019 80 10000 6.17 240 12:56 22.11.2022
943 Clouds 15 1020 84 10000 2.57 230 09:42 22.11.2022
944 Clouds 15 1019 82 10000 2.06 250 08:58 22.11.2022
945 Clouds 14 1019 81 10000 3.6 270 06:45 22.11.2022
946 Clouds 14 1021 73 10000 2.57 270 01:35 22.11.2022
947 Clouds 15 1021 71 10000 3.6 320 23:23 21.11.2022
948 Clouds 15 1021 76 10000 4.12 320 22:26 21.11.2022
949 Clouds 15 1021 77 10000 6.17 340 21:33 21.11.2022
950 Clouds 15 1020 81 10000 6.17 350 20:35 21.11.2022
951 Clouds 16 1020 80 10000 6.69 320 19:40 21.11.2022
952 Clouds 17 1019 77 10000 4.63 290 18:52 21.11.2022
953 Clouds 18 1019 77 10000 6.17 310 17:45 21.11.2022
954 Clouds 19 1019 75 10000 6.69 310 16:44 21.11.2022
955 Clouds 19 1019 74 10000 9.39 315 16:23 21.11.2022
956 Clouds 19 1019 77 10000 8.23 310 15:24 21.11.2022
957 Clouds 18 1018 85 10000 7.6 360 13:55 21.11.2022
958 Clouds 18 1020 87 10000 6.17 300 13:34 21.11.2022
959 Drizzle 17 1021 90 3500 8.05 270 10:20 21.11.2022
960 Clouds 17 1019 84 10000 5.81 180 08:20 21.11.2022
961 Clouds 17 1022 93 10000 4.63 250 02:18 21.11.2022
962 Clouds 17 1025 92 6000 3.6 220 22:19 20.11.2022
963 Drizzle 17 1026 90 10000 3.6 230 20:55 20.11.2022
964 Clouds 17 1026 90 10000 4.12 230 20:22 20.11.2022
965 Clouds 18 1026 80 10000 3.6 230 17:49 20.11.2022
966 Clouds 18 1025 74 10000 6.71 360 15:52 20.11.2022
967 Clouds 19 1025 71 10000 7.6 315 15:25 20.11.2022
968 Clouds 19 1025 69 10000 6.71 315 14:25 20.11.2022
969 Clouds 19 1027 73 10000 3.6 290 13:32 20.11.2022
970 Clouds 18 1026 74 10000 4.92 315 12:31 20.11.2022
971 Clouds 16 1026 83 10000 2.06 260 10:59 20.11.2022
972 Clouds 14 1025 86 10000 1.54 230 09:55 20.11.2022
973 Clouds 14 1025 87 10000 1.54 260 08:59 20.11.2022
974 Clouds 13 1025 89 10000 2.68 315 08:33 20.11.2022
975 Clouds 14 1024 88 10000 2.06 270 07:28 20.11.2022
976 Clouds 14 1024 85 10000 2.57 280 01:50 20.11.2022
977 Clouds 14 1025 84 10000 2.57 290 01:18 20.11.2022
978 Clouds 15 1026 85 10000 2.57 260 00:40 20.11.2022
979 Clouds 15 1026 85 10000 2.57 260 00:21 20.11.2022
980 Clouds 14 1025 84 10000 2.06 240 23:47 19.11.2022
981 Clouds 15 1025 83 10000 1.54 300 23:21 19.11.2022
982 Clouds 15 1024 81 10000 4.92 315 22:28 19.11.2022
983 Clouds 14 1024 79 10000 3.13 360 21:31 19.11.2022
984 Clouds 15 1024 77 10000 2.68 360 20:42 19.11.2022
985 Clouds 15 1024 75 10000 2.68 360 20:23 19.11.2022
986 Clouds 16 1024 73 10000 4.12 310 18:55 19.11.2022
987 Clouds 16 1023 67 10000 4.92 360 17:39 19.11.2022
988 Clouds 16 1023 69 10000 6.17 330 17:19 19.11.2022
989 Clouds 17 1023 65 10000 8.49 292 15:36 19.11.2022
990 Clouds 16 1024 69 10000 6.71 315 13:46 19.11.2022
991 Clouds 16 1024 71 10000 8.05 315 11:57 19.11.2022
992 Clouds 15 1024 78 10000 3.6 310 10:20 19.11.2022
993 Clouds 12 1023 82 10000 2.06 280 08:38 19.11.2022
994 Clouds 13 1022 75 10000 4.92 360 04:50 19.11.2022
995 Clouds 13 1022 74 10000 2.57 290 01:52 19.11.2022
996 Clouds 13 1022 71 10000 2.57 320 23:40 18.11.2022
997 Clouds 13 1023 75 10000 2.06 300 22:34 18.11.2022
998 Clouds 13 1022 76 10000 4.47 180 21:37 18.11.2022
999 Clouds 14 1022 75 10000 4.63 340 20:59 18.11.2022
1000 Clouds 14 1021 78 10000 5.81 360 20:26 18.11.2022
1001 Clouds 14 1021 76 10000 6.69 340 19:46 18.11.2022
1002 Clouds 15 1020 71 10000 7.6 135 18:28 18.11.2022
1003 Clouds 17 1019 62 10000 7.2 330 16:42 18.11.2022
1004 Clouds 17 1019 57 10000 8.49 135 13:40 18.11.2022
1005 Clouds 16 1019 63 10000 16.99 135 11:24 18.11.2022
1006 Clouds 14 1016 76 10000 7.2 330 08:29 18.11.2022
1007 Clouds 13 1015 82 10000 4.12 330 07:40 18.11.2022
1008 Clouds 15 1016 86 10000 2.57 280 05:18 18.11.2022
1009 Clouds 15 1014 83 10000 4.63 260 00:42 18.11.2022
1010 Clouds 16 1014 85 10000 2.57 240 21:26 17.11.2022
1011 Clouds 16 1014 83 10000 3.09 290 20:29 17.11.2022
1012 Clouds 16 1013 81 10000 4.92 360 19:50 17.11.2022
1013 Clouds 17 1013 78 10000 5.36 315 18:35 17.11.2022
1014 Clouds 19 1013 73 10000 4.63 300 17:32 17.11.2022
1015 Clouds 19 1012 73 10000 4.12 300 16:48 17.11.2022
1016 Clouds 17 1012 88 7000 8.49 360 13:33 17.11.2022
1017 Drizzle 18 1012 90 3000 10.73 360 11:21 17.11.2022
1018 Clouds 18 1012 91 9000 7.15 270 08:20 17.11.2022
1019 Clouds 18 1013 92 10000 6.17 230 02:54 17.11.2022
1020 Clouds 18 1012 84 10000 7.6 360 00:21 17.11.2022
1021 Clouds 18 1012 84 10000 9.39 270 22:29 16.11.2022
1022 Drizzle 18 1012 87 10000 12.07 315 20:36 16.11.2022
1023 Clouds 18 1012 90 10000 6.71 360 19:33 16.11.2022
1024 Clouds 18 1013 93 8000 5.66 250 18:40 16.11.2022
1025 Drizzle 18 1012 85 10000 10.28 360 17:19 16.11.2022
1026 Clouds 19 1012 79 10000 6.71 135 13:39 16.11.2022
1027 Clouds 17 1014 93 10000 3.09 240 09:34 16.11.2022
1028 Clouds 16 1013 83 10000 4.92 315 02:32 16.11.2022
1029 Clouds 16 1013 83 10000 5.81 337 01:25 16.11.2022
1030 Clouds 16 1013 81 10000 2.57 250 22:22 15.11.2022
1031 Clouds 17 1013 86 10000 3.13 315 20:32 15.11.2022
1032 Clouds 17 1013 86 10000 3.09 310 19:33 15.11.2022
1033 Clouds 17 1013 96 8000 4.12 300 17:39 15.11.2022
1034 Rain 17 1012 92 3500 8.05 135 16:53 15.11.2022
1035 Mist 18 1011 91 1700 14.75 270 16:18 15.11.2022
1036 Mist 19 1013 87 2000 16.99 225 14:42 15.11.2022
1037 Clouds 18 1014 87 7000 15.2 225 12:59 15.11.2022
1038 Mist 19 1016 91 2000 8.23 220 11:42 15.11.2022
1039 Clouds 19 1015 83 10000 13.86 247 10:41 15.11.2022
1040 Clouds 17 1014 82 10000 14.31 225 06:57 15.11.2022
1041 Clouds 18 1018 91 10000 3.6 220 00:34 15.11.2022
1042 Clouds 17 1017 88 10000 5.36 225 22:54 14.11.2022
1043 Clouds 17 1017 90 10000 9.39 270 21:19 14.11.2022
1044 Clouds 17 1017 90 10000 7.15 315 20:38 14.11.2022
1045 Rain 17 1018 88 10000 4.12 220 18:29 14.11.2022
1046 Clouds 19 1019 81 10000 4.63 230 15:45 14.11.2022
1047 Clouds 18 1019 82 10000 2.68 315 12:54 14.11.2022
1048 Clouds 17 1019 82 10000 2.06 230 11:41 14.11.2022
1049 Clouds 15 1018 93 10000 1.79 360 09:25 14.11.2022
1050 Clouds 16 1017 90 10000 2.06 320 07:53 14.11.2022
1051 Clouds 16 1019 93 10000 1.54 330 06:19 14.11.2022
1052 Clouds 17 1017 89 10000 3.09 240 00:18 14.11.2022
1053 Clouds 17 1017 89 10000 3.09 240 00:18 14.11.2022
1054 Rain 18 1017 89 10000 5.81 270 21:53 13.11.2022
1055 Rain 18 1017 89 10000 8.05 315 20:58 13.11.2022
1056 Clouds 18 1017 88 10000 10.28 315 19:27 13.11.2022
1057 Clouds 19 1016 85 10000 9.39 225 17:56 13.11.2022
1058 Clouds 20 1018 88 10000 5.66 200 17:21 13.11.2022
1059 Clouds 19 1017 83 10000 12.07 180 14:58 13.11.2022
1060 Clouds 18 1018 83 10000 12.52 292 13:58 13.11.2022
1061 Clouds 18 1019 84 8000 4.63 150 12:37 13.11.2022
1062 Fog 16 1019 97 200 3.09 140 10:58 13.11.2022
1063 Fog 14 1018 95 300 2.06 100 07:58 13.11.2022
1064 Clouds 14 1017 85 10000 1.79 270 01:34 13.11.2022
1065 Clear 16 1017 85 10000 1.54 270 22:29 12.11.2022
1066 Clear 16 1017 83 10000 3.13 270 21:24 12.11.2022
1067 Clear 17 1016 80 10000 3.13 315 20:18 12.11.2022
1068 Clear 21 1017 63 10000 2.06 350 17:57 12.11.2022
1069 Clouds 21 1017 61 10000 2.57 360 16:25 12.11.2022
1070 Clear 20 1017 61 10000 2.57 320 15:22 12.11.2022
1071 Clear 17 1018 70 10000 5.36 135 12:28 12.11.2022
1072 Clear 13 1017 82 10000 4.47 157 09:20 12.11.2022
1073 Clear 14 1016 80 10000 4.92 135 05:55 12.11.2022
1074 Clear 17 1017 72 10000 4.47 135 22:31 11.11.2022
1075 Clear 18 1017 73 10000 4.47 135 20:51 11.11.2022
1076 Clear 18 1017 73 10000 3.6 40 19:44 11.11.2022
1077 Clouds 19 1017 67 10000 3.6 40 19:21 11.11.2022
1078 Clouds 20 1018 63 10000 2.57 50 17:56 11.11.2022
1079 Clouds 21 1017 60 10000 4.02 202 16:28 11.11.2022
1080 Clear 19 1017 64 10000 5.81 157 14:21 11.11.2022
1081 Clear 18 1018 67 10000 7.6 360 13:29 11.11.2022
1082 Clear 15 1019 68 10000 5.14 70 10:18 11.11.2022
1083 Clear 13 1018 79 10000 5.14 20 08:28 11.11.2022
1084 Clear 14 1018 82 10000 6.71 135 06:26 11.11.2022
1085 Clear 16 1020 81 10000 4.92 135 23:58 10.11.2022
1086 Clear 17 1020 78 10000 4.12 40 22:41 10.11.2022
1087 Clear 17 1020 79 10000 4.47 135 21:35 10.11.2022
1088 Clear 18 1022 79 10000 4.12 20 20:59 10.11.2022
1089 Clear 18 1022 79 10000 4.12 20 20:23 10.11.2022
1090 Clear 18 1021 78 10000 3.09 10 19:46 10.11.2022
1091 Clear 19 1020 70 10000 3.13 135 18:44 10.11.2022
1092 Clouds 21 1022 64 10000 3.6 350 16:26 10.11.2022
1093 Clouds 20 1022 67 10000 7.15 135 14:43 10.11.2022
1094 Fog 18 1023 78 10000 4.92 135 13:18 10.11.2022
1095 Fog 13 1023 96 200 2.06 40 09:19 10.11.2022
1096 Fog 13 1021 91 300 1.79 135 06:40 10.11.2022
1097 Clear 15 1021 87 10000 1.03 0 00:56 10.11.2022
1098 Clear 16 1021 87 10000 3.09 320 22:47 09.11.2022
1099 Clouds 17 1020 84 10000 2.68 360 20:58 09.11.2022
1100 Clouds 17 1020 85 10000 2.68 360 20:39 09.11.2022
1101 Clouds 17 1020 83 10000 2.57 310 19:50 09.11.2022
1102 Clouds 17 1020 82 10000 2.24 315 19:25 09.11.2022
1103 Clouds 20 1021 73 10000 3.6 320 17:39 09.11.2022
1104 Clouds 20 1021 73 10000 3.6 320 17:39 09.11.2022
1105 Clouds 19 1021 74 10000 2.06 80 14:56 09.11.2022
1106 Clouds 20 1020 70 10000 3.13 360 14:26 09.11.2022
1107 Clouds 19 1021 74 10000 2.06 250 13:34 09.11.2022
1108 Clouds 20 1020 73 10000 4.02 315 12:52 09.11.2022
1109 Clouds 15 1018 90 10000 2.06 300 09:29 09.11.2022
1110 Fog 15 1016 88 8000 1.54 270 07:47 09.11.2022
1111 Clouds 16 1016 87 10000 1.54 140 04:35 09.11.2022
1112 Rain 17 1015 90 10000 4.47 270 22:35 08.11.2022
1113 Rain 17 1015 87 10000 2.24 270 21:37 08.11.2022
1114 Clouds 17 1014 88 10000 4.02 360 20:47 08.11.2022
1115 Clouds 17 1014 87 10000 3.13 337 20:18 08.11.2022
1116 Clouds 18 1014 82 10000 4.92 315 19:24 08.11.2022
1117 Clouds 19 1013 82 10000 4.63 260 17:37 08.11.2022
1118 Clouds 18 1013 90 1200 18.78 315 15:32 08.11.2022
1119 Clouds 18 1013 91 8000 15.2 315 14:31 08.11.2022
1120 Clouds 18 1013 91 8000 15.2 315 14:31 08.11.2022
1121 Clouds 18 1013 91 8000 15.2 315 14:31 08.11.2022
1122 Rain 19 1016 92 10000 7.2 210 13:28 08.11.2022
1123 Clouds 19 1014 82 10000 12.07 270 11:21 08.11.2022
1124 Clouds 17 1013 86 10000 10.28 270 07:43 08.11.2022
1125 Clouds 17 1013 85 10000 8.49 360 05:27 08.11.2022
1126 Clouds 19 1016 94 10000 5.66 200 22:59 07.11.2022
1127 Clouds 18 1014 90 10000 12.52 270 21:52 07.11.2022
1128 Mist 18 1015 92 4000 11.62 225 20:54 07.11.2022
1129 Mist 18 1015 87 5000 9.83 270 19:42 07.11.2022
1130 Clouds 20 1017 80 10000 5.14 170 17:43 07.11.2022
1131 Clouds 21 1015 72 10000 10.73 270 15:40 07.11.2022
1132 Clouds 20 1016 77 10000 8.05 315 14:57 07.11.2022
1133 Clouds 20 1016 77 10000 8.05 315 14:57 07.11.2022
1134 Clouds 20 1017 77 10000 8.05 315 13:45 07.11.2022
1135 Clouds 18 1018 82 10000 4.92 270 12:32 07.11.2022
1136 Mist 15 1018 86 3000 2.68 135 10:46 07.11.2022
1137 Fog 15 1017 86 2000 4.02 135 09:18 07.11.2022
1138 Mist 15 1017 85 4000 2.06 40 06:55 07.11.2022
1139 Clouds 16 1019 81 10000 1.34 135 02:20 07.11.2022
1140 Clouds 16 1020 85 10000 2.57 320 23:49 06.11.2022
1141 Clouds 17 1019 84 10000 2.06 250 21:43 06.11.2022
1142 Clouds 17 1021 91 10000 2.06 250 21:18 06.11.2022
1143 Clouds 18 1021 92 10000 2.57 240 19:58 06.11.2022
1144 Clouds 18 1019 87 10000 2.57 240 19:28 06.11.2022
1145 Clouds 19 1019 84 10000 3.13 225 18:20 06.11.2022
1146 Clouds 19 1019 82 10000 4.47 360 17:45 06.11.2022
1147 Clouds 19 1019 82 10000 5.81 360 17:19 06.11.2022
1148 Clouds 20 1018 75 10000 3.13 360 16:19 06.11.2022
1149 Clouds 20 1019 76 10000 6.71 270 15:26 06.11.2022
1150 Clouds 18 1022 80 10000 2.57 220 12:47 06.11.2022
1151 Clouds 16 1020 83 10000 1.79 315 11:40 06.11.2022
1152 Clouds 15 1021 91 10000 2.57 120 10:33 06.11.2022
1153 Clear 13 1020 95 10000 1.54 140 07:44 06.11.2022
1154 Clear 14 1020 80 10000 4.12 310 23:25 05.11.2022
1155 Clear 14 1020 80 10000 4.63 310 22:29 05.11.2022
1156 Clear 18 1020 58 10000 2.06 240 18:42 05.11.2022
1157 Clear 19 1020 52 10000 2.57 210 16:56 05.11.2022
1158 Clear 18 1021 62 10000 2.57 20 14:50 05.11.2022
1159 Clear 19 1021 59 10000 3.6 10 13:40 05.11.2022
1160 Clear 14 1022 70 10000 2.68 180 11:52 05.11.2022
1161 Clear 11 1023 82 10000 4.12 20 08:59 05.11.2022
1162 Clouds 10 1021 85 10000 1.54 110 07:23 05.11.2022
1163 Clouds 9 1021 85 10000 2.06 30 06:54 05.11.2022
1164 Clear 12 1021 78 10000 2.06 330 00:45 05.11.2022
1165 Clear 13 1021 73 10000 4.12 310 23:29 04.11.2022
1166 Clear 14 1022 71 10000 5.14 360 21:36 04.11.2022
1167 Clear 15 1021 68 10000 5.66 360 19:39 04.11.2022
1168 Clear 19 1022 54 10000 4.63 40 17:44 04.11.2022
1169 Clear 19 1023 51 10000 5.66 340 14:38 04.11.2022
1170 Clear 18 1022 50 10000 7.15 135 13:19 04.11.2022
1171 Clear 16 1024 59 10000 4.12 350 11:58 04.11.2022
1172 Clear 13 1023 75 10000 4.63 30 09:30 04.11.2022
1173 Clear 13 1023 81 10000 3.09 20 08:20 04.11.2022
1174 Clear 14 1022 83 10000 5.14 30 06:40 04.11.2022
1175 Clouds 18 1019 87 10000 5.36 135 00:56 04.11.2022
1176 Mist 19 1019 88 10000 5.81 225 21:42 03.11.2022
1177 Mist 20 1020 96 10000 4.12 240 20:46 03.11.2022
1178 Drizzle 20 1019 89 10000 4.63 250 19:41 03.11.2022
1179 Drizzle 20 1019 88 10000 4.12 240 18:27 03.11.2022
1180 Drizzle 20 1018 85 10000 5.36 360 17:37 03.11.2022
1181 Drizzle 20 1018 84 4000 8.05 270 15:24 03.11.2022
1182 Mist 18 1020 88 3000 7.15 225 13:33 03.11.2022
1183 Drizzle 18 1020 86 2500 12.96 315 12:35 03.11.2022
1184 Mist 18 1022 95 2500 4.12 220 11:36 03.11.2022
1185 Clouds 16 1019 84 10000 2.57 170 07:48 03.11.2022
1186 Clear 15 1021 76 10000 2.06 280 22:29 02.11.2022
1187 Clear 15 1020 75 10000 2.24 360 20:56 02.11.2022
1188 Clear 16 1020 71 10000 1.54 310 20:24 02.11.2022
1189 Clear 17 1021 66 10000 3.09 340 18:42 02.11.2022
1190 Clear 20 1022 62 10000 2.06 250 16:28 02.11.2022
1191 Clear 19 1022 68 10000 3.09 200 15:30 02.11.2022
1192 Clear 18 1022 67 10000 2.06 0 12:58 02.11.2022
1193 Clear 17 1022 67 10000 3.09 40 12:23 02.11.2022
1194 Clear 14 1024 76 10000 4.12 10 10:23 02.11.2022
1195 Clear 13 1022 74 10000 4.63 10 08:38 02.11.2022
1196 Clear 13 1025 81 10000 2.06 320 02:40 02.11.2022
1197 Clear 15 1025 74 10000 3.6 340 22:21 01.11.2022
1198 Clear 15 1025 73 10000 4.12 350 21:55 01.11.2022
1199 Clouds 15 1025 70 10000 4.63 360 20:55 01.11.2022
1200 Clouds 16 1025 71 10000 2.06 10 20:23 01.11.2022
1201 Clouds 16 1025 65 10000 4.12 360 19:41 01.11.2022
1202 Clouds 17 1023 59 10000 8.05 360 18:26 01.11.2022
1203 Clouds 19 1023 55 10000 7.6 315 16:48 01.11.2022
1204 Clouds 19 1024 58 10000 6.69 360 14:45 01.11.2022
1205 Clouds 19 1024 59 10000 11.62 135 12:57 01.11.2022
1206 Clouds 19 1025 60 10000 5.66 10 12:25 01.11.2022
1207 Clouds 18 1024 63 10000 4.47 135 11:20 01.11.2022
1208 Clouds 15 1023 76 10000 2.57 310 09:24 01.11.2022
1209 Clouds 15 1022 78 10000 2.57 30 07:53 01.11.2022
1210 Clouds 14 1022 78 10000 2.57 30 07:28 01.11.2022
1211 Clouds 15 1021 76 10000 3.09 10 06:46 01.11.2022
1212 Clouds 16 1020 77 10000 4.47 135 05:23 01.11.2022
1213 Drizzle 18 1020 81 10000 2.57 10 22:51 31.10.2022
1214 Clouds 18 1019 80 10000 4.92 360 21:34 31.10.2022
1215 Clouds 18 1018 83 10000 5.36 360 19:58 31.10.2022
1216 Clouds 19 1019 86 10000 5.14 350 18:44 31.10.2022
1217 Rain 20 1016 80 10000 5.14 250 16:45 31.10.2022
1218 Clouds 21 1017 81 10000 4.63 280 15:35 31.10.2022
1219 Clouds 21 1015 83 10000 4.02 247 12:39 31.10.2022
1220 Clouds 20 1013 90 7000 22.8 270 09:46 31.10.2022
1221 Rain 19 1012 84 10000 11.62 292 07:41 31.10.2022
1222 Rain 18 1013 76 10000 2.24 270 02:49 31.10.2022
1223 Clouds 18 1013 77 10000 2.68 360 01:49 31.10.2022
1224 Clear 19 1014 78 10000 1.54 100 22:25 30.10.2022
1225 Clear 19 1015 74 10000 0 0 20:44 30.10.2022
1226 Clear 19 1015 76 10000 1.79 180 19:53 30.10.2022
1227 Clouds 22 1018 65 10000 2.57 220 16:42 30.10.2022
1228 Clouds 22 1017 62 10000 3.09 330 14:57 30.10.2022
1229 Clouds 21 1018 67 10000 3.13 135 13:51 30.10.2022
1230 Clouds 20 1018 75 10000 4.47 180 12:30 30.10.2022
1231 Clouds 19 1018 84 10000 4.02 180 10:49 30.10.2022
1232 Clouds 18 1018 83 10000 4.02 135 10:49 30.10.2022
1233 Clouds 16 1018 88 10000 2.57 30 09:36 30.10.2022
1234 Clouds 16 1017 88 10000 2.57 20 08:18 30.10.2022
1235 Rain 18 1017 85 10000 1.34 360 00:30 30.10.2022
1236 Clouds 18 1017 82 10000 1.54 290 23:48 29.10.2022
1237 Rain 19 1017 84 10000 1.54 270 22:52 29.10.2022
1238 Clouds 19 1017 80 10000 3.09 260 20:52 29.10.2022
1239 Clouds 21 1016 76 10000 4.92 270 17:24 29.10.2022
1240 Clouds 20 1017 91 10000 1.54 0 15:51 29.10.2022
1241 Clouds 20 1016 82 10000 2.24 315 15:24 29.10.2022
1242 Clouds 19 1016 81 10000 2.68 270 14:43 29.10.2022
1243 Thunderstorm 20 1018 95 7000 6.17 220 12:34 29.10.2022
1244 Clouds 20 1015 86 10000 14.75 315 10:36 29.10.2022
1245 Clouds 20 1014 82 10000 19.67 360 07:33 29.10.2022
1246 Clouds 20 1014 76 10000 12.52 180 05:55 29.10.2022
1247 Clear 21 1015 72 10000 10.73 292 02:45 29.10.2022
1248 Clouds 21 1016 69 10000 7.6 225 22:30 28.10.2022
1249 Clouds 21 1016 70 10000 11.62 270 20:46 28.10.2022
1250 Clouds 23 1016 62 10000 9.83 247 18:58 28.10.2022
1251 Clouds 23 1016 61 10000 18.78 225 18:31 28.10.2022
1252 Clouds 23 1017 69 10000 13.86 225 15:30 28.10.2022
1253 Clouds 23 1017 70 10000 9.83 270 15:30 28.10.2022
1254 Clouds 22 1017 77 10000 6.17 150 14:36 28.10.2022
1255 Clouds 20 1018 79 10000 4.12 110 12:31 28.10.2022
1256 Rain 19 1018 85 10000 5.81 270 11:34 28.10.2022
1257 Clouds 19 1018 85 10000 5.14 130 10:47 28.10.2022
1258 Rain 20 1018 85 10000 8.05 270 09:47 28.10.2022
1259 Rain 20 1018 86 10000 5.81 270 08:21 28.10.2022
1260 Clouds 20 1018 80 10000 4.92 315 03:43 28.10.2022
1261 Clouds 21 1020 91 10000 6.17 210 23:49 27.10.2022
1262 Clouds 20 1018 84 10000 15.2 270 22:40 27.10.2022
1263 Drizzle 20 1017 85 10000 14.75 270 21:35 27.10.2022
1264 Clouds 21 1017 80 10000 15.2 270 20:28 27.10.2022
1265 Clouds 21 1016 78 10000 17.88 315 18:22 27.10.2022
1266 Rain 21 1017 80 10000 15.2 180 14:23 27.10.2022
1267 Clouds 21 1016 84 10000 8.49 180 11:29 27.10.2022
1268 Clouds 20 1014 84 10000 8.49 225 07:29 27.10.2022
1269 Clouds 21 1013 82 10000 9.39 247 00:22 27.10.2022
1270 Clouds 20 1013 83 10000 12.52 315 23:44 26.10.2022
1271 Clouds 21 1014 90 10000 5.14 210 22:37 26.10.2022
1272 Clear 22 1012 75 10000 13.86 315 19:57 26.10.2022
1273 Clear 25 1012 64 10000 5.66 150 16:52 26.10.2022
1274 Clouds 24 1013 71 10000 5.66 140 14:52 26.10.2022
1275 Clouds 21 1014 84 10000 5.14 110 12:39 26.10.2022
1276 Clouds 20 1014 80 10000 4.63 140 11:32 26.10.2022
1277 Fog 19 1014 86 9000 10.28 270 09:18 26.10.2022
1278 Fog 19 1014 86 10000 4.92 247 08:43 26.10.2022
1279 Clouds 19 1014 80 10000 7.15 360 00:48 26.10.2022
1280 Clouds 19 1014 81 10000 10.73 225 00:29 26.10.2022
1281 Fog 19 1014 84 10000 9.83 315 21:57 25.10.2022
1282 Clouds 19 1014 83 10000 7.6 225 21:25 25.10.2022
1283 Clouds 20 1014 82 10000 7.6 225 20:26 25.10.2022
1284 Clouds 22 1014 76 10000 6.17 220 18:40 25.10.2022
1285 Clouds 22 1013 70 10000 16.09 292 15:28 25.10.2022
1286 Clouds 20 1012 80 10000 14.75 225 11:40 25.10.2022
1287 Mist 19 1011 85 10000 16.54 270 10:46 25.10.2022
1288 Mist 19 1011 85 10000 13.86 315 10:28 25.10.2022
1289 Rain 19 1010 85 10000 21.9 315 08:36 25.10.2022
1290 Rain 19 1010 85 10000 16.54 360 08:18 25.10.2022
1291 Clouds 19 1009 82 10000 14.75 360 07:41 25.10.2022
1292 Clouds 19 1010 84 10000 12.96 225 06:41 25.10.2022
1293 Clouds 19 1012 83 10000 9.39 202 03:25 25.10.2022
1294 Clear 18 1013 80 10000 4.92 270 00:32 25.10.2022
1295 Clear 18 1014 81 10000 4.63 190 22:26 24.10.2022
1296 Clear 19 1014 78 10000 4.47 225 21:34 24.10.2022
1297 Clouds 19 1014 76 10000 3.6 170 20:44 24.10.2022
1298 Clouds 19 1014 75 10000 4.47 315 20:19 24.10.2022
1299 Clouds 21 1014 67 10000 5.81 225 17:53 24.10.2022
1300 Clouds 21 1014 64 10000 6.71 315 16:54 24.10.2022
1301 Clouds 21 1015 67 10000 10.73 225 15:19 24.10.2022
1302 Clouds 20 1016 76 10000 4.47 315 14:18 24.10.2022
1303 Fog 18 1016 79 10000 2.68 270 12:26 24.10.2022
1304 Clouds 17 1014 81 10000 5.36 135 09:18 24.10.2022
1305 Clouds 17 1014 85 10000 4.92 315 03:21 24.10.2022
1306 Clouds 17 1014 80 10000 4.92 315 22:29 23.10.2022
1307 Clouds 18 1014 78 10000 9.39 315 20:38 23.10.2022
1308 Clouds 18 1013 81 10000 9.83 270 18:37 23.10.2022
1309 Clouds 19 1013 74 10000 6.71 225 17:28 23.10.2022
1310 Clouds 20 1013 73 10000 11.62 270 15:39 23.10.2022
1311 Clouds 21 1013 69 10000 9.39 315 14:52 23.10.2022
1312 Clouds 20 1013 72 10000 12.07 225 11:27 23.10.2022
1313 Clouds 18 1012 74 10000 13.86 315 10:19 23.10.2022
1314 Clouds 18 1010 75 10000 17.88 270 04:41 23.10.2022
1315 Clouds 18 1009 85 10000 16.09 225 22:49 22.10.2022
1316 Rain 17 1009 85 10000 13.86 225 21:43 22.10.2022
1317 Rain 17 1009 83 10000 14.75 225 21:19 22.10.2022
1318 Clouds 17 1008 84 10000 6.71 292 19:59 22.10.2022
1319 Mist 17 1008 83 3000 9.39 225 19:31 22.10.2022
1320 Clouds 19 1007 78 10000 7.2 220 17:39 22.10.2022
1321 Clouds 19 1007 77 10000 19.22 225 16:28 22.10.2022
1322 Clouds 21 1008 72 10000 14.31 225 14:48 22.10.2022
1323 Clouds 20 1008 76 10000 12.52 360 13:58 22.10.2022
1324 Rain 19 1008 82 10000 25.93 225 11:22 22.10.2022
1325 Clouds 18 1008 75 10000 16.99 315 09:43 22.10.2022
1326 Clouds 18 1009 81 10000 15.2 315 08:37 22.10.2022
1327 Clouds 19 1013 94 10000 6.17 200 04:25 22.10.2022
1328 Clouds 18 1013 83 10000 5.81 315 00:28 22.10.2022
1329 Clouds 19 1015 91 10000 3.09 200 22:37 21.10.2022
1330 Clouds 19 1013 83 10000 5.36 270 21:32 21.10.2022
1331 Clouds 19 1012 80 10000 8.05 360 20:25 21.10.2022
1332 Rain 20 1012 79 10000 12.07 292 17:50 21.10.2022
1333 Clouds 21 1013 73 10000 6.17 220 14:32 21.10.2022
1334 Clouds 21 1013 75 10000 11.62 337 13:39 21.10.2022
1335 Clouds 20 1013 79 10000 8.05 270 11:46 21.10.2022
1336 Rain 19 1012 82 10000 6.71 315 10:22 21.10.2022
1337 Clouds 18 1011 83 10000 10.28 225 08:42 21.10.2022
1338 Rain 18 1011 82 10000 7.15 270 08:19 21.10.2022
1339 Clouds 18 1012 89 10000 7.15 315 03:19 21.10.2022
1340 Clouds 18 1011 88 10000 6.71 270 23:18 20.10.2022
1341 Clouds 19 1011 92 10000 3.6 220 20:56 20.10.2022
1342 Clouds 18 1009 85 10000 7.15 360 19:42 20.10.2022
1343 Rain 19 1008 84 10000 10.28 270 18:19 20.10.2022
1344 Clouds 20 1008 79 10000 10.73 225 17:38 20.10.2022
1345 Mist 19 1008 88 10000 11.62 225 13:47 20.10.2022
1346 Clouds 18 1009 88 10000 7.6 270 12:32 20.10.2022
1347 Clouds 17 1009 88 10000 10.28 315 11:29 20.10.2022
1348 Clouds 18 1010 93 10000 5.66 200 10:51 20.10.2022
1349 Clouds 18 1008 86 10000 16.09 315 08:55 20.10.2022
1350 Clouds 18 1008 87 10000 12.52 270 06:24 20.10.2022
1351 Clouds 16 1011 91 10000 8.49 292 01:59 20.10.2022
1352 Clouds 16 1012 90 10000 3.09 160 22:53 19.10.2022
1353 Clouds 16 1013 95 10000 3.09 190 22:23 19.10.2022
1354 Clouds 16 1014 95 10000 5.14 200 21:20 19.10.2022
1355 Rain 16 1014 92 7000 4.63 260 19:53 19.10.2022
1356 Clouds 19 1014 84 10000 6.69 210 17:47 19.10.2022
1357 Clouds 19 1012 83 10000 14.31 135 16:24 19.10.2022
1358 Drizzle 18 1015 91 10000 6.69 230 14:20 19.10.2022
1359 Clouds 17 1016 96 3000 6.17 250 11:42 19.10.2022
1360 Clouds 18 1012 91 6000 12.52 315 08:49 19.10.2022
1361 Clouds 20 1011 83 10000 19.22 180 07:23 19.10.2022
1362 Clouds 20 1015 86 10000 29.06 225 01:33 19.10.2022
1363 Rain 20 1016 88 10000 16.54 270 23:22 18.10.2022
1364 Clouds 21 1017 86 10000 15.2 270 21:49 18.10.2022
1365 Clouds 21 1017 86 10000 15.2 270 21:49 18.10.2022
1366 Clouds 21 1017 85 10000 10.28 180 21:24 18.10.2022
1367 Rain 21 1017 83 10000 16.09 315 20:26 18.10.2022
1368 Rain 21 1017 83 10000 16.09 315 20:26 18.10.2022
1369 Clouds 22 1017 79 10000 16.09 225 18:55 18.10.2022
1370 Clouds 23 1017 73 10000 22.8 315 16:56 18.10.2022
1371 Clouds 24 1018 68 10000 17.43 270 14:59 18.10.2022
1372 Clouds 23 1018 73 10000 17.88 337 13:38 18.10.2022
1373 Fog 21 1018 85 10000 14.31 315 11:47 18.10.2022
1374 Mist 20 1017 86 10000 20.12 315 10:29 18.10.2022
1375 Mist 20 1016 89 10000 12.52 225 09:25 18.10.2022
1376 Clouds 20 1015 87 10000 12.96 292 05:54 18.10.2022
1377 Clear 20 1016 84 10000 3.13 225 23:35 17.10.2022
1378 Clear 20 1017 81 10000 3.09 230 21:31 17.10.2022
1379 Clear 21 1017 77 10000 4.47 360 20:47 17.10.2022
1380 Clear 21 1017 77 10000 4.47 225 20:27 17.10.2022
1381 Clouds 23 1017 71 10000 5.36 315 19:41 17.10.2022
1382 Clouds 23 1017 70 10000 4.92 315 19:41 17.10.2022
1383 Clouds 24 1017 63 10000 10.28 360 17:47 17.10.2022
1384 Clouds 24 1017 65 10000 9.39 202 15:55 17.10.2022
1385 Clouds 24 1017 66 10000 10.28 247 15:20 17.10.2022
1386 Clouds 21 1017 75 10000 4.02 315 12:48 17.10.2022
1387 Clouds 19 1015 85 10000 4.47 270 08:59 17.10.2022
1388 Clear 19 1013 78 10000 2.06 130 01:41 17.10.2022
1389 Rain 19 1014 77 10000 2.06 120 22:54 16.10.2022
1390 Clear 20 1013 76 10000 3.09 260 21:22 16.10.2022
1391 Rain 21 1012 71 10000 3.13 315 19:51 16.10.2022
1392 Rain 21 1012 71 10000 4.92 270 19:27 16.10.2022
1393 Rain 22 1012 67 10000 3.13 225 17:45 16.10.2022
1394 Rain 22 1013 65 10000 10.73 360 16:29 16.10.2022
1395 Rain 21 1013 68 10000 8.49 225 15:55 16.10.2022
1396 Clouds 19 1014 78 10000 4.47 315 12:34 16.10.2022
1397 Clouds 19 1013 80 10000 3.09 140 11:38 16.10.2022
1398 Clouds 18 1014 83 10000 4.47 270 10:26 16.10.2022
1399 Clouds 19 1013 77 10000 5.81 315 07:20 16.10.2022
1400 Clouds 18 1014 83 10000 5.81 270 23:43 15.10.2022
1401 Clouds 18 1014 81 10000 4.12 260 21:54 15.10.2022
1402 Clouds 19 1014 80 10000 4.12 260 21:19 15.10.2022
1403 Clouds 21 1013 68 10000 7.15 315 19:32 15.10.2022
1404 Clouds 23 1013 61 10000 4.92 135 17:24 15.10.2022
1405 Clouds 23 1013 61 10000 4.92 135 17:24 15.10.2022
1406 Clouds 24 1014 59 10000 3.09 240 15:45 15.10.2022
1407 Clear 21 1012 69 10000 2.24 315 13:37 15.10.2022
1408 Clouds 20 1017 77 10000 5.66 350 11:50 15.10.2022
1409 Clouds 17 1017 91 10000 6.17 360 09:43 15.10.2022
1410 Clouds 17 1017 93 10000 4.12 320 07:38 15.10.2022
1411 Clear 18 1017 78 10000 4.63 320 00:40 15.10.2022
1412 Clear 19 1019 78 10000 8.23 350 22:58 14.10.2022
1413 Clear 19 1019 77 10000 8.23 350 22:22 14.10.2022
1414 Clear 21 1019 72 10000 7.2 360 20:53 14.10.2022
1415 Clear 24 1017 62 10000 7.72 360 19:21 14.10.2022
1416 Clear 27 1020 53 10000 4.12 10 16:19 14.10.2022
1417 Clear 22 1022 70 10000 4.12 10 12:57 14.10.2022
1418 Clouds 19 1024 84 10000 4.12 10 11:36 14.10.2022
1419 Clouds 17 1021 91 10000 5.66 360 08:32 14.10.2022
1420 Clouds 17 1020 91 10000 4.63 340 06:47 14.10.2022
1421 Clouds 18 1023 94 10000 4.12 340 06:18 14.10.2022
1422 Clouds 18 1023 94 10000 4.12 340 05:42 14.10.2022
1423 Clouds 17 1022 88 10000 3.6 330 03:19 14.10.2022
1424 Clear 17 1025 89 10000 4.12 360 23:42 13.10.2022
1425 Clear 19 1024 79 10000 9.26 10 21:45 13.10.2022
1426 Clear 20 1024 66 10000 9.26 360 20:49 13.10.2022
1427 Clear 22 1023 70 10000 7.72 10 19:43 13.10.2022
1428 Clear 24 1023 68 10000 6.69 10 18:52 13.10.2022
1429 Clear 24 1023 68 10000 5.66 360 18:21 13.10.2022
1430 Clear 26 1024 64 10000 5.14 360 15:51 13.10.2022
1431 Clear 26 1022 61 10000 4.63 350 15:33 13.10.2022
1432 Clear 24 1023 67 10000 5.14 360 14:18 13.10.2022
1433 Clear 21 1023 73 10000 4.63 360 12:43 13.10.2022
1434 Clouds 18 1023 86 10000 7.2 10 10:59 13.10.2022
1435 Clear 16 1021 92 10000 6.17 360 08:34 13.10.2022
1436 Clear 17 1022 94 10000 5.66 330 07:38 13.10.2022
1437 Clear 17 1022 88 10000 4.63 330 05:28 13.10.2022
1438 Clear 18 1020 85 10000 5.66 320 01:41 13.10.2022
1439 Clear 18 1022 89 10000 7.2 330 00:41 13.10.2022
1440 Clear 19 1019 79 10000 9.26 10 22:45 12.10.2022
1441 Clear 19 1021 84 10000 9.26 360 21:48 12.10.2022
1442 Clear 20 1019 82 10000 8.23 10 21:19 12.10.2022
1443 Clouds 21 1018 78 10000 8.23 360 20:35 12.10.2022
1444 Clouds 23 1018 71 10000 9.26 350 19:23 12.10.2022
1445 Clouds 26 1019 59 10000 5.66 360 18:18 12.10.2022
1446 Clouds 27 1017 53 10000 8.05 135 17:42 12.10.2022
1447 Clear 25 1021 68 10000 5.14 10 14:45 12.10.2022
1448 Clear 24 1020 69 10000 5.66 10 13:53 12.10.2022
1449 Clouds 21 1019 76 10000 4.47 157 11:55 12.10.2022
1450 Clouds 17 1017 88 10000 5.66 10 09:36 12.10.2022
1451 Clouds 17 1019 100 10000 4.63 310 07:42 12.10.2022
1452 Clouds 17 1019 92 10000 5.14 330 06:44 12.10.2022
1453 Clear 18 1017 85 10000 4.63 320 05:32 12.10.2022
1454 Clear 18 1017 84 10000 4.63 330 00:32 12.10.2022
1455 Clear 20 1018 81 10000 7.72 10 21:25 11.10.2022
1456 Clouds 21 1016 78 10000 7.2 10 20:32 11.10.2022
1457 Clouds 25 1015 67 10000 5.66 340 18:27 11.10.2022
1458 Clouds 26 1016 60 10000 6.71 135 16:27 11.10.2022
1459 Clouds 22 1018 81 10000 7.15 180 13:52 11.10.2022
1460 Mist 19 1017 88 9000 4.92 135 11:45 11.10.2022
1461 Mist 18 1017 91 10000 4.02 135 10:28 11.10.2022
1462 Mist 17 1016 93 10000 3.6 30 09:25 11.10.2022
1463 Rain 18 1014 93 4000 5.36 135 05:26 11.10.2022
1464 Rain 18 1015 94 10000 2.06 70 01:55 11.10.2022
1465 Rain 18 1015 91 10000 2.24 135 00:24 11.10.2022
1466 Rain 18 1015 94 5000 2.06 290 21:21 10.10.2022
1467 Mist 19 1015 93 2500 1.79 315 19:45 10.10.2022
1468 Clouds 19 1016 98 10000 2.06 260 18:25 10.10.2022
1469 Rain 18 1016 96 10000 3.09 230 16:43 10.10.2022
1470 Clouds 19 1016 91 10000 5.36 180 14:46 10.10.2022
1471 Rain 19 1017 87 10000 7.15 225 12:38 10.10.2022
1472 Clouds 19 1015 84 10000 8.05 270 11:18 10.10.2022
1473 Clouds 16 1014 91 10000 1.79 270 07:47 10.10.2022
1474 Clear 16 1014 87 10000 1.54 240 05:39 10.10.2022
1475 Clouds 17 1015 87 10000 5.36 360 02:53 10.10.2022
1476 Clouds 18 1017 89 10000 4.12 310 00:26 10.10.2022
1477 Clear 18 1015 80 10000 5.14 300 22:27 09.10.2022
1478 Clear 18 1015 82 10000 4.92 360 21:54 09.10.2022
1479 Clear 19 1014 81 10000 7.15 135 21:19 09.10.2022
1480 Clear 20 1014 79 10000 3.6 330 19:54 09.10.2022
1481 Clear 20 1014 77 10000 7.2 350 19:32 09.10.2022
1482 Clear 21 1014 75 10000 6.17 350 18:39 09.10.2022
1483 Clear 23 1014 65 10000 5.14 360 16:56 09.10.2022
1484 Clear 23 1014 67 10000 7.2 360 16:33 09.10.2022
1485 Clear 22 1015 73 10000 5.66 360 15:37 09.10.2022
1486 Rain 22 1014 71 10000 6.71 360 14:31 09.10.2022
1487 Clear 21 1015 73 10000 2.57 340 12:59 09.10.2022
1488 Clear 20 1015 77 10000 2.57 310 12:22 09.10.2022
1489 Clouds 18 1015 86 10000 4.12 330 10:48 09.10.2022
1490 Clear 16 1014 91 10000 4.12 320 08:29 09.10.2022
1491 Clear 17 1013 80 10000 2.24 315 03:38 09.10.2022
1492 Clear 18 1013 78 10000 3.6 340 02:50 09.10.2022
1493 Clear 20 1013 67 10000 4.63 310 00:34 09.10.2022
1494 Clear 20 1013 69 10000 6.69 10 22:56 08.10.2022
1495 Clear 21 1013 67 10000 6.17 20 21:50 08.10.2022
1496 Clouds 23 1013 64 10000 6.17 310 20:27 08.10.2022
1497 Clouds 27 1012 53 10000 5.66 20 18:53 08.10.2022
1498 Clear 29 1013 51 10000 4.02 315 16:38 08.10.2022
1499 Clear 26 1016 58 10000 3.09 10 14:55 08.10.2022
1500 Clear 24 1017 59 10000 3.6 10 13:30 08.10.2022
1501 Clouds 17 1017 85 10000 3.09 30 10:40 08.10.2022
1502 Clouds 17 1017 88 10000 3.09 30 10:21 08.10.2022
1503 Clouds 16 1016 90 10000 5.14 20 08:48 08.10.2022
1504 Clouds 17 1017 90 10000 5.66 320 04:46 08.10.2022
1505 Clear 19 1016 73 10000 5.81 135 00:58 08.10.2022
1506 Clear 20 1016 72 10000 4.63 30 23:32 07.10.2022
1507 Clouds 20 1016 72 10000 7.2 10 22:56 07.10.2022
1508 Clouds 20 1015 68 10000 7.72 10 21:40 07.10.2022
1509 Clear 24 1015 61 10000 7.2 10 19:44 07.10.2022
1510 Clear 28 1017 44 10000 3.6 10 17:54 07.10.2022
1511 Clear 28 1018 56 10000 2.06 100 16:42 07.10.2022
1512 Clear 26 1018 60 10000 2.57 350 15:25 07.10.2022
1513 Clear 25 1018 58 10000 4.92 135 13:55 07.10.2022
1514 Clear 22 1018 69 10000 4.63 20 11:29 07.10.2022
1515 Clear 19 1017 69 10000 6.69 10 09:25 07.10.2022
1516 Clear 19 1017 65 10000 4.12 320 08:21 07.10.2022
1517 Clear 20 1018 62 10000 2.57 20 02:52 07.10.2022
1518 Clear 22 1019 66 10000 4.63 310 23:21 06.10.2022
1519 Clear 22 1019 62 10000 5.14 310 22:48 06.10.2022
1520 Clear 23 1018 54 10000 5.14 310 21:37 06.10.2022
1521 Clear 23 1015 53 10000 5.66 360 20:39 06.10.2022
1522 Clear 26 1019 60 10000 4.12 30 18:57 06.10.2022
1523 Clear 27 1019 59 10000 4.02 360 18:32 06.10.2022
1524 Clear 25 1021 63 10000 2.57 250 15:38 06.10.2022
1525 Clear 24 1020 56 10000 4.47 135 12:59 06.10.2022
1526 Clouds 18 1019 80 10000 2.06 10 09:27 06.10.2022
1527 Clear 18 1019 80 10000 4.63 320 05:19 06.10.2022
1528 Clear 19 1022 77 10000 4.63 340 01:47 06.10.2022
1529 Clear 20 1020 67 10000 10.29 10 22:28 05.10.2022
1530 Clear 24 1019 58 10000 7.72 360 19:54 05.10.2022
1531 Clear 27 1020 52 10000 7.2 360 17:38 05.10.2022
1532 Clear 28 1020 36 10000 5.66 360 16:45 05.10.2022
1533 Clear 28 1019 44 10000 5.66 10 15:23 05.10.2022
1534 Clear 27 1020 51 10000 5.81 135 14:38 05.10.2022
1535 Clear 25 1020 40 10000 7.15 135 13:31 05.10.2022
1536 Clear 23 1020 52 10000 4.12 10 11:53 05.10.2022
1537 Clear 20 1018 26 10000 5.14 340 08:28 05.10.2022
1538 Clear 19 1018 37 10000 2.24 135 07:21 05.10.2022
1539 Clear 19 1018 63 10000 2.06 340 05:34 05.10.2022
1540 Clear 21 1020 30 10000 4.12 320 02:37 05.10.2022
1541 Clear 21 1021 48 10000 4.63 310 00:41 05.10.2022
1542 Clear 22 1019 29 10000 4.63 310 00:22 05.10.2022
1543 Clear 23 1018 44 10000 4.63 310 21:25 04.10.2022
1544 Clear 25 1018 42 10000 3.6 320 20:20 04.10.2022
1545 Clear 28 1020 38 10000 4.63 360 18:56 04.10.2022
1546 Clear 29 1018 36 10000 5.14 360 18:34 04.10.2022
1547 Clear 29 1019 38 10000 4.92 135 16:58 04.10.2022
1548 Clear 29 1019 41 10000 5.14 360 16:20 04.10.2022
1549 Clear 20 1021 73 10000 1.03 0 11:25 04.10.2022
1550 Clear 19 1019 63 10000 3.6 30 08:28 04.10.2022
1551 Fog 19 1018 61 10000 5.81 180 06:22 04.10.2022
1552 Clear 21 1019 60 10000 4.02 135 01:24 04.10.2022
1553 Clear 21 1019 61 10000 3.09 10 23:36 03.10.2022
1554 Clear 21 1019 72 10000 3.09 10 21:46 03.10.2022
1555 Clear 22 1019 72 10000 3.09 260 20:51 03.10.2022
1556 Clear 24 1019 72 10000 5.14 260 18:57 03.10.2022
1557 Clear 25 1019 68 10000 8.49 337 17:39 03.10.2022
1558 Clear 27 1019 50 10000 7.6 315 16:41 03.10.2022
1559 Clear 25 1021 67 10000 4.12 280 15:27 03.10.2022
1560 Clear 24 1019 68 10000 8.49 360 13:44 03.10.2022
1561 Clear 23 1020 62 10000 2.06 50 11:47 03.10.2022
1562 Clear 18 1019 77 10000 1.79 270 10:38 03.10.2022
1563 Clear 17 1018 73 10000 2.57 30 09:33 03.10.2022
1564 Clear 20 1017 57 10000 2.68 180 04:51 03.10.2022
1565 Clear 21 1019 60 10000 2.06 320 02:27 03.10.2022
1566 Clear 24 1017 47 10000 4.92 360 22:24 02.10.2022
1567 Clear 27 1017 25 10000 2.68 360 20:37 02.10.2022
1568 Clear 29 1017 16 10000 3.13 135 18:30 02.10.2022
1569 Clear 29 1017 16 10000 4.12 330 17:35 02.10.2022
1570 Clear 28 1018 19 10000 7.6 135 16:33 02.10.2022
1571 Clear 28 1019 23 10000 7.15 135 15:40 02.10.2022
1572 Clear 25 1020 30 10000 7.6 135 13:51 02.10.2022
1573 Clear 23 1021 31 10000 5.14 60 12:51 02.10.2022
1574 Clear 22 1021 36 10000 5.14 60 12:28 02.10.2022
1575 Clear 22 1021 43 10000 7.6 135 11:36 02.10.2022
1576 Clear 20 1021 55 10000 4.12 40 10:37 02.10.2022
1577 Clear 17 1021 70 10000 3.6 60 08:53 02.10.2022
1578 Clear 17 1020 67 10000 5.66 30 07:29 02.10.2022
1579 Clear 19 1021 58 10000 5.14 20 02:54 02.10.2022
1580 Clear 20 1021 61 10000 3.6 340 00:45 02.10.2022
1581 Clear 21 1021 55 10000 4.12 330 00:20 02.10.2022
1582 Clear 21 1021 53 10000 7.2 10 22:36 01.10.2022
1583 Clear 24 1020 54 10000 4.92 360 20:21 01.10.2022
1584 Clear 27 1022 45 10000 3.6 330 18:30 01.10.2022
1585 Clear 26 1023 46 10000 3.6 320 16:35 01.10.2022
1586 Clear 24 1024 48 10000 4.02 225 14:26 01.10.2022
1587 Clear 22 1024 62 10000 4.02 135 13:21 01.10.2022
1588 Clear 19 1024 72 10000 4.02 135 12:30 01.10.2022
1589 Clear 18 1022 75 10000 2.57 60 11:19 01.10.2022
1590 Clear 16 1023 82 10000 2.57 20 10:31 01.10.2022
1591 Clear 14 1022 82 10000 3.13 135 09:27 01.10.2022
1592 Clear 14 1021 80 10000 3.13 135 08:57 01.10.2022
1593 Clear 15 1020 81 10000 6.71 135 04:27 01.10.2022
1594 Clear 15 1020 80 10000 8.49 360 03:31 01.10.2022
1595 Clear 16 1019 76 10000 7.2 330 00:18 01.10.2022
1596 Clear 17 1019 70 10000 7.2 330 22:37 30.09.2022
1597 Clear 17 1018 64 10000 6.71 360 21:28 30.09.2022
1598 Clear 18 1017 62 10000 8.05 360 20:44 30.09.2022
1599 Clear 20 1017 58 10000 8.49 112 19:49 30.09.2022
1600 Clear 22 1016 53 10000 8.49 360 17:38 30.09.2022
1601 Clear 21 1016 60 10000 12.07 135 15:56 30.09.2022
1602 Clouds 19 1017 62 10000 11.62 135 13:30 30.09.2022
1603 Clouds 18 1018 70 10000 8.23 360 11:58 30.09.2022
1604 Clouds 16 1016 79 10000 16.99 135 10:40 30.09.2022
1605 Clouds 15 1015 85 10000 8.23 360 08:37 30.09.2022
1606 Clouds 16 1015 84 10000 3.6 300 06:26 30.09.2022
1607 Clouds 17 1013 82 10000 5.81 135 02:39 30.09.2022
1608 Clouds 18 1014 82 10000 7.2 330 22:40 29.09.2022
1609 Clouds 18 1012 78 10000 12.96 135 21:28 29.09.2022
1610 Clouds 18 1012 79 10000 12.96 135 20:57 29.09.2022
1611 Clouds 20 1011 75 10000 9.83 360 18:45 29.09.2022
1612 Clouds 20 1011 81 10000 6.17 340 17:32 29.09.2022
1613 Clouds 20 1011 83 10000 9.39 292 16:28 29.09.2022
1614 Clouds 18 1014 93 8000 6.69 340 15:36 29.09.2022
1615 Clouds 19 1012 86 8000 7.6 315 14:31 29.09.2022
1616 Clouds 18 1013 82 10000 4.47 360 10:33 29.09.2022
1617 Clouds 17 1016 82 10000 3.6 330 07:22 29.09.2022
1618 Clouds 18 1017 85 10000 3.6 330 02:51 29.09.2022
1619 Clouds 18 1019 89 10000 2.57 330 23:56 28.09.2022
1620 Clouds 18 1019 89 10000 2.57 330 23:56 28.09.2022
1621 Clouds 18 1019 89 10000 2.57 330 23:56 28.09.2022
1622 Clouds 18 1017 84 10000 6.69 340 22:58 28.09.2022
1623 Clouds 19 1018 81 10000 7.72 340 21:30 28.09.2022
1624 Clouds 20 1017 75 10000 8.75 330 20:25 28.09.2022
1625 Clouds 21 1016 70 10000 9.83 135 18:42 28.09.2022
1626 Clouds 22 1019 69 10000 9.77 350 15:34 28.09.2022
1627 Clouds 21 1019 72 10000 8.23 360 13:28 28.09.2022
1628 Clouds 20 1019 76 10000 10.73 135 11:23 28.09.2022
1629 Clouds 18 1020 77 10000 11.32 350 09:18 28.09.2022
1630 Clouds 18 1018 83 10000 7.72 350 07:40 28.09.2022
1631 Clouds 17 1020 84 10000 5.14 350 04:41 28.09.2022
1632 Clouds 18 1018 81 10000 9.83 360 01:38 28.09.2022
1633 Clouds 18 1019 81 10000 6.17 360 23:27 27.09.2022
1634 Clouds 18 1020 79 10000 10.29 340 21:55 27.09.2022
1635 Clouds 20 1020 73 10000 7.72 340 20:49 27.09.2022
1636 Clouds 21 1018 66 10000 10.28 135 19:49 27.09.2022
1637 Clouds 21 1019 63 10000 11.83 340 19:30 27.09.2022
1638 Clouds 22 1020 68 10000 8.23 330 17:46 27.09.2022
1639 Clouds 22 1020 68 10000 8.23 330 17:46 27.09.2022
1640 Clouds 23 1019 63 10000 11.62 135 15:59 27.09.2022
1641 Clouds 23 1019 60 10000 9.39 135 14:59 27.09.2022
1642 Clouds 23 1021 63 10000 6.69 350 13:32 27.09.2022
1643 Clouds 21 1020 65 10000 9.26 350 12:23 27.09.2022
1644 Clouds 16 1019 81 10000 9.77 360 09:49 27.09.2022
1645 Clouds 16 1019 86 10000 6.17 330 07:38 27.09.2022
1646 Clear 17 1018 80 10000 6.17 340 03:51 27.09.2022
1647 Clear 17 1017 77 10000 7.72 330 01:36 27.09.2022
1648 Clear 18 1017 68 10000 6.17 320 23:39 26.09.2022
1649 Clear 18 1017 67 10000 6.17 320 23:20 26.09.2022
1650 Clear 19 1017 62 10000 9.26 350 20:58 26.09.2022
1651 Clear 21 1016 52 10000 8.75 350 19:42 26.09.2022
1652 Clear 23 1016 34 10000 10.8 350 18:38 26.09.2022
1653 Clear 24 1016 32 10000 9.26 340 17:24 26.09.2022
1654 Clear 24 1015 44 10000 5.66 340 14:57 26.09.2022
1655 Clear 21 1014 52 10000 5.14 10 12:30 26.09.2022
1656 Clear 18 1013 66 10000 5.36 135 10:42 26.09.2022
1657 Clear 17 1013 68 10000 5.14 20 10:22 26.09.2022
1658 Clear 16 1012 70 10000 6.17 10 09:56 26.09.2022
1659 Clear 16 1012 71 10000 5.66 10 09:26 26.09.2022
1660 Clear 16 1014 72 10000 5.14 360 08:58 26.09.2022
1661 Clear 17 1011 72 10000 4.63 310 05:30 26.09.2022
1662 Clear 18 1014 79 10000 5.14 350 01:57 26.09.2022
1663 Clear 18 1011 78 10000 9.39 360 23:23 25.09.2022
1664 Clouds 18 1010 71 10000 20.12 360 21:44 25.09.2022
1665 Clouds 18 1010 71 10000 11.62 360 20:57 25.09.2022
1666 Clouds 19 1010 66 10000 9.77 340 20:34 25.09.2022
1667 Clouds 21 1011 59 10000 12.35 340 18:49 25.09.2022
1668 Clouds 22 1009 55 10000 12.86 340 18:24 25.09.2022
1669 Clouds 22 1010 55 10000 13.86 360 17:22 25.09.2022
1670 Clouds 22 1012 55 10000 10.29 340 15:50 25.09.2022
1671 Clear 22 1011 53 10000 18.78 337 14:37 25.09.2022
1672 Clouds 21 1012 54 10000 9.83 315 13:58 25.09.2022
1673 Clouds 17 1013 78 10000 10.8 360 10:40 25.09.2022
1674 Clouds 16 1012 78 10000 11.32 360 09:37 25.09.2022
1675 Clouds 17 1013 80 10000 9.26 350 07:41 25.09.2022
1676 Clear 17 1012 82 10000 7.72 340 05:22 25.09.2022
1677 Clouds 18 1016 81 10000 7.2 330 23:36 24.09.2022
1678 Clouds 19 1014 73 10000 14.75 135 21:19 24.09.2022
1679 Clouds 20 1014 65 10000 12.35 350 19:45 24.09.2022
1680 Clouds 20 1014 64 10000 14.75 135 19:20 24.09.2022
1681 Clouds 23 1014 61 10000 11.62 360 16:51 24.09.2022
1682 Clouds 23 1015 61 10000 12.52 135 15:23 24.09.2022
1683 Clouds 23 1015 61 10000 12.52 135 15:23 24.09.2022
1684 Clouds 22 1016 63 10000 12.07 180 14:37 24.09.2022
1685 Clouds 22 1016 64 10000 15.2 225 13:22 24.09.2022
1686 Clouds 21 1019 67 10000 9.26 350 12:25 24.09.2022
1687 Clouds 19 1017 83 10000 6.17 360 09:59 24.09.2022
1688 Clouds 19 1017 85 10000 6.69 360 08:58 24.09.2022
1689 Clouds 19 1016 87 10000 4.63 350 07:41 24.09.2022
1690 Clouds 20 1017 82 10000 7.72 340 04:55 24.09.2022
1691 Clouds 20 1017 82 10000 7.72 340 04:21 24.09.2022
1692 Clouds 20 1017 84 10000 6.69 340 22:58 23.09.2022
1693 Clouds 20 1017 81 10000 7.72 350 21:40 23.09.2022
1694 Clouds 20 1017 81 10000 7.72 350 21:22 23.09.2022
1695 Clouds 21 1017 82 10000 9.26 350 20:45 23.09.2022
1696 Clear 23 1017 70 10000 9.26 340 19:20 23.09.2022
1697 Clear 23 1017 70 10000 9.26 340 19:20 23.09.2022
1698 Clouds 25 1017 66 10000 7.72 340 16:48 23.09.2022
1699 Clouds 24 1019 71 10000 2.57 0 13:40 23.09.2022
1700 Clouds 20 1018 87 10000 1.54 210 10:18 23.09.2022
1701 Clouds 18 1017 93 10000 3.09 330 07:29 23.09.2022
1702 Clear 19 1018 87 10000 2.06 340 01:21 23.09.2022
1703 Clouds 20 1018 86 10000 3.6 320 23:29 22.09.2022
1704 Clouds 21 1019 85 10000 3.6 360 22:27 22.09.2022
1705 Clouds 22 1019 82 10000 2.06 350 21:24 22.09.2022
1706 Clear 24 1019 71 10000 4.12 300 20:21 22.09.2022
1707 Clear 27 1017 61 10000 5.66 320 18:44 22.09.2022
1708 Clear 27 1019 62 10000 9.83 315 14:49 22.09.2022
1709 Clouds 21 1019 84 10000 3.6 30 10:39 22.09.2022
1710 Clouds 20 1019 86 10000 3.6 30 10:19 22.09.2022
1711 Clear 19 1018 87 10000 4.12 320 07:50 22.09.2022
1712 Clear 20 1019 82 10000 3.09 310 04:38 22.09.2022
1713 Clear 21 1019 85 10000 4.12 320 00:36 22.09.2022
1714 Clear 22 1018 82 10000 6.17 310 22:29 21.09.2022
1715 Clear 23 1018 77 10000 4.92 135 21:18 21.09.2022
1716 Clouds 26 1016 67 10000 5.14 260 18:50 21.09.2022
1717 Clouds 26 1017 65 10000 9.39 270 17:41 21.09.2022
1718 Clouds 26 1018 58 10000 5.36 202 15:35 21.09.2022
1719 Clouds 26 1018 69 10000 8.05 225 13:42 21.09.2022
1720 Clouds 23 1018 84 10000 4.92 225 11:42 21.09.2022
1721 Clouds 22 1018 84 10000 4.47 315 10:54 21.09.2022
1722 Clouds 21 1017 89 10000 2.68 360 09:39 21.09.2022
1723 Clouds 21 1017 89 10000 2.68 360 09:39 21.09.2022
1724 Clouds 21 1016 90 10000 2.57 350 08:31 21.09.2022
1725 Rain 22 1019 85 10000 2.24 270 03:56 21.09.2022
1726 Clouds 23 1018 74 10000 4.47 270 02:38 21.09.2022
1727 Clouds 23 1018 72 10000 3.09 250 01:56 21.09.2022
1728 Clouds 24 1018 71 10000 3.13 135 00:19 21.09.2022
1729 Clouds 24 1017 74 10000 8.23 10 21:53 20.09.2022
1730 Clouds 25 1018 70 10000 5.14 320 20:32 20.09.2022
1731 Clouds 28 1015 59 10000 4.63 250 18:51 20.09.2022
1732 Clouds 29 1016 62 10000 3.6 190 15:51 20.09.2022
1733 Clouds 29 1017 58 10000 3.6 200 14:18 20.09.2022
1734 Clear 25 1017 76 10000 3.09 220 11:51 20.09.2022
1735 Clear 21 1017 79 10000 2.24 135 08:50 20.09.2022
1736 Clear 22 1017 77 10000 4.12 20 08:24 20.09.2022
1737 Clear 23 1018 76 10000 3.6 320 04:40 20.09.2022
1738 Clear 23 1018 78 10000 3.09 310 02:24 20.09.2022
1739 Clear 24 1017 79 10000 3.6 240 22:44 19.09.2022
1740 Clear 25 1016 76 10000 4.92 225 21:36 19.09.2022
1741 Clouds 26 1015 72 10000 4.63 240 20:40 19.09.2022
1742 Clouds 27 1015 72 10000 8.49 315 19:20 19.09.2022
1743 Thunderstorm 28 1014 67 10000 4.63 270 17:37 19.09.2022
1744 Clouds 28 1016 67 10000 9.39 157 13:49 19.09.2022
1745 Clouds 26 1016 71 10000 6.71 360 12:26 19.09.2022
1746 Clear 24 1015 75 10000 3.6 130 10:31 19.09.2022
1747 Clear 21 1014 81 10000 2.06 30 08:41 19.09.2022
1748 Clear 22 1014 73 10000 4.92 225 04:26 19.09.2022
1749 Clear 23 1013 73 10000 4.63 330 00:52 19.09.2022
1750 Clear 24 1011 78 10000 5.66 310 22:42 18.09.2022
1751 Clear 25 1012 71 10000 5.14 310 21:30 18.09.2022
1752 Clear 26 1011 68 10000 5.14 250 19:56 18.09.2022
1753 Clear 29 1011 49 10000 5.66 250 17:53 18.09.2022
1754 Clear 29 1011 49 10000 5.36 360 16:56 18.09.2022
1755 Clear 28 1012 50 10000 7.15 360 14:52 18.09.2022
1756 Clear 27 1013 51 10000 5.81 225 13:46 18.09.2022
1757 Clear 26 1012 59 10000 12.96 315 12:28 18.09.2022
1758 Clear 22 1011 79 10000 1.03 0 10:28 18.09.2022
1759 Clear 22 1011 72 10000 2.24 270 03:35 18.09.2022
1760 Clear 22 1011 72 10000 3.09 330 01:22 18.09.2022
1761 Clear 22 1011 72 10000 6.69 10 23:59 17.09.2022
1762 Clear 24 1010 69 10000 5.66 320 21:35 17.09.2022
1763 Clear 26 1009 62 10000 6.17 310 19:40 17.09.2022
1764 Clouds 29 1010 58 10000 6.71 337 18:43 17.09.2022
1765 Clouds 27 1011 63 10000 3.09 360 14:54 17.09.2022
1766 Clear 25 1013 64 10000 4.12 360 13:38 17.09.2022
1767 Clouds 21 1012 82 10000 5.66 20 10:56 17.09.2022
1768 Clear 18 1013 88 10000 6.17 20 08:33 17.09.2022
1769 Clear 19 1013 85 10000 4.92 360 06:21 17.09.2022
1770 Clear 21 1014 85 10000 4.63 320 23:57 16.09.2022
1771 Clear 21 1015 82 10000 5.36 360 22:51 16.09.2022
1772 Clear 23 1014 70 10000 6.17 350 20:54 16.09.2022
1773 Clouds 24 1013 69 10000 5.66 260 19:50 16.09.2022
1774 Clouds 25 1014 65 10000 4.63 260 16:26 16.09.2022
1775 Clouds 25 1015 69 10000 3.6 350 14:53 16.09.2022
1776 Clouds 24 1016 72 10000 4.12 360 13:42 16.09.2022
1777 Fog 20 1015 92 10000 2.57 100 10:46 16.09.2022
1778 Clouds 20 1015 94 10000 2.57 100 08:19 16.09.2022
1779 Clouds 20 1015 93 10000 1.03 0 06:48 16.09.2022
1780 Clouds 20 1015 93 10000 0 0 06:25 16.09.2022
1781 Clouds 20 1016 91 10000 1.03 230 02:37 16.09.2022
1782 Clouds 21 1015 86 10000 3.6 270 22:20 15.09.2022
1783 Clouds 21 1015 86 10000 3.6 270 22:20 15.09.2022
1784 Clouds 22 1015 81 10000 4.12 250 20:47 15.09.2022
1785 Clouds 23 1014 75 10000 4.63 260 19:46 15.09.2022
1786 Clouds 24 1014 75 10000 5.66 240 18:29 15.09.2022
1787 Clouds 24 1015 75 10000 5.66 260 17:31 15.09.2022
1788 Clouds 24 1015 72 10000 4.63 270 16:37 15.09.2022
1789 Clouds 24 1015 78 10000 4.63 240 14:20 15.09.2022
1790 Clouds 21 1015 83 10000 2.06 230 11:48 15.09.2022
1791 Clouds 20 1014 82 10000 2.06 220 09:52 15.09.2022
1792 Clouds 20 1013 86 10000 2.57 210 07:50 15.09.2022
1793 Clouds 20 1013 84 10000 2.57 240 03:52 15.09.2022
1794 Clouds 21 1013 81 10000 3.09 250 23:43 14.09.2022
1795 Clouds 21 1012 79 10000 3.09 250 21:26 14.09.2022
1796 Clouds 23 1011 70 10000 4.63 280 19:33 14.09.2022
1797 Clouds 23 1010 72 10000 5.14 240 18:30 14.09.2022
1798 Clouds 23 1010 74 10000 5.66 220 16:44 14.09.2022
1799 Clouds 23 1010 75 10000 6.69 230 15:29 14.09.2022
1800 Clouds 22 1010 79 10000 6.17 230 13:36 14.09.2022
1801 Clouds 21 1008 88 9000 8.23 210 10:52 14.09.2022
1802 Clouds 20 1011 86 6000 6.17 210 09:41 14.09.2022
1803 Clouds 20 1007 85 10000 5.66 200 06:52 14.09.2022
1804 Clouds 20 1007 86 6000 6.69 200 06:34 14.09.2022
1805 Clouds 20 1007 86 6000 6.69 200 06:34 14.09.2022
1806 Clouds 20 1007 82 10000 7.2 200 03:55 14.09.2022
1807 Rain 20 1008 81 8000 5.66 190 01:43 14.09.2022
1808 Clouds 20 1008 81 10000 3.6 210 01:20 14.09.2022
1809 Rain 21 1008 80 7000 8.23 210 23:55 13.09.2022
1810 Rain 21 1008 80 10000 6.69 210 23:37 13.09.2022
1811 Clouds 21 1008 80 10000 6.69 210 23:19 13.09.2022
1812 Clouds 21 1007 82 10000 8.23 210 22:44 13.09.2022
1813 Clouds 21 1007 81 10000 8.23 200 21:44 13.09.2022
1814 Clouds 22 1007 74 10000 12.07 270 19:32 13.09.2022
1815 Clouds 22 1006 75 10000 9.26 210 17:33 13.09.2022
1816 Clouds 23 1006 75 10000 10.29 220 15:54 13.09.2022
1817 Clouds 22 1005 80 10000 9.77 220 13:54 13.09.2022
1818 Rain 21 1005 85 8000 8.23 210 12:30 13.09.2022
1819 Clouds 20 1003 86 10000 7.2 200 08:33 13.09.2022
1820 Clouds 20 1002 83 10000 9.77 210 04:32 13.09.2022
1821 Clouds 21 1003 82 10000 11.32 180 23:32 12.09.2022
1822 Clouds 21 1002 84 10000 8.75 180 22:49 12.09.2022
1823 Clouds 21 1002 82 10000 8.23 170 21:37 12.09.2022
1824 Clouds 22 1003 77 10000 9.26 180 20:25 12.09.2022
1825 Rain 22 1003 83 10000 9.77 170 18:43 12.09.2022
1826 Clouds 22 1004 84 10000 10.29 160 16:23 12.09.2022
1827 Clouds 21 1006 90 10000 7.2 150 13:57 12.09.2022
1828 Rain 21 1006 86 10000 6.17 140 11:29 12.09.2022
1829 Clouds 21 1006 91 7000 6.69 140 09:45 12.09.2022
1830 Rain 21 1006 85 8000 8.49 315 04:50 12.09.2022
1831 Rain 21 1006 86 10000 7.6 180 04:20 12.09.2022
1832 Clouds 21 1008 81 10000 4.92 135 23:23 11.09.2022
1833 Clouds 22 1007 79 10000 4.47 315 21:59 11.09.2022
1834 Rain 22 1007 75 10000 6.71 180 20:47 11.09.2022
1835 Rain 23 1008 70 10000 3.6 230 19:53 11.09.2022
1836 Clear 23 1008 71 10000 4.12 250 19:22 11.09.2022
1837 Rain 24 1008 67 10000 5.36 225 18:20 11.09.2022
1838 Clouds 26 1010 63 10000 6.17 270 16:36 11.09.2022
1839 Clouds 26 1011 64 10000 9.83 180 14:33 11.09.2022
1840 Clouds 23 1012 73 10000 5.81 135 12:40 11.09.2022
1841 Clouds 19 1012 84 10000 1.34 360 08:48 11.09.2022
1842 Clear 19 1012 83 10000 1.54 170 07:18 11.09.2022
1843 Clear 21 1014 77 10000 3.6 300 00:50 11.09.2022
1844 Clear 22 1014 75 10000 5.36 360 22:55 10.09.2022
1845 Clear 23 1012 69 10000 3.13 315 21:33 10.09.2022
1846 Clear 28 1015 50 10000 4.12 220 19:47 10.09.2022
1847 Clouds 28 1015 50 10000 4.12 220 19:29 10.09.2022
1848 Clouds 28 1015 50 10000 4.12 240 18:54 10.09.2022
1849 Clouds 28 1017 51 10000 4.63 250 16:39 10.09.2022
1850 Clear 27 1015 54 10000 7.6 360 14:42 10.09.2022
1851 Clear 26 1016 56 10000 3.6 210 12:53 10.09.2022
1852 Clear 24 1016 64 10000 2.57 60 11:19 10.09.2022
1853 Clouds 19 1016 80 10000 3.09 320 09:50 10.09.2022
1854 Clouds 18 1015 84 10000 3.09 20 08:37 10.09.2022
1855 Clouds 19 1015 81 10000 4.12 310 07:22 10.09.2022
1856 Clouds 21 1017 80 10000 5.14 300 00:41 10.09.2022
1857 Clouds 21 1017 81 10000 7.2 360 23:33 09.09.2022
1858 Clouds 21 1016 79 10000 10.28 360 22:19 09.09.2022
1859 Clouds 22 1016 72 10000 8.05 360 20:47 09.09.2022
1860 Clouds 26 1016 60 10000 8.05 225 19:25 09.09.2022
1861 Clouds 26 1016 60 10000 7.6 315 18:53 09.09.2022
1862 Clouds 28 1017 58 10000 5.14 220 16:28 09.09.2022
1863 Clouds 26 1018 64 10000 7.15 225 13:51 09.09.2022
1864 Clouds 24 1020 70 10000 4.63 10 12:47 09.09.2022
1865 Clouds 21 1018 78 10000 4.63 360 09:57 09.09.2022
1866 Clouds 22 1016 80 10000 1.79 360 05:38 09.09.2022
1867 Clouds 22 1016 78 10000 3.13 270 03:21 09.09.2022
1868 Clouds 23 1016 78 10000 4.12 260 21:57 08.09.2022
1869 Clouds 24 1016 76 10000 4.12 260 21:36 08.09.2022
1870 Clouds 24 1016 72 10000 5.14 260 20:32 08.09.2022
1871 Clouds 24 1016 71 10000 5.14 260 19:57 08.09.2022
1872 Clouds 25 1016 67 10000 5.81 270 18:26 08.09.2022
1873 Clouds 26 1016 63 10000 5.81 270 16:27 08.09.2022
1874 Clouds 25 1016 68 10000 5.81 270 14:40 08.09.2022
1875 Clouds 24 1016 73 10000 5.81 315 13:27 08.09.2022
1876 Clouds 24 1016 71 10000 9.83 225 12:33 08.09.2022
1877 Clouds 22 1016 79 10000 9.39 180 10:58 08.09.2022
1878 Clouds 21 1015 83 10000 7.6 225 08:54 08.09.2022
1879 Clouds 21 1015 82 10000 3.6 250 06:43 08.09.2022
1880 Clouds 21 1016 81 10000 6.71 180 02:37 08.09.2022
1881 Clouds 21 1015 80 10000 5.36 157 02:19 08.09.2022
1882 Clouds 21 1016 76 10000 5.81 135 01:38 08.09.2022
1883 Clouds 21 1016 68 10000 9.39 315 22:55 07.09.2022
1884 Clear 22 1016 65 10000 5.66 250 21:43 07.09.2022
1885 Clear 23 1016 61 10000 5.66 260 20:56 07.09.2022
1886 Clouds 24 1018 58 10000 5.66 260 19:53 07.09.2022
1887 Clouds 24 1018 59 10000 5.66 250 18:37 07.09.2022
1888 Clouds 25 1017 52 10000 5.36 270 14:45 07.09.2022
1889 Clouds 20 1017 78 10000 4.47 225 10:50 07.09.2022
1890 Clouds 19 1017 81 10000 2.06 150 09:52 07.09.2022
1891 Clouds 18 1016 82 10000 1.54 180 07:35 07.09.2022
1892 Clear 20 1018 76 10000 1.79 180 03:34 07.09.2022
1893 Clear 20 1019 76 10000 2.57 280 23:48 06.09.2022
1894 Clouds 21 1018 68 10000 4.12 320 21:43 06.09.2022
1895 Clouds 21 1018 67 10000 4.12 320 21:24 06.09.2022
1896 Clouds 25 1020 52 10000 6.17 270 18:53 06.09.2022
1897 Clear 26 1018 45 10000 8.05 360 18:23 06.09.2022
1898 Clear 26 1018 42 10000 5.14 260 17:23 06.09.2022
1899 Clear 26 1018 41 10000 5.81 315 16:38 06.09.2022
1900 Clear 25 1021 46 10000 5.14 260 15:23 06.09.2022
1901 Clouds 25 1019 50 10000 4.92 315 13:46 06.09.2022
1902 Clouds 24 1019 51 10000 3.09 0 13:25 06.09.2022
1903 Clouds 24 1019 56 10000 4.02 270 12:37 06.09.2022
1904 Clouds 21 1021 72 10000 3.09 310 10:46 06.09.2022
1905 Clouds 19 1019 82 10000 2.68 135 08:53 06.09.2022
1906 Clouds 20 1018 82 10000 2.06 300 07:49 06.09.2022
1907 Clouds 21 1017 79 10000 2.57 270 04:48 06.09.2022
1908 Clouds 21 1019 80 10000 8.05 225 23:42 05.09.2022
1909 Clouds 21 1019 81 10000 5.14 220 22:30 05.09.2022
1910 Clouds 22 1019 78 10000 6.17 210 20:52 05.09.2022
1911 Clouds 23 1019 74 10000 9.39 315 19:50 05.09.2022
1912 Clouds 24 1019 70 10000 13.86 135 18:49 05.09.2022
1913 Clouds 24 1019 68 10000 9.83 225 18:22 05.09.2022
1914 Clouds 25 1019 66 10000 14.75 180 17:30 05.09.2022
1915 Clouds 25 1019 63 10000 10.73 360 15:52 05.09.2022
1916 Clouds 24 1019 64 10000 8.49 225 13:39 05.09.2022
1917 Clouds 23 1019 70 10000 12.07 225 12:29 05.09.2022
1918 Mist 20 1018 82 10000 7.15 225 10:30 05.09.2022
1919 Drizzle 20 1017 82 8000 4.47 225 07:43 05.09.2022
1920 Clouds 20 1018 81 10000 5.36 135 02:50 05.09.2022
1921 Clouds 20 1018 79 10000 6.71 225 23:40 04.09.2022
1922 Clouds 20 1017 81 10000 5.81 180 22:28 04.09.2022
1923 Clouds 21 1017 77 10000 5.14 230 21:41 04.09.2022
1924 Clouds 23 1017 64 10000 10.73 135 19:39 04.09.2022
1925 Clouds 24 1017 59 10000 7.6 315 18:21 04.09.2022
1926 Clouds 24 1017 61 10000 14.75 270 17:22 04.09.2022
1927 Clouds 24 1017 60 10000 11.62 225 14:59 04.09.2022
1928 Clouds 23 1017 60 10000 15.2 180 14:21 04.09.2022
1929 Clouds 22 1017 67 10000 9.39 202 12:24 04.09.2022
1930 Clouds 20 1016 74 10000 10.28 180 10:57 04.09.2022
1931 Clouds 18 1016 79 10000 2.24 315 09:23 04.09.2022
1932 Clouds 18 1015 80 10000 2.57 280 06:24 04.09.2022
1933 Clouds 19 1016 76 10000 3.13 225 01:56 04.09.2022
1934 Clear 20 1017 70 10000 3.6 300 22:26 03.09.2022
1935 Clear 20 1017 69 10000 3.6 300 22:26 03.09.2022
1936 Clear 21 1014 62 10000 4.92 315 21:24 03.09.2022
1937 Clear 22 1014 54 10000 5.36 360 20:42 03.09.2022
1938 Clear 24 1014 43 10000 6.17 320 17:36 03.09.2022
1939 Clear 24 1014 42 10000 8.49 360 16:49 03.09.2022
1940 Clouds 24 1015 41 10000 6.71 270 14:47 03.09.2022
1941 Clouds 24 1015 38 10000 5.14 330 14:28 03.09.2022
1942 Clouds 24 1015 39 10000 6.17 330 13:43 03.09.2022
1943 Clouds 21 1015 63 10000 4.63 340 11:31 03.09.2022
1944 Clouds 17 1014 81 10000 3.6 340 08:57 03.09.2022
1945 Clouds 18 1014 80 10000 3.6 340 07:23 03.09.2022
1946 Clouds 19 1013 78 10000 3.09 340 04:45 03.09.2022
1947 Clouds 20 1014 78 10000 3.6 330 02:35 03.09.2022
1948 Clouds 20 1015 78 10000 8.49 360 23:35 02.09.2022
1949 Clouds 21 1015 71 10000 7.15 360 21:46 02.09.2022
1950 Clouds 21 1014 68 10000 5.66 310 20:40 02.09.2022
1951 Clouds 23 1015 64 10000 7.6 315 19:47 02.09.2022
1952 Clouds 24 1015 56 10000 6.69 320 18:50 02.09.2022
1953 Clouds 24 1015 55 10000 8.49 315 18:24 02.09.2022
1954 Clouds 25 1015 51 10000 12.96 360 16:56 02.09.2022
1955 Clouds 25 1015 50 10000 8.05 270 16:22 02.09.2022
1956 Clouds 24 1016 59 10000 5.81 337 12:58 02.09.2022
1957 Clouds 21 1016 73 10000 5.14 360 10:39 02.09.2022
1958 Clouds 20 1015 79 10000 6.71 270 09:42 02.09.2022
1959 Clouds 19 1015 78 10000 3.13 360 08:43 02.09.2022
1960 Clouds 19 1015 78 10000 1.79 360 06:43 02.09.2022
1961 Clouds 19 1015 77 10000 3.09 330 05:32 02.09.2022
1962 Clouds 21 1015 74 10000 5.36 360 22:58 01.09.2022
1963 Clouds 21 1015 72 10000 5.66 330 21:46 01.09.2022
1964 Clouds 21 1015 73 10000 4.63 300 21:26 01.09.2022
1965 Clouds 22 1015 69 10000 8.05 360 20:52 01.09.2022
1966 Clouds 24 1015 58 10000 6.71 270 19:25 01.09.2022
1967 Clouds 26 1015 50 10000 8.49 270 18:18 01.09.2022
1968 Clouds 27 1015 47 10000 7.6 270 16:47 01.09.2022
1969 Clouds 26 1015 49 10000 7.2 340 14:41 01.09.2022
1970 Clouds 24 1016 59 10000 5.14 310 13:21 01.09.2022
1971 Clouds 23 1016 63 10000 5.66 350 12:42 01.09.2022
1972 Clouds 22 1016 67 10000 5.66 20 11:50 01.09.2022
1973 Clouds 21 1016 69 10000 6.69 360 11:19 01.09.2022
1974 Clouds 19 1015 78 10000 7.72 330 09:20 01.09.2022
1975 Clouds 18 1015 80 10000 4.63 330 06:31 01.09.2022
1976 Clouds 19 1016 76 10000 5.36 360 02:33 01.09.2022
1977 Clear 19 1016 74 10000 14.31 360 01:29 01.09.2022
1978 Clouds 20 1017 72 10000 6.69 310 22:22 31.08.2022
1979 Clouds 23 1016 59 10000 17.43 360 20:27 31.08.2022
1980 Clear 25 1017 49 10000 7.6 225 18:32 31.08.2022
1981 Clear 27 1018 47 10000 6.71 315 16:35 31.08.2022
1982 Clouds 26 1018 49 10000 5.66 340 15:18 31.08.2022
1983 Clouds 23 1019 57 10000 9.39 360 12:30 31.08.2022
1984 Clouds 22 1019 61 10000 5.81 360 11:48 31.08.2022
1985 Clouds 18 1018 79 10000 2.06 270 09:25 31.08.2022
1986 Clouds 18 1018 79 10000 1.54 340 07:28 31.08.2022
1987 Clouds 20 1020 76 10000 4.63 310 01:57 31.08.2022
1988 Clouds 21 1017 63 10000 6.71 180 21:49 30.08.2022
1989 Clouds 21 1018 62 10000 6.71 180 21:26 30.08.2022
1990 Clouds 24 1017 52 10000 7.6 360 19:26 30.08.2022
1991 Clouds 26 1017 44 10000 5.66 310 16:35 30.08.2022
1992 Clouds 25 1019 48 10000 5.14 330 13:37 30.08.2022
1993 Clouds 22 1019 63 10000 4.63 340 11:23 30.08.2022
1994 Clouds 20 1019 71 10000 5.14 350 10:57 30.08.2022
1995 Clouds 18 1019 81 10000 4.12 340 08:49 30.08.2022
1996 Clouds 19 1017 84 10000 0 0 03:57 30.08.2022
1997 Clouds 20 1016 77 10000 4.63 310 00:26 30.08.2022
1998 Clear 21 1016 72 10000 3.6 300 22:36 29.08.2022
1999 Clear 22 1015 67 10000 4.12 260 21:48 29.08.2022
2000 Clear 23 1015 63 10000 5.66 260 20:34 29.08.2022
2001 Clouds 24 1016 60 10000 5.66 260 18:55 29.08.2022
2002 Clouds 25 1016 60 10000 5.66 210 17:26 29.08.2022
2003 Clouds 25 1016 60 10000 5.14 230 16:57 29.08.2022
2004 Clouds 24 1016 63 10000 5.14 240 15:18 29.08.2022
2005 Clouds 23 1016 64 10000 5.14 210 13:42 29.08.2022
2006 Clouds 23 1016 66 10000 3.6 180 12:20 29.08.2022
2007 Clouds 20 1015 82 10000 3.09 110 10:42 29.08.2022
2008 Mist 18 1014 88 10000 2.57 110 08:53 29.08.2022
2009 Clouds 18 1012 82 10000 1.54 200 06:30 29.08.2022
2010 Clouds 19 1013 76 10000 2.06 240 02:25 29.08.2022
2011 Clouds 20 1012 74 10000 4.63 230 23:33 28.08.2022
2012 Clouds 21 1010 67 10000 4.12 260 21:48 28.08.2022
2013 Clear 22 1010 62 10000 4.12 260 21:25 28.08.2022
2014 Clear 22 1010 63 10000 5.66 250 20:18 28.08.2022
2015 Clear 22 1010 60 10000 6.17 240 20:18 28.08.2022
2016 Clear 22 1009 62 10000 6.17 260 18:22 28.08.2022
2017 Clear 23 1010 59 10000 6.17 270 17:51 28.08.2022
2018 Clear 24 1011 57 10000 6.17 260 16:44 28.08.2022
2019 Clear 23 1011 58 10000 4.12 210 15:00 28.08.2022
2020 Clear 22 1011 64 10000 4.12 220 13:19 28.08.2022
2021 Clouds 20 1010 70 10000 2.24 135 11:25 28.08.2022
2022 Clouds 19 1010 76 8000 3.13 360 10:20 28.08.2022
2023 Clouds 16 1009 82 6000 3.09 40 08:52 28.08.2022
2024 Clouds 16 1009 82 10000 1.54 90 07:53 28.08.2022
2025 Clouds 16 1009 82 10000 1.54 90 07:26 28.08.2022
2026 Clouds 19 1010 78 10000 4.12 300 00:37 28.08.2022
2027 Clouds 20 1010 74 10000 5.66 310 23:20 27.08.2022
2028 Clouds 20 1008 75 10000 5.36 360 22:27 27.08.2022
2029 Clear 23 1008 61 10000 4.63 230 20:35 27.08.2022
2030 Clear 25 1008 52 10000 5.81 315 19:26 27.08.2022
2031 Clear 26 1009 54 10000 5.81 180 16:29 27.08.2022
2032 Clear 25 1010 62 10000 6.71 180 15:31 27.08.2022
2033 Clouds 23 1010 69 10000 4.12 360 13:30 27.08.2022
2034 Clouds 21 1010 74 10000 2.57 0 12:20 27.08.2022
2035 Mist 18 1010 81 7000 2.06 120 10:30 27.08.2022
2036 Mist 18 1010 83 8000 2.57 120 09:36 27.08.2022
2037 Clouds 18 1010 84 10000 3.6 320 06:54 27.08.2022
2038 Clouds 19 1012 82 10000 3.6 310 01:21 27.08.2022
2039 Clouds 19 1011 81 10000 5.36 360 23:48 26.08.2022
2040 Clouds 19 1011 80 10000 4.12 290 21:49 26.08.2022
2041 Clouds 20 1011 73 10000 9.83 315 20:20 26.08.2022
2042 Clouds 25 1011 58 10000 5.36 360 17:59 26.08.2022
2043 Clouds 25 1012 56 10000 6.71 315 16:36 26.08.2022
2044 Clouds 25 1012 59 10000 4.02 225 15:24 26.08.2022
2045 Clouds 22 1013 66 10000 6.17 20 13:20 26.08.2022
2046 Clouds 20 1014 71 10000 9.83 360 11:48 26.08.2022
2047 Clouds 20 1014 75 10000 10.28 315 11:22 26.08.2022
2048 Clouds 19 1015 83 10000 4.63 330 09:45 26.08.2022
2049 Clouds 19 1014 82 10000 6.69 310 04:56 26.08.2022
2050 Clouds 20 1015 78 10000 5.66 320 00:44 26.08.2022
2051 Clouds 20 1015 78 10000 12.86 360 22:45 25.08.2022
2052 Clouds 22 1014 71 10000 12.86 360 20:57 25.08.2022
2053 Clouds 23 1014 64 10000 11.32 350 19:47 25.08.2022
2054 Clouds 26 1014 58 10000 7.2 330 18:36 25.08.2022
2055 Clouds 26 1015 55 10000 11.62 360 17:32 25.08.2022
2056 Clouds 26 1015 57 10000 9.39 360 16:46 25.08.2022
2057 Clouds 25 1016 62 10000 14.75 360 15:37 25.08.2022
2058 Clouds 23 1017 66 10000 9.26 350 14:30 25.08.2022
2059 Clouds 21 1016 77 10000 7.6 337 11:34 25.08.2022
2060 Clouds 20 1016 78 10000 8.49 292 10:45 25.08.2022
2061 Clouds 20 1015 78 10000 8.05 360 07:55 25.08.2022
2062 Clouds 19 1016 83 10000 7.6 360 03:54 25.08.2022
2063 Clouds 20 1016 82 10000 7.2 340 23:39 24.08.2022
2064 Clouds 20 1016 81 10000 7.2 340 23:18 24.08.2022
2065 Clouds 20 1015 82 10000 13.89 350 21:59 24.08.2022
2066 Clouds 20 1015 81 10000 12.35 350 21:31 24.08.2022
2067 Clouds 22 1014 77 10000 12.96 360 20:18 24.08.2022
2068 Clouds 24 1014 70 10000 16.09 360 17:32 24.08.2022
2069 Clouds 26 1014 64 10000 12.96 360 15:55 24.08.2022
2070 Clouds 25 1014 62 10000 12.96 360 15:35 24.08.2022
2071 Clouds 23 1013 71 10000 10.29 360 12:52 24.08.2022
2072 Clouds 21 1013 75 10000 8.49 360 11:21 24.08.2022
2073 Clouds 19 1012 84 10000 6.17 350 09:19 24.08.2022
2074 Clouds 19 1011 87 10000 4.63 330 06:52 24.08.2022
2075 Clear 20 1012 83 10000 7.72 20 01:20 24.08.2022
2076 Clear 21 1011 80 10000 6.69 310 22:49 23.08.2022
2077 Clear 21 1011 77 10000 9.39 360 22:18 23.08.2022
2078 Clear 25 1010 63 10000 6.69 20 20:49 23.08.2022
2079 Clear 27 1011 58 10000 6.17 20 19:28 23.08.2022
2080 Clear 30 1010 50 10000 5.36 360 18:21 23.08.2022
2081 Clear 30 1010 51 10000 5.14 260 17:31 23.08.2022
2082 Clear 29 1010 49 10000 4.12 230 16:31 23.08.2022
2083 Clear 29 1010 50 10000 3.09 0 14:54 23.08.2022
2084 Clear 28 1011 57 10000 3.6 40 13:25 23.08.2022
2085 Clouds 22 1011 75 10000 3.09 320 11:19 23.08.2022
2086 Clouds 21 1011 79 10000 4.12 310 10:33 23.08.2022
2087 Clouds 20 1010 84 10000 4.12 320 09:46 23.08.2022
2088 Clouds 19 1010 88 10000 4.12 330 08:47 23.08.2022
2089 Clouds 19 1010 88 10000 4.12 330 08:19 23.08.2022
2090 Clouds 19 1009 87 10000 7.15 360 07:33 23.08.2022
2091 Clouds 19 1009 88 10000 5.66 310 06:26 23.08.2022
2092 Clear 20 1010 81 10000 9.83 225 01:55 23.08.2022
2093 Clear 22 1010 76 10000 7.72 310 00:27 23.08.2022
2094 Clear 22 1011 74 10000 10.29 360 23:32 22.08.2022
2095 Clear 23 1010 69 10000 10.8 360 22:29 22.08.2022
2096 Clear 25 1010 60 10000 10.73 292 20:58 22.08.2022
2097 Clear 28 1011 49 10000 12.86 360 19:47 22.08.2022
2098 Clear 30 1011 43 10000 10.29 360 18:38 22.08.2022
2099 Clear 30 1012 43 10000 12.96 360 16:26 22.08.2022
2100 Clear 29 1012 49 10000 12.07 315 15:38 22.08.2022
2101 Clouds 25 1014 60 10000 6.69 10 12:57 22.08.2022
2102 Clouds 20 1013 80 10000 10.8 360 10:20 22.08.2022
2103 Clouds 19 1013 87 10000 19.67 360 07:41 22.08.2022
2104 Clouds 19 1016 82 10000 6.17 350 02:56 22.08.2022
2105 Clouds 20 1017 84 10000 6.69 340 00:37 22.08.2022
2106 Clouds 20 1017 84 10000 10.28 315 23:59 21.08.2022
2107 Clouds 21 1017 79 10000 10.28 360 22:18 21.08.2022
2108 Clouds 22 1017 71 10000 9.77 350 21:23 21.08.2022
2109 Clouds 24 1016 60 10000 14.75 360 20:27 21.08.2022
2110 Clouds 26 1017 45 10000 12.96 225 19:23 21.08.2022
2111 Clouds 29 1018 44 10000 9.83 360 16:55 21.08.2022
2112 Clear 28 1018 40 10000 14.75 360 15:53 21.08.2022
2113 Clear 29 1018 40 10000 10.29 350 15:20 21.08.2022
2114 Clear 27 1019 40 10000 12.07 360 13:51 21.08.2022
2115 Clear 26 1019 42 10000 13.86 360 13:24 21.08.2022
2116 Clear 23 1019 52 10000 9.77 360 11:29 21.08.2022
2117 Clouds 19 1018 68 10000 7.15 360 09:31 21.08.2022
2118 Clouds 19 1018 73 10000 7.15 360 08:56 21.08.2022
2119 Clouds 18 1018 73 10000 8.05 360 08:38 21.08.2022
2120 Clear 19 1018 70 10000 5.81 270 07:26 21.08.2022
2121 Clear 20 1018 57 10000 5.81 360 03:39 21.08.2022
2122 Clear 21 1018 66 10000 11.62 360 23:49 20.08.2022
2123 Clear 22 1017 62 10000 9.77 10 22:24 20.08.2022
2124 Clear 25 1017 52 10000 9.77 10 21:34 20.08.2022
2125 Clear 26 1016 49 10000 10.29 360 20:28 20.08.2022
2126 Clear 29 1016 49 10000 7.2 360 19:40 20.08.2022
2127 Clear 31 1016 43 10000 7.2 360 18:29 20.08.2022
2128 Clear 32 1016 40 10000 7.72 10 17:40 20.08.2022
2129 Clear 33 1016 36 10000 7.72 360 16:49 20.08.2022
2130 Clear 33 1016 36 10000 6.69 20 15:30 20.08.2022
2131 Clear 30 1017 42 10000 6.69 20 13:24 20.08.2022
2132 Clear 27 1017 47 10000 6.17 20 11:49 20.08.2022
2133 Clear 22 1015 54 10000 6.69 20 09:34 20.08.2022
2134 Clear 21 1015 52 10000 6.69 20 08:29 20.08.2022
2135 Clear 23 1014 45 10000 2.06 320 05:51 20.08.2022
2136 Clear 27 1016 32 10000 12.52 360 00:59 20.08.2022
2137 Clear 27 1017 32 10000 7.15 360 00:34 20.08.2022
2138 Clear 29 1014 24 10000 7.2 10 22:59 19.08.2022
2139 Clear 31 1015 30 10000 7.72 360 21:40 19.08.2022
2140 Clear 34 1015 23 10000 9.77 350 19:54 19.08.2022
2141 Clear 36 1015 21 10000 3.6 210 17:19 19.08.2022
2142 Clear 34 1015 23 10000 4.12 330 15:18 19.08.2022
2143 Clear 30 1016 32 10000 5.81 135 13:18 19.08.2022
2144 Clear 27 1015 30 10000 8.05 360 10:52 19.08.2022
2145 Clear 26 1015 33 10000 8.05 360 10:21 19.08.2022
2146 Clear 20 1014 57 10000 2.57 10 06:27 19.08.2022
2147 Clear 23 1016 48 10000 5.14 320 00:56 19.08.2022
2148 Clear 23 1015 42 10000 8.05 360 00:26 19.08.2022
2149 Clear 23 1015 43 10000 5.66 320 23:37 18.08.2022
2150 Clear 24 1015 42 10000 8.23 10 22:49 18.08.2022
2151 Clear 24 1015 42 10000 8.23 10 21:55 18.08.2022
2152 Clear 24 1015 41 10000 8.23 360 21:26 18.08.2022
2153 Clear 28 1015 36 10000 9.77 350 19:56 18.08.2022
2154 Clear 29 1015 40 10000 8.75 350 19:26 18.08.2022
2155 Clear 31 1015 32 10000 5.14 320 17:50 18.08.2022
2156 Clear 30 1016 32 10000 3.6 100 16:58 18.08.2022
2157 Clear 27 1017 41 10000 5.14 360 14:45 18.08.2022
2158 Clear 27 1017 40 10000 5.14 10 14:19 18.08.2022
2159 Clear 25 1017 44 10000 6.17 360 12:55 18.08.2022
2160 Clear 22 1016 53 10000 9.26 360 11:34 18.08.2022
2161 Clear 18 1016 67 10000 9.77 360 09:43 18.08.2022
2162 Clear 18 1015 70 10000 9.26 360 08:39 18.08.2022
2163 Clear 18 1015 73 10000 7.2 330 07:19 18.08.2022
2164 Clear 18 1016 76 10000 5.14 320 03:57 18.08.2022
2165 Clear 18 1016 70 10000 9.26 330 23:34 17.08.2022
2166 Clouds 20 1016 62 10000 9.77 10 21:40 17.08.2022
2167 Clear 22 1015 51 10000 9.77 360 20:18 17.08.2022
2168 Clear 23 1016 47 10000 11.83 350 19:28 17.08.2022
2169 Clouds 24 1016 43 10000 15.43 360 17:35 17.08.2022
2170 Clouds 25 1016 46 10000 11.83 360 16:22 17.08.2022
2171 Clouds 25 1016 46 10000 11.83 360 16:22 17.08.2022
2172 Clouds 24 1016 49 10000 11.32 350 15:26 17.08.2022
2173 Clouds 23 1017 49 10000 13.38 350 12:57 17.08.2022
2174 Clouds 22 1016 57 10000 10.29 20 11:37 17.08.2022
2175 Clouds 19 1015 70 10000 9.26 360 09:31 17.08.2022
2176 Clouds 19 1015 73 10000 6.69 350 08:23 17.08.2022
2177 Clouds 19 1016 72 10000 5.14 350 03:27 17.08.2022
2178 Clouds 20 1016 71 10000 8.23 340 23:58 16.08.2022
2179 Clouds 20 1015 69 10000 8.23 330 22:35 16.08.2022
2180 Clouds 21 1015 63 10000 8.75 340 20:52 16.08.2022
2181 Clouds 22 1015 56 10000 9.77 340 19:53 16.08.2022
2182 Clouds 23 1014 50 10000 10.8 350 18:40 16.08.2022
2183 Clouds 24 1015 45 10000 8.75 330 17:43 16.08.2022
2184 Clouds 25 1015 45 10000 9.77 340 15:48 16.08.2022
2185 Clouds 25 1015 48 10000 8.75 330 14:55 16.08.2022
2186 Clouds 25 1014 47 10000 8.23 330 14:37 16.08.2022
2187 Clouds 24 1015 51 10000 6.17 330 12:58 16.08.2022
2188 Clouds 22 1014 67 10000 6.69 10 10:59 16.08.2022
2189 Clouds 21 1013 74 10000 7.2 360 09:50 16.08.2022
2190 Clouds 20 1013 81 10000 7.72 350 08:47 16.08.2022
2191 Clouds 20 1012 81 10000 3.09 300 07:58 16.08.2022
2192 Clouds 20 1013 77 10000 2.06 320 02:50 16.08.2022
2193 Clear 21 1012 69 10000 6.69 310 22:31 15.08.2022
2194 Clear 21 1012 68 10000 6.69 300 21:55 15.08.2022
2195 Clear 21 1012 66 10000 6.69 300 21:35 15.08.2022
2196 Clear 23 1012 57 10000 6.69 300 20:20 15.08.2022
2197 Clear 25 1012 50 10000 6.17 310 18:43 15.08.2022
2198 Clear 26 1012 46 10000 5.66 310 17:46 15.08.2022
2199 Clear 27 1013 45 10000 6.69 360 16:22 15.08.2022
2200 Clouds 26 1014 51 10000 7.2 350 13:58 15.08.2022
2201 Clouds 24 1014 58 10000 6.17 350 12:38 15.08.2022
2202 Clouds 21 1014 70 10000 5.66 350 10:18 15.08.2022
2203 Clouds 20 1014 73 10000 4.12 330 08:51 15.08.2022
2204 Clouds 20 1014 76 10000 3.09 330 06:34 15.08.2022
2205 Clouds 20 1015 78 10000 3.6 320 03:34 15.08.2022
2206 Clouds 21 1015 75 10000 5.66 330 23:24 14.08.2022
2207 Clouds 22 1014 67 10000 7.72 350 21:43 14.08.2022
2208 Clouds 23 1014 59 10000 8.75 330 20:33 14.08.2022
2209 Clouds 24 1014 54 10000 9.26 330 19:36 14.08.2022
2210 Clouds 25 1014 50 10000 7.72 340 18:21 14.08.2022
2211 Clouds 25 1014 50 10000 7.2 330 17:31 14.08.2022
2212 Clouds 26 1014 48 10000 6.17 320 16:23 14.08.2022
2213 Clouds 26 1015 51 10000 6.69 330 14:55 14.08.2022
2214 Clouds 25 1015 52 10000 6.69 320 13:51 14.08.2022
2215 Clouds 25 1015 50 10000 6.69 320 13:31 14.08.2022
2216 Clouds 25 1015 50 10000 6.69 320 13:31 14.08.2022
2217 Clouds 24 1015 57 10000 6.17 360 12:42 14.08.2022
2218 Clouds 22 1015 66 10000 5.66 330 11:23 14.08.2022
2219 Clouds 19 1015 81 10000 2.06 340 08:57 14.08.2022
2220 Clouds 18 1014 81 10000 3.09 360 06:41 14.08.2022
2221 Clouds 19 1015 80 10000 2.57 350 05:37 14.08.2022
2222 Clouds 20 1015 76 10000 2.57 340 01:43 14.08.2022
2223 Clouds 21 1016 73 10000 5.66 310 23:22 13.08.2022
2224 Clouds 21 1014 70 10000 7.2 310 22:28 13.08.2022
2225 Clouds 23 1014 60 10000 9.39 360 20:51 13.08.2022
2226 Clouds 24 1013 53 10000 9.83 225 19:49 13.08.2022
2227 Clouds 25 1013 51 10000 7.15 360 19:19 13.08.2022
2228 Clouds 27 1013 44 10000 8.05 360 17:22 13.08.2022
2229 Clouds 27 1013 49 10000 9.83 315 14:51 13.08.2022
2230 Clouds 27 1013 50 10000 8.49 270 14:24 13.08.2022
2231 Clouds 26 1013 53 10000 3.13 360 13:34 13.08.2022
2232 Clouds 23 1014 66 10000 3.09 190 11:33 13.08.2022
2233 Clouds 19 1013 82 10000 5.66 340 09:27 13.08.2022
2234 Clouds 19 1012 81 10000 5.14 310 07:43 13.08.2022
2235 Clouds 20 1013 79 10000 6.17 330 01:56 13.08.2022
2236 Clouds 21 1013 77 10000 7.15 315 23:36 12.08.2022
2237 Clouds 23 1013 65 10000 5.66 360 21:40 12.08.2022
2238 Clear 26 1013 55 10000 6.17 10 19:50 12.08.2022
2239 Clear 27 1013 55 10000 5.66 360 19:24 12.08.2022
2240 Clear 27 1014 53 10000 5.66 330 18:29 12.08.2022
2241 Clouds 27 1014 56 10000 6.17 260 16:27 12.08.2022
2242 Clouds 27 1015 55 10000 4.63 270 15:23 12.08.2022
2243 Clear 26 1015 61 10000 4.63 210 13:50 12.08.2022
2244 Clouds 24 1016 64 10000 4.63 210 12:50 12.08.2022
2245 Clouds 19 1015 83 10000 2.06 350 09:22 12.08.2022
2246 Clouds 18 1015 82 10000 2.06 320 07:46 12.08.2022
2247 Clouds 19 1015 83 10000 2.06 310 06:25 12.08.2022
2248 Clouds 20 1016 79 10000 3.09 300 01:22 12.08.2022
2249 Clouds 21 1016 78 10000 3.6 300 00:18 12.08.2022
2250 Clear 21 1015 75 10000 3.6 280 23:27 11.08.2022
2251 Clear 22 1014 71 10000 5.66 260 21:55 11.08.2022
2252 Clouds 22 1014 70 10000 5.66 260 21:34 11.08.2022
2253 Clouds 24 1014 65 10000 5.66 250 20:31 11.08.2022
2254 Clouds 24 1014 64 10000 6.17 220 19:41 11.08.2022
2255 Clouds 24 1014 61 10000 6.17 220 19:21 11.08.2022
2256 Clouds 25 1015 56 10000 5.66 200 17:34 11.08.2022
2257 Clouds 24 1015 61 10000 4.63 230 16:19 11.08.2022
2258 Clouds 24 1016 61 10000 4.12 240 15:20 11.08.2022
2259 Clouds 22 1016 72 10000 4.12 160 12:35 11.08.2022
2260 Clouds 20 1014 89 10000 2.57 140 09:29 11.08.2022
2261 Clouds 19 1014 87 10000 0 0 06:59 11.08.2022
2262 Clouds 20 1013 80 10000 2.24 360 03:25 11.08.2022
2263 Clear 21 1014 74 10000 3.09 240 00:28 11.08.2022
2264 Clear 21 1012 75 10000 5.14 230 22:21 10.08.2022
2265 Clear 22 1012 65 10000 9.39 225 21:20 10.08.2022
2266 Clear 23 1011 61 10000 8.49 270 20:43 10.08.2022
2267 Clear 23 1011 61 10000 8.49 270 20:43 10.08.2022
2268 Clear 25 1012 61 10000 9.83 315 18:53 10.08.2022
2269 Clear 25 1013 57 10000 12.52 135 17:31 10.08.2022
2270 Clear 25 1013 59 10000 7.6 270 15:53 10.08.2022
2271 Clouds 24 1014 62 10000 4.12 270 13:34 10.08.2022
2272 Clouds 23 1014 64 10000 8.49 225 12:27 10.08.2022
2273 Clouds 18 1013 86 10000 4.02 225 08:55 10.08.2022
2274 Clouds 18 1013 88 10000 2.24 270 08:31 10.08.2022
2275 Clouds 18 1013 85 10000 1.34 337 06:22 10.08.2022
2276 Clear 19 1013 81 10000 3.09 310 02:45 10.08.2022
2277 Clouds 21 1013 76 10000 4.12 10 23:34 09.08.2022
2278 Clouds 21 1013 74 10000 4.63 310 22:55 09.08.2022
2279 Clear 23 1013 66 10000 5.81 270 21:34 09.08.2022
2280 Clear 25 1013 53 10000 5.66 250 19:35 09.08.2022
2281 Clear 27 1014 49 10000 5.66 230 18:29 09.08.2022
2282 Clear 27 1014 53 10000 4.63 240 17:27 09.08.2022
2283 Clear 26 1014 56 10000 5.14 260 16:40 09.08.2022
2284 Clear 26 1014 56 10000 5.14 260 16:40 09.08.2022
2285 Clear 26 1015 57 10000 4.63 260 15:46 09.08.2022
2286 Clear 23 1016 68 10000 3.09 360 12:48 09.08.2022
2287 Clouds 19 1015 81 8000 3.6 10 09:30 09.08.2022
2288 Clouds 18 1015 86 8000 3.6 300 08:33 09.08.2022
2289 Clear 18 1015 83 9000 4.12 320 07:20 09.08.2022
2290 Clear 19 1015 81 10000 3.6 310 03:32 09.08.2022
2291 Clouds 20 1016 75 10000 5.66 360 23:27 08.08.2022
2292 Clouds 21 1016 72 10000 4.12 360 22:54 08.08.2022
2293 Clouds 21 1015 66 10000 4.12 300 21:49 08.08.2022
2294 Clouds 23 1015 63 10000 5.66 250 20:55 08.08.2022
2295 Clouds 23 1015 60 10000 6.17 260 19:50 08.08.2022
2296 Clouds 24 1015 61 10000 5.66 260 18:38 08.08.2022
2297 Clouds 24 1016 57 10000 5.66 260 16:37 08.08.2022
2298 Clouds 24 1016 57 10000 5.14 260 15:39 08.08.2022
2299 Clouds 23 1016 65 10000 4.12 200 12:51 08.08.2022
2300 Clouds 22 1016 67 10000 3.09 220 11:58 08.08.2022
2301 Clear 19 1015 78 10000 2.06 290 09:43 08.08.2022
2302 Clear 18 1014 77 10000 2.57 310 05:43 08.08.2022
2303 Clear 19 1014 73 10000 4.02 337 02:27 08.08.2022
2304 Clear 21 1013 67 10000 4.63 240 22:32 07.08.2022
2305 Clear 22 1013 61 10000 5.81 360 21:39 07.08.2022
2306 Clear 23 1013 59 10000 7.6 270 20:26 07.08.2022
2307 Clear 23 1013 59 10000 7.6 270 20:26 07.08.2022
2308 Clear 24 1013 62 10000 12.07 225 19:55 07.08.2022
2309 Clear 24 1013 59 10000 10.73 180 19:34 07.08.2022
2310 Clear 24 1013 59 10000 7.6 225 18:23 07.08.2022
2311 Clear 25 1014 59 10000 12.52 225 16:54 07.08.2022
2312 Clouds 25 1014 58 10000 9.39 225 16:35 07.08.2022
2313 Clouds 24 1014 58 10000 8.05 135 15:20 07.08.2022
2314 Clouds 23 1015 62 10000 5.81 180 13:24 07.08.2022
2315 Clouds 21 1015 70 10000 3.13 225 11:27 07.08.2022
2316 Clouds 20 1015 72 10000 3.6 220 10:34 07.08.2022
2317 Clouds 18 1014 82 10000 1.79 270 07:36 07.08.2022
2318 Clouds 19 1016 79 10000 0 0 03:20 07.08.2022
2319 Clear 19 1015 77 10000 3.09 250 00:31 07.08.2022
2320 Clear 20 1015 70 10000 3.13 315 22:24 06.08.2022
2321 Clear 23 1014 64 10000 8.05 360 20:46 06.08.2022
2322 Clear 23 1014 62 10000 10.73 225 19:41 06.08.2022
2323 Clear 24 1015 62 10000 7.2 210 18:30 06.08.2022
2324 Clear 23 1015 62 10000 13.86 225 17:32 06.08.2022
2325 Clouds 23 1017 67 10000 3.6 210 14:48 06.08.2022
2326 Clouds 22 1017 69 10000 3.09 200 13:49 06.08.2022
2327 Clouds 20 1017 84 9000 2.57 250 11:55 06.08.2022
2328 Clouds 20 1016 86 9000 0.51 0 10:33 06.08.2022
2329 Clouds 19 1016 90 10000 1.03 0 08:40 06.08.2022
2330 Clouds 19 1015 90 10000 2.57 280 03:53 06.08.2022
2331 Clouds 19 1016 90 10000 5.66 320 23:50 05.08.2022
2332 Clouds 20 1015 87 10000 4.63 310 22:33 05.08.2022
2333 Clouds 23 1014 68 10000 4.12 310 19:59 05.08.2022
2334 Clouds 26 1014 59 10000 3.6 320 18:46 05.08.2022
2335 Clouds 26 1014 58 10000 3.09 310 18:25 05.08.2022
2336 Clouds 27 1015 60 10000 3.6 300 16:49 05.08.2022
2337 Clouds 24 1015 65 10000 3.09 20 15:23 05.08.2022
2338 Clouds 24 1016 65 10000 4.12 20 14:32 05.08.2022
2339 Clouds 22 1016 74 10000 5.14 20 13:25 05.08.2022
2340 Clouds 21 1016 80 9000 2.06 340 12:44 05.08.2022
2341 Clouds 20 1015 79 9000 2.57 310 10:55 05.08.2022
2342 Clouds 19 1014 84 9000 4.12 360 08:36 05.08.2022
2343 Clouds 20 1014 83 9000 4.12 330 07:28 05.08.2022
2344 Clouds 20 1014 81 10000 6.71 360 01:46 05.08.2022
2345 Clouds 20 1013 78 10000 9.26 330 22:40 04.08.2022
2346 Clouds 22 1013 74 10000 9.39 360 21:27 04.08.2022
2347 Clouds 22 1012 72 10000 10.73 315 20:53 04.08.2022
2348 Clouds 22 1012 71 10000 10.28 360 20:33 04.08.2022
2349 Clouds 24 1013 66 10000 9.83 360 18:57 04.08.2022
2350 Clouds 24 1013 65 10000 9.26 360 18:33 04.08.2022
2351 Clouds 23 1015 71 10000 6.69 350 14:50 04.08.2022
2352 Clouds 22 1015 73 10000 6.17 350 13:23 04.08.2022
2353 Clouds 21 1014 77 10000 5.66 340 11:39 04.08.2022
2354 Clouds 20 1013 79 10000 10.28 360 10:20 04.08.2022
2355 Clouds 19 1013 81 10000 4.63 330 07:44 04.08.2022
2356 Clouds 20 1014 81 10000 6.69 330 02:46 04.08.2022
2357 Clouds 20 1013 80 10000 13.86 360 00:33 04.08.2022
2358 Clouds 20 1013 78 10000 7.72 330 23:39 03.08.2022
2359 Clouds 21 1013 77 10000 11.83 360 21:27 03.08.2022
2360 Clouds 22 1012 73 10000 17.43 360 20:21 03.08.2022
2361 Clouds 24 1012 68 10000 12.35 350 19:19 03.08.2022
2362 Clouds 27 1013 59 10000 11.32 350 16:48 03.08.2022
2363 Clouds 26 1013 60 10000 11.83 350 16:22 03.08.2022
2364 Clouds 25 1013 64 10000 8.23 10 13:52 03.08.2022
2365 Clouds 21 1013 77 10000 9.83 360 10:56 03.08.2022
2366 Clouds 19 1012 82 10000 7.15 360 07:26 03.08.2022
2367 Clouds 19 1012 80 10000 5.66 320 04:22 03.08.2022
2368 Clouds 19 1012 78 10000 5.81 360 03:23 03.08.2022
2369 Clouds 20 1013 78 10000 8.49 225 00:53 03.08.2022
2370 Clouds 21 1012 76 10000 12.52 360 22:43 02.08.2022
2371 Clouds 21 1012 73 10000 8.75 360 21:52 02.08.2022
2372 Clouds 25 1012 63 10000 7.72 10 20:32 02.08.2022
2373 Clear 28 1013 50 10000 5.66 230 18:34 02.08.2022
2374 Clear 28 1014 55 10000 4.47 315 15:20 02.08.2022
2375 Mist 22 1015 76 10000 3.13 360 11:30 02.08.2022
2376 Clouds 18 1014 85 9000 2.68 360 08:59 02.08.2022
2377 Mist 18 1013 84 9000 2.68 360 07:52 02.08.2022
2378 Clouds 19 1014 82 10000 3.6 320 06:42 02.08.2022
2379 Fog 19 1013 78 10000 2.57 120 04:54 02.08.2022
2380 Clear 23 1014 60 10000 1.54 210 23:35 01.08.2022
2381 Clear 24 1013 57 10000 5.66 310 22:23 01.08.2022
2382 Clear 28 1013 48 10000 10.28 360 20:51 01.08.2022
2383 Clear 32 1013 38 10000 5.66 230 19:25 01.08.2022
2384 Clear 31 1013 43 10000 6.17 230 18:30 01.08.2022
2385 Clear 31 1014 46 10000 8.05 270 16:53 01.08.2022
2386 Clear 31 1014 45 10000 8.05 135 15:52 01.08.2022
2387 Clear 31 1014 46 10000 7.6 180 15:30 01.08.2022
2388 Clear 31 1014 47 10000 5.81 180 14:20 01.08.2022
2389 Clear 27 1014 59 10000 2.06 40 11:50 01.08.2022
2390 Clouds 23 1015 70 10000 1.54 200 09:40 01.08.2022
2391 Clear 20 1013 76 10000 4.12 20 08:25 01.08.2022
2392 Clear 22 1013 64 10000 4.63 320 04:54 01.08.2022
2393 Clear 22 1013 66 10000 2.06 240 03:49 01.08.2022
2394 Clouds 24 1015 54 8000 4.12 300 00:23 01.08.2022
2395 Clouds 28 1013 45 10000 5.81 315 22:39 31.07.2022
2396 Clear 29 1013 39 10000 5.14 310 21:29 31.07.2022
2397 Clear 31 1014 37 10000 4.63 310 19:53 31.07.2022
2398 Clear 31 1014 41 10000 5.14 230 17:57 31.07.2022
2399 Clear 32 1015 37 10000 11.62 180 15:39 31.07.2022
2400 Clear 31 1015 39 10000 8.05 315 13:44 31.07.2022
2401 Clear 29 1015 50 10000 2.57 100 11:59 31.07.2022
2402 Clear 24 1014 63 10000 2.57 10 09:55 31.07.2022
2403 Clear 21 1014 65 10000 2.06 250 07:59 31.07.2022
2404 Clear 24 1014 56 10000 3.09 320 03:28 31.07.2022
2405 Clear 24 1014 63 10000 5.66 310 23:46 30.07.2022
2406 Clear 26 1013 58 10000 6.17 10 22:19 30.07.2022
2407 Clear 28 1013 51 10000 7.15 360 21:49 30.07.2022
2408 Clear 29 1014 48 10000 5.66 20 20:57 30.07.2022
2409 Clear 29 1014 48 10000 5.66 20 20:57 30.07.2022
2410 Clear 29 1013 50 10000 4.63 30 19:59 30.07.2022
2411 Clear 31 1013 45 10000 5.81 225 18:53 30.07.2022
2412 Clear 31 1013 46 10000 9.39 225 17:45 30.07.2022
2413 Clear 31 1014 48 10000 5.36 180 15:54 30.07.2022
2414 Clear 31 1014 50 10000 7.15 180 15:24 30.07.2022
2415 Clear 28 1015 58 10000 3.09 120 13:19 30.07.2022
2416 Clear 26 1016 62 10000 1.54 270 12:19 30.07.2022
2417 Clouds 22 1015 78 10000 3.09 300 10:35 30.07.2022
2418 Clouds 20 1015 80 10000 3.6 330 09:57 30.07.2022
2419 Clouds 19 1014 84 10000 3.09 320 07:55 30.07.2022
2420 Clouds 20 1014 82 10000 7.72 310 04:20 30.07.2022
2421 Clouds 21 1016 80 10000 6.17 320 02:28 30.07.2022
2422 Clouds 21 1016 76 10000 12.35 360 22:46 29.07.2022
2423 Clouds 22 1015 70 10000 12.86 360 21:24 29.07.2022
2424 Clouds 24 1015 64 10000 13.38 360 20:50 29.07.2022
2425 Clouds 27 1015 57 10000 12.86 350 18:27 29.07.2022
2426 Clouds 28 1015 56 10000 13.89 350 16:32 29.07.2022
2427 Clouds 26 1016 56 10000 12.35 360 13:45 29.07.2022
2428 Clouds 23 1016 64 10000 12.86 360 11:30 29.07.2022
2429 Clouds 20 1015 76 10000 12.35 360 08:50 29.07.2022
2430 Clouds 20 1016 76 10000 12.35 360 08:20 29.07.2022
2431 Clouds 20 1016 76 10000 7.2 340 02:52 29.07.2022
2432 Clouds 20 1016 73 10000 11.32 360 23:20 28.07.2022
2433 Clouds 22 1014 69 10000 14.75 360 21:30 28.07.2022
2434 Clouds 23 1014 63 10000 14.75 360 20:45 28.07.2022
2435 Clouds 25 1014 62 10000 12.86 350 19:44 28.07.2022
2436 Clouds 24 1014 64 10000 19.22 360 19:25 28.07.2022
2437 Clouds 26 1014 63 10000 10.73 360 17:44 28.07.2022
2438 Clouds 26 1014 60 10000 12.96 360 17:19 28.07.2022
2439 Clouds 27 1014 57 10000 10.28 360 16:39 28.07.2022
2440 Clouds 26 1015 57 10000 7.72 350 13:47 28.07.2022
2441 Clouds 24 1015 68 10000 7.72 350 11:43 28.07.2022
2442 Clouds 19 1015 78 10000 7.15 360 06:59 28.07.2022
2443 Clouds 19 1015 77 10000 6.71 360 05:33 28.07.2022
2444 Clouds 19 1015 72 10000 10.28 360 03:53 28.07.2022
2445 Clouds 20 1016 70 10000 15.43 350 23:19 27.07.2022
2446 Clouds 21 1014 67 10000 19.67 360 21:29 27.07.2022
2447 Clouds 23 1014 58 10000 19.67 360 19:46 27.07.2022
2448 Clouds 25 1014 52 10000 13.89 340 18:49 27.07.2022
2449 Clouds 25 1015 49 10000 12.35 350 16:31 27.07.2022
2450 Clouds 26 1016 44 10000 10.8 340 15:41 27.07.2022
2451 Clouds 25 1016 48 10000 10.29 350 14:41 27.07.2022
2452 Clouds 24 1016 54 10000 10.28 315 13:29 27.07.2022
2453 Clouds 19 1016 75 10000 13.89 340 09:27 27.07.2022
2454 Clouds 19 1016 76 10000 7.72 320 07:40 27.07.2022
2455 Clouds 19 1016 76 10000 7.72 320 07:40 27.07.2022
2456 Clouds 19 1017 75 10000 9.39 360 03:57 27.07.2022
2457 Clouds 21 1018 71 10000 9.26 350 22:49 26.07.2022
2458 Clouds 23 1017 64 10000 10.29 350 21:36 26.07.2022
2459 Clouds 24 1017 60 10000 12.52 360 20:49 26.07.2022
2460 Clouds 26 1017 52 10000 17.88 292 19:20 26.07.2022
2461 Clouds 27 1018 51 10000 15.2 360 18:39 26.07.2022
2462 Clouds 27 1018 51 10000 10.8 340 17:46 26.07.2022
2463 Clouds 29 1018 49 10000 9.39 315 15:43 26.07.2022
2464 Clouds 28 1018 52 10000 11.62 360 14:38 26.07.2022
2465 Clouds 25 1019 58 10000 9.83 360 11:47 26.07.2022
2466 Clouds 21 1018 71 10000 7.15 360 09:44 26.07.2022
2467 Clouds 20 1018 75 10000 12.96 360 08:18 26.07.2022
2468 Clear 21 1019 67 10000 7.2 340 01:52 26.07.2022
2469 Clear 22 1020 65 10000 10.28 360 23:44 25.07.2022
2470 Clear 23 1019 62 10000 10.29 360 22:39 25.07.2022
2471 Clear 24 1019 62 10000 8.75 360 21:43 25.07.2022
2472 Clear 27 1019 53 10000 12.86 350 20:43 25.07.2022
2473 Clear 28 1018 51 10000 12.52 360 19:55 25.07.2022
2474 Clear 28 1018 52 10000 14.31 360 19:24 25.07.2022
2475 Clear 30 1018 43 10000 8.75 350 17:35 25.07.2022
2476 Clear 30 1019 41 10000 11.62 292 16:40 25.07.2022
2477 Clear 27 1020 41 10000 7.2 360 12:58 25.07.2022
2478 Clear 22 1020 57 10000 5.14 350 10:48 25.07.2022
2479 Clear 18 1019 76 10000 4.12 330 07:32 25.07.2022
2480 Clear 20 1019 66 10000 6.17 340 00:38 25.07.2022
2481 Clear 22 1019 58 10000 6.17 310 23:45 24.07.2022
2482 Clear 23 1018 52 10000 7.72 10 22:43 24.07.2022
2483 Clear 26 1017 45 10000 6.69 360 21:41 24.07.2022
2484 Clear 27 1017 43 10000 7.72 360 20:58 24.07.2022
2485 Clear 27 1017 43 10000 7.2 10 20:37 24.07.2022
2486 Clear 30 1017 41 10000 6.69 340 19:18 24.07.2022
2487 Clear 31 1017 38 10000 7.72 360 17:56 24.07.2022
2488 Clear 31 1017 41 10000 9.83 360 15:54 24.07.2022
2489 Clear 29 1019 43 10000 5.66 10 14:41 24.07.2022
2490 Clear 28 1019 45 10000 4.63 350 13:47 24.07.2022
2491 Clear 25 1019 54 10000 2.24 315 12:28 24.07.2022
2492 Clear 23 1019 57 10000 7.2 350 11:30 24.07.2022
2493 Clear 21 1018 70 10000 5.66 10 09:47 24.07.2022
2494 Clear 19 1017 76 10000 2.57 0 07:57 24.07.2022
2495 Clear 19 1017 77 10000 2.06 0 07:31 24.07.2022
2496 Clear 20 1017 68 10000 4.63 330 02:57 24.07.2022
2497 Clear 23 1016 58 10000 5.14 310 23:25 23.07.2022
2498 Clear 29 1015 40 10000 8.23 10 20:47 23.07.2022
2499 Clear 30 1016 41 10000 6.71 360 19:29 23.07.2022
2500 Clear 32 1016 40 10000 6.71 270 18:36 23.07.2022
2501 Clear 32 1016 36 10000 6.69 20 17:27 23.07.2022
2502 Clear 31 1016 39 10000 4.92 315 16:24 23.07.2022
2503 Clear 30 1016 43 10000 4.63 30 15:22 23.07.2022
2504 Clear 30 1016 43 10000 5.14 20 14:55 23.07.2022
2505 Clear 30 1016 44 10000 6.17 30 14:23 23.07.2022
2506 Clear 25 1018 62 10000 3.6 340 11:56 23.07.2022
2507 Clear 22 1017 68 10000 4.12 340 10:44 23.07.2022
2508 Clouds 20 1017 75 10000 3.13 270 09:44 23.07.2022
2509 Clear 18 1017 82 10000 4.63 330 07:37 23.07.2022
2510 Clear 20 1017 77 10000 4.12 330 03:37 23.07.2022
2511 Clear 20 1017 72 10000 11.62 360 00:39 23.07.2022
2512 Clear 23 1016 62 10000 6.71 360 21:38 22.07.2022
2513 Clear 25 1016 57 10000 7.72 320 20:33 22.07.2022
2514 Clear 30 1016 47 10000 8.23 360 18:57 22.07.2022
2515 Clear 31 1016 41 10000 9.83 360 17:52 22.07.2022
2516 Clouds 30 1017 46 10000 6.69 350 16:31 22.07.2022
2517 Clouds 28 1017 50 10000 6.17 350 14:20 22.07.2022
2518 Clouds 21 1017 68 10000 7.6 360 10:41 22.07.2022
2519 Clouds 19 1017 73 10000 7.72 360 09:25 22.07.2022
2520 Clouds 19 1017 76 10000 6.71 360 08:26 22.07.2022
2521 Clouds 19 1017 76 10000 5.66 320 04:26 22.07.2022
2522 Clouds 20 1018 76 10000 6.17 320 23:45 21.07.2022
2523 Clouds 20 1016 74 10000 9.26 10 22:25 21.07.2022
2524 Clear 24 1016 62 10000 8.75 10 20:48 21.07.2022
2525 Clear 27 1017 51 10000 8.23 10 18:54 21.07.2022
2526 Clear 27 1016 53 10000 8.23 360 17:39 21.07.2022
2527 Clear 27 1016 52 10000 8.23 360 17:19 21.07.2022
2528 Clouds 27 1017 54 10000 6.69 10 14:52 21.07.2022
2529 Clouds 26 1017 54 10000 7.2 360 14:24 21.07.2022
2530 Clouds 24 1018 63 10000 6.71 315 12:27 21.07.2022
2531 Clouds 22 1017 70 10000 8.05 360 10:48 21.07.2022
2532 Clouds 20 1017 78 10000 10.73 360 09:18 21.07.2022
2533 Clouds 19 1016 80 10000 7.15 360 08:45 21.07.2022
2534 Clouds 19 1016 80 10000 8.49 360 07:23 21.07.2022
2535 Clear 20 1017 74 10000 4.12 320 03:55 21.07.2022
2536 Clear 21 1017 66 10000 9.39 360 23:26 20.07.2022
2537 Clear 22 1016 62 10000 12.52 360 22:21 20.07.2022
2538 Clear 25 1016 55 10000 8.23 360 20:50 20.07.2022
2539 Clear 28 1016 46 10000 8.23 360 19:49 20.07.2022
2540 Clear 28 1016 48 10000 9.39 360 19:20 20.07.2022
2541 Clear 30 1016 46 10000 7.2 10 18:33 20.07.2022
2542 Clear 30 1016 44 10000 8.75 360 17:54 20.07.2022
2543 Clear 29 1017 45 10000 10.29 340 16:19 20.07.2022
2544 Clear 30 1017 45 10000 9.26 340 15:31 20.07.2022
2545 Clear 28 1018 46 10000 9.39 360 13:57 20.07.2022
2546 Clear 24 1019 58 10000 7.72 360 11:32 20.07.2022
2547 Clouds 20 1019 75 10000 9.26 360 08:46 20.07.2022
2548 Clouds 20 1019 74 10000 6.17 330 03:25 20.07.2022
2549 Clouds 20 1019 73 10000 8.05 315 00:48 20.07.2022
2550 Clouds 20 1019 69 10000 9.39 360 23:41 19.07.2022
2551 Clouds 21 1018 66 10000 11.62 360 22:31 19.07.2022
2552 Clouds 23 1018 62 10000 12.07 360 21:23 19.07.2022
2553 Clouds 24 1018 56 10000 12.52 315 20:27 19.07.2022
2554 Clouds 26 1019 48 10000 10.28 337 18:43 19.07.2022
2555 Clouds 27 1019 50 10000 7.72 320 17:58 19.07.2022
2556 Clouds 27 1019 46 10000 8.05 360 16:37 19.07.2022
2557 Clouds 26 1019 50 10000 6.17 330 14:53 19.07.2022
2558 Clouds 23 1020 58 10000 9.83 315 11:43 19.07.2022
2559 Clouds 22 1020 63 10000 4.92 360 10:52 19.07.2022
2560 Clouds 20 1019 74 10000 3.13 315 09:23 19.07.2022
2561 Clouds 19 1019 78 10000 2.24 360 08:38 19.07.2022
2562 Clouds 19 1018 79 10000 2.68 360 07:19 19.07.2022
2563 Clouds 20 1018 78 10000 3.09 300 05:28 19.07.2022
2564 Clouds 20 1018 78 10000 3.09 300 04:55 19.07.2022
2565 Clouds 20 1018 75 10000 4.47 180 01:19 19.07.2022
2566 Clouds 21 1018 76 10000 4.12 290 23:47 18.07.2022
2567 Clouds 20 1018 75 10000 4.12 290 23:18 18.07.2022
2568 Clouds 22 1017 69 10000 8.05 315 21:58 18.07.2022
2569 Clouds 23 1017 64 10000 8.05 135 20:51 18.07.2022
2570 Clouds 24 1017 62 10000 12.07 180 19:33 18.07.2022
2571 Clouds 25 1017 59 10000 13.86 225 17:38 18.07.2022
2572 Clouds 24 1017 60 10000 12.07 225 15:55 18.07.2022
2573 Clouds 25 1017 59 10000 12.07 135 14:51 18.07.2022
2574 Clouds 24 1017 65 10000 8.05 315 13:24 18.07.2022
2575 Clouds 22 1017 70 10000 5.36 225 11:31 18.07.2022
2576 Clouds 20 1016 80 10000 5.81 202 09:28 18.07.2022
2577 Clouds 19 1016 82 10000 1.54 20 07:45 18.07.2022
2578 Clouds 20 1016 77 10000 3.09 300 02:21 18.07.2022
2579 Clouds 22 1015 72 10000 4.12 290 22:51 17.07.2022
2580 Clouds 22 1015 69 10000 4.63 310 22:23 17.07.2022
2581 Clear 23 1014 62 10000 7.15 247 21:26 17.07.2022
2582 Clear 24 1014 59 10000 5.66 220 20:44 17.07.2022
2583 Clear 25 1014 57 10000 7.15 315 19:49 17.07.2022
2584 Clear 25 1014 56 10000 5.66 270 19:19 17.07.2022
2585 Clear 27 1015 55 10000 6.17 250 17:39 17.07.2022
2586 Clear 28 1014 51 10000 9.83 180 16:53 17.07.2022
2587 Clear 28 1014 51 10000 8.49 270 16:27 17.07.2022
2588 Clear 29 1015 50 10000 10.28 225 15:34 17.07.2022
2589 Clear 28 1015 50 10000 8.05 225 13:51 17.07.2022
2590 Clear 26 1015 56 10000 3.09 170 12:40 17.07.2022
2591 Clear 22 1015 72 10000 1.54 30 10:18 17.07.2022
2592 Clear 19 1014 82 10000 4.63 320 06:58 17.07.2022
2593 Clear 21 1014 70 10000 4.63 320 02:34 17.07.2022
2594 Clear 23 1014 62 10000 4.63 310 23:23 16.07.2022
2595 Clear 24 1013 57 10000 5.14 10 21:59 16.07.2022
2596 Clear 29 1012 44 10000 5.81 270 20:28 16.07.2022
2597 Clear 31 1012 39 10000 7.6 315 18:54 16.07.2022
2598 Clear 32 1012 38 10000 6.17 260 17:25 16.07.2022
2599 Clear 31 1013 41 10000 5.14 260 15:54 16.07.2022
2600 Clear 28 1014 53 10000 2.57 210 12:26 16.07.2022
2601 Clear 21 1015 73 10000 3.09 40 10:18 16.07.2022
2602 Clear 20 1014 79 10000 2.57 10 09:25 16.07.2022
2603 Clear 19 1014 74 10000 4.63 20 08:40 16.07.2022
2604 Clear 19 1013 81 10000 4.12 310 06:57 16.07.2022
2605 Clear 20 1013 72 10000 4.63 310 03:33 16.07.2022
2606 Clear 22 1013 69 10000 5.14 310 00:23 16.07.2022
2607 Clear 23 1013 67 10000 5.14 310 22:54 15.07.2022
2608 Clear 25 1012 60 10000 5.14 20 21:55 15.07.2022
2609 Clear 28 1013 50 10000 5.14 20 20:40 15.07.2022
2610 Clear 30 1012 45 10000 5.66 260 18:55 15.07.2022
2611 Clear 30 1012 43 10000 5.66 260 18:22 15.07.2022
2612 Clear 30 1013 42 10000 5.66 270 16:53 15.07.2022
2613 Clear 30 1013 45 10000 9.83 180 14:19 15.07.2022
2614 Clear 27 1013 59 10000 2.57 90 12:28 15.07.2022
2615 Clear 26 1012 59 10000 3.09 20 10:52 15.07.2022
2616 Clear 21 1012 73 10000 1.54 200 07:48 15.07.2022
2617 Clear 23 1012 64 10000 1.03 0 03:41 15.07.2022
2618 Clear 24 1014 63 10000 3.6 320 00:40 15.07.2022
2619 Clear 24 1014 64 10000 3.6 330 23:24 14.07.2022
2620 Clear 27 1013 51 10000 3.6 20 22:24 14.07.2022
2621 Clear 28 1013 46 10000 4.12 270 21:40 14.07.2022
2622 Clear 28 1013 43 10000 4.12 270 21:21 14.07.2022
2623 Clear 29 1013 39 10000 4.92 315 20:43 14.07.2022
2624 Clear 32 1013 29 10000 4.47 225 20:18 14.07.2022
2625 Clear 31 1014 41 10000 9.83 225 18:24 14.07.2022
2626 Clear 31 1015 42 10000 5.66 260 16:19 14.07.2022
2627 Clear 28 1015 54 10000 8.49 225 14:56 14.07.2022
2628 Rain 29 1016 52 10000 4.12 270 13:51 14.07.2022
2629 Rain 28 1015 54 10000 5.14 220 12:36 14.07.2022
2630 Clouds 27 1016 55 10000 3.09 250 11:28 14.07.2022
2631 Clouds 27 1016 56 10000 9.39 180 10:52 14.07.2022
2632 Clear 24 1015 67 10000 5.66 230 08:58 14.07.2022
2633 Clear 25 1015 55 10000 9.83 225 04:45 14.07.2022
2634 Rain 27 1015 42 10000 2.68 225 01:21 14.07.2022
2635 Rain 27 1015 42 10000 2.68 225 01:21 14.07.2022
2636 Clear 28 1015 38 10000 4.63 260 00:51 14.07.2022
2637 Clear 30 1015 30 10000 4.12 240 22:31 13.07.2022
2638 Clear 30 1015 31 10000 4.12 250 21:47 13.07.2022
2639 Rain 32 1015 32 10000 8.05 225 20:41 13.07.2022
2640 Clear 36 1015 31 10000 3.6 160 18:40 13.07.2022
2641 Clear 38 1015 25 10000 3.09 0 17:34 13.07.2022
2642 Clear 39 1016 20 10000 3.09 0 16:19 13.07.2022
2643 Clear 36 1016 19 10000 4.63 10 14:54 13.07.2022
2644 Clear 30 1016 38 10000 4.12 30 11:56 13.07.2022
2645 Clouds 27 1016 42 10000 5.14 70 10:45 13.07.2022
2646 Rain 28 1016 36 10000 4.12 100 09:56 13.07.2022
2647 Rain 27 1016 37 10000 4.47 180 09:20 13.07.2022
2648 Clear 24 1014 53 10000 3.6 60 05:29 13.07.2022
2649 Clear 23 1016 55 10000 2.57 170 01:22 13.07.2022
2650 Clear 28 1014 31 10000 4.12 210 23:39 12.07.2022
2651 Clear 30 1014 33 10000 5.14 320 21:54 12.07.2022
2652 Clear 31 1012 25 10000 5.36 270 21:18 12.07.2022
2653 Clear 30 1014 38 10000 4.63 270 20:41 12.07.2022
2654 Clear 31 1014 36 10000 7.72 250 18:56 12.07.2022
2655 Clear 35 1012 23 10000 8.05 135 17:49 12.07.2022
2656 Clear 36 1012 19 10000 5.66 100 15:43 12.07.2022
2657 Clear 34 1014 22 10000 5.14 70 14:23 12.07.2022
2658 Clear 30 1014 35 10000 5.14 90 12:29 12.07.2022
2659 Clear 28 1014 46 10000 3.6 60 11:22 12.07.2022
2660 Clear 23 1011 60 10000 4.63 30 09:28 12.07.2022
2661 Clear 22 1010 64 10000 3.09 60 08:18 12.07.2022
2662 Clear 22 1009 62 10000 1.34 360 06:29 12.07.2022
2663 Clear 22 1009 65 10000 3.09 50 05:39 12.07.2022
2664 Clear 24 1009 56 10000 3.13 135 02:21 12.07.2022
2665 Clear 24 1009 45 10000 10.29 10 23:18 11.07.2022
2666 Clear 25 1009 38 10000 10.8 10 22:30 11.07.2022
2667 Clear 26 1008 35 10000 11.32 10 20:33 11.07.2022
2668 Clear 27 1008 36 10000 10.8 360 19:36 11.07.2022
2669 Clear 29 1009 38 10000 10.8 360 18:32 11.07.2022
2670 Clear 29 1009 37 10000 12.96 225 17:46 11.07.2022
2671 Clear 30 1009 35 10000 10.29 10 16:19 11.07.2022
2672 Clear 29 1011 41 10000 7.72 10 14:41 11.07.2022
2673 Clear 25 1011 44 10000 6.71 315 11:58 11.07.2022
2674 Clear 21 1014 57 10000 4.63 60 10:29 11.07.2022
2675 Clear 21 1012 57 10000 4.47 135 09:42 11.07.2022
2676 Clear 20 1011 61 10000 3.6 10 08:34 11.07.2022
2677 Clear 19 1013 66 10000 2.57 340 05:52 11.07.2022
2678 Clear 22 1013 50 10000 4.63 10 00:22 11.07.2022
2679 Clear 25 1012 34 10000 8.05 360 22:58 10.07.2022
2680 Clear 27 1014 29 10000 6.69 350 21:55 10.07.2022
2681 Clear 29 1012 24 10000 8.23 350 20:54 10.07.2022
2682 Clear 31 1013 23 10000 8.05 360 19:50 10.07.2022
2683 Clear 31 1013 23 10000 8.05 360 19:50 10.07.2022
2684 Clear 32 1012 19 10000 7.72 360 18:50 10.07.2022
2685 Clear 33 1013 21 10000 8.23 360 17:40 10.07.2022
2686 Clear 33 1013 22 10000 8.23 350 16:57 10.07.2022
2687 Clear 34 1013 19 10000 9.77 350 16:19 10.07.2022
2688 Clear 34 1013 24 10000 9.26 350 14:33 10.07.2022
2689 Clear 32 1014 26 10000 7.72 360 12:33 10.07.2022
2690 Clear 31 1016 31 10000 7.2 360 11:34 10.07.2022
2691 Clear 24 1016 46 10000 6.69 10 08:46 10.07.2022
2692 Clear 24 1016 44 10000 6.69 10 08:24 10.07.2022
2693 Clear 25 1016 34 10000 5.81 360 03:38 10.07.2022
2694 Clear 30 1018 26 10000 6.17 320 23:32 09.07.2022
2695 Clear 30 1015 22 10000 10.73 360 22:25 09.07.2022
2696 Clear 32 1015 23 10000 13.86 360 21:31 09.07.2022
2697 Clear 35 1015 25 10000 6.71 360 18:59 09.07.2022
2698 Clear 34 1016 28 10000 8.05 315 18:22 09.07.2022
2699 Clear 36 1016 23 10000 8.49 270 16:59 09.07.2022
2700 Clear 35 1017 23 10000 10.73 270 15:54 09.07.2022
2701 Clear 35 1017 24 10000 9.83 135 15:35 09.07.2022
2702 Clear 33 1017 32 10000 6.71 180 13:54 09.07.2022
2703 Clear 32 1017 35 10000 9.83 360 13:28 09.07.2022
2704 Clear 31 1019 34 10000 4.12 20 11:34 09.07.2022
2705 Clear 30 1017 36 10000 4.12 20 10:24 09.07.2022
2706 Clear 24 1018 44 10000 5.66 10 08:27 09.07.2022
2707 Clear 25 1016 36 10000 3.09 310 06:59 09.07.2022
2708 Clear 25 1018 44 10000 1.54 150 04:35 09.07.2022
2709 Clear 31 1018 23 10000 7.2 330 23:27 08.07.2022
2710 Clear 34 1018 25 10000 7.2 360 22:00 08.07.2022
2711 Clear 35 1018 25 10000 7.2 360 21:20 08.07.2022
2712 Clear 37 1017 23 10000 7.2 350 20:33 08.07.2022
2713 Clear 37 1016 16 10000 8.49 225 18:36 08.07.2022
2714 Clear 36 1017 21 10000 8.49 270 17:45 08.07.2022
2715 Clear 37 1017 21 10000 5.14 70 15:53 08.07.2022
2716 Clear 36 1018 19 10000 4.47 135 14:50 08.07.2022
2717 Clear 31 1019 29 10000 7.6 135 12:30 08.07.2022
2718 Clear 30 1020 32 10000 5.14 50 10:46 08.07.2022
2719 Clear 28 1020 31 10000 4.63 30 09:42 08.07.2022
2720 Clear 25 1020 42 10000 3.09 10 06:55 08.07.2022
2721 Clear 25 1019 40 10000 3.09 330 04:32 08.07.2022
2722 Clear 30 1020 31 10000 7.2 330 00:30 08.07.2022
2723 Clear 31 1019 35 10000 7.2 330 22:47 07.07.2022
2724 Clear 33 1019 34 10000 7.72 360 21:46 07.07.2022
2725 Clear 36 1017 30 10000 9.39 360 19:34 07.07.2022
2726 Clear 35 1018 32 10000 9.39 315 17:43 07.07.2022
2727 Clear 34 1020 37 10000 4.12 340 15:58 07.07.2022
2728 Clear 31 1019 41 10000 4.92 135 13:40 07.07.2022
2729 Clear 30 1019 44 10000 6.71 135 12:41 07.07.2022
2730 Clear 29 1021 45 10000 5.14 40 12:22 07.07.2022
2731 Clear 28 1021 43 10000 5.66 50 11:32 07.07.2022
2732 Clear 27 1021 47 10000 5.66 50 10:45 07.07.2022
2733 Clear 26 1020 50 10000 5.66 40 10:27 07.07.2022
2734 Clear 23 1019 61 10000 3.09 10 09:22 07.07.2022
2735 Clear 22 1017 63 10000 4.02 360 05:57 07.07.2022
2736 Clear 23 1015 54 10000 2.68 360 00:18 07.07.2022
2737 Clear 24 1015 55 10000 2.68 315 23:36 06.07.2022
2738 Clear 24 1017 56 10000 8.23 10 23:18 06.07.2022
2739 Clear 24 1018 57 10000 8.23 10 22:47 06.07.2022
2740 Clear 24 1018 57 10000 8.23 10 22:47 06.07.2022
2741 Clear 25 1018 54 10000 8.75 360 22:28 06.07.2022
2742 Clear 27 1017 51 10000 6.17 310 20:19 06.07.2022
2743 Clear 27 1017 52 10000 6.17 230 18:48 06.07.2022
2744 Clear 28 1018 54 10000 5.14 230 17:21 06.07.2022
2745 Clear 27 1020 60 10000 6.17 260 15:50 06.07.2022
2746 Clouds 24 1019 65 10000 5.36 315 12:44 06.07.2022
2747 Clouds 23 1019 66 10000 3.6 200 11:52 06.07.2022
2748 Clouds 22 1018 74 8000 3.09 30 10:49 06.07.2022
2749 Mist 18 1018 86 6000 3.6 360 09:21 06.07.2022
2750 Clouds 18 1017 86 8000 3.6 330 07:43 06.07.2022
2751 Clouds 17 1016 85 10000 3.6 310 06:43 06.07.2022
2752 Clouds 19 1017 80 10000 3.13 360 23:42 05.07.2022
2753 Clouds 20 1018 76 10000 5.66 310 22:42 05.07.2022
2754 Clouds 22 1015 66 10000 10.73 360 20:48 05.07.2022
2755 Clear 24 1015 58 10000 5.36 315 19:55 05.07.2022
2756 Clear 25 1017 58 10000 5.14 20 19:36 05.07.2022
2757 Clear 26 1015 53 10000 6.69 230 17:50 05.07.2022
2758 Clear 27 1015 53 10000 6.69 230 17:18 05.07.2022
2759 Clear 27 1016 55 10000 5.14 250 16:18 05.07.2022
2760 Clear 25 1016 59 10000 2.57 260 14:54 05.07.2022
2761 Clouds 23 1017 69 10000 4.47 315 12:59 05.07.2022
2762 Clouds 23 1017 71 10000 4.12 30 12:22 05.07.2022
2763 Clouds 19 1018 84 10000 2.06 320 10:45 05.07.2022
2764 Clouds 18 1016 85 8000 3.09 320 09:44 05.07.2022
2765 Mist 17 1016 88 5000 3.6 310 08:21 05.07.2022
2766 Clouds 18 1017 85 10000 3.6 320 06:48 05.07.2022
2767 Clouds 17 1015 84 10000 4.63 310 04:30 05.07.2022
2768 Clouds 18 1016 81 10000 4.63 310 01:25 05.07.2022
2769 Clouds 19 1015 80 10000 7.15 360 23:37 04.07.2022
2770 Clouds 19 1015 80 10000 7.2 310 22:55 04.07.2022
2771 Clouds 20 1015 74 10000 7.6 360 21:56 04.07.2022
2772 Clouds 22 1014 68 10000 5.36 225 20:56 04.07.2022
2773 Clouds 23 1014 65 10000 6.71 270 20:35 04.07.2022
2774 Clouds 24 1014 63 10000 7.15 315 19:56 04.07.2022
2775 Clouds 24 1014 61 10000 8.05 270 19:37 04.07.2022
2776 Clouds 24 1017 60 10000 5.66 240 18:35 04.07.2022
2777 Clouds 25 1016 61 10000 6.71 315 16:51 04.07.2022
2778 Clouds 24 1017 64 10000 4.92 225 15:35 04.07.2022
2779 Clouds 22 1017 67 10000 2.06 150 13:44 04.07.2022
2780 Clouds 21 1017 73 10000 2.57 80 12:42 04.07.2022
2781 Clouds 19 1017 78 10000 1.03 0 10:40 04.07.2022
2782 Clouds 19 1017 78 10000 2.24 360 10:22 04.07.2022
2783 Clouds 18 1017 81 10000 1.34 360 08:33 04.07.2022
2784 Clouds 18 1016 81 10000 1.54 290 05:57 04.07.2022
2785 Clouds 18 1018 80 10000 4.12 300 01:49 04.07.2022
2786 Clouds 19 1018 79 10000 3.6 300 23:39 03.07.2022
2787 Clouds 20 1016 75 10000 4.47 270 22:28 03.07.2022
2788 Clouds 22 1016 65 10000 7.6 315 20:45 03.07.2022
2789 Clouds 24 1015 60 10000 8.49 315 19:43 03.07.2022
2790 Clouds 24 1015 58 10000 7.2 230 19:24 03.07.2022
2791 Clouds 24 1015 61 10000 10.28 180 18:23 03.07.2022
2792 Clouds 25 1015 59 10000 6.17 220 17:31 03.07.2022
2793 Clouds 24 1016 60 10000 12.52 180 15:26 03.07.2022
2794 Clouds 24 1016 60 10000 4.92 157 14:49 03.07.2022
2795 Clouds 23 1017 66 10000 4.12 120 13:49 03.07.2022
2796 Clouds 22 1018 67 10000 4.12 120 12:42 03.07.2022
2797 Clouds 21 1018 71 10000 3.6 110 11:47 03.07.2022
2798 Clouds 20 1017 75 10000 4.12 40 10:51 03.07.2022
2799 Clouds 20 1017 76 10000 3.6 100 10:33 03.07.2022
2800 Clear 18 1016 81 10000 3.6 330 07:38 03.07.2022
2801 Clear 19 1016 73 10000 4.12 310 05:34 03.07.2022
2802 Clear 20 1016 67 10000 4.12 340 00:38 03.07.2022
2803 Clear 22 1016 64 10000 6.17 310 23:36 02.07.2022
2804 Clouds 22 1015 65 10000 6.17 10 22:31 02.07.2022
2805 Clear 26 1015 52 10000 6.69 20 20:26 02.07.2022
2806 Clear 26 1015 52 10000 7.72 10 19:49 02.07.2022
2807 Clear 28 1015 46 10000 5.14 260 18:24 02.07.2022
2808 Clear 28 1015 44 10000 5.66 260 17:38 02.07.2022
2809 Clear 27 1016 44 10000 4.12 220 15:56 02.07.2022
2810 Clouds 25 1017 52 10000 4.12 20 13:35 02.07.2022
2811 Clouds 23 1017 61 10000 4.63 10 11:49 02.07.2022
2812 Clouds 20 1016 67 10000 6.69 360 10:51 02.07.2022
2813 Clouds 19 1016 71 10000 7.2 360 10:21 02.07.2022
2814 Clouds 17 1016 79 10000 8.23 360 08:37 02.07.2022
2815 Clouds 17 1016 79 10000 8.23 360 08:19 02.07.2022
2816 Clouds 18 1015 76 10000 6.69 320 02:59 02.07.2022
2817 Clouds 18 1016 74 10000 7.72 320 00:28 02.07.2022
2818 Clouds 19 1015 71 10000 8.75 330 23:26 01.07.2022
2819 Clear 20 1015 65 10000 10.8 360 22:33 01.07.2022
2820 Clear 21 1014 57 10000 10.29 360 21:38 01.07.2022
2821 Clear 22 1014 52 10000 10.8 350 20:58 01.07.2022
2822 Clear 24 1014 48 10000 10.29 350 20:34 01.07.2022
2823 Clear 25 1015 43 10000 11.83 350 19:37 01.07.2022
2824 Clear 26 1015 44 10000 11.32 350 17:18 01.07.2022
2825 Clouds 25 1016 47 10000 9.77 340 14:34 01.07.2022
2826 Clouds 25 1016 49 10000 8.23 340 13:51 01.07.2022
2827 Clouds 21 1016 60 10000 9.77 360 11:22 01.07.2022
2828 Clouds 19 1017 70 10000 10.29 360 10:19 01.07.2022
2829 Clouds 16 1016 77 10000 5.66 330 07:38 01.07.2022
2830 Clouds 17 1017 71 10000 5.66 350 02:43 01.07.2022
2831 Clear 17 1017 71 10000 11.83 360 00:21 01.07.2022
2832 Clouds 18 1016 66 10000 12.35 340 22:52 30.06.2022
2833 Clouds 18 1016 65 10000 13.89 350 22:32 30.06.2022
2834 Clouds 19 1016 61 10000 11.32 360 21:54 30.06.2022
2835 Clear 20 1016 54 10000 12.86 350 20:58 30.06.2022
2836 Clear 21 1015 53 10000 12.35 340 20:22 30.06.2022
2837 Clear 21 1015 50 10000 14.92 340 19:51 30.06.2022
2838 Clear 21 1016 48 10000 14.92 340 19:18 30.06.2022
2839 Clear 22 1016 47 10000 15.43 340 18:34 30.06.2022
2840 Clear 23 1016 41 10000 12.86 340 17:37 30.06.2022
2841 Clear 22 1017 41 10000 10.29 340 16:28 30.06.2022
2842 Clear 22 1017 41 10000 9.26 340 14:31 30.06.2022
2843 Clouds 21 1018 44 10000 9.77 350 13:29 30.06.2022
2844 Clouds 21 1017 45 10000 9.77 340 12:34 30.06.2022
2845 Clouds 19 1018 49 10000 8.75 350 11:28 30.06.2022
2846 Clouds 17 1017 60 10000 11.32 350 09:53 30.06.2022
2847 Clouds 17 1017 63 10000 9.77 350 09:31 30.06.2022
2848 Clouds 16 1016 68 10000 7.72 340 07:41 30.06.2022
2849 Clouds 16 1016 69 10000 9.26 350 05:47 30.06.2022
2850 Clouds 17 1018 66 10000 6.69 350 00:31 30.06.2022
2851 Clouds 17 1018 65 10000 8.23 350 23:19 29.06.2022
2852 Clouds 18 1017 62 10000 7.72 350 22:38 29.06.2022
2853 Clouds 19 1017 59 10000 9.26 340 21:34 29.06.2022
2854 Clouds 20 1017 53 10000 8.75 340 20:33 29.06.2022
2855 Clouds 21 1017 49 10000 10.29 340 19:37 29.06.2022
2856 Clouds 22 1017 48 10000 10.29 330 17:43 29.06.2022
2857 Clouds 22 1018 46 10000 10.29 330 16:37 29.06.2022
2858 Clouds 22 1018 47 10000 8.75 330 14:56 29.06.2022
2859 Clouds 21 1019 65 10000 9.26 350 12:40 29.06.2022
2860 Clouds 19 1019 79 10000 6.69 340 10:56 29.06.2022
2861 Drizzle 19 1018 79 10000 4.12 330 09:32 29.06.2022
2862 Clouds 18 1018 76 10000 6.17 350 07:44 29.06.2022
2863 Clouds 18 1019 72 10000 5.66 330 04:54 29.06.2022
2864 Clouds 18 1021 75 10000 5.66 340 00:58 29.06.2022
2865 Clouds 18 1020 74 10000 6.69 330 00:36 29.06.2022
2866 Clouds 19 1020 68 10000 11.83 350 22:54 28.06.2022
2867 Clouds 19 1019 65 10000 11.83 350 22:30 28.06.2022
2868 Clouds 19 1019 63 10000 12.86 350 21:54 28.06.2022
2869 Clouds 20 1019 58 10000 12.35 350 21:32 28.06.2022
2870 Clouds 22 1019 48 10000 12.86 350 20:35 28.06.2022
2871 Clouds 23 1019 44 10000 11.32 350 19:34 28.06.2022
2872 Clouds 23 1019 48 10000 13.38 340 18:46 28.06.2022
2873 Clouds 24 1019 48 10000 11.83 350 17:40 28.06.2022
2874 Clear 24 1019 46 10000 9.26 350 15:59 28.06.2022
2875 Clear 24 1019 46 10000 8.23 340 15:38 28.06.2022
2876 Clear 24 1020 46 10000 9.26 340 14:21 28.06.2022
2877 Clear 23 1020 48 10000 8.23 340 13:52 28.06.2022
2878 Clear 22 1020 50 10000 9.26 340 12:57 28.06.2022
2879 Clear 20 1020 58 10000 9.77 350 11:18 28.06.2022
2880 Clouds 17 1020 70 10000 10.8 360 09:29 28.06.2022
2881 Clouds 17 1020 71 10000 10.8 360 08:43 28.06.2022
2882 Clear 16 1020 73 10000 5.14 330 07:42 28.06.2022
2883 Clear 16 1019 74 10000 6.17 320 06:56 28.06.2022
2884 Clouds 17 1021 67 10000 6.69 320 00:58 28.06.2022
2885 Clouds 17 1021 63 10000 6.17 330 23:37 27.06.2022
2886 Clouds 18 1020 61 10000 11.83 350 22:52 27.06.2022
2887 Clouds 19 1020 56 10000 12.86 350 21:38 27.06.2022
2888 Clouds 20 1020 52 10000 11.83 340 20:52 27.06.2022
2889 Clear 21 1020 43 10000 12.86 350 19:33 27.06.2022
2890 Clear 22 1020 40 10000 13.38 340 18:25 27.06.2022
2891 Clouds 22 1020 37 10000 9.26 340 16:27 27.06.2022
2892 Clouds 22 1021 36 10000 9.77 340 15:23 27.06.2022
2893 Clouds 21 1021 41 10000 9.77 340 13:37 27.06.2022
2894 Clouds 20 1021 44 10000 10.29 340 12:56 27.06.2022
2895 Clouds 18 1020 52 10000 9.77 360 10:35 27.06.2022
2896 Clouds 17 1019 62 10000 9.77 350 09:21 27.06.2022
2897 Clouds 16 1019 67 10000 6.69 340 08:30 27.06.2022
2898 Clouds 16 1018 66 10000 6.69 340 06:39 27.06.2022
2899 Clouds 16 1018 66 10000 5.66 320 03:58 27.06.2022
2900 Clouds 17 1019 63 10000 4.63 330 01:18 27.06.2022
2901 Clouds 18 1017 57 10000 6.69 340 22:22 26.06.2022
2902 Clouds 19 1016 50 10000 8.75 340 20:48 26.06.2022
2903 Clouds 21 1016 43 10000 7.72 330 19:44 26.06.2022
2904 Clear 21 1016 42 10000 7.2 320 18:32 26.06.2022
2905 Clear 21 1016 41 10000 8.75 340 17:22 26.06.2022
2906 Clouds 21 1016 42 10000 7.2 350 15:27 26.06.2022
2907 Clouds 20 1016 47 10000 7.2 320 13:55 26.06.2022
2908 Clouds 20 1016 45 10000 7.72 350 13:23 26.06.2022
2909 Clouds 19 1016 49 10000 7.2 330 11:27 26.06.2022
2910 Clouds 18 1016 56 10000 6.17 350 10:28 26.06.2022
2911 Clouds 17 1016 61 10000 4.12 340 09:39 26.06.2022
2912 Clouds 15 1016 68 10000 3.09 340 07:45 26.06.2022
2913 Clouds 16 1016 66 10000 3.6 340 03:19 26.06.2022
2914 Clouds 17 1017 62 10000 5.14 340 00:36 26.06.2022
2915 Clouds 17 1017 61 10000 4.12 340 00:18 26.06.2022
2916 Clouds 18 1016 59 10000 6.69 350 23:24 25.06.2022
2917 Clouds 18 1016 56 10000 7.72 350 22:28 25.06.2022
2918 Clouds 19 1016 54 10000 6.69 340 21:50 25.06.2022
2919 Clouds 19 1016 52 10000 6.69 340 21:20 25.06.2022
2920 Clouds 20 1015 50 10000 7.72 330 20:30 25.06.2022
2921 Clear 21 1015 44 10000 6.69 330 19:55 25.06.2022
2922 Clear 21 1015 44 10000 6.69 330 19:55 25.06.2022
2923 Clear 22 1014 38 10000 12.52 360 18:21 25.06.2022
2924 Clear 23 1014 37 10000 8.23 340 17:25 25.06.2022
2925 Clouds 23 1014 38 10000 16.09 360 16:24 25.06.2022
2926 Clouds 22 1015 45 10000 9.83 360 13:51 25.06.2022
2927 Clouds 21 1015 53 10000 7.15 112 12:39 25.06.2022
2928 Clouds 20 1015 58 10000 8.05 360 11:34 25.06.2022
2929 Clouds 18 1014 78 10000 4.47 315 09:22 25.06.2022
2930 Clouds 18 1014 80 10000 5.66 350 08:48 25.06.2022
2931 Clouds 18 1016 81 10000 5.66 350 08:19 25.06.2022
2932 Clouds 18 1013 81 10000 2.57 240 05:26 25.06.2022
2933 Clouds 19 1016 76 10000 7.6 315 00:44 25.06.2022
2934 Clouds 19 1016 77 10000 7.6 315 00:44 25.06.2022
2935 Clouds 19 1016 74 10000 3.6 290 23:32 24.06.2022
2936 Clouds 20 1015 67 10000 4.63 320 21:59 24.06.2022
2937 Clouds 20 1015 62 10000 7.15 270 21:21 24.06.2022
2938 Clouds 22 1015 56 10000 5.36 315 20:22 24.06.2022
2939 Clouds 22 1015 56 10000 5.36 315 19:23 24.06.2022
2940 Clouds 22 1016 57 10000 8.49 315 18:50 24.06.2022
2941 Clouds 22 1016 56 10000 5.81 292 18:30 24.06.2022
2942 Clouds 22 1016 58 10000 7.6 315 17:46 24.06.2022
2943 Clouds 23 1017 55 10000 7.15 270 16:32 24.06.2022
2944 Clouds 21 1018 60 10000 5.36 247 14:29 24.06.2022
2945 Clouds 22 1018 58 10000 5.36 315 13:55 24.06.2022
2946 Clouds 20 1018 66 10000 5.36 315 12:26 24.06.2022
2947 Clouds 20 1018 67 10000 4.12 280 11:40 24.06.2022
2948 Clouds 19 1018 70 10000 4.12 300 10:26 24.06.2022
2949 Clouds 18 1018 78 10000 2.68 270 09:41 24.06.2022
2950 Clouds 17 1017 79 10000 2.06 260 08:53 24.06.2022
2951 Clouds 17 1018 78 10000 0.51 0 07:33 24.06.2022
2952 Clouds 16 1016 79 10000 2.06 330 06:42 24.06.2022
2953 Clear 16 1016 79 10000 1.54 290 06:18 24.06.2022
2954 Clouds 17 1017 77 10000 1.79 315 02:44 24.06.2022
2955 Clouds 19 1017 70 10000 5.14 290 22:58 23.06.2022
2956 Clouds 19 1017 70 10000 5.14 290 22:40 23.06.2022
2957 Clouds 21 1015 60 10000 10.73 315 20:57 23.06.2022
2958 Clouds 21 1017 56 10000 4.63 310 20:32 23.06.2022
2959 Clouds 22 1017 55 10000 5.66 250 19:33 23.06.2022
2960 Clouds 23 1015 53 10000 8.05 315 17:52 23.06.2022
2961 Clouds 22 1015 59 10000 7.6 315 16:58 23.06.2022
2962 Clouds 22 1015 61 10000 5.14 230 15:50 23.06.2022
2963 Clouds 22 1017 61 10000 4.12 260 15:24 23.06.2022
2964 Clouds 21 1015 67 10000 5.81 247 13:33 23.06.2022
2965 Clouds 19 1014 73 10000 6.71 202 11:27 23.06.2022
2966 Clouds 18 1014 74 10000 2.06 220 10:35 23.06.2022
2967 Clouds 18 1013 79 10000 2.06 110 08:53 23.06.2022
2968 Clouds 17 1013 77 10000 2.24 270 03:35 23.06.2022
2969 Clouds 18 1014 77 10000 3.09 280 00:26 23.06.2022
2970 Clouds 18 1014 76 10000 4.63 260 23:30 22.06.2022
2971 Clouds 19 1014 72 10000 5.66 250 22:39 22.06.2022
2972 Clouds 20 1012 65 10000 6.71 315 21:22 22.06.2022
2973 Clouds 20 1012 65 10000 6.71 315 21:22 22.06.2022
2974 Clouds 21 1012 62 10000 6.17 250 20:42 22.06.2022
2975 Clouds 21 1012 62 10000 8.49 360 19:56 22.06.2022
2976 Clouds 21 1012 64 10000 7.6 225 18:47 22.06.2022
2977 Clouds 21 1012 64 10000 7.6 225 18:47 22.06.2022
2978 Clouds 22 1012 55 10000 5.81 270 17:28 22.06.2022
2979 Clouds 21 1013 59 10000 7.6 315 16:29 22.06.2022
2980 Clouds 22 1013 61 10000 10.28 360 15:26 22.06.2022
2981 Clouds 20 1013 66 10000 4.92 270 14:20 22.06.2022
2982 Clouds 20 1013 71 10000 3.6 300 13:39 22.06.2022
2983 Clouds 19 1013 72 10000 4.02 315 13:21 22.06.2022
2984 Clouds 18 1013 76 10000 5.81 315 11:49 22.06.2022
2985 Clouds 18 1012 78 10000 3.13 270 10:57 22.06.2022
2986 Clouds 18 1012 80 10000 4.02 270 10:19 22.06.2022
2987 Clouds 17 1012 82 10000 3.09 270 08:28 22.06.2022
2988 Clouds 17 1013 78 10000 4.12 250 04:50 22.06.2022
2989 Clouds 18 1013 77 10000 4.12 260 01:39 22.06.2022
2990 Clouds 18 1011 77 10000 5.36 270 00:29 22.06.2022
2991 Clouds 18 1012 77 10000 5.66 250 22:19 21.06.2022
2992 Clouds 20 1012 62 10000 9.39 315 19:57 21.06.2022
2993 Clouds 21 1012 56 10000 12.07 315 18:36 21.06.2022
2994 Clouds 21 1012 56 10000 7.15 270 17:39 21.06.2022
2995 Clouds 20 1013 62 10000 7.15 180 14:22 21.06.2022
2996 Clouds 19 1013 67 10000 4.63 340 11:52 21.06.2022
2997 Clouds 18 1013 68 10000 4.12 310 10:19 21.06.2022
2998 Clouds 17 1013 77 10000 2.06 270 08:48 21.06.2022
2999 Clouds 15 1012 84 10000 1.79 270 07:35 21.06.2022
3000 Clouds 16 1014 75 10000 2.57 320 02:27 21.06.2022
3001 Clouds 17 1015 69 10000 4.12 310 23:26 20.06.2022
3002 Clouds 19 1014 59 10000 5.36 360 21:58 20.06.2022
3003 Clouds 19 1014 57 10000 6.17 330 21:30 20.06.2022
3004 Clouds 21 1014 53 10000 7.15 315 19:49 20.06.2022
3005 Clouds 21 1014 50 10000 8.49 315 18:53 20.06.2022
3006 Clouds 21 1014 51 10000 9.83 270 18:24 20.06.2022
3007 Clouds 21 1014 50 10000 7.15 360 17:40 20.06.2022
3008 Clouds 21 1014 49 10000 6.17 320 16:20 20.06.2022
3009 Clouds 21 1015 51 10000 9.83 360 14:18 20.06.2022
3010 Clouds 19 1014 59 10000 9.39 360 11:30 20.06.2022
3011 Clouds 17 1014 66 10000 5.14 300 09:48 20.06.2022
3012 Clouds 16 1013 67 10000 4.02 360 08:45 20.06.2022
3013 Clouds 16 1012 67 10000 4.92 360 06:59 20.06.2022
3014 Clouds 17 1015 68 10000 6.17 350 03:29 20.06.2022
3015 Clouds 17 1012 69 10000 12.07 360 00:52 20.06.2022
3016 Clouds 18 1012 68 10000 8.49 360 23:29 19.06.2022
3017 Clouds 19 1012 68 10000 11.83 350 22:19 19.06.2022
3018 Clouds 19 1011 68 10000 13.86 360 21:42 19.06.2022
3019 Clouds 21 1011 64 10000 12.96 360 20:48 19.06.2022
3020 Clouds 22 1010 60 10000 7.72 340 19:49 19.06.2022
3021 Clouds 22 1011 58 10000 8.75 350 19:24 19.06.2022
3022 Clouds 23 1011 59 10000 8.05 270 18:31 19.06.2022
3023 Clouds 23 1010 59 10000 6.17 320 17:42 19.06.2022
3024 Clouds 23 1011 59 10000 8.49 270 16:47 19.06.2022
3025 Clouds 23 1011 59 10000 6.71 225 16:23 19.06.2022
3026 Clouds 22 1011 62 10000 6.69 270 15:29 19.06.2022
3027 Clouds 23 1011 60 10000 7.15 360 14:41 19.06.2022
3028 Clouds 23 1011 61 10000 7.6 292 13:52 19.06.2022
3029 Clouds 21 1013 62 10000 3.09 230 12:22 19.06.2022
3030 Clouds 20 1011 71 10000 4.63 250 10:53 19.06.2022
3031 Clouds 18 1011 82 10000 4.02 270 09:21 19.06.2022
3032 Clouds 18 1010 85 10000 3.6 230 08:32 19.06.2022
3033 Clouds 18 1010 84 10000 4.92 225 07:26 19.06.2022
3034 Clouds 18 1010 84 10000 4.92 225 07:26 19.06.2022
3035 Clouds 19 1010 82 10000 3.6 250 04:27 19.06.2022
3036 Clouds 19 1011 82 7000 4.12 210 01:28 19.06.2022
3037 Clouds 20 1011 78 10000 9.39 315 00:23 19.06.2022
3038 Clouds 20 1013 76 10000 5.14 220 23:35 18.06.2022
3039 Clouds 20 1011 78 10000 10.73 180 22:33 18.06.2022
3040 Clouds 21 1011 69 10000 10.73 180 20:54 18.06.2022
3041 Clouds 21 1012 66 10000 9.39 225 20:24 18.06.2022
3042 Clouds 21 1012 68 10000 12.96 225 19:21 18.06.2022
3043 Clouds 21 1011 67 10000 10.73 180 18:42 18.06.2022
3044 Clouds 22 1012 63 10000 12.07 225 17:30 18.06.2022
3045 Clouds 23 1015 59 10000 6.69 210 16:20 18.06.2022
3046 Clouds 23 1015 61 10000 6.69 220 15:18 18.06.2022
3047 Clouds 23 1016 60 10000 6.17 230 14:41 18.06.2022
3048 Clouds 22 1016 66 10000 4.63 260 12:46 18.06.2022
3049 Clouds 21 1017 69 10000 4.63 210 11:31 18.06.2022
3050 Clouds 21 1017 70 10000 2.57 210 10:25 18.06.2022
3051 Clouds 19 1016 78 10000 1.54 290 09:19 18.06.2022
3052 Clouds 17 1016 82 10000 1.03 170 08:18 18.06.2022
3053 Clouds 17 1017 83 10000 2.57 270 06:26 18.06.2022
3054 Clouds 19 1017 77 10000 2.57 290 02:54 18.06.2022
3055 Clouds 19 1017 74 10000 5.14 290 01:24 18.06.2022
3056 Clouds 19 1017 72 10000 4.12 330 00:41 18.06.2022
3057 Clear 20 1017 69 10000 3.6 300 23:45 17.06.2022
3058 Clear 20 1016 68 10000 4.63 350 22:55 17.06.2022
3059 Clouds 23 1016 58 10000 6.17 310 20:40 17.06.2022
3060 Clouds 23 1017 58 10000 5.14 310 19:29 17.06.2022
3061 Clouds 25 1017 52 10000 5.66 250 18:25 17.06.2022
3062 Clouds 24 1017 54 10000 5.66 270 17:34 17.06.2022
3063 Clouds 24 1018 52 10000 5.66 270 16:38 17.06.2022
3064 Clouds 24 1018 56 10000 4.12 270 15:42 17.06.2022
3065 Clouds 24 1018 55 10000 4.63 270 14:50 17.06.2022
3066 Clouds 24 1018 58 10000 4.63 270 14:19 17.06.2022
3067 Clouds 24 1018 60 10000 5.66 250 13:44 17.06.2022
3068 Clouds 22 1018 65 10000 4.12 290 12:45 17.06.2022
3069 Clouds 22 1018 65 10000 3.09 210 11:56 17.06.2022
3070 Clouds 21 1018 69 10000 3.09 0 11:35 17.06.2022
3071 Clouds 20 1018 73 10000 3.09 210 10:48 17.06.2022
3072 Clear 18 1017 82 10000 1.03 0 08:29 17.06.2022
3073 Clear 18 1017 80 10000 1.03 200 06:58 17.06.2022
3074 Clear 18 1018 78 10000 2.57 300 05:35 17.06.2022
3075 Clear 19 1018 75 10000 2.06 290 02:42 17.06.2022
3076 Clear 20 1018 67 10000 2.06 310 00:36 17.06.2022
3077 Clouds 21 1016 61 10000 4.63 240 22:44 16.06.2022
3078 Clouds 22 1016 52 10000 4.63 230 21:36 16.06.2022
3079 Clouds 22 1016 52 10000 4.63 230 21:18 16.06.2022
3080 Rain 22 1016 53 10000 6.17 270 20:36 16.06.2022
3081 Rain 23 1016 53 10000 6.17 240 19:55 16.06.2022
3082 Rain 24 1017 55 10000 5.66 220 18:28 16.06.2022
3083 Clouds 24 1017 52 10000 2.06 0 17:43 16.06.2022
3084 Rain 24 1017 51 10000 4.12 100 16:40 16.06.2022
3085 Clouds 22 1018 65 10000 5.14 80 15:24 16.06.2022
3086 Clouds 22 1018 66 10000 3.6 70 14:46 16.06.2022
3087 Rain 21 1018 71 10000 2.06 0 13:34 16.06.2022
3088 Clouds 21 1018 70 10000 3.09 90 12:37 16.06.2022
3089 Rain 20 1018 75 10000 2.06 150 11:53 16.06.2022
3090 Clouds 20 1018 75 10000 1.54 130 11:18 16.06.2022
3091 Clouds 18 1018 81 10000 1.03 0 10:32 16.06.2022
3092 Rain 18 1017 85 10000 1.03 0 09:22 16.06.2022
3093 Clouds 17 1017 88 10000 1.54 60 08:36 16.06.2022
3094 Clouds 17 1017 86 10000 2.06 190 07:28 16.06.2022
3095 Clouds 17 1016 83 10000 2.06 190 05:29 16.06.2022
3096 Clouds 18 1016 78 10000 2.06 230 02:52 16.06.2022
3097 Clouds 18 1016 79 10000 3.09 250 01:51 16.06.2022
3098 Clouds 18 1016 79 10000 3.09 250 01:51 16.06.2022
3099 Clouds 18 1016 79 10000 2.06 270 01:21 16.06.2022
3100 Clouds 18 1017 77 10000 3.6 240 01:21 16.06.2022
3101 Clouds 19 1016 78 10000 4.12 250 23:47 15.06.2022
3102 Clouds 19 1015 78 10000 6.17 260 22:44 15.06.2022
3103 Clouds 20 1014 76 10000 7.72 250 21:23 15.06.2022
3104 Clouds 22 1013 72 10000 5.66 280 20:56 15.06.2022
3105 Clouds 22 1013 70 10000 4.12 210 20:35 15.06.2022
3106 Rain 22 1012 74 10000 4.12 20 19:30 15.06.2022
3107 Thunderstorm 26 1013 57 10000 6.69 240 17:58 15.06.2022
3108 Thunderstorm 27 1012 55 10000 3.6 30 17:33 15.06.2022
3109 Clouds 25 1015 57 10000 7.72 250 15:51 15.06.2022
3110 Clouds 25 1014 61 10000 5.66 250 14:30 15.06.2022
3111 Clouds 24 1014 66 10000 5.66 230 12:57 15.06.2022
3112 Clouds 23 1013 66 10000 2.06 0 12:32 15.06.2022
3113 Clouds 21 1014 74 10000 2.57 60 10:28 15.06.2022
3114 Clouds 20 1014 76 10000 3.09 10 09:53 15.06.2022
3115 Clouds 19 1014 83 10000 1.54 70 08:57 15.06.2022
3116 Clouds 19 1014 80 10000 1.03 0 07:21 15.06.2022
3117 Rain 19 1015 82 10000 4.12 230 04:51 15.06.2022
3118 Clear 19 1013 76 10000 3.6 160 02:28 15.06.2022
3119 Clear 21 1013 71 10000 1.03 0 01:33 15.06.2022
3120 Clear 20 1014 72 10000 3.6 220 23:55 14.06.2022
3121 Clear 20 1014 72 10000 3.6 220 23:37 14.06.2022
3122 Clear 23 1013 63 10000 4.63 240 22:33 14.06.2022
3123 Clear 25 1013 58 10000 6.69 240 21:42 14.06.2022
3124 Clear 26 1013 55 10000 4.63 230 20:57 14.06.2022
3125 Clear 26 1013 52 10000 4.63 230 20:34 14.06.2022
3126 Clear 26 1013 51 10000 5.66 240 19:32 14.06.2022
3127 Clear 27 1013 54 10000 5.66 250 18:32 14.06.2022
3128 Clear 26 1014 57 10000 5.14 260 16:50 14.06.2022
3129 Clear 25 1014 63 10000 5.66 260 15:52 14.06.2022
3130 Clear 26 1014 56 10000 5.66 260 15:34 14.06.2022
3131 Clear 26 1014 56 10000 5.66 260 15:34 14.06.2022
3132 Clear 25 1014 61 10000 4.12 280 14:53 14.06.2022
3133 Clouds 23 1015 66 10000 3.6 280 13:53 14.06.2022
3134 Clouds 22 1015 70 10000 3.6 260 12:56 14.06.2022
3135 Clouds 20 1015 79 10000 3.09 230 11:52 14.06.2022
3136 Clouds 20 1015 80 10000 3.09 230 10:50 14.06.2022
3137 Clouds 19 1014 82 10000 2.06 210 10:25 14.06.2022
3138 Drizzle 18 1014 87 10000 3.6 220 08:52 14.06.2022
3139 Drizzle 18 1014 87 10000 3.6 190 08:23 14.06.2022
3140 Clouds 18 1013 88 10000 3.09 180 06:19 14.06.2022
3141 Clouds 18 1013 86 9000 3.6 250 03:39 14.06.2022
3142 Clouds 19 1014 83 10000 3.6 210 01:36 14.06.2022
3143 Clouds 20 1014 82 10000 4.12 200 23:53 13.06.2022
3144 Clear 22 1013 71 10000 3.6 200 22:27 13.06.2022
3145 Clear 24 1013 68 10000 3.6 230 21:59 13.06.2022
3146 Clear 24 1013 66 10000 6.17 240 21:24 13.06.2022
3147 Clear 27 1012 60 10000 5.14 230 19:48 13.06.2022
3148 Clear 28 1013 57 10000 6.17 230 18:52 13.06.2022
3149 Clear 28 1013 56 10000 6.17 250 17:52 13.06.2022
3150 Clear 29 1013 53 10000 6.17 250 17:23 13.06.2022
3151 Clear 29 1013 51 10000 6.69 260 16:30 13.06.2022
3152 Clear 29 1014 48 10000 4.63 210 14:48 13.06.2022
3153 Clear 29 1014 48 10000 4.63 190 14:23 13.06.2022
3154 Clear 28 1014 49 10000 3.09 280 13:28 13.06.2022
3155 Clear 27 1015 55 10000 4.12 160 12:22 13.06.2022
3156 Clear 23 1014 65 10000 3.6 60 10:36 13.06.2022
3157 Clear 21 1014 73 10000 3.6 30 09:43 13.06.2022
3158 Clear 19 1014 81 10000 4.12 30 08:34 13.06.2022
3159 Clear 19 1014 77 10000 2.06 10 06:36 13.06.2022
3160 Clear 20 1014 71 10000 4.12 310 04:43 13.06.2022
3161 Clear 22 1015 65 10000 3.6 310 01:45 13.06.2022
3162 Clear 22 1015 65 10000 3.6 310 01:18 13.06.2022
3163 Clear 23 1015 63 10000 4.63 310 23:43 12.06.2022
3164 Clear 24 1014 63 10000 8.75 10 22:36 12.06.2022
3165 Clear 26 1014 60 10000 7.72 10 21:46 12.06.2022
3166 Clear 28 1014 55 10000 7.72 10 20:53 12.06.2022
3167 Clear 29 1014 52 10000 6.17 300 19:58 12.06.2022
3168 Clear 30 1014 51 10000 6.17 310 19:25 12.06.2022
3169 Clear 33 1014 39 10000 4.63 20 17:36 12.06.2022
3170 Clear 32 1015 48 10000 6.17 360 15:52 12.06.2022
3171 Clear 30 1016 47 10000 4.12 30 14:50 12.06.2022
3172 Clear 30 1016 50 10000 4.12 20 14:18 12.06.2022
3173 Clear 28 1016 56 10000 4.63 10 13:45 12.06.2022
3174 Clear 26 1016 62 10000 5.14 20 12:31 12.06.2022
3175 Clear 25 1016 66 10000 5.66 10 11:19 12.06.2022
3176 Clouds 23 1016 71 10000 5.66 20 10:20 12.06.2022
3177 Clouds 20 1016 81 10000 5.14 20 08:51 12.06.2022
3178 Clouds 20 1016 82 10000 4.12 20 08:30 12.06.2022
3179 Clear 19 1015 81 10000 4.12 330 06:49 12.06.2022
3180 Clear 19 1015 81 10000 4.12 330 06:49 12.06.2022
3181 Clear 20 1015 80 10000 5.66 310 04:26 12.06.2022
3182 Clear 20 1016 74 10000 4.63 310 02:32 12.06.2022
3183 Clear 21 1014 72 10000 5.14 330 01:36 12.06.2022
3184 Clear 21 1014 69 10000 5.14 310 00:57 12.06.2022
3185 Clear 21 1014 68 10000 7.15 315 00:19 12.06.2022
3186 Clear 21 1013 70 10000 7.15 315 00:19 12.06.2022
3187 Clouds 22 1013 65 10000 7.15 315 23:21 11.06.2022
3188 Clouds 23 1013 61 10000 8.75 360 22:37 11.06.2022
3189 Clouds 24 1012 59 10000 10.28 360 21:36 11.06.2022
3190 Clear 27 1013 54 10000 9.39 360 20:27 11.06.2022
3191 Clear 29 1015 53 10000 8.23 10 19:37 11.06.2022
3192 Clear 29 1013 51 10000 7.72 20 18:50 11.06.2022
3193 Clear 29 1013 54 10000 7.2 20 18:31 11.06.2022
3194 Clear 30 1013 50 10000 8.23 10 17:49 11.06.2022
3195 Clear 30 1013 50 10000 8.23 10 17:26 11.06.2022
3196 Clear 31 1014 49 10000 9.39 270 16:44 11.06.2022
3197 Clear 31 1014 49 10000 7.2 10 16:25 11.06.2022
3198 Clear 30 1014 49 10000 7.2 10 15:18 11.06.2022
3199 Clear 28 1015 52 10000 8.23 360 13:52 11.06.2022
3200 Clear 26 1015 56 10000 10.73 360 12:25 11.06.2022
3201 Clear 23 1016 67 10000 5.14 20 10:40 11.06.2022
3202 Clear 21 1015 73 10000 5.66 330 09:43 11.06.2022
3203 Clouds 20 1014 76 10000 10.8 10 08:46 11.06.2022
3204 Clear 20 1013 78 10000 9.39 360 06:47 11.06.2022
3205 Clear 20 1013 77 10000 7.6 360 05:58 11.06.2022
3206 Clear 20 1014 77 10000 7.15 360 03:46 11.06.2022
3207 Clear 21 1014 67 10000 8.49 360 01:52 11.06.2022
3208 Clear 22 1015 64 10000 12.96 360 01:26 11.06.2022
3209 Clouds 22 1015 61 10000 12.07 360 23:29 10.06.2022
3210 Clouds 23 1014 60 10000 12.52 360 22:29 10.06.2022
3211 Clear 23 1014 58 10000 14.31 337 21:47 10.06.2022
3212 Clear 25 1016 55 10000 11.32 360 20:39 10.06.2022
3213 Clear 26 1014 53 10000 12.07 360 20:21 10.06.2022
3214 Clear 27 1014 53 10000 10.8 360 19:19 10.06.2022
3215 Clear 28 1014 52 10000 8.75 350 19:19 10.06.2022
3216 Clear 28 1014 52 10000 17.43 360 18:46 10.06.2022
3217 Clear 29 1015 51 10000 9.83 337 17:54 10.06.2022
3218 Clear 29 1015 52 10000 8.75 350 17:23 10.06.2022
3219 Clear 29 1015 52 10000 9.39 135 16:36 10.06.2022
3220 Clear 29 1015 53 10000 9.26 10 15:40 10.06.2022
3221 Clear 30 1015 49 10000 9.39 360 14:29 10.06.2022
3222 Clear 29 1015 52 10000 8.75 350 13:19 10.06.2022
3223 Clear 26 1016 59 10000 6.17 360 11:59 10.06.2022
3224 Clear 23 1017 67 10000 6.69 360 10:51 10.06.2022
3225 Clear 23 1017 68 10000 5.14 330 10:24 10.06.2022
3226 Clear 21 1015 76 10000 10.8 10 08:58 10.06.2022
3227 Clear 20 1014 80 10000 9.83 360 07:50 10.06.2022
3228 Clear 20 1014 79 10000 12.07 292 06:47 10.06.2022
3229 Clear 19 1014 80 10000 7.2 320 06:28 10.06.2022
3230 Clear 19 1014 77 10000 10.73 360 04:53 10.06.2022
3231 Clear 21 1015 70 10000 4.12 340 02:31 10.06.2022
3232 Clear 21 1015 68 10000 8.49 360 01:36 10.06.2022
3233 Clear 21 1015 68 10000 8.49 360 01:36 10.06.2022
3234 Clear 21 1015 64 10000 14.31 292 23:58 09.06.2022
3235 Clouds 22 1015 56 10000 16.54 360 22:30 09.06.2022
3236 Clouds 23 1015 54 10000 9.77 360 21:43 09.06.2022
3237 Clouds 23 1015 57 10000 10.8 360 21:24 09.06.2022
3238 Clouds 24 1015 58 10000 12.86 350 20:38 09.06.2022
3239 Clouds 24 1014 59 10000 12.35 350 19:43 09.06.2022
3240 Clouds 26 1015 57 10000 11.83 350 18:37 09.06.2022
3241 Clouds 27 1016 55 10000 11.32 350 17:31 09.06.2022
3242 Clouds 28 1016 53 10000 12.86 350 16:28 09.06.2022
3243 Clouds 26 1017 54 10000 11.62 360 14:52 09.06.2022
3244 Clouds 26 1017 55 10000 8.49 315 14:27 09.06.2022
3245 Clouds 25 1018 57 10000 11.62 360 13:30 09.06.2022
3246 Clouds 25 1018 57 10000 11.62 360 13:30 09.06.2022
3247 Clouds 25 1018 62 10000 8.75 350 12:55 09.06.2022
3248 Clouds 22 1018 68 10000 9.26 350 11:35 09.06.2022
3249 Drizzle 20 1018 77 10000 12.96 360 09:55 09.06.2022
3250 Clouds 20 1018 77 10000 12.96 360 09:55 09.06.2022
3251 Drizzle 20 1018 78 10000 14.31 360 09:37 09.06.2022
3252 Clouds 19 1018 80 10000 11.62 225 08:38 09.06.2022
3253 Clouds 19 1017 79 10000 7.15 360 07:29 09.06.2022
3254 Clouds 20 1018 80 10000 7.15 360 04:30 09.06.2022
3255 Clouds 20 1020 81 10000 8.05 315 00:35 09.06.2022
3256 Clouds 20 1019 80 10000 7.15 360 23:18 08.06.2022
3257 Clouds 20 1020 82 10000 12.07 360 22:43 08.06.2022
3258 Clouds 20 1020 81 10000 12.52 360 22:23 08.06.2022
3259 Clouds 21 1019 72 10000 9.83 360 21:33 08.06.2022
3260 Clouds 23 1021 63 10000 8.23 350 20:25 08.06.2022
3261 Clouds 24 1020 60 10000 7.2 350 19:42 08.06.2022
3262 Clouds 25 1019 58 10000 8.05 315 18:48 08.06.2022
3263 Clouds 25 1019 57 10000 5.14 350 17:46 08.06.2022
3264 Clouds 25 1020 57 10000 5.14 350 15:56 08.06.2022
3265 Clouds 25 1020 63 10000 6.17 340 14:44 08.06.2022
3266 Clouds 24 1020 67 10000 5.36 315 12:55 08.06.2022
3267 Clouds 24 1020 67 10000 5.36 315 12:55 08.06.2022
3268 Clouds 24 1020 68 10000 4.47 315 12:55 08.06.2022
3269 Clouds 24 1020 67 10000 5.36 315 12:55 08.06.2022
3270 Clouds 22 1022 73 10000 5.14 350 11:41 08.06.2022
3271 Clouds 21 1020 75 10000 5.14 350 11:19 08.06.2022
3272 Drizzle 20 1020 85 6000 3.09 320 09:30 08.06.2022
3273 Drizzle 19 1019 84 6000 3.09 330 08:55 08.06.2022
3274 Clouds 19 1018 83 10000 5.36 360 07:21 08.06.2022
3275 Clouds 19 1018 84 10000 3.6 320 04:49 08.06.2022
3276 Clouds 19 1021 73 10000 4.12 300 01:27 08.06.2022
3277 Clouds 19 1019 69 10000 7.15 360 23:33 07.06.2022
3278 Clouds 20 1019 65 10000 7.15 360 22:58 07.06.2022
3279 Clouds 20 1019 62 10000 7.15 360 22:37 07.06.2022
3280 Clouds 21 1018 60 10000 5.66 300 21:41 07.06.2022
3281 Clouds 22 1018 57 10000 7.15 360 21:23 07.06.2022
3282 Clouds 23 1020 52 10000 8.23 340 20:42 07.06.2022
3283 Clouds 23 1020 47 10000 8.75 330 19:58 07.06.2022
3284 Clouds 25 1018 41 10000 7.2 310 18:38 07.06.2022
3285 Clouds 25 1018 42 10000 10.8 340 17:36 07.06.2022
3286 Clouds 25 1019 44 10000 14.31 360 16:49 07.06.2022
3287 Clouds 26 1019 45 10000 12.07 180 16:31 07.06.2022
3288 Clouds 25 1019 46 10000 10.73 270 15:38 07.06.2022
3289 Clouds 25 1019 46 10000 12.52 360 15:19 07.06.2022
3290 Clouds 25 1019 49 10000 12.52 292 14:44 07.06.2022
3291 Clouds 25 1020 50 10000 12.52 360 13:42 07.06.2022
3292 Clouds 25 1020 50 10000 12.52 360 13:42 07.06.2022
3293 Clouds 24 1020 51 10000 8.05 360 13:23 07.06.2022
3294 Clouds 23 1021 57 10000 4.63 350 11:56 07.06.2022
3295 Clouds 23 1021 57 10000 4.63 350 11:56 07.06.2022
3296 Clouds 22 1020 62 10000 4.12 330 10:57 07.06.2022
3297 Clouds 19 1019 73 10000 4.12 360 09:28 07.06.2022
3298 Clouds 19 1020 77 10000 4.63 350 08:28 07.06.2022
3299 Clouds 18 1019 80 10000 8.05 360 07:19 07.06.2022
3300 Clouds 19 1019 81 10000 8.49 315 05:19 07.06.2022
3301 Clouds 19 1020 82 10000 8.49 360 01:43 07.06.2022
3302 Clouds 20 1022 82 10000 5.66 330 23:59 06.06.2022
3303 Clouds 20 1022 81 10000 5.14 350 22:59 06.06.2022
3304 Clouds 20 1022 80 10000 4.63 320 22:30 06.06.2022
3305 Clouds 21 1019 72 10000 7.6 315 21:28 06.06.2022
3306 Clear 24 1021 59 10000 5.66 350 19:37 06.06.2022
3307 Clear 25 1019 56 10000 5.66 350 19:19 06.06.2022
3308 Clear 25 1019 54 10000 6.17 330 18:34 06.06.2022
3309 Clouds 25 1020 49 10000 6.17 340 17:31 06.06.2022
3310 Clouds 26 1020 50 10000 7.15 315 16:21 06.06.2022
3311 Clouds 26 1020 49 10000 7.2 340 15:33 06.06.2022
3312 Clear 26 1020 51 10000 5.14 360 14:36 06.06.2022
3313 Clear 24 1020 54 10000 5.66 350 13:27 06.06.2022
3314 Clouds 22 1020 58 10000 4.92 225 12:37 06.06.2022
3315 Clouds 22 1021 63 10000 10.73 360 11:54 06.06.2022
3316 Clouds 21 1021 63 10000 3.13 270 11:28 06.06.2022
3317 Clouds 17 1020 79 10000 3.13 337 09:40 06.06.2022
3318 Clouds 16 1020 81 10000 2.68 360 08:35 06.06.2022
3319 Clouds 16 1019 83 10000 2.57 320 07:28 06.06.2022
3320 Clouds 16 1019 81 10000 2.68 292 05:29 06.06.2022
3321 Clouds 16 1019 81 10000 2.68 292 05:29 06.06.2022
3322 Clouds 16 1019 81 10000 2.68 292 05:29 06.06.2022
3323 Clouds 16 1020 78 10000 4.02 360 03:44 06.06.2022
3324 Clouds 17 1023 75 10000 3.09 330 01:29 06.06.2022
3325 Clouds 17 1021 76 10000 4.92 360 00:42 06.06.2022
3326 Clouds 18 1022 73 10000 4.63 330 23:49 05.06.2022
3327 Clouds 18 1020 72 10000 7.2 350 22:52 05.06.2022
3328 Clear 20 1020 57 10000 10.28 360 20:59 05.06.2022
3329 Clear 22 1019 50 10000 9.83 360 19:52 05.06.2022
3330 Clear 23 1019 47 10000 9.26 350 18:31 05.06.2022
3331 Clear 23 1019 47 10000 9.26 350 18:31 05.06.2022
3332 Clear 24 1020 46 10000 10.28 360 17:55 05.06.2022
3333 Clouds 25 1020 46 10000 9.39 180 17:27 05.06.2022
3334 Clouds 25 1020 46 10000 9.39 180 17:27 05.06.2022
3335 Clouds 24 1020 47 10000 7.2 350 16:57 05.06.2022
3336 Clouds 25 1020 46 10000 9.39 360 16:37 05.06.2022
3337 Clouds 24 1020 47 10000 7.15 315 16:37 05.06.2022
3338 Clouds 25 1020 46 10000 9.39 360 16:37 05.06.2022
3339 Clouds 24 1021 51 10000 5.81 360 14:46 05.06.2022
3340 Clouds 22 1022 56 10000 4.63 350 12:59 05.06.2022
3341 Clouds 21 1022 61 10000 5.14 350 11:51 05.06.2022
3342 Clouds 20 1021 68 10000 5.66 360 10:43 05.06.2022
3343 Clouds 19 1021 69 10000 8.05 360 10:23 05.06.2022
3344 Clouds 17 1020 81 10000 4.63 360 08:41 05.06.2022
3345 Clouds 17 1020 81 10000 4.63 360 08:20 05.06.2022
3346 Clouds 17 1019 84 10000 4.47 360 05:23 05.06.2022
3347 Clouds 17 1019 82 10000 5.36 360 04:30 05.06.2022
3348 Clouds 18 1019 81 10000 4.12 340 01:45 05.06.2022
3349 Clouds 18 1019 81 10000 4.12 340 01:45 05.06.2022
3350 Clouds 18 1019 81 10000 6.71 360 01:45 05.06.2022
3351 Clouds 18 1019 81 10000 4.12 340 01:45 05.06.2022
3352 Clouds 18 1019 81 10000 4.12 340 01:45 05.06.2022
3353 Clouds 18 1019 81 10000 4.12 340 01:45 05.06.2022
3354 Clouds 18 1019 81 10000 4.92 360 01:23 05.06.2022
3355 Clouds 18 1019 81 10000 4.92 360 01:23 05.06.2022
3356 Clouds 19 1017 77 10000 4.92 360 22:44 04.06.2022
3357 Clouds 21 1018 69 10000 5.14 340 21:21 04.06.2022
3358 Clouds 22 1015 65 10000 12.07 180 18:54 04.06.2022
3359 Clouds 21 1014 66 10000 12.96 315 16:48 04.06.2022
3360 Clouds 21 1014 65 10000 9.39 270 16:19 04.06.2022
3361 Clouds 22 1014 63 10000 6.69 220 15:27 04.06.2022
3362 Clouds 21 1014 71 10000 14.31 315 13:54 04.06.2022
3363 Clouds 18 1013 84 10000 6.71 180 11:23 04.06.2022
3364 Rain 18 1013 87 10000 6.71 180 10:52 04.06.2022
3365 Drizzle 17 1013 87 8000 8.49 135 09:46 04.06.2022
3366 Rain 17 1015 84 10000 4.12 190 08:44 04.06.2022
3367 Clouds 17 1011 85 10000 4.02 180 07:59 04.06.2022
3368 Clouds 17 1011 83 10000 5.81 225 06:20 04.06.2022
3369 Clouds 18 1014 81 10000 4.12 220 02:57 04.06.2022
3370 Clouds 18 1012 82 10000 11.62 315 00:20 04.06.2022
3371 Clouds 18 1012 83 10000 7.6 180 22:49 03.06.2022
3372 Clouds 19 1012 75 10000 9.83 315 21:46 03.06.2022
3373 Clouds 19 1011 75 10000 15.2 180 20:40 03.06.2022
3374 Clouds 20 1014 72 10000 6.69 220 19:19 03.06.2022
3375 Clouds 20 1012 72 10000 15.2 315 16:54 03.06.2022
3376 Clouds 21 1012 71 10000 21.46 180 15:51 03.06.2022
3377 Clouds 20 1014 71 10000 9.26 200 13:51 03.06.2022
3378 Clouds 20 1011 73 10000 21.9 225 11:54 03.06.2022
3379 Mist 18 1011 82 4500 12.96 180 09:56 03.06.2022
3380 Clouds 18 1011 81 10000 16.54 180 09:29 03.06.2022
3381 Clouds 17 1010 81 10000 8.05 180 07:43 03.06.2022
3382 Clouds 17 1009 82 10000 4.92 202 06:46 03.06.2022
3383 Clouds 17 1009 86 10000 8.05 180 06:27 03.06.2022
3384 Clouds 18 1010 82 10000 12.07 180 02:58 03.06.2022
3385 Clouds 19 1014 80 10000 4.63 220 23:39 02.06.2022
3386 Clouds 19 1011 77 10000 12.96 225 21:58 02.06.2022
3387 Clouds 20 1011 72 10000 14.31 225 20:34 02.06.2022
3388 Clouds 21 1010 70 10000 13.86 247 19:55 02.06.2022
3389 Clouds 20 1010 71 10000 10.73 135 19:37 02.06.2022
3390 Clouds 21 1011 69 10000 10.73 180 18:39 02.06.2022
3391 Clouds 21 1012 68 10000 18.78 225 16:28 02.06.2022
3392 Clouds 20 1012 73 10000 9.83 225 15:46 02.06.2022
3393 Clouds 21 1012 66 10000 9.83 315 13:30 02.06.2022
3394 Clouds 21 1012 64 10000 16.09 225 12:46 02.06.2022
3395 Clouds 19 1011 75 10000 11.62 315 10:34 02.06.2022
3396 Clouds 18 1011 83 10000 6.71 180 09:29 02.06.2022
3397 Clouds 18 1011 87 10000 8.05 360 08:39 02.06.2022
3398 Clouds 17 1009 87 10000 7.6 180 08:19 02.06.2022
3399 Clouds 18 1009 83 10000 8.49 180 06:20 02.06.2022
3400 Clouds 18 1013 83 10000 6.17 200 03:49 02.06.2022
3401 Clouds 19 1011 86 10000 13.86 180 00:47 02.06.2022
3402 Clouds 19 1011 84 10000 16.99 180 22:57 01.06.2022
3403 Clouds 19 1011 84 10000 16.99 180 22:57 01.06.2022
3404 Clouds 19 1011 78 10000 11.62 135 21:59 01.06.2022
3405 Clouds 20 1011 76 10000 9.39 270 21:24 01.06.2022
3406 Clouds 20 1011 73 10000 17.88 135 20:38 01.06.2022
3407 Clouds 21 1011 72 10000 21.46 180 19:51 01.06.2022
3408 Clouds 21 1012 70 10000 12.52 292 18:28 01.06.2022
3409 Clouds 21 1012 68 10000 14.31 180 16:58 01.06.2022
3410 Clouds 20 1012 75 10000 9.39 180 15:43 01.06.2022
3411 Rain 21 1014 68 10000 9.77 200 14:49 01.06.2022
3412 Clouds 20 1012 68 10000 19.22 135 13:23 01.06.2022
3413 Clouds 20 1011 75 10000 10.73 180 10:48 01.06.2022
3414 Clouds 19 1011 81 10000 9.83 225 09:29 01.06.2022
3415 Clouds 18 1010 87 10000 8.49 180 08:18 01.06.2022
3416 Clouds 17 1012 84 10000 3.6 200 07:20 01.06.2022
3417 Clouds 18 1009 86 10000 17.43 180 04:41 01.06.2022
3418 Clouds 20 1009 82 10000 12.52 225 23:50 31.05.2022
3419 Clouds 20 1010 83 10000 14.31 270 22:41 31.05.2022
3420 Clouds 20 1010 83 10000 12.07 135 22:22 31.05.2022
3421 Clouds 20 1009 81 10000 19.67 157 21:39 31.05.2022
3422 Clouds 21 1009 78 10000 15.2 180 20:44 31.05.2022
3423 Clouds 21 1008 75 10000 19.67 292 19:46 31.05.2022
3424 Clouds 22 1009 69 10000 16.54 180 18:32 31.05.2022
3425 Clouds 22 1009 69 10000 14.75 135 17:38 31.05.2022
3426 Clouds 22 1010 64 10000 16.54 225 15:55 31.05.2022
3427 Clouds 22 1010 65 10000 19.67 225 15:34 31.05.2022
3428 Clouds 21 1010 69 10000 19.67 157 13:22 31.05.2022
3429 Clouds 21 1009 72 10000 8.49 180 12:19 31.05.2022
3430 Clouds 20 1009 82 10000 9.39 180 10:34 31.05.2022
3431 Clouds 18 1008 87 10000 5.81 180 08:26 31.05.2022
3432 Clouds 18 1007 84 10000 9.83 135 06:21 31.05.2022
3433 Clouds 19 1008 82 10000 10.28 247 04:34 31.05.2022
3434 Clouds 19 1009 86 10000 10.28 225 23:46 30.05.2022
3435 Clouds 19 1009 85 10000 11.62 180 23:24 30.05.2022
3436 Clouds 19 1009 85 10000 5.66 190 22:42 30.05.2022
3437 Drizzle 19 1009 83 10000 8.05 180 21:40 30.05.2022
3438 Drizzle 19 1009 83 10000 10.28 135 21:21 30.05.2022
3439 Clouds 20 1011 80 10000 6.69 210 19:45 30.05.2022
3440 Clouds 20 1008 78 10000 11.62 157 18:21 30.05.2022
3441 Clouds 20 1008 74 10000 19.22 135 17:23 30.05.2022
3442 Clouds 21 1009 65 10000 16.54 180 16:30 30.05.2022
3443 Clouds 19 1009 76 10000 21.01 315 13:38 30.05.2022
3444 Clouds 19 1009 73 10000 12.07 180 11:54 30.05.2022
3445 Clouds 18 1008 78 10000 12.52 180 10:20 30.05.2022
3446 Clouds 18 1007 83 10000 10.73 180 09:18 30.05.2022
3447 Clouds 18 1010 75 10000 3.6 200 06:28 30.05.2022
3448 Clouds 18 1010 76 10000 3.6 210 05:38 30.05.2022
3449 Clouds 18 1007 77 10000 4.12 250 01:30 30.05.2022
3450 Clouds 18 1007 75 10000 5.14 230 22:49 29.05.2022
3451 Clouds 18 1008 75 10000 5.81 225 22:29 29.05.2022
3452 Clouds 19 1007 69 10000 8.05 315 20:38 29.05.2022
3453 Clouds 19 1007 69 10000 12.96 225 19:30 29.05.2022
3454 Clouds 20 1007 67 10000 16.54 180 18:35 29.05.2022
3455 Clouds 20 1007 64 10000 14.75 180 16:51 29.05.2022
3456 Clouds 21 1008 62 10000 14.31 225 15:47 29.05.2022
3457 Clouds 20 1008 63 10000 9.83 180 14:56 29.05.2022
3458 Clouds 20 1008 65 10000 13.86 180 13:46 29.05.2022
3459 Clouds 19 1010 68 10000 3.6 210 11:34 29.05.2022
3460 Clouds 19 1010 69 10000 3.6 220 10:38 29.05.2022
3461 Clouds 18 1010 69 10000 4.63 230 08:39 29.05.2022
3462 Clouds 18 1010 70 10000 3.09 240 05:48 29.05.2022
3463 Clouds 18 1011 73 10000 4.12 210 04:43 29.05.2022
3464 Clouds 18 1011 74 10000 2.57 230 02:50 29.05.2022
3465 Clouds 18 1011 74 10000 4.12 230 23:49 28.05.2022
3466 Clouds 18 1011 74 10000 4.12 230 23:26 28.05.2022
3467 Clouds 18 1011 75 10000 4.63 210 22:33 28.05.2022
3468 Clouds 19 1012 72 10000 5.66 230 21:34 28.05.2022
3469 Clear 21 1012 65 10000 5.66 230 19:24 28.05.2022
3470 Clear 22 1012 63 10000 6.69 250 18:47 28.05.2022
3471 Clear 23 1012 57 10000 6.17 270 17:36 28.05.2022
3472 Clear 23 1012 56 10000 6.17 260 16:37 28.05.2022
3473 Clear 23 1013 60 10000 5.66 260 15:39 28.05.2022
3474 Clouds 23 1013 62 10000 6.69 260 14:23 28.05.2022
3475 Clouds 24 1013 58 10000 5.66 180 12:44 28.05.2022
3476 Clear 22 1013 59 10000 5.14 180 12:18 28.05.2022
3477 Clear 22 1013 55 10000 3.6 160 10:51 28.05.2022
3478 Clear 20 1013 68 10000 2.57 40 09:57 28.05.2022
3479 Clear 18 1012 77 10000 2.57 50 08:45 28.05.2022
3480 Clear 18 1012 70 10000 0 0 07:23 28.05.2022
3481 Clear 18 1012 74 10000 1.03 240 05:28 28.05.2022
3482 Clear 21 1013 59 10000 4.12 320 02:44 28.05.2022
3483 Clear 22 1014 51 10000 4.12 230 00:32 28.05.2022
3484 Clear 25 1014 38 10000 5.66 310 22:53 27.05.2022
3485 Clear 26 1014 36 10000 6.17 310 21:44 27.05.2022
3486 Clear 29 1014 32 10000 7.2 360 20:50 27.05.2022
3487 Clear 29 1014 32 10000 7.2 350 20:24 27.05.2022
3488 Clear 30 1011 28 10000 7.2 360 19:42 27.05.2022
3489 Clear 30 1010 27 10000 6.17 310 19:21 27.05.2022
3490 Clear 32 1014 29 10000 4.63 270 17:54 27.05.2022
3491 Clear 30 1015 33 10000 4.12 320 16:38 27.05.2022
3492 Clear 30 1014 33 10000 4.12 330 15:22 27.05.2022
3493 Clear 28 1014 36 10000 3.6 330 14:25 27.05.2022
3494 Clear 26 1015 39 10000 3.09 10 12:43 27.05.2022
3495 Clear 25 1015 40 10000 2.57 70 11:34 27.05.2022
3496 Clear 22 1016 50 10000 2.57 80 10:55 27.05.2022
3497 Clear 21 1016 57 10000 2.57 70 10:31 27.05.2022
3498 Clear 19 1018 65 10000 2.57 40 09:35 27.05.2022
3499 Clear 18 1014 75 10000 2.57 50 07:52 27.05.2022
3500 Clear 18 1015 71 10000 2.57 80 05:44 27.05.2022
3501 Clear 22 1015 48 10000 2.06 60 02:26 27.05.2022
3502 Clear 24 1016 46 10000 6.17 10 00:29 27.05.2022
3503 Clear 25 1015 39 10000 7.72 360 22:39 26.05.2022
3504 Clear 27 1015 34 10000 8.75 350 21:40 26.05.2022
3505 Clear 29 1015 31 10000 9.26 350 20:53 26.05.2022
3506 Clear 30 1015 27 10000 9.77 340 19:24 26.05.2022
3507 Clear 31 1016 26 10000 6.17 340 18:18 26.05.2022
3508 Clear 30 1017 26 10000 6.17 350 16:42 26.05.2022
3509 Clear 29 1017 29 10000 6.17 340 15:46 26.05.2022
3510 Clear 28 1018 25 10000 4.12 340 14:43 26.05.2022
3511 Clear 26 1017 31 10000 4.63 70 12:50 26.05.2022
3512 Clear 23 1017 38 10000 6.17 50 11:29 26.05.2022
3513 Clear 22 1015 34 10000 5.66 60 10:19 26.05.2022
3514 Clear 20 1015 39 10000 4.12 50 09:33 26.05.2022
3515 Clear 18 1020 57 10000 4.63 30 08:35 26.05.2022
3516 Clear 17 1012 64 10000 2.57 350 04:41 26.05.2022
3517 Clear 18 1016 60 10000 7.72 10 00:48 26.05.2022
3518 Clear 19 1016 57 10000 8.75 360 23:40 25.05.2022
3519 Clear 19 1015 56 10000 8.75 360 22:22 25.05.2022
3520 Clear 21 1020 51 10000 8.75 360 21:33 25.05.2022
3521 Clear 21 1015 47 10000 10.8 350 20:37 25.05.2022
3522 Clear 22 1015 44 10000 10.29 350 19:29 25.05.2022
3523 Clear 24 1014 40 10000 8.75 330 17:46 25.05.2022
3524 Clear 24 1015 38 10000 9.26 330 16:40 25.05.2022
3525 Clear 24 1016 39 10000 8.23 320 15:57 25.05.2022
3526 Clear 23 1016 37 10000 6.17 340 14:55 25.05.2022
3527 Clear 23 1016 38 10000 5.66 10 14:33 25.05.2022
3528 Clear 22 1016 39 10000 5.66 10 13:56 25.05.2022
3529 Clear 20 1016 45 10000 7.2 360 12:45 25.05.2022
3530 Clouds 18 1015 58 10000 7.72 360 10:54 25.05.2022
3531 Clouds 17 1015 65 10000 7.72 360 10:20 25.05.2022
3532 Clouds 15 1003 74 10000 2.68 21 08:41 25.05.2022
3533 Clouds 15 1002 75 10000 3.58 21 07:23 25.05.2022
3534 Clouds 15 1011 73 10000 6.17 330 05:18 25.05.2022
3535 Clouds 15 1013 70 10000 6.69 360 00:28 25.05.2022
3536 Clouds 15 1013 70 10000 6.69 330 23:47 24.05.2022
3537 Clouds 16 1012 66 10000 9.26 350 22:39 24.05.2022
3538 Clouds 17 1012 61 10000 10.29 340 21:43 24.05.2022
3539 Clouds 17 1011 59 10000 10.29 340 21:21 24.05.2022
3540 Clouds 18 1011 54 10000 9.77 340 20:38 24.05.2022
3541 Clouds 19 1013 50 10000 9.26 340 18:57 24.05.2022
3542 Clouds 20 1013 48 10000 11.83 330 16:58 24.05.2022
3543 Clouds 20 1013 47 10000 11.32 330 16:28 24.05.2022
3544 Clouds 19 1011 50 10000 9.77 340 15:20 24.05.2022
3545 Clouds 19 1013 48 10000 10.29 340 14:34 24.05.2022
3546 Clouds 19 1011 47 10000 8.75 360 13:27 24.05.2022
3547 Clouds 18 1012 51 10000 10.29 360 11:53 24.05.2022
3548 Clouds 16 1011 67 10000 8.94 344 09:49 24.05.2022
3549 Clouds 15 1011 72 10000 7.2 350 08:51 24.05.2022
3550 Clouds 14 1009 75 10000 4.63 340 07:30 24.05.2022
3551 Clouds 15 1009 73 10000 5.14 340 05:59 24.05.2022
3552 Clouds 15 1008 72 10000 4.12 340 02:54 24.05.2022
3553 Clouds 15 1010 73 10000 6.17 350 01:44 24.05.2022
3554 Clouds 16 1010 72 10000 6.69 350 23:59 23.05.2022
3555 Clouds 17 1010 66 10000 8.75 360 22:22 23.05.2022
3556 Clouds 17 1010 63 10000 7.72 350 21:42 23.05.2022
3557 Clouds 19 1010 59 10000 7.2 340 20:45 23.05.2022
3558 Clouds 20 1010 59 10000 7.72 350 19:44 23.05.2022
3559 Clouds 20 1008 60 10000 7.72 330 19:18 23.05.2022
3560 Clouds 20 1010 59 10000 7.72 350 18:40 23.05.2022
3561 Clouds 20 1009 63 10000 8.23 360 17:56 23.05.2022
3562 Clouds 22 1011 60 10000 6.17 330 15:55 23.05.2022
3563 Clouds 20 1011 63 10000 6.69 340 13:56 23.05.2022
3564 Clouds 19 1011 65 10000 6.69 350 11:41 23.05.2022
3565 Clouds 18 1009 67 10000 6.69 350 10:47 23.05.2022
3566 Clouds 16 1011 76 10000 4.12 340 09:47 23.05.2022
3567 Clouds 16 1011 80 10000 2.57 330 08:46 23.05.2022
3568 Clouds 16 1011 80 10000 2.57 330 08:46 23.05.2022
3569 Clouds 15 1010 79 10000 2.57 330 07:24 23.05.2022
3570 Clouds 15 1010 79 10000 3.6 340 06:39 23.05.2022
3571 Clouds 16 1011 79 10000 4.12 330 03:41 23.05.2022
3572 Clouds 17 1012 80 10000 4.63 330 01:52 23.05.2022
3573 Clouds 17 1012 81 10000 4.63 330 01:29 23.05.2022
3574 Clouds 17 1008 82 10000 3.6 300 23:18 22.05.2022
3575 Clouds 18 1012 81 10000 4.12 350 22:27 22.05.2022
3576 Clouds 18 1012 81 10000 4.12 340 21:52 22.05.2022
3577 Drizzle 18 1012 81 10000 4.12 320 20:46 22.05.2022
3578 Drizzle 18 1012 80 10000 3.6 310 20:22 22.05.2022
3579 Drizzle 18 1010 80 10000 3.6 300 19:39 22.05.2022
3580 Clouds 19 1010 79 10000 5.66 320 18:52 22.05.2022
3581 Clouds 19 1012 77 10000 4.63 310 18:21 22.05.2022
3582 Clouds 20 1012 75 10000 4.63 250 17:26 22.05.2022
3583 Clouds 20 1010 76 10000 5.14 320 15:57 22.05.2022
3584 Clouds 19 1012 78 10000 4.12 300 14:47 22.05.2022
3585 Clouds 20 1012 78 10000 3.6 310 14:47 22.05.2022
3586 Clouds 20 1012 74 10000 4.12 300 13:22 22.05.2022
3587 Clouds 19 1011 77 10000 4.12 300 12:48 22.05.2022
3588 Clouds 18 1011 82 10000 4.12 290 11:29 22.05.2022
3589 Clouds 17 1010 90 10000 5.14 250 09:40 22.05.2022
3590 Drizzle 17 1010 91 10000 5.14 240 08:21 22.05.2022
3591 Clouds 17 1008 91 10000 6.17 240 07:21 22.05.2022
3592 Clouds 17 1008 91 9000 7.2 230 04:59 22.05.2022
3593 Drizzle 17 1009 86 8000 7.2 220 01:26 22.05.2022
3594 Clouds 17 1009 83 10000 7.72 210 00:39 22.05.2022
3595 Clouds 17 1009 82 10000 7.2 210 23:50 21.05.2022
3596 Clouds 18 1009 82 10000 8.23 220 22:26 21.05.2022
3597 Clouds 18 1009 78 10000 8.23 220 21:42 21.05.2022
3598 Clouds 18 1009 77 10000 7.72 210 20:51 21.05.2022
3599 Clouds 19 1009 77 10000 8.23 220 20:21 21.05.2022
3600 Clouds 19 1009 75 10000 8.23 220 19:25 21.05.2022
3601 Clouds 22 1009 67 10000 7.6 200 17:47 21.05.2022
3602 Clouds 21 1014 69 9000 7.72 220 15:54 21.05.2022
3603 Clouds 20 1015 73 9000 8.75 220 14:37 21.05.2022
3604 Clouds 21 1015 72 9000 6.69 220 13:42 21.05.2022
3605 Clouds 21 1014 75 9000 6.69 210 12:49 21.05.2022
3606 Clouds 22 1014 74 9000 5.66 170 11:58 21.05.2022
3607 Fog 20 1008 80 8000 6.17 180 10:23 21.05.2022
3608 Fog 21 1013 76 8000 7.2 170 09:41 21.05.2022
3609 Rain 20 1011 77 8000 3.09 0 08:52 21.05.2022
3610 Clear 20 1012 76 9000 3.6 250 07:53 21.05.2022
3611 Clear 24 1012 62 10000 3.09 230 03:58 21.05.2022
3612 Clear 26 1006 54 10000 4.63 40 23:53 20.05.2022
3613 Clear 26 1007 55 10000 6.17 20 22:57 20.05.2022
3614 Clear 26 1007 53 10000 6.17 20 22:23 20.05.2022
3615 Rain 26 1007 54 10000 6.69 20 21:41 20.05.2022
3616 Clear 27 1007 52 10000 9.26 10 20:54 20.05.2022
3617 Clear 28 1007 52 10000 8.75 30 19:58 20.05.2022
3618 Clear 29 1008 51 10000 8.75 30 19:26 20.05.2022
3619 Rain 29 1008 51 10000 6.69 360 18:44 20.05.2022
3620 Rain 29 1015 48 10000 5.14 360 16:54 20.05.2022
3621 Clear 30 1010 44 10000 6.69 10 16:19 20.05.2022
3622 Clear 30 1010 43 10000 6.69 10 15:44 20.05.2022
3623 Clear 29 1010 44 10000 7.72 30 14:30 20.05.2022
3624 Clear 28 1011 43 10000 7.2 10 13:55 20.05.2022
3625 Clear 23 1011 51 10000 5.14 360 11:33 20.05.2022
3626 Clear 20 1012 58 10000 4.12 350 09:52 20.05.2022
3627 Clear 18 1012 62 10000 3.6 320 08:44 20.05.2022
3628 Clear 17 1007 64 10000 3.6 330 06:50 20.05.2022
3629 Clear 18 1007 62 10000 4.63 330 06:31 20.05.2022
3630 Clear 18 1010 63 10000 4.12 340 04:31 20.05.2022
3631 Clear 18 1010 62 10000 6.17 320 00:43 20.05.2022
3632 Clear 19 1009 59 10000 8.23 10 22:47 19.05.2022
3633 Clear 19 1009 59 10000 8.23 10 22:19 19.05.2022
3634 Clear 20 1011 59 10000 8.23 360 21:42 19.05.2022
3635 Clear 21 1011 60 10000 8.23 360 21:22 19.05.2022
3636 Clear 22 1008 56 10000 5.66 320 20:32 19.05.2022
3637 Clear 26 1015 48 10000 6.17 10 19:40 19.05.2022
3638 Clear 27 1010 43 10000 6.17 10 18:22 19.05.2022
3639 Clear 27 1011 40 10000 5.14 20 16:35 19.05.2022
3640 Clear 26 1012 40 10000 5.14 350 14:52 19.05.2022
3641 Clear 25 1012 40 10000 5.14 360 14:24 19.05.2022
3642 Clear 24 1012 42 10000 4.63 360 13:23 19.05.2022
3643 Clear 21 1013 51 10000 6.17 360 11:29 19.05.2022
3644 Clear 17 1013 70 10000 5.66 10 09:27 19.05.2022
3645 Clear 15 1009 75 10000 3.09 340 07:50 19.05.2022
3646 Clear 15 1009 73 10000 2.06 360 06:18 19.05.2022
3647 Clear 16 1012 64 10000 2.57 360 02:23 19.05.2022
3648 Clear 17 1013 71 10000 7.2 360 23:57 18.05.2022
3649 Clear 18 1012 68 10000 7.2 360 22:47 18.05.2022
3650 Clouds 19 1010 61 10000 7.72 350 21:51 18.05.2022
3651 Clouds 20 1010 55 10000 7.2 350 21:29 18.05.2022
3652 Clouds 21 1017 53 10000 7.72 350 20:47 18.05.2022
3653 Clouds 23 1010 51 10000 8.75 350 20:18 18.05.2022
3654 Clouds 24 1017 51 10000 6.17 350 18:33 18.05.2022
3655 Clouds 24 1017 51 10000 5.66 340 17:41 18.05.2022
3656 Clouds 24 1013 49 10000 5.66 340 17:23 18.05.2022
3657 Clouds 24 1013 53 10000 5.14 350 16:34 18.05.2022
3658 Clouds 23 1013 58 10000 5.14 360 15:42 18.05.2022
3659 Clouds 22 1014 64 10000 4.63 10 14:35 18.05.2022
3660 Rain 21 1013 68 10000 6.17 360 13:41 18.05.2022
3661 Clouds 21 1013 71 10000 5.66 10 12:48 18.05.2022
3662 Clouds 19 1012 77 10000 3.6 300 11:36 18.05.2022
3663 Clouds 19 1012 79 10000 3.6 300 11:18 18.05.2022
3664 Clouds 17 1014 84 10000 3.09 320 09:50 18.05.2022
3665 Clouds 17 1012 85 10000 2.57 320 07:51 18.05.2022
3666 Clouds 17 1012 87 10000 2.57 330 06:48 18.05.2022
3667 Clouds 17 1013 85 10000 4.12 310 01:53 18.05.2022
3668 Clouds 18 1015 84 10000 3.09 310 00:23 18.05.2022
3669 Clear 20 1014 78 10000 3.6 250 22:18 17.05.2022
3670 Clouds 21 1014 73 10000 4.12 330 21:20 17.05.2022
3671 Clouds 22 1019 68 10000 4.63 330 20:22 17.05.2022
3672 Clouds 23 1019 61 10000 5.14 260 19:28 17.05.2022
3673 Clouds 24 1020 61 10000 5.66 260 17:52 17.05.2022
3674 Clouds 23 1020 60 10000 5.66 260 17:18 17.05.2022
3675 Clouds 23 1016 61 10000 5.66 240 16:31 17.05.2022
3676 Clouds 23 1016 62 10000 5.66 270 15:32 17.05.2022
3677 Clouds 23 1016 62 10000 6.17 270 14:31 17.05.2022
3678 Clouds 23 1017 65 10000 4.12 280 13:38 17.05.2022
3679 Clouds 21 1017 71 10000 3.6 220 12:23 17.05.2022
3680 Clouds 18 1016 88 10000 3.09 220 09:53 17.05.2022
3681 Mist 18 1016 90 10000 3.6 160 08:43 17.05.2022
3682 Clouds 17 1014 89 10000 3.09 210 06:52 17.05.2022
3683 Clouds 17 1011 87 10000 2.57 210 04:28 17.05.2022
3684 Clouds 18 1015 85 10000 4.12 240 00:47 17.05.2022
3685 Clouds 19 1016 85 10000 4.12 210 22:44 16.05.2022
3686 Clouds 19 1016 85 10000 4.63 220 22:18 16.05.2022
3687 Clouds 19 1015 81 10000 5.14 220 20:50 16.05.2022
3688 Clouds 20 1014 81 10000 6.17 220 19:59 16.05.2022
3689 Clouds 20 1015 80 9000 7.2 200 18:32 16.05.2022
3690 Clouds 20 1016 76 10000 7.72 210 16:28 16.05.2022
3691 Clouds 20 1016 80 10000 8.75 200 14:46 16.05.2022
3692 Drizzle 20 1016 81 10000 8.23 200 13:26 16.05.2022
3693 Drizzle 19 1015 84 10000 7.72 200 11:34 16.05.2022
3694 Mist 18 1015 85 10000 5.14 170 10:24 16.05.2022
3695 Clouds 18 1012 86 10000 5.14 190 07:45 16.05.2022
3696 Clouds 18 1012 85 10000 5.14 200 05:40 16.05.2022
3697 Clouds 18 1013 82 10000 4.63 210 23:59 15.05.2022
3698 Clouds 18 1013 82 10000 6.69 200 22:36 15.05.2022
3699 Clouds 19 1013 80 10000 7.2 200 21:48 15.05.2022
3700 Clouds 19 1013 80 10000 7.2 210 21:21 15.05.2022
3701 Clouds 19 1013 78 10000 7.72 210 20:34 15.05.2022
3702 Clouds 21 1017 69 10000 7.2 200 18:30 15.05.2022
3703 Clouds 21 1011 70 10000 7.72 220 16:37 15.05.2022
3704 Rain 20 1012 72 10000 7.2 210 14:18 15.05.2022
3705 Clouds 20 1012 73 10000 8.94 195 13:35 15.05.2022
3706 Clouds 19 1011 77 10000 5.66 200 11:55 15.05.2022
3707 Clouds 18 1011 81 10000 5.66 220 10:40 15.05.2022
3708 Clouds 18 1008 81 10000 5.66 210 08:52 15.05.2022
3709 Clouds 17 1005 83 10000 5.14 220 07:22 15.05.2022
3710 Clouds 17 1005 84 10000 4.63 220 06:42 15.05.2022
3711 Clouds 18 1008 79 10000 6.17 220 02:38 15.05.2022
3712 Clouds 18 1008 79 10000 6.69 200 23:59 14.05.2022
3713 Clouds 19 1008 78 10000 7.72 200 23:35 14.05.2022
3714 Clouds 19 1008 78 10000 7.72 200 23:35 14.05.2022
3715 Clouds 18 1008 79 10000 6.69 210 21:45 14.05.2022
3716 Clouds 19 1008 78 10000 6.69 210 21:24 14.05.2022
3717 Clouds 19 1008 73 10000 8.23 220 20:25 14.05.2022
3718 Clouds 20 1008 68 10000 8.75 210 19:20 14.05.2022
3719 Clouds 21 1008 69 10000 9.77 220 18:51 14.05.2022
3720 Clouds 21 1008 69 10000 9.77 220 18:51 14.05.2022
3721 Clouds 22 1008 66 10000 8.23 220 17:43 14.05.2022
3722 Clouds 23 1009 60 10000 8.75 210 15:58 14.05.2022
3723 Clear 24 1014 55 10000 6.17 200 14:38 14.05.2022
3724 Clear 24 1008 52 10000 5.36 190 13:24 14.05.2022
3725 Clear 23 1009 55 10000 4.12 270 11:42 14.05.2022
3726 Clear 22 1009 60 10000 4.63 230 10:39 14.05.2022
3727 Clear 21 1009 61 10000 4.63 230 10:18 14.05.2022
3728 Clear 20 1009 67 10000 2.06 270 09:23 14.05.2022
3729 Clear 20 1007 62 10000 1.03 100 07:26 14.05.2022
3730 Clear 21 1008 58 10000 1.54 70 04:32 14.05.2022
3731 Clear 22 1008 54 10000 0.89 32 00:25 14.05.2022
3732 Clear 23 1011 51 10000 3.6 310 23:25 13.05.2022
3733 Clear 23 1012 50 10000 4.12 310 22:54 13.05.2022
3734 Clear 24 1011 49 10000 3.6 300 22:21 13.05.2022
3735 Clear 27 1016 36 10000 4.63 310 20:58 13.05.2022
3736 Clear 27 1016 38 10000 4.63 10 20:32 13.05.2022
3737 Clear 28 1016 39 10000 5.14 360 19:51 13.05.2022
3738 Clear 28 1017 36 10000 4.63 260 18:47 13.05.2022
3739 Clear 28 1017 33 10000 3.6 270 17:30 13.05.2022
3740 Clear 29 1018 32 10000 2.57 70 16:29 13.05.2022
3741 Clear 28 1018 35 10000 3.6 230 15:45 13.05.2022
3742 Clear 27 1014 36 10000 3.6 220 14:29 13.05.2022
3743 Clear 24 1019 45 10000 3.6 210 12:47 13.05.2022
3744 Clear 24 1014 44 10000 3.09 360 11:39 13.05.2022
3745 Clear 20 1013 61 10000 2.57 70 09:54 13.05.2022
3746 Clear 19 1013 59 10000 2.57 20 09:26 13.05.2022
3747 Clear 17 1012 60 10000 1.03 110 07:50 13.05.2022
3748 Clear 17 1012 57 10000 0.51 0 06:50 13.05.2022
3749 Clear 18 1012 55 10000 1.54 130 04:54 13.05.2022
3750 Clear 20 1013 51 10000 3.6 320 00:57 13.05.2022
3751 Clear 21 1009 52 10000 7.72 10 22:49 12.05.2022
3752 Clear 22 1012 52 10000 6.69 360 22:30 12.05.2022
3753 Clear 27 1017 45 10000 6.69 360 20:49 12.05.2022
3754 Clear 28 1008 42 10000 3.6 280 19:26 12.05.2022
3755 Clear 29 1010 34 10000 3.6 220 18:25 12.05.2022
3756 Clear 29 1010 34 10000 3.6 220 18:25 12.05.2022
3757 Clear 28 1011 30 10000 3.6 80 16:39 12.05.2022
3758 Clear 27 1012 32 10000 3.6 0 14:57 12.05.2022
3759 Clear 26 1012 32 10000 3.6 360 13:48 12.05.2022
3760 Clear 23 1012 38 10000 4.12 10 11:48 12.05.2022
3761 Clear 20 1011 52 10000 5.14 10 10:32 12.05.2022
3762 Clear 17 1011 57 10000 4.12 40 08:52 12.05.2022
3763 Clear 17 1011 57 10000 4.12 40 08:52 12.05.2022
3764 Clear 17 1011 57 10000 4.12 40 08:52 12.05.2022
3765 Clear 17 1011 57 10000 4.12 40 08:52 12.05.2022
3766 Clear 17 1011 57 10000 4.12 40 08:52 12.05.2022
3767 Clear 17 1010 55 10000 1.54 20 07:59 12.05.2022
3768 Clear 18 1009 53 10000 1.54 330 06:58 12.05.2022
3769 Clear 19 1010 45 10000 1.54 90 03:50 12.05.2022
3770 Clear 20 1010 44 10000 4.12 340 01:29 12.05.2022
3771 Clear 22 1010 34 10000 7.2 10 22:59 11.05.2022
3772 Clear 23 1009 32 10000 6.17 10 22:18 11.05.2022
3773 Clear 24 1009 34 10000 6.69 10 21:24 11.05.2022
3774 Clear 24 1009 34 10000 6.69 10 21:24 11.05.2022
3775 Clear 26 1009 25 10000 7.2 10 20:20 11.05.2022
3776 Clear 29 1016 31 10000 4.12 20 17:33 11.05.2022
3777 Clear 27 1017 31 10000 4.12 210 16:19 11.05.2022
3778 Clear 27 1012 29 10000 3.6 220 14:47 11.05.2022
3779 Clear 26 1013 34 10000 3.09 100 14:24 11.05.2022
3780 Clear 22 1019 47 10000 3.09 200 12:54 11.05.2022
3781 Clear 22 1014 46 10000 2.06 70 11:48 11.05.2022
3782 Clear 16 1013 69 10000 4.12 20 09:29 11.05.2022
3783 Clear 15 1011 61 10000 2.57 10 06:30 11.05.2022
3784 Clear 18 1013 55 10000 3.09 240 01:53 11.05.2022
3785 Clear 20 1010 53 10000 3.6 30 22:58 10.05.2022
3786 Clear 20 1012 57 10000 3.09 30 22:24 10.05.2022
3787 Clear 24 1013 45 10000 4.12 240 21:26 10.05.2022
3788 Clear 26 1014 41 10000 4.12 260 20:34 10.05.2022
3789 Clear 27 1012 33 10000 6.17 230 18:49 10.05.2022
3790 Clear 26 1014 38 10000 5.66 230 17:38 10.05.2022
3791 Clear 26 1013 38 10000 5.66 240 16:24 10.05.2022
3792 Clear 26 1014 47 10000 1.54 0 13:19 10.05.2022
3793 Clear 22 1021 57 10000 1.54 250 11:53 10.05.2022
3794 Clear 21 1021 60 10000 4.12 20 11:32 10.05.2022
3795 Clear 19 1021 65 10000 4.63 20 10:56 10.05.2022
3796 Clear 17 1015 72 10000 4.12 10 09:36 10.05.2022
3797 Clear 15 1013 77 10000 5.66 20 08:18 10.05.2022
3798 Clear 16 1010 71 10000 3.6 320 06:20 10.05.2022
3799 Clear 17 1014 71 10000 5.14 310 01:54 10.05.2022
3800 Clear 17 1013 68 10000 6.17 20 23:45 09.05.2022
3801 Clear 20 1014 59 10000 7.2 310 22:36 09.05.2022
3802 Clear 22 1013 56 10000 6.69 310 21:39 09.05.2022
3803 Clear 25 1012 48 10000 6.69 360 20:20 09.05.2022
3804 Clear 28 1014 45 10000 6.17 20 18:26 09.05.2022
3805 Clear 28 1014 46 10000 7.2 20 17:26 09.05.2022
3806 Clear 29 1014 44 10000 7.2 10 16:19 09.05.2022
3807 Clear 28 1014 39 10000 6.69 10 15:47 09.05.2022
3808 Clear 27 1014 37 10000 5.14 20 14:37 09.05.2022
3809 Clear 27 1015 36 10000 4.63 30 13:59 09.05.2022
3810 Clear 26 1020 40 10000 5.14 20 13:23 09.05.2022
3811 Clear 23 1015 43 10000 7.2 20 11:53 09.05.2022
3812 Clear 22 1015 45 10000 7.2 10 10:48 09.05.2022
3813 Clear 21 1019 44 10000 5.66 10 10:26 09.05.2022
3814 Clear 18 1009 52 10000 4.12 310 07:57 09.05.2022
3815 Clear 18 1012 54 10000 3.09 310 05:59 09.05.2022
3816 Clear 19 1019 48 10000 3.09 330 01:59 09.05.2022
3817 Clear 21 1013 40 10000 5.66 320 23:29 08.05.2022
3818 Clear 22 1012 44 10000 8.23 360 22:32 08.05.2022
3819 Clear 24 1012 42 10000 8.75 350 21:24 08.05.2022
3820 Clear 26 1011 40 10000 8.75 350 20:25 08.05.2022
3821 Clear 27 1017 35 10000 7.2 350 19:35 08.05.2022
3822 Clear 28 1011 36 10000 5.66 310 18:40 08.05.2022
3823 Clear 29 1012 36 10000 5.14 300 17:45 08.05.2022
3824 Clear 29 1013 30 10000 5.14 10 16:23 08.05.2022
3825 Clear 28 1013 31 10000 3.6 220 15:24 08.05.2022
3826 Clear 26 1019 37 10000 2.57 360 13:44 08.05.2022
3827 Clear 23 1014 43 10000 3.6 40 11:53 08.05.2022
3828 Clear 20 1014 51 10000 2.57 20 10:27 08.05.2022
3829 Clear 19 1012 49 10000 3.09 340 09:54 08.05.2022
3830 Clear 17 1013 59 10000 4.63 20 08:23 08.05.2022
3831 Clear 17 1012 55 10000 2.57 310 06:21 08.05.2022
3832 Clear 18 1013 48 10000 3.09 320 03:22 08.05.2022
3833 Clear 20 1013 44 10000 1.54 350 01:19 08.05.2022
3834 Clear 20 1019 44 10000 4.63 320 23:57 07.05.2022
3835 Clear 20 1019 43 10000 4.12 340 23:34 07.05.2022
3836 Clear 21 1019 39 10000 6.69 10 22:46 07.05.2022
3837 Clear 22 1013 37 10000 7.2 10 21:57 07.05.2022
3838 Clear 22 1013 39 10000 6.69 310 21:31 07.05.2022
3839 Clear 24 1012 45 10000 6.17 310 20:25 07.05.2022
3840 Clear 26 1013 42 10000 5.66 260 18:59 07.05.2022
3841 Clear 27 1014 35 10000 3.58 190 16:51 07.05.2022
3842 Clear 26 1013 35 10000 4.12 220 15:18 07.05.2022
3843 Clear 22 1015 47 10000 4.12 60 11:51 07.05.2022
3844 Clear 17 1015 73 10000 2.06 30 09:55 07.05.2022
3845 Clear 14 1015 76 10000 5.14 30 08:33 07.05.2022
3846 Clear 15 1014 72 10000 1.54 10 07:30 07.05.2022
3847 Clear 15 1014 70 10000 2.57 310 06:42 07.05.2022
3848 Clear 16 1014 63 10000 3.09 320 04:19 07.05.2022
3849 Clear 18 1015 51 10000 4.12 320 00:45 07.05.2022
3850 Clear 19 1016 48 10000 5.66 360 22:40 06.05.2022
3851 Clear 19 1016 48 10000 5.66 360 22:21 06.05.2022
3852 Clear 21 1015 46 10000 5.66 360 21:30 06.05.2022
3853 Clear 25 1021 39 10000 5.14 360 19:49 06.05.2022
3854 Clear 25 1016 38 10000 6.69 360 19:25 06.05.2022
3855 Clear 26 1021 31 10000 6.69 350 18:43 06.05.2022
3856 Clear 26 1021 30 10000 4.12 260 17:37 06.05.2022
3857 Clear 25 1017 35 10000 5.14 230 15:54 06.05.2022
3858 Clear 25 1017 37 10000 5.14 250 15:30 06.05.2022
3859 Clear 24 1017 41 10000 3.6 270 14:22 06.05.2022
3860 Clear 22 1017 50 10000 3.09 210 12:52 06.05.2022
3861 Clear 21 1022 57 10000 1.54 340 11:58 06.05.2022
3862 Clear 20 1022 60 10000 2.57 30 11:27 06.05.2022
3863 Clouds 16 1022 72 10000 4.63 20 09:48 06.05.2022
3864 Clouds 15 1017 72 10000 5.14 30 09:18 06.05.2022
3865 Clouds 14 1013 70 10000 0 0 07:55 06.05.2022
3866 Clear 14 1016 76 10000 4.12 310 06:27 06.05.2022
3867 Clear 15 1017 77 10000 2.57 330 03:44 06.05.2022
3868 Clear 15 1017 73 10000 4.12 350 02:38 06.05.2022
3869 Clear 17 1017 57 10000 6.17 310 23:24 05.05.2022
3870 Clear 18 1015 62 10000 6.69 310 21:51 05.05.2022
3871 Clear 22 1021 56 10000 6.69 10 20:37 05.05.2022
3872 Clear 25 1015 44 10000 4.63 310 19:19 05.05.2022
3873 Clear 26 1016 45 10000 5.66 270 16:49 05.05.2022
3874 Clear 25 1016 45 10000 3.6 230 15:46 05.05.2022
3875 Clear 22 1022 53 10000 3.09 110 13:41 05.05.2022
3876 Clear 22 1022 55 10000 3.09 110 13:18 05.05.2022
3877 Clear 20 1017 57 10000 5.14 10 11:42 05.05.2022
3878 Clouds 16 1016 71 10000 7.2 10 09:46 05.05.2022
3879 Clouds 15 1016 73 10000 6.69 20 09:26 05.05.2022
3880 Clear 17 1011 55 10000 4.12 310 06:33 05.05.2022
3881 Clear 18 1014 52 10000 4.63 320 02:28 05.05.2022
3882 Clear 18 1014 53 10000 4.12 320 01:45 05.05.2022
3883 Clear 18 1014 51 10000 3.6 350 00:57 05.05.2022
3884 Clear 19 1013 49 10000 6.17 330 23:27 04.05.2022
3885 Clear 19 1012 47 10000 8.75 340 22:23 04.05.2022
3886 Clear 20 1012 45 10000 9.26 350 21:46 04.05.2022
3887 Clear 21 1011 45 10000 9.26 350 21:18 04.05.2022
3888 Clear 22 1011 44 10000 9.77 350 20:20 04.05.2022
3889 Clear 24 1016 42 10000 8.75 340 19:44 04.05.2022
3890 Clear 24 1010 41 10000 8.23 330 18:44 04.05.2022
3891 Clear 24 1010 42 10000 8.23 330 18:20 04.05.2022
3892 Clear 25 1011 39 10000 10.29 340 17:22 04.05.2022
3893 Clouds 24 1011 42 10000 5.14 40 15:35 04.05.2022
3894 Clouds 23 1011 46 10000 4.63 40 14:46 04.05.2022
3895 Clouds 23 1011 45 10000 5.66 60 14:20 04.05.2022
3896 Clear 22 1011 47 10000 5.66 10 12:58 04.05.2022
3897 Clear 22 1011 46 10000 5.66 10 12:24 04.05.2022
3898 Clear 19 1010 52 10000 6.17 50 10:30 04.05.2022
3899 Clear 17 1011 63 10000 5.14 30 09:23 04.05.2022
3900 Clear 16 1010 64 10000 5.14 40 08:26 04.05.2022
3901 Clear 15 1008 72 10000 3.6 330 05:42 04.05.2022
3902 Clear 16 1008 68 10000 3.09 330 02:43 04.05.2022
3903 Clear 17 1009 65 10000 8.75 360 23:31 03.05.2022
3904 Clear 17 1007 60 10000 10.8 350 22:00 03.05.2022
3905 Clear 18 1008 57 10000 11.32 350 21:32 03.05.2022
3906 Clear 19 1007 55 10000 10.8 350 20:52 03.05.2022
3907 Clouds 21 1006 52 10000 10.29 350 19:39 03.05.2022
3908 Clouds 22 1006 50 10000 10.8 340 18:48 03.05.2022
3909 Clouds 22 1006 49 10000 8.23 320 17:34 03.05.2022
3910 Clouds 21 1007 50 10000 9.26 340 16:28 03.05.2022
3911 Clouds 21 1007 49 10000 8.23 340 14:43 03.05.2022
3912 Clouds 20 1007 47 10000 8.75 360 12:47 03.05.2022
3913 Clouds 19 1008 48 10000 8.75 10 12:22 03.05.2022
3914 Clouds 17 1007 62 10000 7.72 10 10:52 03.05.2022
3915 Clouds 14 1007 79 10000 7.2 10 08:38 03.05.2022
3916 Clouds 14 1009 77 10000 6.17 330 06:46 03.05.2022
3917 Clouds 14 1007 77 10000 5.14 330 03:34 03.05.2022
3918 Clouds 15 1014 70 10000 6.69 340 23:32 02.05.2022
3919 Clouds 15 1009 69 10000 8.23 330 22:34 02.05.2022
3920 Clouds 15 1009 68 10000 9.26 340 21:48 02.05.2022
3921 Clouds 16 1007 64 10000 7.72 330 20:50 02.05.2022
3922 Clouds 18 1010 65 10000 8.23 330 18:35 02.05.2022
3923 Clouds 18 1008 62 10000 8.75 340 17:44 02.05.2022
3924 Clouds 19 1010 60 10000 8.75 340 16:50 02.05.2022
3925 Clouds 19 1010 64 10000 6.17 310 15:56 02.05.2022
3926 Clouds 19 1011 66 10000 6.17 310 15:19 02.05.2022
3927 Clouds 18 1009 69 10000 6.17 330 13:48 02.05.2022
3928 Clouds 17 1010 74 10000 5.14 310 12:18 02.05.2022
3929 Clouds 15 1012 82 10000 4.63 320 10:20 02.05.2022
3930 Drizzle 14 1012 85 10000 3.09 280 08:46 02.05.2022
3931 Clouds 14 1011 80 10000 4.63 330 07:39 02.05.2022
3932 Clouds 14 1015 73 10000 4.63 330 01:58 02.05.2022
3933 Clouds 15 1016 71 10000 6.17 330 00:23 02.05.2022
3934 Clouds 15 1022 67 10000 5.66 330 23:47 01.05.2022
3935 Clouds 15 1016 69 10000 6.69 330 22:20 01.05.2022
3936 Clouds 16 1016 64 10000 7.72 330 20:58 01.05.2022
3937 Clouds 18 1016 59 10000 7.2 330 19:49 01.05.2022
3938 Clouds 18 1016 55 10000 6.17 320 18:55 01.05.2022
3939 Clouds 19 1017 56 10000 6.17 320 18:22 01.05.2022
3940 Clouds 19 1017 54 10000 6.17 320 17:18 01.05.2022
3941 Clouds 19 1018 54 10000 10.8 340 16:23 01.05.2022
3942 Clouds 19 1018 54 10000 9.77 360 15:23 01.05.2022
3943 Clouds 18 1019 60 10000 7.2 350 13:42 01.05.2022
3944 Clouds 15 1018 72 10000 8.23 340 10:53 01.05.2022
3945 Clouds 14 1018 80 10000 5.14 320 08:53 01.05.2022
3946 Clouds 14 1016 74 10000 4.63 330 07:53 01.05.2022
3947 Clear 16 1014 57 10000 2.24 360 03:26 01.05.2022
3948 Clear 19 1017 43 10000 9.26 360 23:23 30.04.2022
3949 Clear 22 1016 51 10000 5.66 360 21:44 30.04.2022
3950 Clear 25 1021 45 10000 5.66 350 20:36 30.04.2022
3951 Clear 26 1021 40 10000 6.17 360 19:41 30.04.2022
3952 Clear 26 1021 40 10000 6.17 360 19:41 30.04.2022
3953 Clear 26 1022 44 10000 5.66 270 17:44 30.04.2022
3954 Clouds 26 1017 44 10000 6.17 260 16:37 30.04.2022
3955 Clouds 25 1018 44 10000 4.12 260 15:24 30.04.2022
3956 Clouds 25 1018 46 10000 3.6 270 14:34 30.04.2022
3957 Clear 22 1024 53 10000 2.57 0 12:40 30.04.2022
3958 Clear 22 1019 55 10000 2.57 110 11:33 30.04.2022
3959 Clear 20 1023 59 10000 3.09 40 10:43 30.04.2022
3960 Clear 17 1023 68 10000 4.63 30 08:59 30.04.2022
3961 Clear 15 1016 72 10000 1.03 0 05:51 30.04.2022
3962 Clear 17 1017 67 10000 4.12 310 01:53 30.04.2022
3963 Clear 18 1019 61 10000 6.69 360 23:37 29.04.2022
3964 Clear 19 1023 59 10000 7.2 360 22:31 29.04.2022
3965 Clear 19 1017 58 10000 8.23 350 21:34 29.04.2022
3966 Clear 21 1017 52 10000 8.23 340 20:40 29.04.2022
3967 Clear 22 1016 53 10000 7.72 350 19:43 29.04.2022
3968 Clear 24 1021 47 10000 5.14 250 17:54 29.04.2022
3969 Clear 24 1022 47 10000 5.14 250 17:21 29.04.2022
3970 Clouds 25 1017 40 10000 4.12 100 15:23 29.04.2022
3971 Clouds 23 1018 43 10000 5.66 110 14:20 29.04.2022
3972 Clouds 21 1018 50 10000 5.66 80 12:52 29.04.2022
3973 Clear 19 1019 50 10000 5.66 70 11:40 29.04.2022
3974 Clear 16 1017 60 10000 5.66 30 08:46 29.04.2022
3975 Clear 15 1017 64 10000 5.66 20 07:27 29.04.2022
3976 Clear 16 1016 66 10000 5.66 20 06:38 29.04.2022
3977 Clear 16 1017 69 10000 4.63 30 04:43 29.04.2022
3978 Clear 16 1017 69 10000 4.63 340 00:39 29.04.2022
3979 Clear 16 1017 69 10000 9.26 360 23:27 28.04.2022
3980 Clouds 16 1017 71 10000 10.29 350 22:41 28.04.2022
3981 Clouds 16 1015 72 10000 10.8 350 21:47 28.04.2022
3982 Clouds 17 1013 69 10000 12.86 360 20:57 28.04.2022
3983 Clouds 19 1014 65 10000 11.83 350 20:25 28.04.2022
3984 Clouds 20 1020 62 10000 10.29 340 19:41 28.04.2022
3985 Clouds 20 1014 60 10000 10.29 340 19:22 28.04.2022
3986 Clouds 21 1014 58 10000 8.23 350 18:35 28.04.2022
3987 Clouds 21 1015 55 10000 9.26 330 17:20 28.04.2022
3988 Clear 21 1015 52 10000 7.72 340 16:40 28.04.2022
3989 Clear 21 1013 51 10000 6.69 330 16:18 28.04.2022
3990 Clouds 21 1015 51 10000 7.2 330 15:27 28.04.2022
3991 Clouds 20 1016 52 10000 7.2 10 13:44 28.04.2022
3992 Clouds 18 1015 59 10000 7.72 10 12:44 28.04.2022
3993 Clouds 17 1016 64 10000 7.2 10 11:58 28.04.2022
3994 Clouds 16 1016 72 10000 7.72 360 10:46 28.04.2022
3995 Clouds 15 1017 80 10000 5.66 10 09:54 28.04.2022
3996 Clouds 13 1016 86 10000 5.66 350 08:31 28.04.2022
3997 Clouds 13 1015 84 10000 1.54 350 06:59 28.04.2022
3998 Clouds 13 1015 82 10000 2.06 280 05:56 28.04.2022
3999 Clouds 13 1015 84 10000 2.06 290 05:38 28.04.2022
4000 Clouds 13 1015 81 10000 2.57 320 04:39 28.04.2022
4001 Clouds 14 1015 77 10000 3.09 330 00:30 28.04.2022
4002 Clouds 15 1020 72 10000 6.17 320 22:39 27.04.2022
4003 Clouds 15 1014 69 10000 5.66 320 21:54 27.04.2022
4004 Clouds 16 1014 66 10000 6.17 310 21:18 27.04.2022
4005 Clouds 17 1014 62 10000 6.69 310 20:37 27.04.2022
4006 Clouds 18 1018 61 10000 6.69 310 19:38 27.04.2022
4007 Clouds 18 1014 60 10000 6.69 310 19:18 27.04.2022
4008 Clouds 19 1013 57 10000 6.17 320 18:22 27.04.2022
4009 Clouds 18 1013 57 10000 6.17 320 18:22 27.04.2022
4010 Clouds 19 1013 57 10000 6.17 320 18:22 27.04.2022
4011 Clouds 19 1013 55 10000 6.69 320 16:58 27.04.2022
4012 Clouds 19 1013 57 10000 5.66 330 15:21 27.04.2022
4013 Clouds 18 1014 64 10000 3.09 360 12:25 27.04.2022
4014 Clouds 17 1018 71 10000 3.09 360 11:20 27.04.2022
4015 Clouds 15 1012 85 10000 1.03 110 09:43 27.04.2022
4016 Clouds 13 1010 86 10000 1.54 290 07:19 27.04.2022
4017 Clouds 14 1016 84 10000 2.57 260 04:45 27.04.2022
4018 Clouds 15 1010 83 10000 2.57 260 01:35 27.04.2022
4019 Clouds 15 1010 81 10000 2.57 260 00:38 27.04.2022
4020 Clouds 15 1010 81 10000 2.57 260 00:38 27.04.2022
4021 Clouds 15 1010 82 10000 3.09 260 23:40 26.04.2022
4022 Clouds 15 1010 82 10000 3.09 260 23:22 26.04.2022
4023 Clouds 15 1010 80 10000 4.12 250 22:41 26.04.2022
4024 Clouds 16 1009 74 10000 5.14 250 21:48 26.04.2022
4025 Clouds 17 1009 70 10000 5.14 260 20:53 26.04.2022
4026 Clouds 17 1009 69 10000 5.14 260 20:33 26.04.2022
4027 Clouds 17 1013 71 10000 6.17 230 19:32 26.04.2022
4028 Clouds 19 1009 68 10000 6.17 230 18:51 26.04.2022
4029 Clouds 19 1009 69 10000 6.17 230 18:18 26.04.2022
4030 Clouds 19 1009 68 10000 5.66 220 17:32 26.04.2022
4031 Clouds 17 1009 80 10000 5.81 167 14:46 26.04.2022
4032 Clouds 16 1009 86 6000 4.63 230 13:34 26.04.2022
4033 Drizzle 15 1008 86 10000 5.14 190 12:22 26.04.2022
4034 Clouds 15 1006 87 10000 3.6 220 10:44 26.04.2022
4035 Drizzle 15 1007 88 10000 3.09 250 09:36 26.04.2022
4036 Rain 15 1005 87 10000 2.57 170 07:59 26.04.2022
4037 Clouds 15 1005 87 10000 1.54 210 04:33 26.04.2022
4038 Clouds 15 1006 81 10000 2.57 230 01:54 26.04.2022
4039 Clouds 15 1006 80 10000 2.06 220 00:26 26.04.2022
4040 Clouds 15 1006 77 10000 3.6 260 22:49 25.04.2022
4041 Clouds 16 1005 78 10000 5.66 240 21:44 25.04.2022
4042 Clouds 17 1005 70 10000 6.17 230 20:45 25.04.2022
4043 Clouds 17 1005 70 10000 6.17 230 20:45 25.04.2022
4044 Clouds 18 1006 63 10000 5.66 230 19:34 25.04.2022
4045 Clouds 18 1005 59 10000 6.17 240 18:23 25.04.2022
4046 Clouds 19 1007 58 10000 6.17 230 17:32 25.04.2022
4047 Clouds 19 1007 60 10000 5.66 190 15:30 25.04.2022
4048 Clouds 18 1007 63 10000 5.66 170 14:54 25.04.2022
4049 Fog 17 1007 70 10000 4.63 170 13:41 25.04.2022
4050 Fog 16 1012 78 8000 3.6 90 11:49 25.04.2022
4051 Mist 14 1007 88 4500 3.09 120 10:27 25.04.2022
4052 Fog 11 1007 91 4500 2.06 60 08:47 25.04.2022
4053 Clouds 11 1006 88 10000 2.06 100 06:49 25.04.2022
4054 Clear 11 1006 87 10000 0.45 45 05:23 25.04.2022
4055 Clear 14 1008 82 10000 3.09 260 00:58 25.04.2022
4056 Clear 14 1008 78 10000 2.06 240 23:52 24.04.2022
4057 Clear 15 1009 78 10000 3.09 250 22:52 24.04.2022
4058 Clear 15 1013 77 10000 3.09 310 22:31 24.04.2022
4059 Clouds 16 1008 71 10000 4.12 250 21:42 24.04.2022
4060 Clouds 16 1008 70 10000 4.12 250 21:18 24.04.2022
4061 Clouds 17 1008 68 10000 4.63 250 20:37 24.04.2022
4062 Clouds 17 1008 64 10000 4.63 260 19:48 24.04.2022
4063 Clouds 18 1006 61 10000 4.63 210 18:28 24.04.2022
4064 Clouds 18 1009 63 10000 6.17 260 17:37 24.04.2022
4065 Clouds 18 1009 65 10000 6.17 260 17:19 24.04.2022
4066 Clouds 18 1009 63 10000 5.66 270 16:37 24.04.2022
4067 Clouds 18 1009 63 10000 4.63 220 15:56 24.04.2022
4068 Clouds 18 1009 61 10000 5.14 210 15:31 24.04.2022
4069 Clouds 18 1009 61 10000 5.14 210 15:31 24.04.2022
4070 Clouds 17 1009 62 10000 4.63 200 14:19 24.04.2022
4071 Clouds 17 1009 62 10000 3.6 200 13:25 24.04.2022
4072 Clouds 17 1009 67 10000 2.57 110 12:32 24.04.2022
4073 Clouds 16 1014 72 10000 2.06 90 11:34 24.04.2022
4074 Clouds 14 1014 76 10000 1.54 100 10:27 24.04.2022
4075 Clouds 12 1009 87 10000 1.54 10 09:26 24.04.2022
4076 Clear 10 1007 86 10000 1.03 0 06:46 24.04.2022
4077 Clouds 11 1007 84 10000 1.54 260 03:57 24.04.2022
4078 Clouds 12 1007 82 10000 2.06 270 01:38 24.04.2022
4079 Clouds 12 1007 82 10000 2.06 270 01:38 24.04.2022
4080 Clouds 13 1007 79 10000 3.09 280 00:29 24.04.2022
4081 Clouds 13 1007 78 10000 2.57 230 23:45 23.04.2022
4082 Clouds 14 1006 77 10000 2.57 290 23:22 23.04.2022
4083 Clouds 15 1006 73 10000 5.14 240 21:53 23.04.2022
4084 Clouds 15 1006 72 10000 5.14 240 21:34 23.04.2022
4085 Clouds 16 1005 68 10000 5.66 250 20:51 23.04.2022
4086 Clouds 16 1005 64 10000 5.66 240 19:48 23.04.2022
4087 Clouds 16 1005 63 10000 5.66 240 19:19 23.04.2022
4088 Clouds 16 1004 63 10000 5.66 230 18:52 23.04.2022
4089 Clouds 17 1004 58 10000 6.69 250 17:51 23.04.2022
4090 Clouds 17 1004 60 10000 6.69 250 17:26 23.04.2022
4091 Clouds 16 1004 63 10000 5.66 250 16:41 23.04.2022
4092 Clouds 17 1003 63 10000 6.17 230 15:28 23.04.2022
4093 Clouds 15 1002 68 10000 5.14 250 12:44 23.04.2022
4094 Clouds 14 1000 72 10000 3.6 210 10:44 23.04.2022
4095 Clouds 11 1000 79 10000 3.09 240 09:33 23.04.2022
4096 Clouds 10 997 78 10000 4.12 260 06:32 23.04.2022
4097 Clouds 10 995 81 10000 6.17 270 03:54 23.04.2022
4098 Clouds 10 991 80 10000 2.68 272 01:20 23.04.2022
4099 Clouds 11 992 77 10000 6.17 260 23:30 22.04.2022
4100 Rain 10 992 80 10000 5.66 260 22:20 22.04.2022
4101 Clouds 10 992 81 10000 4.12 230 21:43 22.04.2022
4102 Clouds 11 992 79 10000 5.66 240 20:47 22.04.2022
4103 Rain 11 992 80 10000 4.63 260 20:27 22.04.2022
4104 Rain 11 991 79 10000 8.75 230 19:20 22.04.2022
4105 Clouds 13 991 74 10000 7.72 250 18:42 22.04.2022
4106 Clouds 12 991 77 9000 7.72 230 17:41 22.04.2022
4107 Rain 13 991 70 10000 6.69 230 16:46 22.04.2022
4108 Rain 14 991 70 10000 7.15 180 15:42 22.04.2022
4109 Clouds 12 992 80 10000 5.66 230 14:46 22.04.2022
4110 Rain 12 993 79 10000 5.66 230 13:50 22.04.2022
4111 Clouds 12 993 81 9000 6.17 240 12:58 22.04.2022
4112 Clouds 12 993 81 10000 5.14 230 11:50 22.04.2022
4113 Clouds 12 992 80 9000 7.2 230 11:22 22.04.2022
4114 Clouds 12 993 78 10000 6.17 240 10:50 22.04.2022
4115 Clouds 13 994 79 8000 6.17 240 10:30 22.04.2022
4116 Clouds 13 994 79 10000 6.17 230 09:50 22.04.2022
4117 Clouds 13 994 79 10000 6.17 240 08:50 22.04.2022
4118 Clouds 13 991 81 10000 5.14 230 07:20 22.04.2022
4119 Clouds 13 997 85 10000 4.12 220 03:30 22.04.2022
4120 Clouds 14 1005 82 10000 5.66 220 00:51 22.04.2022
4121 Clouds 14 1000 82 10000 7.2 230 23:25 21.04.2022
4122 Clouds 14 1000 82 10000 8.75 210 22:29 21.04.2022
4123 Clouds 15 1003 74 10000 7.2 230 20:37 21.04.2022
4124 Clouds 15 1003 74 10000 7.2 230 20:18 21.04.2022
4125 Clouds 16 1004 68 10000 7.2 240 18:42 21.04.2022
4126 Clouds 16 1005 65 10000 6.69 240 17:57 21.04.2022
4127 Clouds 16 1006 62 10000 7.2 230 16:44 21.04.2022
4128 Clouds 16 1006 61 10000 6.17 250 15:22 21.04.2022
4129 Clouds 16 1007 62 10000 6.17 240 14:49 21.04.2022
4130 Clouds 16 1009 60 10000 5.66 270 13:23 21.04.2022
4131 Clouds 16 1008 62 10000 4.12 290 12:57 21.04.2022
4132 Clouds 14 1007 74 10000 3.6 300 10:49 21.04.2022
4133 Rain 13 1009 80 10000 3.09 320 08:57 21.04.2022
4134 Rain 13 1008 78 10000 3.6 320 07:32 21.04.2022
4135 Clouds 12 1009 74 10000 6.17 320 05:42 21.04.2022
4136 Clouds 12 1007 71 10000 4.63 350 03:32 21.04.2022
4137 Clouds 12 1011 70 10000 7.72 330 02:47 21.04.2022
4138 Clouds 13 1017 67 10000 6.17 320 00:47 21.04.2022
4139 Clouds 13 1017 66 10000 6.17 340 23:51 20.04.2022
4140 Clouds 13 1017 66 10000 6.17 340 23:22 20.04.2022
4141 Clouds 13 1012 66 10000 10.29 340 22:50 20.04.2022
4142 Clouds 13 1012 66 10000 10.29 340 22:31 20.04.2022
4143 Clouds 13 1011 63 10000 10.8 340 21:29 20.04.2022
4144 Clouds 14 1009 59 10000 12.86 330 20:37 20.04.2022
4145 Clouds 15 1011 56 10000 13.89 340 19:52 20.04.2022
4146 Clouds 15 1011 54 10000 13.89 330 19:21 20.04.2022
4147 Clouds 16 1011 51 10000 13.86 340 18:23 20.04.2022
4148 Clouds 16 1011 48 10000 13.38 350 16:56 20.04.2022
4149 Clouds 16 1011 48 10000 13.89 340 16:37 20.04.2022
4150 Clouds 16 1011 49 10000 12.86 340 14:21 20.04.2022
4151 Clouds 14 1010 53 10000 14.92 340 11:52 20.04.2022
4152 Clouds 14 1009 56 10000 13.38 340 11:25 20.04.2022
4153 Clouds 13 1009 67 10000 9.77 360 10:24 20.04.2022
4154 Clouds 12 1009 71 10000 8.75 350 09:25 20.04.2022
4155 Clouds 11 1009 75 10000 11.32 340 08:22 20.04.2022
4156 Clouds 11 1007 70 10000 4.63 330 07:42 20.04.2022
4157 Clouds 12 1011 66 10000 7.72 330 03:54 20.04.2022
4158 Clouds 13 1009 61 10000 6.71 2 00:38 20.04.2022
4159 Clouds 13 1009 61 10000 6.71 2 00:20 20.04.2022
4160 Clouds 13 1013 61 10000 13.38 350 22:28 19.04.2022
4161 Clouds 13 1012 62 10000 10.8 340 21:57 19.04.2022
4162 Clouds 13 1012 61 10000 13.89 340 21:34 19.04.2022
4163 Clouds 14 1012 57 10000 13.89 350 20:50 19.04.2022
4164 Clouds 14 1012 55 10000 11.83 340 20:32 19.04.2022
4165 Clouds 15 1012 53 10000 12.86 340 19:24 19.04.2022
4166 Clouds 16 1012 51 10000 15.95 340 17:59 19.04.2022
4167 Clouds 16 1012 50 10000 15.43 340 16:44 19.04.2022
4168 Clouds 16 1012 50 10000 12.86 340 16:24 19.04.2022
4169 Clouds 16 1013 49 10000 15.95 340 14:51 19.04.2022
4170 Clouds 16 1013 49 10000 14.4 330 14:31 19.04.2022
4171 Clouds 15 1013 51 10000 15.95 340 12:52 19.04.2022
4172 Clouds 15 1013 52 10000 15.95 340 12:26 19.04.2022
4173 Clouds 15 1013 54 10000 12.35 350 11:22 19.04.2022
4174 Clouds 13 1013 62 10000 11.32 340 09:25 19.04.2022
4175 Clouds 13 1011 66 10000 9.26 350 06:34 19.04.2022
4176 Clouds 13 1009 65 10000 8.23 350 04:19 19.04.2022
4177 Clouds 13 1014 65 10000 10.29 350 00:56 19.04.2022
4178 Clouds 13 1014 65 10000 9.26 340 23:38 18.04.2022
4179 Clouds 14 1013 65 10000 12.86 350 21:48 18.04.2022
4180 Clouds 14 1013 63 10000 9.77 350 21:24 18.04.2022
4181 Clouds 15 1012 60 10000 13.38 350 20:38 18.04.2022
4182 Clouds 16 1012 58 10000 13.38 350 19:59 18.04.2022
4183 Clouds 16 1011 57 10000 14.92 350 19:29 18.04.2022
4184 Clouds 17 1011 57 10000 14.92 350 18:34 18.04.2022
4185 Clouds 17 1012 58 10000 13.38 350 17:39 18.04.2022
4186 Clouds 17 1012 58 10000 13.38 350 17:39 18.04.2022
4187 Clouds 18 1012 58 10000 13.38 350 17:19 18.04.2022
4188 Clouds 18 1012 60 10000 15.95 350 16:36 18.04.2022
4189 Clouds 18 1012 60 10000 13.89 350 15:28 18.04.2022
4190 Clouds 17 1013 63 10000 12.86 350 13:55 18.04.2022
4191 Clouds 17 1013 66 10000 14.4 350 12:41 18.04.2022
4192 Clouds 16 1012 69 10000 15.43 350 11:48 18.04.2022
4193 Clouds 15 1012 72 10000 13.89 350 10:46 18.04.2022
4194 Clouds 14 1012 78 10000 14.4 350 09:31 18.04.2022
4195 Clouds 14 1011 81 10000 14.92 350 08:39 18.04.2022
4196 Clouds 14 1008 79 10000 8.75 310 06:44 18.04.2022
4197 Clouds 15 1009 80 10000 6.17 340 02:27 18.04.2022
4198 Clear 15 1013 76 10000 11.32 360 22:55 17.04.2022
4199 Clouds 15 1013 76 10000 11.32 360 22:32 17.04.2022
4200 Clouds 16 1011 70 10000 9.77 360 21:34 17.04.2022
4201 Clouds 17 1010 65 10000 10.8 360 20:51 17.04.2022
4202 Clouds 19 1012 62 10000 11.83 350 20:18 17.04.2022
4203 Clouds 20 1017 59 10000 10.8 360 18:42 17.04.2022
4204 Clouds 20 1013 59 10000 8.75 350 17:20 17.04.2022
4205 Clouds 21 1014 58 10000 10.8 350 15:34 17.04.2022
4206 Clouds 20 1015 59 10000 7.2 340 14:45 17.04.2022
4207 Clouds 19 1015 60 10000 8.23 340 13:28 17.04.2022
4208 Clouds 18 1015 63 10000 7.2 350 12:45 17.04.2022
4209 Clouds 15 1020 70 10000 6.69 360 10:51 17.04.2022
4210 Clouds 15 1015 72 10000 7.2 360 10:29 17.04.2022
4211 Clouds 14 1015 76 10000 9.26 360 09:51 17.04.2022
4212 Clouds 13 1015 78 10000 9.26 350 09:20 17.04.2022
4213 Clouds 13 1015 80 10000 10.8 360 08:31 17.04.2022
4214 Clear 13 1014 77 10000 3.09 340 05:34 17.04.2022
4215 Clear 15 1015 62 10000 3.09 320 02:26 17.04.2022
4216 Clear 15 1015 65 10000 3.09 330 00:41 17.04.2022
4217 Clear 16 1015 69 10000 5.14 340 23:30 16.04.2022
4218 Clear 16 1014 75 10000 7.2 310 21:47 16.04.2022
4219 Clear 19 1014 65 10000 5.14 310 20:54 16.04.2022
4220 Clear 24 1015 48 10000 4.63 320 19:28 16.04.2022
4221 Clear 25 1020 46 10000 5.14 330 18:43 16.04.2022
4222 Clear 26 1021 44 10000 4.63 20 17:20 16.04.2022
4223 Clouds 25 1022 48 10000 3.09 90 15:51 16.04.2022
4224 Clouds 25 1016 47 10000 3.6 220 14:58 16.04.2022
4225 Clear 24 1022 54 10000 3.09 20 14:40 16.04.2022
4226 Clear 23 1017 51 10000 3.09 360 13:50 16.04.2022
4227 Clear 23 1017 53 10000 3.09 360 13:18 16.04.2022
4228 Clear 20 1018 61 10000 3.09 10 11:43 16.04.2022
4229 Clear 16 1017 73 10000 4.12 30 10:33 16.04.2022
4230 Clouds 13 1017 83 10000 4.63 350 09:37 16.04.2022
4231 Clouds 14 1014 81 10000 6.69 30 08:52 16.04.2022
4232 Clouds 13 1013 80 10000 3.6 310 07:22 16.04.2022
4233 Clear 14 1013 79 10000 4.12 310 05:38 16.04.2022
4234 Clear 15 1016 77 10000 3.09 360 01:47 16.04.2022
4235 Clear 16 1016 76 10000 6.69 310 23:52 15.04.2022
4236 Clear 17 1014 71 10000 6.17 310 22:51 15.04.2022
4237 Clear 18 1014 69 10000 6.17 310 22:29 15.04.2022
4238 Clear 20 1015 68 10000 5.14 20 21:25 15.04.2022
4239 Clear 23 1020 60 10000 4.63 10 20:38 15.04.2022
4240 Clear 24 1020 58 10000 5.66 10 19:46 15.04.2022
4241 Clouds 24 1020 58 10000 5.66 10 19:23 15.04.2022
4242 Clouds 24 1020 54 10000 5.66 20 18:42 15.04.2022
4243 Clouds 24 1020 57 10000 5.66 20 18:22 15.04.2022
4244 Clouds 24 1020 53 10000 4.12 10 17:27 15.04.2022
4245 Clouds 24 1016 48 10000 4.12 30 16:25 15.04.2022
4246 Clouds 23 1016 53 10000 2.57 110 15:46 15.04.2022
4247 Clear 21 1015 58 10000 3.09 160 14:18 15.04.2022
4248 Clear 20 1017 62 10000 3.6 30 12:52 15.04.2022
4249 Clear 19 1017 64 10000 4.12 20 12:26 15.04.2022
4250 Clear 18 1017 65 10000 4.63 10 11:52 15.04.2022
4251 Clouds 15 1021 73 10000 3.6 20 10:48 15.04.2022
4252 Clouds 15 1015 78 10000 3.6 330 10:21 15.04.2022
4253 Clouds 13 1015 82 10000 6.17 360 09:23 15.04.2022
4254 Clouds 13 1021 82 10000 6.69 360 08:49 15.04.2022
4255 Clear 12 1015 84 10000 4.63 310 06:52 15.04.2022
4256 Clear 13 1012 77 10000 3.6 330 04:49 15.04.2022
4257 Clouds 13 1015 82 10000 4.63 350 01:27 15.04.2022
4258 Clouds 14 1021 82 10000 8.23 10 23:29 14.04.2022
4259 Clouds 14 1015 81 10000 9.77 10 22:46 14.04.2022
4260 Clouds 14 1015 80 10000 8.23 360 22:27 14.04.2022
4261 Clouds 14 1014 80 10000 8.75 360 21:53 14.04.2022
4262 Clouds 20 1014 62 10000 7.72 360 19:53 14.04.2022
4263 Clouds 20 1014 60 10000 7.72 360 19:22 14.04.2022
4264 Clouds 21 1014 56 10000 7.2 360 17:48 14.04.2022
4265 Clouds 21 1014 54 10000 6.69 350 17:27 14.04.2022
4266 Clouds 22 1014 56 10000 7.72 350 16:32 14.04.2022
4267 Clouds 20 1015 61 10000 8.23 360 13:55 14.04.2022
4268 Clouds 20 1015 63 10000 7.2 360 13:26 14.04.2022
4269 Clouds 20 1015 63 10000 7.2 360 13:26 14.04.2022
4270 Clouds 18 1015 67 10000 5.66 330 12:38 14.04.2022
4271 Clouds 18 1015 67 10000 5.66 330 12:19 14.04.2022
4272 Clouds 17 1019 72 10000 4.63 10 11:21 14.04.2022
4273 Clouds 15 1018 77 10000 4.63 360 10:36 14.04.2022
4274 Clouds 13 1013 83 10000 6.69 360 09:52 14.04.2022
4275 Clouds 13 1013 85 10000 6.17 360 08:39 14.04.2022
4276 Clouds 13 1012 84 10000 5.66 310 06:26 14.04.2022
4277 Clouds 13 1013 81 10000 5.14 310 01:49 14.04.2022
4278 Clouds 14 1013 76 10000 8.75 340 22:45 13.04.2022
4279 Clouds 15 1012 72 10000 7.72 340 21:44 13.04.2022
4280 Clouds 16 1012 68 10000 7.72 340 20:48 13.04.2022
4281 Clouds 17 1012 65 10000 6.69 340 20:22 13.04.2022
4282 Clouds 17 1012 61 10000 10.29 350 19:23 13.04.2022
4283 Clouds 19 1011 59 10000 8.75 330 17:54 13.04.2022
4284 Clouds 19 1011 59 10000 9.26 330 17:23 13.04.2022
4285 Clouds 19 1012 57 10000 7.72 330 16:33 13.04.2022
4286 Clouds 18 1012 60 10000 7.72 330 15:32 13.04.2022
4287 Clouds 18 1012 60 10000 7.72 340 14:50 13.04.2022
4288 Clouds 18 1012 64 10000 6.17 340 13:58 13.04.2022
4289 Clouds 17 1012 63 10000 7.2 360 13:19 13.04.2022
4290 Clouds 16 1011 68 10000 7.72 350 12:20 13.04.2022
4291 Clouds 15 1012 75 10000 7.2 350 10:47 13.04.2022
4292 Clouds 13 1011 88 10000 4.12 350 08:57 13.04.2022
4293 Clouds 13 1011 88 10000 4.63 360 08:33 13.04.2022
4294 Clouds 13 1009 86 10000 3.6 320 06:51 13.04.2022
4295 Clouds 13 1009 87 10000 3.6 320 06:25 13.04.2022
4296 Clouds 13 1009 84 10000 3.09 290 04:55 13.04.2022
4297 Clouds 14 1008 82 10000 2.57 320 00:20 13.04.2022
4298 Clouds 14 1008 83 10000 3.6 320 23:21 12.04.2022
4299 Clouds 15 1007 74 10000 4.63 300 21:58 12.04.2022
4300 Clouds 16 1007 67 10000 4.63 300 20:57 12.04.2022
4301 Clouds 16 1006 65 10000 5.66 310 20:38 12.04.2022
4302 Clouds 16 1006 63 10000 5.66 280 19:48 12.04.2022
4303 Clouds 17 1004 61 10000 5.14 290 19:29 12.04.2022
4304 Clouds 18 1005 57 10000 5.66 270 17:59 12.04.2022
4305 Clouds 18 1005 55 10000 6.17 270 17:23 12.04.2022
4306 Clouds 17 1010 58 10000 6.69 260 16:22 12.04.2022
4307 Clouds 17 1005 61 10000 6.17 280 15:29 12.04.2022
4308 Clouds 17 1005 62 10000 6.17 260 14:21 12.04.2022
4309 Clouds 17 1005 66 10000 4.63 290 13:29 12.04.2022
4310 Clouds 16 1005 67 10000 5.14 260 12:52 12.04.2022
4311 Clouds 15 1004 73 10000 3.6 280 11:46 12.04.2022
4312 Clouds 14 1003 83 10000 2.06 210 10:35 12.04.2022
4313 Rain 12 1001 87 10000 1.54 280 09:18 12.04.2022
4314 Rain 13 1001 84 10000 3.58 171 07:55 12.04.2022
4315 Clouds 13 1000 92 10000 3.6 210 06:24 12.04.2022
4316 Clouds 13 998 93 10000 2.57 220 05:31 12.04.2022
4317 Clouds 14 1000 84 10000 6.69 210 23:59 11.04.2022
4318 Clouds 15 1001 82 10000 5.14 210 22:44 11.04.2022
4319 Clouds 15 1000 78 10000 5.14 220 21:41 11.04.2022
4320 Clouds 16 1000 77 10000 6.17 210 20:57 11.04.2022
4321 Clouds 16 1005 70 10000 7.2 220 20:29 11.04.2022
4322 Clouds 16 1000 71 10000 7.72 220 19:54 11.04.2022
4323 Clouds 17 998 64 10000 6.69 220 19:18 11.04.2022
4324 Clouds 17 999 63 10000 6.69 220 18:47 11.04.2022
4325 Clouds 17 999 62 10000 7.72 220 17:57 11.04.2022
4326 Clouds 17 1000 65 10000 9.26 210 16:54 11.04.2022
4327 Clouds 17 1000 66 10000 9.26 220 15:56 11.04.2022
4328 Clouds 17 999 70 10000 7.72 220 14:33 11.04.2022
4329 Clouds 15 998 76 10000 6.69 220 12:53 11.04.2022
4330 Clouds 14 999 83 10000 6.69 250 12:33 11.04.2022
4331 Rain 15 1003 80 10000 10.8 210 11:33 11.04.2022
4332 Clouds 16 998 84 10000 10.8 190 10:28 11.04.2022
4333 Clouds 15 998 88 10000 7.72 190 09:20 11.04.2022
4334 Clouds 15 997 89 10000 5.66 200 06:44 11.04.2022
4335 Clouds 15 1000 82 10000 8.75 190 01:55 11.04.2022
4336 Clouds 16 1001 81 10000 6.69 200 22:38 10.04.2022
4337 Clouds 16 1001 79 10000 6.69 210 21:55 10.04.2022
4338 Clouds 16 1001 80 10000 7.72 210 21:32 10.04.2022
4339 Clouds 16 1001 75 10000 9.77 210 20:31 10.04.2022
4340 Clouds 17 1006 73 10000 10.29 210 19:45 10.04.2022
4341 Clouds 17 1001 74 10000 8.75 210 19:22 10.04.2022
4342 Clouds 18 1006 68 10000 8.75 210 18:43 10.04.2022
4343 Clouds 18 1002 65 10000 8.23 210 17:54 10.04.2022
4344 Clouds 18 1002 65 10000 8.75 220 17:34 10.04.2022
4345 Clouds 19 1003 64 10000 8.23 210 16:25 10.04.2022
4346 Clouds 18 1002 68 10000 7.72 210 15:20 10.04.2022
4347 Clouds 18 1004 68 10000 8.49 87 14:22 10.04.2022
4348 Fog 18 1003 70 10000 5.14 150 12:35 10.04.2022
4349 Fog 17 1003 76 7000 3.6 150 11:49 10.04.2022
4350 Fog 16 1003 79 7000 4.63 120 11:29 10.04.2022
4351 Fog 15 1003 83 100 3.6 120 10:54 10.04.2022
4352 Fog 15 1003 83 100 3.6 120 10:54 10.04.2022
4353 Fog 13 1004 89 50 2.06 80 09:56 10.04.2022
4354 Fog 13 1004 88 250 2.06 90 09:28 10.04.2022
4355 Fog 12 1006 90 900 2.57 100 08:22 10.04.2022
4356 Clouds 12 1006 88 10000 2.06 0 07:27 10.04.2022
4357 Clouds 12 1007 89 10000 1.03 250 05:46 10.04.2022
4358 Clouds 13 1010 86 10000 2.06 160 02:21 10.04.2022
4359 Clouds 15 1008 83 10000 1.54 220 00:27 10.04.2022
4360 Clouds 15 1011 84 10000 1.03 230 23:48 09.04.2022
4361 Clouds 15 1012 82 10000 2.57 280 22:47 09.04.2022
4362 Clouds 16 1012 83 10000 4.12 270 21:35 09.04.2022
4363 Clouds 16 1012 79 10000 4.12 270 20:48 09.04.2022
4364 Clouds 16 1013 79 10000 4.12 210 20:25 09.04.2022
4365 Clouds 17 1013 84 10000 4.63 230 19:41 09.04.2022
4366 Clouds 17 1013 84 10000 5.14 260 18:55 09.04.2022
4367 Clouds 17 1013 86 10000 5.14 260 18:19 09.04.2022
4368 Drizzle 17 1014 88 10000 5.14 240 17:39 09.04.2022
4369 Clouds 17 1014 85 10000 7.2 240 16:50 09.04.2022
4370 Drizzle 17 1014 85 10000 5.66 220 15:55 09.04.2022
4371 Drizzle 17 1014 85 10000 7.2 230 15:29 09.04.2022
4372 Drizzle 17 1014 88 10000 6.17 240 14:44 09.04.2022
4373 Drizzle 17 1014 90 9000 5.66 240 14:22 09.04.2022
4374 Clouds 17 1014 91 9000 5.14 220 13:18 09.04.2022
4375 Mist 16 1015 88 4000 5.14 230 12:41 09.04.2022
4376 Drizzle 16 1014 88 4000 5.14 230 11:22 09.04.2022
4377 Drizzle 15 1014 89 3000 4.12 220 10:21 09.04.2022
4378 Drizzle 15 1014 88 4000 4.63 230 09:38 09.04.2022
4379 Drizzle 15 1014 90 7000 4.12 240 08:53 09.04.2022
4380 Clouds 15 1013 88 7000 4.63 230 06:56 09.04.2022
4381 Clouds 15 1015 83 10000 5.14 230 01:32 09.04.2022
4382 Clouds 15 1017 83 10000 4.12 230 23:45 08.04.2022
4383 Clouds 15 1015 79 10000 4.63 250 21:58 08.04.2022
4384 Clouds 16 1015 78 10000 4.63 240 21:29 08.04.2022
4385 Clouds 16 1015 74 10000 5.14 260 20:38 08.04.2022
4386 Clouds 17 1015 71 10000 5.14 250 19:20 08.04.2022
4387 Clouds 17 1015 73 10000 5.66 250 18:30 08.04.2022
4388 Clouds 17 1017 72 10000 7.2 250 17:49 08.04.2022
4389 Clouds 17 1017 73 10000 6.69 250 17:25 08.04.2022
4390 Clouds 17 1017 70 10000 6.17 230 16:47 08.04.2022
4391 Clouds 17 1017 71 10000 7.2 220 15:57 08.04.2022
4392 Clouds 17 1017 70 10000 6.69 230 15:26 08.04.2022
4393 Clouds 17 1018 70 10000 7.2 230 14:33 08.04.2022
4394 Clouds 17 1018 70 10000 6.69 240 13:46 08.04.2022
4395 Clouds 16 1018 71 10000 7.2 240 13:27 08.04.2022
4396 Clouds 17 1016 67 10000 6.17 230 12:18 08.04.2022
4397 Clouds 15 1018 71 10000 4.12 250 10:37 08.04.2022
4398 Clouds 15 1017 71 10000 3.09 230 09:38 08.04.2022
4399 Clouds 15 1017 70 10000 3.09 230 08:51 08.04.2022
4400 Clouds 15 1016 63 10000 4.12 250 06:55 08.04.2022
4401 Clouds 15 1017 67 10000 3.6 230 05:23 08.04.2022
4402 Clouds 15 1019 69 10000 2.57 260 01:29 08.04.2022
4403 Clouds 15 1019 67 10000 3.09 290 00:25 08.04.2022
4404 Clouds 15 1020 71 10000 3.6 270 22:59 07.04.2022
4405 Clouds 15 1019 68 10000 2.57 280 22:40 07.04.2022
4406 Clouds 15 1019 68 10000 2.57 280 22:21 07.04.2022
4407 Clouds 15 1019 65 10000 3.6 310 21:53 07.04.2022
4408 Clouds 15 1017 62 10000 3.09 290 21:19 07.04.2022
4409 Clouds 15 1019 66 10000 5.14 260 20:38 07.04.2022
4410 Clouds 16 1019 63 10000 4.63 260 18:48 07.04.2022
4411 Clouds 16 1019 64 10000 5.66 260 17:27 07.04.2022
4412 Clouds 16 1020 65 10000 4.63 260 16:45 07.04.2022
4413 Clouds 16 1020 64 10000 4.63 260 16:23 07.04.2022
4414 Clouds 16 1020 63 10000 4.63 260 15:19 07.04.2022
4415 Clouds 15 1020 65 10000 4.12 260 13:45 07.04.2022
4416 Clouds 15 1020 64 10000 3.6 260 13:22 07.04.2022
4417 Clouds 14 1020 68 10000 3.09 270 11:40 07.04.2022
4418 Clouds 13 1019 67 10000 3.09 290 10:27 07.04.2022
4419 Clouds 13 1019 68 10000 3.6 300 08:39 07.04.2022
4420 Clouds 13 1017 68 10000 3.09 320 06:58 07.04.2022
4421 Clouds 13 1018 68 10000 4.12 340 03:59 07.04.2022
4422 Clouds 13 1018 70 10000 4.63 330 02:29 07.04.2022
4423 Clouds 13 1017 71 10000 5.66 350 00:42 07.04.2022
4424 Clouds 13 1017 70 10000 5.66 330 22:58 06.04.2022
4425 Clouds 14 1017 70 10000 5.66 330 22:39 06.04.2022
4426 Clouds 14 1016 70 10000 5.14 330 21:47 06.04.2022
4427 Clouds 15 1015 70 10000 6.69 320 20:41 06.04.2022
4428 Clouds 15 1015 66 10000 5.14 330 19:59 06.04.2022
4429 Clouds 16 1015 63 10000 5.66 320 19:19 06.04.2022
4430 Clouds 17 1015 60 10000 6.69 340 18:47 06.04.2022
4431 Clouds 18 1014 51 10000 8.23 330 17:35 06.04.2022
4432 Clouds 18 1015 48 10000 9.77 340 16:39 06.04.2022
4433 Clouds 18 1015 50 10000 9.26 350 15:57 06.04.2022
4434 Clouds 18 1014 51 10000 5.14 320 15:39 06.04.2022
4435 Clouds 17 1014 56 10000 3.13 189 13:31 06.04.2022
4436 Clouds 16 1014 61 10000 3.6 340 12:29 06.04.2022
4437 Clouds 14 1013 69 10000 2.57 300 10:57 06.04.2022
4438 Clouds 12 1013 70 10000 2.06 230 10:33 06.04.2022
4439 Clouds 11 1012 72 10000 2.06 250 09:46 06.04.2022
4440 Clear 9 1012 75 10000 1.54 260 08:51 06.04.2022
4441 Clear 9 1010 74 10000 5.66 70 07:57 06.04.2022
4442 Clear 11 1007 69 10000 1.54 360 05:23 06.04.2022
4443 Clouds 10 1006 74 10000 3.09 350 00:20 06.04.2022
4444 Clouds 10 1010 74 10000 5.14 30 23:47 05.04.2022
4445 Clouds 11 1008 73 10000 6.17 40 21:48 05.04.2022
4446 Clouds 11 1008 70 10000 5.66 40 20:58 05.04.2022
4447 Clouds 12 1008 70 10000 5.66 50 20:23 05.04.2022
4448 Clouds 11 1007 77 10000 5.66 50 18:31 05.04.2022
4449 Clouds 11 1007 75 10000 6.17 70 17:21 05.04.2022
4450 Clouds 11 1007 76 10000 6.17 50 16:42 05.04.2022
4451 Clouds 11 1012 74 10000 6.69 50 15:51 05.04.2022
4452 Clouds 11 1013 74 10000 7.2 50 15:30 05.04.2022
4453 Clouds 10 1007 74 10000 7.2 60 13:49 05.04.2022
4454 Clouds 10 1007 71 10000 7.72 60 12:33 05.04.2022
4455 Clouds 10 1007 72 10000 8.23 60 11:43 05.04.2022
4456 Clouds 10 1007 71 10000 8.75 60 11:24 05.04.2022
4457 Rain 9 1006 72 10000 7.2 60 09:31 05.04.2022
4458 Rain 9 1006 68 10000 7.72 60 08:47 05.04.2022
4459 Clear 12 1004 48 10000 8.23 40 04:19 05.04.2022
4460 Clear 14 1005 45 10000 5.14 50 23:45 04.04.2022
4461 Clear 14 1004 43 10000 5.66 70 22:38 04.04.2022
4462 Clear 15 1004 41 10000 5.36 335 21:51 04.04.2022
4463 Clouds 15 1004 39 10000 5.66 40 21:20 04.04.2022
4464 Clouds 15 1003 37 10000 6.17 40 20:48 04.04.2022
4465 Clear 16 1003 34 10000 7.72 50 19:38 04.04.2022
4466 Clear 16 1003 32 10000 8.75 60 18:46 04.04.2022
4467 Clear 16 1004 31 10000 8.75 50 17:33 04.04.2022
4468 Clear 16 1004 32 10000 8.75 50 16:36 04.04.2022
4469 Clear 15 1005 33 10000 9.26 40 15:34 04.04.2022
4470 Clear 14 1005 34 10000 8.23 60 14:49 04.04.2022
4471 Clear 14 1005 36 10000 9.77 50 14:31 04.04.2022
4472 Clear 13 1005 39 10000 9.26 50 13:18 04.04.2022
4473 Clear 10 1006 43 10000 9.77 50 11:29 04.04.2022
4474 Clear 9 1006 43 10000 9.77 50 10:49 04.04.2022
4475 Clear 9 1004 43 10000 9.77 40 07:46 04.04.2022
4476 Clear 11 1003 34 10000 8.23 30 03:19 04.04.2022
4477 Clear 12 1006 54 10000 5.66 340 00:25 04.04.2022
4478 Clear 12 1006 53 10000 6.69 340 22:31 03.04.2022
4479 Clouds 13 1006 48 10000 8.75 360 21:38 03.04.2022
4480 Clear 15 1004 42 10000 8.75 350 20:41 03.04.2022
4481 Clear 16 1004 35 10000 10.8 350 19:45 03.04.2022
4482 Clear 17 1006 19 10000 8.23 20 18:31 03.04.2022
4483 Clear 17 1006 19 10000 7.72 30 17:46 03.04.2022
4484 Clouds 17 1007 23 10000 7.2 20 16:50 03.04.2022
4485 Clouds 17 1007 24 10000 7.2 30 16:31 03.04.2022
4486 Clear 15 1009 28 10000 8.23 60 14:38 03.04.2022
4487 Clear 15 1009 31 10000 8.23 60 13:46 03.04.2022
4488 Clear 12 1010 37 10000 6.69 60 12:38 03.04.2022
4489 Clear 11 1009 39 10000 6.69 50 10:58 03.04.2022
4490 Clear 9 1008 44 10000 5.66 50 09:36 03.04.2022
4491 Clear 9 1010 46 10000 7.2 40 08:27 03.04.2022
4492 Clear 10 1010 47 10000 5.14 40 04:37 03.04.2022
4493 Clear 11 1010 60 10000 4.12 320 00:41 03.04.2022
4494 Clear 13 1010 54 10000 4.63 330 23:21 02.04.2022
4495 Clear 14 1011 50 10000 5.14 330 21:58 02.04.2022
4496 Clear 14 1010 45 10000 4.63 10 21:36 02.04.2022
4497 Clear 15 1010 43 10000 4.63 10 21:18 02.04.2022
4498 Clear 17 1010 32 10000 5.66 40 19:53 02.04.2022
4499 Clear 18 1011 32 10000 4.63 10 18:23 02.04.2022
4500 Clear 17 1011 31 10000 5.66 10 17:53 02.04.2022
4501 Clear 17 1012 29 10000 6.17 30 16:27 02.04.2022
4502 Clear 17 1013 32 10000 5.14 70 15:22 02.04.2022
4503 Clear 16 1014 39 10000 4.63 50 14:49 02.04.2022
4504 Clear 15 1014 42 10000 4.63 70 13:36 02.04.2022
4505 Clear 13 1014 45 10000 5.66 50 12:47 02.04.2022
4506 Clear 11 1014 47 10000 5.66 40 11:33 02.04.2022
4507 Clear 9 1014 54 10000 5.14 40 09:30 02.04.2022
4508 Clear 9 1012 61 10000 4.63 30 06:51 02.04.2022
4509 Clear 9 1012 61 10000 4.63 30 06:51 02.04.2022
4510 Clear 10 1012 60 10000 5.66 20 03:55 02.04.2022
4511 Clear 11 1012 57 10000 7.2 340 00:19 02.04.2022
4512 Clear 12 1012 58 10000 6.17 330 23:40 01.04.2022
4513 Clear 12 1012 57 10000 7.2 330 21:52 01.04.2022
4514 Clear 14 1012 49 10000 7.2 330 20:52 01.04.2022
4515 Clear 14 1012 45 10000 8.23 350 20:30 01.04.2022
4516 Clear 15 1011 40 10000 6.69 350 19:37 01.04.2022
4517 Clear 16 1011 40 10000 7.72 340 18:52 01.04.2022
4518 Clear 16 1012 42 10000 8.23 350 17:59 01.04.2022
4519 Clear 16 1012 42 10000 8.75 340 17:35 01.04.2022
4520 Clouds 15 1011 42 10000 7.72 340 15:43 01.04.2022
4521 Clouds 15 1011 48 10000 7.72 360 14:39 01.04.2022
4522 Clouds 15 1011 51 10000 9.77 340 13:35 01.04.2022
4523 Clouds 14 1013 55 10000 9.26 340 12:33 01.04.2022
4524 Clouds 13 1013 59 10000 10.8 340 11:44 01.04.2022
4525 Clouds 12 1012 72 10000 8.23 350 10:19 01.04.2022
4526 Clouds 12 1012 78 10000 7.72 340 09:30 01.04.2022
4527 Clouds 12 1007 80 10000 1.79 267 06:55 01.04.2022
4528 Clouds 12 1010 83 10000 4.63 320 04:54 01.04.2022
4529 Clouds 12 1010 82 10000 4.12 330 04:36 01.04.2022
4530 Clouds 13 1016 73 10000 3.6 310 01:59 01.04.2022
4531 Clouds 13 1016 73 10000 5.14 330 00:44 01.04.2022
4532 Clouds 14 1014 70 10000 6.17 320 21:55 31.03.2022
4533 Clouds 14 1014 70 10000 6.17 320 21:33 31.03.2022
4534 Clouds 14 1009 68 10000 5.66 310 20:30 31.03.2022
4535 Clouds 15 1008 66 10000 7.2 320 19:50 31.03.2022
4536 Clouds 15 1008 68 10000 7.2 320 18:52 31.03.2022
4537 Clouds 15 1008 64 10000 6.69 310 17:54 31.03.2022
4538 Clouds 15 1008 64 10000 7.2 330 16:45 31.03.2022
4539 Clouds 15 1008 66 10000 7.72 320 15:50 31.03.2022
4540 Clouds 15 1009 69 10000 5.66 330 15:21 31.03.2022
4541 Clouds 14 1009 69 10000 6.17 320 14:44 31.03.2022
4542 Clouds 15 1009 67 10000 6.17 320 12:48 31.03.2022
4543 Clouds 14 1007 77 10000 5.66 310 11:28 31.03.2022
4544 Clouds 13 1007 79 10000 4.63 310 10:19 31.03.2022
4545 Clouds 13 1005 82 10000 2.06 290 08:29 31.03.2022
4546 Clouds 13 1002 82 10000 2.57 320 06:21 31.03.2022
4547 Clouds 15 1005 80 10000 3.6 280 00:46 31.03.2022
4548 Clouds 14 1005 80 10000 4.63 290 23:23 30.03.2022
4549 Clouds 14 1006 80 10000 5.14 300 21:43 30.03.2022
4550 Clouds 14 1006 80 10000 4.63 310 21:25 30.03.2022
4551 Drizzle 15 1005 76 10000 6.69 320 20:21 30.03.2022
4552 Clouds 16 1005 67 10000 6.69 330 19:38 30.03.2022
4553 Clouds 17 1005 60 10000 8.75 320 18:34 30.03.2022
4554 Clouds 17 1005 58 10000 8.75 330 17:48 30.03.2022
4555 Clouds 17 1005 57 10000 10.29 330 16:58 30.03.2022
4556 Clouds 17 1005 58 10000 10.29 330 16:38 30.03.2022
4557 Clouds 17 1005 57 10000 9.77 330 15:38 30.03.2022
4558 Clouds 16 1006 58 10000 10.8 330 13:57 30.03.2022
4559 Clouds 16 1006 59 10000 10.29 330 13:18 30.03.2022
4560 Clouds 15 1005 66 10000 9.77 340 11:40 30.03.2022
4561 Clouds 14 1005 69 10000 11.32 340 10:37 30.03.2022
4562 Clouds 13 1005 73 10000 9.26 330 09:27 30.03.2022
4563 Clouds 12 1003 73 10000 8.23 320 07:59 30.03.2022
4564 Clouds 13 1003 72 10000 7.2 330 05:41 30.03.2022
4565 Clouds 13 1003 74 10000 8.75 330 04:54 30.03.2022
4566 Clouds 14 1004 76 10000 4.63 340 00:43 30.03.2022
4567 Clouds 14 1005 75 10000 9.26 350 22:35 29.03.2022
4568 Clouds 14 1004 73 10000 9.77 340 21:46 29.03.2022
4569 Clouds 15 1004 73 10000 12.86 340 20:55 29.03.2022
4570 Clouds 15 1003 71 10000 12.35 340 20:24 29.03.2022
4571 Clouds 18 1003 66 10000 10.29 340 18:57 29.03.2022
4572 Clouds 18 1003 66 10000 9.26 340 18:36 29.03.2022
4573 Clouds 19 1003 65 10000 6.69 340 17:39 29.03.2022
4574 Clouds 19 1004 67 10000 6.69 330 16:58 29.03.2022
4575 Clouds 18 1005 70 10000 5.14 340 15:58 29.03.2022
4576 Clouds 17 1005 72 10000 3.6 350 14:53 29.03.2022
4577 Clouds 17 1005 71 10000 3.6 350 14:24 29.03.2022
4578 Clouds 16 1011 73 10000 2.57 350 12:57 29.03.2022
4579 Clouds 16 1006 74 10000 2.57 40 11:45 29.03.2022
4580 Clouds 15 1006 81 10000 3.6 10 10:58 29.03.2022
4581 Clouds 14 1006 88 10000 2.57 360 09:49 29.03.2022
4582 Clouds 14 1005 84 10000 3.6 50 08:20 29.03.2022
4583 Clouds 14 1005 87 10000 4.63 360 05:38 29.03.2022
4584 Rain 16 1007 83 10000 4.63 30 01:25 29.03.2022
4585 Clouds 17 1007 69 10000 3.6 60 23:25 28.03.2022
4586 Rain 18 1006 62 10000 4.63 50 22:54 28.03.2022
4587 Clear 19 1005 58 10000 5.14 50 22:28 28.03.2022
4588 Clear 20 1006 53 10000 6.69 40 20:59 28.03.2022
4589 Clear 20 1005 53 10000 8.23 40 20:31 28.03.2022
4590 Rain 20 1006 52 10000 7.72 40 19:46 28.03.2022
4591 Clear 21 1006 52 10000 7.72 40 19:28 28.03.2022
4592 Clear 21 1006 51 10000 7.2 50 18:40 28.03.2022
4593 Clear 21 1007 50 10000 8.23 40 17:39 28.03.2022
4594 Clear 21 1008 50 10000 6.69 50 16:38 28.03.2022
4595 Clouds 20 1010 50 10000 6.17 60 14:49 28.03.2022
4596 Clouds 20 1010 50 10000 6.17 60 14:22 28.03.2022
4597 Clouds 17 1010 63 10000 6.69 50 12:41 28.03.2022
4598 Clouds 16 1011 67 10000 5.14 50 11:32 28.03.2022
4599 Clouds 15 1011 74 10000 4.12 30 09:43 28.03.2022
4600 Rain 15 1011 74 10000 4.12 30 09:19 28.03.2022
4601 Rain 15 1010 74 10000 3.09 100 08:22 28.03.2022
4602 Rain 15 1008 73 10000 5.14 60 07:40 28.03.2022
4603 Clear 15 1007 72 10000 3.6 60 04:18 28.03.2022
4604 Clear 18 1011 66 10000 3.6 60 23:33 27.03.2022
4605 Clear 19 1011 61 10000 3.09 70 22:25 27.03.2022
4606 Clear 19 1011 58 10000 3.6 80 21:42 27.03.2022
4607 Clear 20 1011 56 10000 3.6 100 20:58 27.03.2022
4608 Clouds 21 1011 53 10000 4.63 110 19:49 27.03.2022
4609 Clouds 21 1011 52 10000 4.63 110 19:30 27.03.2022
4610 Clouds 21 1011 50 10000 5.66 100 18:28 27.03.2022
4611 Clouds 21 1011 48 10000 6.69 120 17:40 27.03.2022
4612 Clouds 21 1011 49 10000 6.69 120 17:20 27.03.2022
4613 Clouds 20 1010 57 10000 6.17 70 15:28 27.03.2022
4614 Clouds 18 1013 62 10000 5.14 70 13:56 27.03.2022
4615 Clouds 16 1013 70 10000 6.17 50 12:41 27.03.2022
4616 Clear 14 1013 74 10000 6.17 60 11:21 27.03.2022
4617 Clear 13 1011 78 10000 4.63 60 09:21 27.03.2022
4618 Clear 13 1010 79 10000 4.12 50 05:56 27.03.2022
4619 Clear 15 1008 75 10000 2.06 50 00:57 27.03.2022
4620 Clouds 16 1008 70 10000 2.06 50 00:24 27.03.2022
4621 Clouds 17 1008 68 10000 2.06 40 22:42 26.03.2022
4622 Clouds 16 1010 68 10000 3.6 20 21:46 26.03.2022
4623 Clouds 17 1010 66 10000 3.6 20 21:25 26.03.2022
4624 Clear 18 1009 58 10000 3.6 20 19:31 26.03.2022
4625 Clouds 19 1014 55 10000 3.09 320 17:54 26.03.2022
4626 Clouds 19 1014 55 10000 3.09 320 17:33 26.03.2022
4627 Clouds 19 1009 57 10000 3.09 120 16:27 26.03.2022
4628 Clouds 19 1008 55 10000 4.63 140 15:23 26.03.2022
4629 Clouds 17 1010 63 10000 4.12 10 13:54 26.03.2022
4630 Clouds 17 1010 64 10000 4.12 10 13:18 26.03.2022
4631 Clear 15 1011 73 10000 3.09 30 11:41 26.03.2022
4632 Clouds 14 1010 78 10000 3.09 70 10:29 26.03.2022
4633 Clear 12 1008 81 10000 3.09 70 08:44 26.03.2022
4634 Clear 12 1007 81 10000 3.09 50 06:25 26.03.2022
4635 Clear 13 1007 79 10000 5.14 50 05:28 26.03.2022
4636 Clear 15 1008 72 10000 4.12 30 00:30 26.03.2022
4637 Clouds 16 1009 70 10000 4.63 40 21:51 25.03.2022
4638 Clouds 16 1008 71 10000 4.12 20 20:46 25.03.2022
4639 Clouds 16 1008 70 10000 4.12 30 20:20 25.03.2022
4640 Clouds 17 1008 66 10000 6.17 30 18:51 25.03.2022
4641 Clouds 17 1007 63 10000 5.14 40 17:49 25.03.2022
4642 Clouds 17 1008 64 10000 5.14 50 17:27 25.03.2022
4643 Clouds 17 1008 66 10000 5.66 50 16:19 25.03.2022
4644 Clouds 17 1008 68 10000 6.69 50 14:49 25.03.2022
4645 Clouds 16 1008 69 10000 6.69 50 13:26 25.03.2022
4646 Clouds 14 1008 77 10000 6.17 30 10:35 25.03.2022
4647 Clear 14 1008 77 10000 5.66 40 09:28 25.03.2022
4648 Clouds 14 1007 78 10000 6.69 20 08:24 25.03.2022
4649 Clouds 14 1012 79 10000 6.17 30 07:28 25.03.2022
4650 Clear 13 1006 83 10000 6.69 40 06:29 25.03.2022
4651 Clear 13 1006 83 10000 6.69 40 06:29 25.03.2022
4652 Clouds 13 1014 82 10000 3.6 360 01:32 25.03.2022
4653 Rain 13 1009 85 8000 4.63 50 22:53 24.03.2022
4654 Clouds 13 1008 83 8000 4.63 20 21:52 24.03.2022
4655 Rain 13 1008 86 5000 3.6 30 20:40 24.03.2022
4656 Rain 13 1008 84 5000 6.17 90 19:48 24.03.2022
4657 Clouds 18 1006 64 10000 5.14 80 17:50 24.03.2022
4658 Clouds 18 1005 69 10000 6.69 40 17:23 24.03.2022
4659 Clouds 16 1007 70 10000 7.2 50 15:45 24.03.2022
4660 Clouds 16 1007 70 10000 7.2 40 14:50 24.03.2022
4661 Clouds 15 1007 70 10000 6.69 40 14:20 24.03.2022
4662 Clouds 14 1008 68 10000 7.2 50 13:24 24.03.2022
4663 Clouds 14 1008 69 10000 7.2 50 11:52 24.03.2022
4664 Clouds 13 1006 67 10000 7.2 50 10:18 24.03.2022
4665 Clear 13 1008 70 10000 7.2 50 09:22 24.03.2022
4666 Clouds 12 1006 72 10000 7.2 40 06:55 24.03.2022
4667 Clouds 12 1004 72 10000 9.26 40 04:34 24.03.2022
4668 Clouds 13 1008 79 10000 7.72 50 23:21 23.03.2022
4669 Clouds 13 1008 84 10000 6.69 50 21:53 23.03.2022
4670 Clouds 13 1008 88 10000 5.66 50 21:20 23.03.2022
4671 Rain 14 1011 83 10000 6.69 60 19:46 23.03.2022
4672 Clouds 14 1011 81 10000 7.2 60 18:59 23.03.2022
4673 Clouds 14 1006 83 10000 6.17 10 17:39 23.03.2022
4674 Clouds 13 1006 87 10000 5.14 30 16:53 23.03.2022
4675 Rain 14 1007 86 7000 4.63 80 14:52 23.03.2022
4676 Rain 14 1008 87 6000 5.14 60 14:32 23.03.2022
4677 Rain 14 1008 86 10000 4.63 80 13:22 23.03.2022
4678 Clouds 13 1008 89 9000 4.63 40 10:20 23.03.2022
4679 Clouds 12 1007 90 9000 2.57 340 07:44 23.03.2022
4680 Clouds 11 1007 90 8000 2.06 110 05:27 23.03.2022
4681 Rain 12 1009 88 6000 2.57 160 01:18 23.03.2022
4682 Rain 13 1010 88 10000 1.54 110 00:23 23.03.2022
4683 Rain 13 1009 89 10000 2.57 210 21:32 22.03.2022
4684 Rain 12 1010 87 10000 3.6 160 20:55 22.03.2022
4685 Clouds 13 1010 87 10000 2.06 210 19:56 22.03.2022
4686 Clouds 13 1010 90 10000 1.54 240 19:25 22.03.2022
4687 Clouds 12 1010 88 10000 4.63 270 18:45 22.03.2022
4688 Rain 13 1011 84 10000 5.66 270 17:42 22.03.2022
4689 Rain 15 1010 82 10000 7.72 200 16:35 22.03.2022
4690 Clouds 16 1011 76 10000 7.6 290 15:37 22.03.2022
4691 Clouds 16 1011 75 10000 7.2 210 15:18 22.03.2022
4692 Rain 16 1012 71 10000 8.05 316 14:41 22.03.2022
4693 Clouds 16 1012 77 10000 7.2 190 13:42 22.03.2022
4694 Clouds 16 1012 78 10000 7.2 180 11:52 22.03.2022
4695 Clouds 15 1012 82 10000 6.69 190 10:53 22.03.2022
4696 Clouds 14 1011 89 10000 4.47 276 08:43 22.03.2022
4697 Clouds 13 1016 88 10000 3.09 160 07:21 22.03.2022
4698 Clouds 12 1011 87 9000 1.54 130 03:55 22.03.2022
4699 Clouds 12 1011 87 9000 1.54 130 03:55 22.03.2022
4700 Clouds 12 1011 83 10000 1.54 210 00:46 22.03.2022
4701 Clouds 13 1011 81 10000 2.06 240 22:46 21.03.2022
4702 Clouds 13 1011 81 10000 3.09 250 21:25 21.03.2022
4703 Clouds 14 1010 77 10000 3.6 240 20:43 21.03.2022
4704 Clouds 14 1010 77 10000 3.6 240 20:21 21.03.2022
4705 Clouds 15 1015 71 10000 4.12 230 19:35 21.03.2022
4706 Clouds 15 1010 71 10000 4.12 230 19:35 21.03.2022
4707 Clouds 15 1010 71 10000 4.12 230 19:35 21.03.2022
4708 Clouds 16 1014 68 10000 5.14 260 18:47 21.03.2022
4709 Clouds 16 1014 72 10000 4.63 260 17:35 21.03.2022
4710 Clouds 16 1009 73 10000 5.14 270 16:59 21.03.2022
4711 Clouds 15 1009 77 10000 5.14 270 16:26 21.03.2022
4712 Clouds 16 1009 75 10000 4.12 250 15:43 21.03.2022
4713 Clouds 15 1014 79 10000 3.09 330 14:36 21.03.2022
4714 Clouds 15 1009 80 10000 2.57 50 13:20 21.03.2022
4715 Clouds 13 1009 88 10000 4.12 90 11:58 21.03.2022
4716 Clouds 13 1009 88 10000 4.12 90 11:25 21.03.2022
4717 Clouds 12 1008 90 10000 4.63 100 09:49 21.03.2022
4718 Clouds 11 1006 90 9000 5.14 100 07:33 21.03.2022
4719 Rain 11 1006 90 9000 6.17 100 05:56 21.03.2022
4720 Rain 11 1007 87 10000 5.14 110 01:42 21.03.2022
4721 Clouds 12 1008 88 10000 4.63 120 22:57 20.03.2022
4722 Rain 11 1008 88 10000 4.63 120 22:25 20.03.2022
4723 Clouds 11 1007 88 10000 6.17 110 21:37 20.03.2022
4724 Rain 11 1007 89 10000 5.66 120 20:55 20.03.2022
4725 Clouds 11 1007 88 10000 5.66 120 20:29 20.03.2022
4726 Clouds 12 1007 87 10000 5.14 120 19:49 20.03.2022
4727 Clouds 12 1005 86 10000 4.12 100 19:19 20.03.2022
4728 Rain 12 1011 85 8000 5.14 100 17:48 20.03.2022
4729 Rain 12 1011 85 10000 5.14 100 17:26 20.03.2022
4730 Rain 12 1011 81 4500 4.63 180 16:35 20.03.2022
4731 Clouds 17 1006 68 10000 7.72 110 14:42 20.03.2022
4732 Clouds 16 1007 67 10000 7.2 90 13:38 20.03.2022
4733 Clouds 14 1008 76 10000 5.14 50 12:19 20.03.2022
4734 Clouds 14 1014 74 10000 4.63 50 09:59 20.03.2022
4735 Clouds 14 1009 71 10000 4.63 60 08:21 20.03.2022
4736 Clear 14 1008 69 10000 4.63 100 06:37 20.03.2022
4737 Clouds 15 1007 70 10000 3.09 100 03:18 20.03.2022
4738 Clear 16 1011 65 10000 2.57 160 00:54 20.03.2022
4739 Clear 16 1011 65 10000 2.57 160 00:54 20.03.2022
4740 Clear 16 1011 62 10000 2.57 160 00:34 20.03.2022
4741 Clear 17 1011 61 10000 3.09 230 22:31 19.03.2022
4742 Clouds 17 1012 59 10000 4.12 260 21:26 19.03.2022
4743 Clouds 18 1012 55 10000 2.57 100 19:39 19.03.2022
4744 Clouds 19 1012 50 10000 3.09 100 18:44 19.03.2022
4745 Clear 20 1012 49 10000 3.6 210 17:52 19.03.2022
4746 Clear 20 1012 48 10000 4.12 160 17:33 19.03.2022
4747 Clouds 20 1018 50 10000 4.12 140 15:40 19.03.2022
4748 Clouds 19 1013 54 10000 4.12 110 14:19 19.03.2022
4749 Clouds 18 1015 57 10000 4.12 120 12:56 19.03.2022
4750 Clouds 17 1015 59 10000 3.6 120 12:37 19.03.2022
4751 Clouds 16 1016 63 10000 3.6 80 11:46 19.03.2022
4752 Clear 12 1015 75 10000 4.12 50 09:31 19.03.2022
4753 Clear 12 1014 75 10000 3.09 40 05:48 19.03.2022
4754 Clear 14 1012 63 10000 3.09 60 02:34 19.03.2022
4755 Clear 14 1015 62 10000 3.6 70 00:54 19.03.2022
4756 Clear 15 1013 58 10000 1.54 70 23:19 18.03.2022
4757 Clear 16 1015 56 10000 2.57 100 22:22 18.03.2022
4758 Clear 18 1016 50 10000 3.6 100 20:40 18.03.2022
4759 Clear 18 1015 46 10000 4.12 90 19:48 18.03.2022
4760 Clear 19 1015 44 10000 4.92 189 19:19 18.03.2022
4761 Clear 21 1015 37 10000 6.17 90 17:27 18.03.2022
4762 Clear 21 1015 41 10000 5.66 80 16:42 18.03.2022
4763 Clear 19 1017 49 10000 4.63 60 14:29 18.03.2022
4764 Clear 17 1017 50 10000 5.66 70 13:41 18.03.2022
4765 Clear 16 1016 51 10000 6.17 50 12:18 18.03.2022
4766 Clear 13 1018 55 10000 6.69 50 10:27 18.03.2022
4767 Clear 11 1017 59 10000 5.14 40 09:20 18.03.2022
4768 Clear 11 1016 60 10000 5.14 40 07:43 18.03.2022
4769 Clear 12 1016 57 10000 5.14 50 05:39 18.03.2022
4770 Clear 13 1016 56 10000 4.12 30 02:44 18.03.2022
4771 Clear 14 1017 57 10000 5.14 20 00:21 18.03.2022
4772 Clear 15 1016 58 10000 4.63 40 22:54 17.03.2022
4773 Clear 15 1017 57 10000 6.69 50 22:21 17.03.2022
4774 Clear 15 1017 56 10000 5.66 50 21:46 17.03.2022
4775 Clear 16 1015 57 10000 5.14 40 21:18 17.03.2022
4776 Clear 16 1016 56 10000 6.17 30 20:30 17.03.2022
4777 Clear 17 1016 54 10000 6.17 40 19:39 17.03.2022
4778 Clear 18 1015 53 10000 5.66 40 18:55 17.03.2022
4779 Clear 19 1015 52 10000 5.66 30 17:47 17.03.2022
4780 Clear 19 1015 53 10000 5.14 40 16:30 17.03.2022
4781 Clear 19 1015 52 10000 6.17 50 15:43 17.03.2022
4782 Clear 19 1016 52 10000 5.14 40 15:21 17.03.2022
4783 Clear 17 1017 55 10000 6.69 30 13:48 17.03.2022
4784 Clouds 16 1016 54 10000 7.2 30 12:48 17.03.2022
4785 Clouds 15 1017 61 10000 7.2 10 11:53 17.03.2022
4786 Clouds 15 1017 63 10000 7.72 10 11:22 17.03.2022
4787 Clouds 14 1015 71 10000 5.14 340 09:47 17.03.2022
4788 Clouds 14 1014 73 10000 6.69 360 08:31 17.03.2022
4789 Clouds 13 1012 73 10000 6.17 330 06:25 17.03.2022
4790 Clouds 13 1012 73 10000 6.69 330 05:39 17.03.2022
4791 Clouds 13 1012 73 10000 6.69 330 05:39 17.03.2022
4792 Clouds 14 1012 75 10000 8.75 340 00:42 17.03.2022
4793 Clouds 14 1012 74 10000 7.72 330 22:59 16.03.2022
4794 Clouds 14 1012 74 10000 8.75 330 22:40 16.03.2022
4795 Clouds 14 1012 74 10000 8.75 330 22:19 16.03.2022
4796 Clouds 14 1011 74 10000 9.26 340 21:29 16.03.2022
4797 Clouds 14 1011 77 10000 13.38 350 19:26 16.03.2022
4798 Dust 14 1011 77 10000 12.35 360 18:55 16.03.2022
4799 Dust 14 1011 77 10000 13.38 360 18:24 16.03.2022
4800 Dust 14 1010 78 10000 14.4 350 17:37 16.03.2022
4801 Dust 14 1010 78 6000 12.35 360 16:50 16.03.2022
4802 Haze 15 1010 78 5000 12.86 360 15:41 16.03.2022
4803 Dust 15 1016 75 6000 11.83 360 13:44 16.03.2022
4804 Dust 15 1016 75 6000 11.83 360 13:22 16.03.2022
4805 Dust 15 1011 77 7000 10.29 360 11:51 16.03.2022
4806 Clouds 14 1009 79 6000 12.86 350 11:19 16.03.2022
4807 Dust 14 1010 81 6000 10.8 360 09:59 16.03.2022
4808 Dust 15 1009 76 6000 6.69 360 08:37 16.03.2022
4809 Clear 17 1012 65 8000 6.69 20 03:33 16.03.2022
4810 Clouds 17 1007 67 6000 5.66 10 00:42 16.03.2022
4811 Dust 17 1006 69 6000 5.14 340 22:37 15.03.2022
4812 Dust 17 1005 68 6000 4.63 340 21:50 15.03.2022
4813 Dust 18 1005 66 3000 3.6 360 19:47 15.03.2022
4814 Dust 19 1004 60 3200 5.14 40 18:41 15.03.2022
4815 Dust 19 1003 58 4200 6.17 30 16:52 15.03.2022
4816 Haze 20 1002 55 5000 5.66 50 16:18 15.03.2022
4817 Haze 19 1003 58 6000 5.66 20 14:55 15.03.2022
4818 Haze 18 1004 59 7000 6.69 50 14:31 15.03.2022
4819 Fog 17 1002 61 8000 6.69 50 13:27 15.03.2022
4820 Clouds 15 1005 66 10000 6.69 10 11:56 15.03.2022
4821 Clouds 14 1005 65 10000 7.72 10 11:19 15.03.2022
4822 Clouds 12 1003 79 10000 4.63 330 09:37 15.03.2022
4823 Clouds 11 1004 82 10000 5.14 10 08:32 15.03.2022
4824 Clouds 10 1002 84 10000 5.14 30 07:50 15.03.2022
4825 Clouds 10 1002 85 10000 6.69 30 06:35 15.03.2022
4826 Clouds 11 1004 83 10000 4.63 40 02:36 15.03.2022
4827 Clouds 11 1000 77 10000 3.09 360 23:38 14.03.2022
4828 Clouds 11 1000 76 10000 3.09 360 23:20 14.03.2022
4829 Clouds 11 1002 77 10000 4.63 20 21:59 14.03.2022
4830 Clouds 12 1003 75 10000 4.63 40 21:20 14.03.2022
4831 Clouds 12 1001 72 10000 6.17 30 20:34 14.03.2022
4832 Clouds 13 1001 72 10000 6.69 20 19:47 14.03.2022
4833 Clouds 14 1000 65 10000 5.14 360 18:30 14.03.2022
4834 Clouds 15 1000 58 10000 6.17 60 17:43 14.03.2022
4835 Clouds 16 1000 53 10000 7.2 30 16:57 14.03.2022
4836 Clouds 15 1000 57 10000 9.26 40 15:29 14.03.2022
4837 Clouds 15 1000 63 10000 6.17 70 14:24 14.03.2022
4838 Rain 12 1002 76 10000 6.17 70 11:53 14.03.2022
4839 Clouds 11 1002 73 10000 4.63 70 10:35 14.03.2022
4840 Clouds 11 1000 72 10000 4.12 50 09:38 14.03.2022
4841 Clouds 10 1000 73 10000 4.12 50 09:20 14.03.2022
4842 Clouds 10 1001 76 10000 4.12 20 08:49 14.03.2022
4843 Clouds 10 1000 81 10000 3.6 20 07:21 14.03.2022
4844 Clouds 11 1001 83 10000 4.12 60 04:27 14.03.2022
4845 Clouds 12 1003 75 10000 2.57 140 01:52 14.03.2022
4846 Clouds 12 1004 75 10000 3.09 140 00:40 14.03.2022
4847 Clouds 13 1005 71 10000 3.6 220 21:56 13.03.2022
4848 Clouds 13 1006 69 10000 3.6 210 21:28 13.03.2022
4849 Clouds 13 1006 69 10000 4.12 210 20:53 13.03.2022
4850 Clouds 13 1011 67 10000 4.63 210 20:28 13.03.2022
4851 Clouds 14 1012 67 10000 5.14 200 19:43 13.03.2022
4852 Clouds 14 1007 67 10000 5.14 200 19:25 13.03.2022
4853 Clouds 14 1008 65 10000 4.63 220 18:50 13.03.2022
4854 Clouds 15 1008 63 10000 5.14 220 18:27 13.03.2022
4855 Clouds 15 1008 62 10000 7.72 210 17:40 13.03.2022
4856 Clouds 15 1009 61 10000 7.72 210 16:49 13.03.2022
4857 Clouds 16 1009 59 10000 6.17 220 16:27 13.03.2022
4858 Clouds 16 1010 57 10000 5.66 230 15:44 13.03.2022
4859 Clouds 16 1010 59 10000 5.14 200 14:50 13.03.2022
4860 Clouds 16 1010 59 10000 5.14 200 14:50 13.03.2022
4861 Clouds 15 1012 62 10000 4.63 220 13:30 13.03.2022
4862 Clouds 15 1012 60 10000 4.92 303 12:37 13.03.2022
4863 Clouds 15 1012 63 10000 2.57 260 11:51 13.03.2022
4864 Clouds 15 1017 64 10000 3.09 280 11:30 13.03.2022
4865 Clear 14 1017 68 10000 1.03 0 10:46 13.03.2022
4866 Clouds 12 1017 80 10000 1.03 0 09:53 13.03.2022
4867 Clouds 11 1011 83 10000 1.54 280 09:29 13.03.2022
4868 Clouds 9 1012 84 10000 2.06 200 08:40 13.03.2022
4869 Clouds 10 1010 86 10000 2.06 310 07:40 13.03.2022
4870 Clouds 11 1010 83 10000 2.06 300 05:40 13.03.2022
4871 Clouds 12 1007 79 10000 2.57 280 02:27 13.03.2022
4872 Clouds 13 1009 84 10000 4.63 270 23:33 12.03.2022
4873 Clouds 13 1008 86 10000 4.63 280 21:53 12.03.2022
4874 Rain 14 1009 88 10000 6.69 260 20:29 12.03.2022
4875 Rain 14 1008 92 8000 7.72 230 19:47 12.03.2022
4876 Rain 14 1008 90 8000 7.2 240 18:55 12.03.2022
4877 Rain 14 1009 91 7000 7.2 220 18:22 12.03.2022
4878 Rain 14 1009 90 5000 7.72 220 17:23 12.03.2022
4879 Rain 14 1014 87 8000 7.72 230 16:23 12.03.2022
4880 Mist 15 1007 85 4000 9.26 210 15:22 12.03.2022
4881 Mist 16 1015 78 4500 9.26 210 14:27 12.03.2022
4882 Clouds 16 1011 75 10000 8.75 220 12:35 12.03.2022
4883 Clouds 16 1011 76 10000 7.2 210 11:56 12.03.2022
4884 Clouds 15 1012 78 10000 6.71 296 11:34 12.03.2022
4885 Clouds 15 1012 82 10000 5.66 220 10:52 12.03.2022
4886 Clouds 14 1010 83 9000 4.92 285 09:44 12.03.2022
4887 Rain 13 1012 86 10000 3.6 210 08:53 12.03.2022
4888 Clouds 12 1010 85 9000 2.57 150 06:53 12.03.2022
4889 Clear 10 1012 85 10000 1.03 150 02:34 12.03.2022
4890 Clear 11 1013 80 10000 2.57 270 23:52 11.03.2022
4891 Clear 12 1012 80 10000 3.09 270 22:52 11.03.2022
4892 Clouds 13 1011 79 10000 2.06 270 21:35 11.03.2022
4893 Clouds 13 1011 76 10000 2.06 280 20:54 11.03.2022
4894 Clouds 13 1011 73 10000 2.57 300 20:28 11.03.2022
4895 Clouds 14 1012 69 10000 4.12 300 19:42 11.03.2022
4896 Clouds 15 1012 67 10000 4.12 300 19:20 11.03.2022
4897 Clouds 16 1016 59 10000 4.63 310 17:29 11.03.2022
4898 Clouds 16 1016 59 10000 5.14 280 16:27 11.03.2022
4899 Clouds 16 1016 59 10000 4.63 300 15:53 11.03.2022
4900 Clouds 16 1012 66 10000 4.12 280 14:19 11.03.2022
4901 Clouds 15 1012 71 10000 4.63 260 12:44 11.03.2022
4902 Clouds 15 1012 68 10000 4.63 270 12:20 11.03.2022
4903 Clouds 14 1011 71 10000 3.6 290 11:43 11.03.2022
4904 Clouds 13 1010 78 10000 3.09 300 09:39 11.03.2022
4905 Clouds 13 1010 82 10000 3.6 280 08:47 11.03.2022
4906 Clouds 13 1008 84 10000 3.6 280 07:53 11.03.2022
4907 Clouds 13 1008 85 10000 3.6 280 07:28 11.03.2022
4908 Clouds 13 1007 89 10000 3.6 230 05:42 11.03.2022
4909 Clouds 14 1008 88 10000 7.72 220 02:56 11.03.2022
4910 Clouds 15 1010 91 5000 9.77 200 22:56 10.03.2022
4911 Drizzle 14 1010 92 6000 9.39 287 22:28 10.03.2022
4912 Clouds 14 1015 90 7000 10.29 170 21:27 10.03.2022
4913 Mist 13 1010 90 3000 9.26 170 20:49 10.03.2022
4914 Clouds 15 1011 82 10000 8.23 190 19:23 10.03.2022
4915 Clouds 15 1016 84 10000 8.75 200 18:40 10.03.2022
4916 Clouds 15 1012 82 8000 10.29 190 16:54 10.03.2022
4917 Clouds 16 1011 76 10000 9.77 200 15:49 10.03.2022
4918 Drizzle 17 1014 71 10000 8.94 264 14:24 10.03.2022
4919 Clouds 16 1014 77 10000 7.2 180 12:50 10.03.2022
4920 Clouds 16 1015 77 10000 6.17 190 11:39 10.03.2022
4921 Clouds 15 1015 87 10000 6.71 293 10:24 10.03.2022
4922 Clouds 14 1014 87 10000 4.47 273 08:49 10.03.2022
4923 Clouds 13 1018 85 10000 4.12 200 06:36 10.03.2022
4924 Clouds 13 1019 88 10000 1.54 190 03:42 10.03.2022
4925 Clouds 13 1020 81 10000 2.57 190 00:51 10.03.2022
4926 Clouds 14 1020 76 10000 2.06 150 22:46 09.03.2022
4927 Clouds 14 1020 79 10000 1.54 270 21:48 09.03.2022
4928 Clouds 14 1020 79 10000 1.03 0 21:23 09.03.2022
4929 Rain 13 1019 75 10000 6.69 250 19:42 09.03.2022
4930 Rain 15 1018 71 10000 7.2 220 18:25 09.03.2022
4931 Clouds 16 1018 66 10000 6.69 210 17:26 09.03.2022
4932 Clouds 16 1018 67 10000 8.23 210 16:24 09.03.2022
4933 Clouds 16 1019 67 10000 8.75 220 14:32 09.03.2022
4934 Clouds 16 1019 67 10000 7.72 210 13:52 09.03.2022
4935 Clouds 16 1020 68 10000 8.75 200 12:39 09.03.2022
4936 Clouds 16 1020 69 10000 8.23 200 11:52 09.03.2022
4937 Clouds 16 1020 71 10000 6.69 210 11:32 09.03.2022
4938 Clouds 14 1019 79 10000 5.66 200 09:45 09.03.2022
4939 Clouds 13 1019 83 10000 3.6 150 08:47 09.03.2022
4940 Clouds 13 1018 81 10000 3.09 190 07:27 09.03.2022
4941 Clouds 13 1014 88 10000 4.12 210 01:54 09.03.2022
4942 Clouds 13 1014 83 10000 4.02 240 00:27 09.03.2022
4943 Clouds 13 1014 82 10000 2.57 210 22:47 08.03.2022
4944 Clouds 13 1016 82 10000 2.57 240 21:52 08.03.2022
4945 Clouds 13 1016 82 10000 2.57 240 21:22 08.03.2022
4946 Clouds 14 1015 77 10000 3.6 230 20:24 08.03.2022
4947 Clouds 15 1015 70 10000 5.14 230 19:25 08.03.2022
4948 Clouds 15 1015 71 10000 5.66 230 18:23 08.03.2022
4949 Clouds 16 1014 67 10000 6.69 230 16:59 08.03.2022
4950 Clouds 15 1014 70 10000 6.17 240 14:58 08.03.2022
4951 Rain 15 1019 70 10000 5.14 260 13:54 08.03.2022
4952 Clouds 15 1015 63 10000 4.63 240 12:28 08.03.2022
4953 Clouds 15 1015 63 10000 4.12 240 11:43 08.03.2022
4954 Clouds 13 1014 70 10000 2.06 240 10:37 08.03.2022
4955 Clouds 11 1013 77 10000 1.54 250 08:58 08.03.2022
4956 Clouds 11 1010 73 10000 2.57 280 06:31 08.03.2022
4957 Clouds 12 1009 77 10000 4.63 310 03:48 08.03.2022
4958 Rain 13 1008 69 10000 4.92 340 22:57 07.03.2022
4959 Clouds 13 1009 61 10000 4.12 230 21:46 07.03.2022
4960 Clouds 13 1009 60 10000 4.12 230 21:27 07.03.2022
4961 Clouds 13 1009 59 10000 3.6 230 20:39 07.03.2022
4962 Clouds 13 1009 58 10000 4.63 240 19:55 07.03.2022
4963 Clouds 13 1009 57 10000 4.63 240 19:29 07.03.2022
4964 Clouds 14 1008 54 10000 5.66 240 18:38 07.03.2022
4965 Clouds 14 1008 53 10000 5.66 260 17:33 07.03.2022
4966 Clouds 14 1008 53 10000 6.69 270 16:55 07.03.2022
4967 Clouds 14 1008 52 10000 4.12 270 15:27 07.03.2022
4968 Clouds 14 1014 50 10000 3.6 320 12:48 07.03.2022
4969 Clouds 14 1010 49 10000 3.6 320 12:20 07.03.2022
4970 Clouds 12 1010 64 10000 4.63 360 10:35 07.03.2022
4971 Clear 8 1008 77 10000 2.57 310 08:35 07.03.2022
4972 Clear 10 1009 60 10000 4.12 340 02:58 07.03.2022
4973 Clear 11 1009 65 10000 6.17 340 00:22 07.03.2022
4974 Clear 11 1009 62 10000 6.17 340 23:29 06.03.2022
4975 Clear 11 1009 60 10000 6.69 350 22:32 06.03.2022
4976 Clear 11 1009 60 10000 6.17 350 21:45 06.03.2022
4977 Clear 12 1010 55 10000 9.26 350 20:30 06.03.2022
4978 Clear 13 1009 52 10000 8.75 340 19:50 06.03.2022
4979 Clear 14 1007 47 10000 9.26 340 18:51 06.03.2022
4980 Clear 15 1008 41 10000 10.8 340 17:54 06.03.2022
4981 Clear 15 1006 40 10000 9.77 350 17:20 06.03.2022
4982 Clear 16 1009 33 10000 8.75 340 16:41 06.03.2022
4983 Clouds 17 1009 36 10000 7.72 340 15:37 06.03.2022
4984 Clouds 17 1009 35 10000 6.69 340 14:49 06.03.2022
4985 Clouds 16 1009 33 10000 6.69 10 14:30 06.03.2022
4986 Clouds 14 1010 38 10000 5.14 60 12:44 06.03.2022
4987 Clouds 13 1011 43 10000 5.66 10 11:56 06.03.2022
4988 Clouds 12 1011 53 10000 4.63 20 10:45 06.03.2022
4989 Clear 10 1010 63 10000 3.6 360 09:43 06.03.2022
4990 Clear 8 1010 69 10000 3.6 20 08:29 06.03.2022
4991 Clear 9 1008 68 10000 3.6 340 07:34 06.03.2022
4992 Clear 10 1008 66 10000 4.63 10 04:45 06.03.2022
4993 Clear 11 1008 72 10000 5.66 330 00:43 06.03.2022
4994 Clear 11 1008 73 10000 5.66 330 00:23 06.03.2022
4995 Clear 11 1008 74 10000 5.66 330 23:19 05.03.2022
4996 Clouds 10 1008 78 10000 5.66 330 22:43 05.03.2022
4997 Clouds 11 1009 83 10000 6.17 360 21:45 05.03.2022
4998 Clouds 11 1009 84 10000 5.66 360 21:19 05.03.2022
4999 Clouds 11 1009 83 10000 2.57 250 19:24 05.03.2022
5000 Clouds 11 1009 84 10000 2.06 310 18:51 05.03.2022
5001 Rain 12 1009 83 8000 2.06 20 17:43 05.03.2022
5002 Clouds 13 1010 80 10000 3.6 140 16:26 05.03.2022
5003 Clouds 14 1010 74 10000 2.57 170 15:30 05.03.2022
5004 Clouds 14 1010 73 10000 3.09 150 14:44 05.03.2022
5005 Clouds 14 1011 72 10000 2.57 130 14:24 05.03.2022
5006 Clouds 13 1013 71 10000 2.06 250 12:59 05.03.2022
5007 Rain 13 1014 65 10000 2.06 220 11:43 05.03.2022
5008 Clouds 13 1013 61 10000 1.03 0 11:18 05.03.2022
5009 Clouds 12 1015 67 10000 2.06 230 09:58 05.03.2022
5010 Clouds 10 1014 71 10000 2.06 250 08:57 05.03.2022
5011 Clouds 10 1013 67 10000 3.6 310 07:37 05.03.2022
5012 Clouds 10 1014 62 10000 3.6 300 05:42 05.03.2022
5013 Clouds 10 1014 62 10000 3.6 300 05:42 05.03.2022
5014 Clear 11 1022 59 10000 3.6 310 02:20 05.03.2022
5015 Clouds 10 1017 59 10000 5.66 340 23:36 04.03.2022
5016 Clouds 11 1017 60 10000 5.66 350 22:42 04.03.2022
5017 Clouds 11 1017 60 10000 6.17 350 21:47 04.03.2022
5018 Clouds 11 1023 60 10000 5.14 20 20:51 04.03.2022
5019 Clouds 11 1019 60 10000 5.14 360 20:22 04.03.2022
5020 Clouds 12 1023 56 10000 10.8 350 19:35 04.03.2022
5021 Clouds 12 1018 54 10000 9.77 350 18:43 04.03.2022
5022 Clouds 13 1018 47 10000 12.86 350 17:31 04.03.2022
5023 Clouds 14 1018 45 10000 11.32 360 16:43 04.03.2022
5024 Clouds 15 1019 40 10000 13.38 350 15:28 04.03.2022
5025 Clouds 15 1019 42 10000 13.89 350 14:19 04.03.2022
5026 Clouds 14 1020 43 10000 11.32 350 13:26 04.03.2022
5027 Clouds 13 1021 50 10000 10.29 340 11:41 04.03.2022
5028 Clouds 12 1021 56 10000 9.77 340 10:42 04.03.2022
5029 Clouds 11 1020 60 10000 7.72 350 09:40 04.03.2022
5030 Clouds 10 1020 64 10000 7.72 340 08:36 04.03.2022
5031 Clouds 10 1018 62 10000 7.72 340 07:23 04.03.2022
5032 Clouds 10 1018 63 10000 6.17 350 03:50 04.03.2022
5033 Clouds 12 1024 62 10000 7.2 350 00:24 04.03.2022
5034 Clouds 11 1019 71 10000 11.83 350 22:26 03.03.2022
5035 Clouds 12 1023 67 10000 12.35 340 21:41 03.03.2022
5036 Clouds 12 1023 67 10000 12.35 340 21:21 03.03.2022
5037 Clouds 12 1017 66 10000 11.32 340 19:51 03.03.2022
5038 Clouds 13 1017 64 10000 11.83 340 18:54 03.03.2022
5039 Clouds 14 1017 63 10000 12.86 340 18:23 03.03.2022
5040 Clouds 14 1017 58 10000 11.32 330 17:30 03.03.2022
5041 Clouds 15 1017 53 10000 12.35 330 16:24 03.03.2022
5042 Clouds 15 1017 51 10000 12.86 330 15:21 03.03.2022
5043 Clouds 15 1017 51 10000 12.86 340 14:42 03.03.2022
5044 Clouds 15 1017 59 10000 11.32 340 13:24 03.03.2022
5045 Clouds 13 1017 72 10000 10.29 350 12:21 03.03.2022
5046 Clouds 12 1014 82 10000 11.32 340 10:47 03.03.2022
5047 Rain 13 1013 85 7000 7.2 260 09:38 03.03.2022
5048 Clouds 15 1014 89 10000 4.63 240 07:50 03.03.2022
5049 Clouds 14 1015 86 10000 4.63 230 06:37 03.03.2022
5050 Clouds 14 1015 77 10000 2.06 250 02:42 03.03.2022
5051 Clear 13 1019 77 10000 2.06 230 23:39 02.03.2022
5052 Clear 13 1019 75 10000 2.57 230 22:52 02.03.2022
5053 Clouds 13 1021 74 10000 4.63 300 21:35 02.03.2022
5054 Clear 13 1025 70 10000 5.14 300 20:55 02.03.2022
5055 Clear 14 1025 67 10000 5.66 300 20:24 02.03.2022
5056 Clear 14 1025 67 10000 5.66 300 20:24 02.03.2022
5057 Clear 14 1020 65 10000 4.12 300 19:37 02.03.2022
5058 Clear 15 1018 63 10000 4.63 310 18:54 02.03.2022
5059 Clouds 15 1020 61 10000 4.63 310 18:26 02.03.2022
5060 Clouds 16 1020 55 10000 5.14 310 17:36 02.03.2022
5061 Clouds 17 1020 52 10000 3.6 310 16:51 02.03.2022
5062 Clouds 17 1026 52 10000 4.12 310 14:59 02.03.2022
5063 Clouds 16 1027 54 10000 4.12 330 13:35 02.03.2022
5064 Clouds 15 1022 57 10000 3.6 340 12:45 02.03.2022
5065 Clouds 15 1021 57 10000 3.6 340 12:21 02.03.2022
5066 Clouds 15 1027 62 10000 2.57 310 11:26 02.03.2022
5067 Clouds 14 1027 66 10000 2.06 350 10:30 02.03.2022
5068 Clouds 14 1027 66 10000 2.06 350 10:30 02.03.2022
5069 Clouds 12 1021 78 10000 2.57 360 09:35 02.03.2022
5070 Clouds 10 1019 79 10000 2.57 340 08:28 02.03.2022
5071 Clear 10 1019 79 10000 0 0 07:23 02.03.2022
5072 Clear 12 1019 78 10000 3.09 340 04:46 02.03.2022
5073 Clouds 14 1020 83 10000 2.57 310 00:40 02.03.2022
5074 Clouds 14 1019 80 10000 1.79 26 23:24 01.03.2022
5075 Clouds 15 1019 82 10000 2.57 250 22:37 01.03.2022
5076 Clouds 15 1019 82 10000 4.12 260 21:37 01.03.2022
5077 Clouds 15 1021 81 10000 3.6 240 20:38 01.03.2022
5078 Clouds 15 1021 79 10000 3.6 240 20:19 01.03.2022
5079 Clouds 17 1020 70 10000 4.12 250 18:53 01.03.2022
5080 Clouds 17 1020 66 10000 4.12 250 18:22 01.03.2022
5081 Clouds 17 1024 65 10000 4.63 260 17:42 01.03.2022
5082 Clouds 18 1020 64 10000 6.69 230 16:36 01.03.2022
5083 Clouds 18 1020 65 10000 6.17 230 15:47 01.03.2022
5084 Clouds 18 1021 64 10000 5.66 230 14:54 01.03.2022
5085 Clouds 18 1021 64 10000 4.63 220 14:31 01.03.2022
5086 Clouds 17 1026 68 10000 3.6 200 13:26 01.03.2022
5087 Clouds 16 1022 73 10000 4.02 259 12:36 01.03.2022
5088 Clouds 15 1022 73 10000 1.54 80 11:35 01.03.2022
5089 Rain 13 1021 80 10000 1.54 140 09:52 01.03.2022
5090 Clear 12 1019 72 10000 2.06 270 08:25 01.03.2022
5091 Clear 12 1020 70 10000 1.54 280 06:47 01.03.2022
5092 Clear 12 1020 69 10000 1.03 0 03:27 01.03.2022
5093 Clear 13 1020 64 10000 0.51 0 00:48 01.03.2022
5094 Clear 13 1020 64 10000 0.51 0 23:46 28.02.2022
5095 Clear 14 1020 61 10000 3.6 320 22:43 28.02.2022
5096 Clear 15 1021 60 10000 4.12 320 21:48 28.02.2022
5097 Clear 15 1021 61 10000 5.14 310 20:54 28.02.2022
5098 Clear 16 1021 54 10000 4.12 260 19:51 28.02.2022
5099 Clear 18 1025 53 10000 4.63 270 18:56 28.02.2022
5100 Clear 19 1025 49 10000 4.12 270 17:43 28.02.2022
5101 Clouds 19 1025 48 10000 4.12 270 17:23 28.02.2022
5102 Clear 19 1025 47 10000 3.6 200 16:32 28.02.2022
5103 Clouds 19 1025 52 10000 3.09 220 15:19 28.02.2022
5104 Clear 18 1026 56 10000 2.57 360 14:29 28.02.2022
5105 Clear 16 1026 60 10000 3.09 10 13:24 28.02.2022
5106 Clear 15 1022 65 10000 3.09 60 12:29 28.02.2022
5107 Clear 13 1026 69 10000 4.12 30 11:20 28.02.2022
5108 Clear 12 1026 74 10000 3.09 50 10:23 28.02.2022
5109 Clear 13 1018 72 10000 2.57 30 09:53 28.02.2022
5110 Clear 10 1020 82 10000 2.57 340 09:24 28.02.2022
5111 Clear 10 1020 82 10000 2.57 340 09:24 28.02.2022
5112 Fog 9 1019 86 10000 3.09 350 08:22 28.02.2022
5113 Fog 9 1019 86 10000 3.09 350 08:22 28.02.2022
5114 Clear 10 1018 81 10000 2.06 70 06:44 28.02.2022
5115 Clear 11 1015 77 10000 2.57 320 04:31 28.02.2022
5116 Clear 12 1018 75 10000 3.6 320 01:42 28.02.2022
5117 Clear 13 1018 74 10000 4.12 330 23:18 27.02.2022
5118 Clear 13 1017 72 10000 4.12 320 22:33 27.02.2022
5119 Clear 13 1017 72 10000 4.63 320 21:46 27.02.2022
5120 Clear 13 1018 68 10000 5.66 360 20:54 27.02.2022
5121 Clear 14 1018 66 10000 5.66 360 20:25 27.02.2022
5122 Clear 14 1016 65 10000 6.17 360 19:50 27.02.2022
5123 Clear 15 1017 61 10000 6.69 360 19:26 27.02.2022
5124 Clouds 16 1022 58 10000 8.75 350 18:39 27.02.2022
5125 Clouds 17 1022 56 10000 7.72 350 17:53 27.02.2022
5126 Clouds 18 1017 50 10000 5.66 320 16:36 27.02.2022
5127 Clouds 18 1017 50 10000 3.6 330 15:42 27.02.2022
5128 Clouds 16 1018 61 10000 3.6 20 12:53 27.02.2022
5129 Clouds 16 1018 63 10000 4.12 10 12:29 27.02.2022
5130 Clear 14 1023 73 10000 4.63 360 10:50 27.02.2022
5131 Clear 13 1022 75 10000 4.12 10 09:58 27.02.2022
5132 Clear 12 1016 78 10000 4.12 20 09:29 27.02.2022
5133 Clear 11 1015 81 10000 4.63 10 08:59 27.02.2022
5134 Clouds 12 1015 79 10000 2.06 360 06:43 27.02.2022
5135 Clouds 12 1015 78 10000 4.12 320 05:35 27.02.2022
5136 Clouds 13 1012 78 10000 3.6 310 00:52 27.02.2022
5137 Clouds 13 1014 73 10000 4.12 330 22:56 26.02.2022
5138 Clouds 14 1013 72 10000 4.63 330 21:39 26.02.2022
5139 Clouds 14 1014 72 10000 4.63 310 20:48 26.02.2022
5140 Clouds 14 1014 72 10000 4.63 330 20:19 26.02.2022
5141 Clouds 15 1012 69 10000 5.14 350 19:41 26.02.2022
5142 Clouds 16 1011 62 10000 5.14 330 18:49 26.02.2022
5143 Clouds 17 1017 65 10000 4.12 360 17:42 26.02.2022
5144 Clouds 18 1013 60 10000 3.09 360 16:49 26.02.2022
5145 Clouds 17 1013 63 10000 4.12 250 15:49 26.02.2022
5146 Clouds 17 1013 63 10000 4.12 250 15:22 26.02.2022
5147 Clouds 17 1013 63 10000 3.6 320 14:53 26.02.2022
5148 Clouds 16 1013 64 10000 4.12 210 14:33 26.02.2022
5149 Clouds 16 1012 64 10000 2.06 80 13:19 26.02.2022
5150 Clouds 16 1014 66 10000 3.6 70 12:20 26.02.2022
5151 Clouds 14 1014 68 10000 4.12 60 11:28 26.02.2022
5152 Clouds 14 1012 69 10000 4.12 60 10:40 26.02.2022
5153 Clear 12 1011 72 10000 3.09 30 08:53 26.02.2022
5154 Clear 12 1011 71 10000 3.09 40 06:51 26.02.2022
5155 Clear 15 1010 59 10000 5.14 40 00:56 26.02.2022
5156 Clear 16 1011 49 10000 6.69 40 22:49 25.02.2022
5157 Clear 17 1013 50 10000 6.69 40 21:43 25.02.2022
5158 Clear 17 1012 52 10000 6.17 40 21:23 25.02.2022
5159 Clouds 17 1014 52 10000 7.2 40 20:32 25.02.2022
5160 Clouds 19 1013 47 10000 5.66 30 19:18 25.02.2022
5161 Clouds 20 1013 44 10000 6.69 40 17:29 25.02.2022
5162 Clouds 21 1013 42 10000 7.2 60 16:32 25.02.2022
5163 Clouds 20 1014 45 10000 5.14 60 15:47 25.02.2022
5164 Clouds 20 1014 45 10000 5.14 60 15:22 25.02.2022
5165 Clear 20 1014 46 10000 7.2 70 14:42 25.02.2022
5166 Clear 19 1015 47 10000 6.69 70 13:51 25.02.2022
5167 Clear 18 1015 47 10000 6.69 60 13:18 25.02.2022
5168 Clear 16 1016 55 10000 7.2 50 11:28 25.02.2022
5169 Clear 15 1014 56 10000 6.17 50 10:43 25.02.2022
5170 Clear 15 1014 58 10000 6.17 50 10:22 25.02.2022
5171 Clear 14 1013 63 10000 6.69 50 09:30 25.02.2022
5172 Clear 12 1013 73 10000 4.12 40 07:42 25.02.2022
5173 Clouds 13 1010 72 10000 3.09 40 05:58 25.02.2022
5174 Clouds 13 1010 72 10000 3.09 40 05:31 25.02.2022
5175 Clear 14 1011 73 10000 3.6 60 00:27 25.02.2022
5176 Clear 14 1015 75 10000 3.09 30 22:00 24.02.2022
5177 Clear 14 1015 74 10000 2.57 320 21:40 24.02.2022
5178 Clear 14 1015 73 10000 2.57 320 21:20 24.02.2022
5179 Clear 15 1015 70 10000 2.06 20 20:30 24.02.2022
5180 Rain 16 1014 65 10000 4.63 10 18:52 24.02.2022
5181 Rain 16 1014 66 10000 2.57 20 18:19 24.02.2022
5182 Clouds 16 1014 64 10000 3.6 20 17:42 24.02.2022
5183 Rain 16 1018 63 10000 3.09 50 16:56 24.02.2022
5184 Rain 16 1019 62 10000 3.09 60 16:25 24.02.2022
5185 Rain 16 1019 63 10000 3.09 90 15:30 24.02.2022
5186 Rain 16 1015 60 10000 4.12 20 14:37 24.02.2022
5187 Clear 15 1015 59 10000 5.14 30 13:42 24.02.2022
5188 Clear 15 1015 59 10000 5.14 30 13:24 24.02.2022
5189 Clear 13 1019 60 10000 4.12 10 10:43 24.02.2022
5190 Clear 12 1015 62 10000 3.6 30 09:41 24.02.2022
5191 Clear 12 1014 60 10000 3.09 40 08:42 24.02.2022
5192 Clear 12 1012 62 10000 3.09 30 06:25 24.02.2022
5193 Clear 12 1012 60 10000 3.6 50 05:36 24.02.2022
5194 Clear 14 1013 53 10000 1.54 50 00:30 24.02.2022
5195 Clear 15 1014 53 10000 3.6 20 21:56 23.02.2022
5196 Clear 16 1014 49 10000 2.57 340 20:43 23.02.2022
5197 Clear 17 1014 48 10000 2.57 340 20:19 23.02.2022
5198 Clear 18 1013 43 10000 2.57 10 19:23 23.02.2022
5199 Clear 20 1019 37 10000 4.12 360 17:56 23.02.2022
5200 Clear 19 1015 38 10000 3.09 350 16:18 23.02.2022
5201 Clear 17 1016 36 10000 5.14 20 13:36 23.02.2022
5202 Clear 16 1017 36 10000 5.14 40 12:31 23.02.2022
5203 Clear 14 1017 39 10000 3.6 40 10:56 23.02.2022
5204 Clear 13 1017 40 10000 3.09 50 09:38 23.02.2022
5205 Clear 13 1016 41 10000 4.12 30 08:54 23.02.2022
5206 Clear 14 1012 35 10000 2.57 60 07:47 23.02.2022
5207 Clear 15 1017 39 10000 3.09 10 02:31 23.02.2022
5208 Clear 16 1017 35 10000 4.63 30 23:50 22.02.2022
5209 Clear 16 1018 33 10000 4.63 30 23:31 22.02.2022
5210 Clear 18 1018 27 10000 4.12 30 22:28 22.02.2022
5211 Clear 17 1019 33 10000 4.12 20 21:44 22.02.2022
5212 Clear 17 1019 33 10000 4.63 30 21:21 22.02.2022
5213 Clear 18 1024 35 10000 4.63 20 20:41 22.02.2022
5214 Clear 18 1019 32 10000 4.63 20 20:22 22.02.2022
5215 Clear 21 1024 27 10000 3.09 40 19:34 22.02.2022
5216 Clear 23 1024 19 10000 4.63 40 18:42 22.02.2022
5217 Clear 24 1024 18 10000 4.12 70 17:35 22.02.2022
5218 Clear 24 1020 22 10000 5.14 60 16:57 22.02.2022
5219 Clear 24 1020 21 10000 5.14 60 16:22 22.02.2022
5220 Clear 23 1020 25 10000 6.17 70 15:31 22.02.2022
5221 Clear 21 1021 32 10000 6.17 60 14:33 22.02.2022
5222 Clear 16 1021 43 10000 6.17 60 11:39 22.02.2022
5223 Clear 13 1028 56 10000 5.66 60 09:48 22.02.2022
5224 Clear 11 1021 68 10000 3.6 20 07:40 22.02.2022
5225 Clear 11 1021 68 10000 3.6 20 07:19 22.02.2022
5226 Clear 12 1021 73 10000 2.06 70 02:51 22.02.2022
5227 Clear 13 1022 67 10000 3.6 320 23:48 21.02.2022
5228 Clear 14 1027 67 10000 4.12 330 22:37 21.02.2022
5229 Clear 14 1027 64 10000 5.66 10 21:23 21.02.2022
5230 Clear 16 1022 56 10000 5.14 340 19:36 21.02.2022
5231 Clear 18 1026 49 10000 5.66 350 18:39 21.02.2022
5232 Clear 19 1022 46 10000 6.69 330 16:38 21.02.2022
5233 Clear 19 1023 46 10000 5.14 20 14:24 21.02.2022
5234 Clear 19 1024 48 10000 5.66 360 13:55 21.02.2022
5235 Clear 17 1024 52 10000 7.72 360 12:57 21.02.2022
5236 Clear 16 1025 55 10000 7.72 360 12:21 21.02.2022
5237 Clear 13 1025 70 10000 8.23 360 10:32 21.02.2022
5238 Clear 11 1020 75 10000 4.63 340 07:52 21.02.2022
5239 Clear 12 1024 75 10000 3.6 360 00:56 21.02.2022
5240 Clear 13 1023 63 10000 5.66 330 22:40 20.02.2022
5241 Clear 13 1024 59 10000 6.17 330 21:54 20.02.2022
5242 Clear 14 1024 54 10000 6.17 330 21:25 20.02.2022
5243 Clear 14 1024 54 10000 6.17 330 20:50 20.02.2022
5244 Clear 15 1023 50 10000 6.69 360 19:59 20.02.2022
5245 Clear 18 1028 40 10000 6.69 350 18:58 20.02.2022
5246 Clear 18 1028 40 10000 6.69 350 18:58 20.02.2022
5247 Clear 18 1027 38 10000 7.2 350 18:37 20.02.2022
5248 Clear 18 1028 35 10000 7.2 350 17:56 20.02.2022
5249 Clear 19 1023 33 10000 7.72 350 17:30 20.02.2022
5250 Clear 19 1024 31 10000 6.17 360 15:29 20.02.2022
5251 Clear 18 1024 35 10000 5.66 360 14:20 20.02.2022
5252 Clear 17 1024 35 10000 6.17 50 12:51 20.02.2022
5253 Clear 15 1023 35 10000 5.66 40 11:56 20.02.2022
5254 Clear 12 1029 46 10000 6.69 30 10:21 20.02.2022
5255 Clear 12 1023 44 10000 6.17 10 09:51 20.02.2022
5256 Clear 10 1021 59 10000 3.6 40 06:44 20.02.2022
5257 Clear 11 1019 68 10000 6.69 340 00:33 20.02.2022
5258 Clear 11 1021 65 10000 7.2 330 23:39 19.02.2022
5259 Clear 11 1022 64 10000 8.75 360 22:25 19.02.2022
5260 Clear 11 1022 63 10000 8.75 360 21:52 19.02.2022
5261 Clear 11 1021 61 10000 9.26 360 20:48 19.02.2022
5262 Clouds 12 1020 56 10000 10.8 340 19:36 19.02.2022
5263 Clear 13 1024 52 10000 10.29 350 18:41 19.02.2022
5264 Clear 14 1019 50 10000 12.35 350 17:59 19.02.2022
5265 Clear 14 1017 47 10000 13.89 350 17:33 19.02.2022
5266 Clouds 15 1017 45 10000 12.35 350 15:59 19.02.2022
5267 Clouds 15 1019 45 10000 11.32 350 14:56 19.02.2022
5268 Clouds 14 1020 47 10000 13.89 360 13:58 19.02.2022
5269 Clouds 13 1020 55 10000 12.35 340 11:58 19.02.2022
5270 Clouds 12 1020 56 10000 13.38 360 11:36 19.02.2022
5271 Clouds 11 1018 63 10000 11.83 360 09:27 19.02.2022
5272 Clouds 10 1016 62 10000 9.77 350 06:51 19.02.2022
5273 Clouds 11 1014 63 10000 5.66 350 00:55 19.02.2022
5274 Clouds 12 1022 68 10000 10.29 360 22:41 18.02.2022
5275 Clouds 12 1022 69 10000 7.72 360 21:28 18.02.2022
5276 Clouds 12 1017 71 10000 9.77 350 20:31 18.02.2022
5277 Clouds 12 1016 74 10000 8.75 350 19:51 18.02.2022
5278 Clouds 13 1016 77 10000 10.8 350 18:39 18.02.2022
5279 Clouds 14 1016 77 10000 10.8 350 18:19 18.02.2022
5280 Clouds 16 1015 67 10000 6.17 330 17:20 18.02.2022
5281 Clouds 17 1016 60 10000 5.66 340 14:39 18.02.2022
5282 Clouds 16 1017 65 10000 6.17 350 13:47 18.02.2022
5283 Clouds 16 1017 67 10000 6.17 340 12:51 18.02.2022
5284 Clouds 15 1017 72 10000 5.14 350 11:58 18.02.2022
5285 Drizzle 14 1017 82 10000 5.14 340 10:58 18.02.2022
5286 Drizzle 13 1017 85 4000 1.54 250 09:29 18.02.2022
5287 Clouds 13 1015 82 10000 2.06 330 06:50 18.02.2022
5288 Clouds 13 1015 82 10000 3.09 350 05:37 18.02.2022
5289 Clouds 14 1018 80 10000 5.14 330 22:46 17.02.2022
5290 Clouds 14 1018 79 10000 4.63 320 21:43 17.02.2022
5291 Clouds 14 1020 79 10000 4.63 310 20:52 17.02.2022
5292 Clouds 14 1020 79 10000 4.12 320 20:34 17.02.2022
5293 Clouds 14 1018 77 10000 4.63 360 19:43 17.02.2022
5294 Clouds 16 1020 72 10000 5.14 340 18:37 17.02.2022
5295 Clouds 16 1020 71 10000 5.14 350 17:47 17.02.2022
5296 Clouds 17 1021 69 10000 4.12 330 16:20 17.02.2022
5297 Clouds 17 1022 67 10000 3.09 320 14:57 17.02.2022
5298 Clouds 17 1023 67 10000 3.09 320 14:19 17.02.2022
5299 Clouds 16 1024 74 10000 4.12 40 11:59 17.02.2022
5300 Clouds 15 1024 77 10000 4.12 20 11:21 17.02.2022
5301 Clouds 13 1023 82 10000 1.54 330 08:38 17.02.2022
5302 Drizzle 14 1026 82 10000 3.6 310 00:29 17.02.2022
5303 Clouds 14 1026 76 10000 2.06 320 22:39 16.02.2022
5304 Clouds 14 1028 75 10000 3.6 340 20:46 16.02.2022
5305 Clouds 15 1032 71 10000 3.09 340 19:42 16.02.2022
5306 Clouds 16 1025 66 10000 4.63 330 18:36 16.02.2022
5307 Clouds 16 1031 65 10000 4.63 320 17:37 16.02.2022
5308 Clouds 16 1027 64 10000 4.12 310 15:30 16.02.2022
5309 Clouds 16 1027 66 10000 5.14 320 14:57 16.02.2022
5310 Clouds 15 1027 69 10000 3.09 340 12:35 16.02.2022
5311 Clouds 15 1029 73 10000 3.09 320 11:53 16.02.2022
5312 Clouds 14 1029 75 10000 2.57 300 11:23 16.02.2022
5313 Clouds 13 1033 81 10000 1.54 270 10:29 16.02.2022
5314 Clouds 10 1025 83 10000 1.03 290 06:57 16.02.2022
5315 Clouds 10 1025 81 10000 2.06 270 04:43 16.02.2022
5316 Clouds 11 1026 71 10000 2.06 330 23:44 15.02.2022
5317 Clouds 12 1026 68 10000 2.06 340 22:19 15.02.2022
5318 Clouds 12 1027 66 10000 3.09 330 21:45 15.02.2022
5319 Clouds 12 1027 65 10000 3.09 330 21:27 15.02.2022
5320 Clouds 13 1026 63 10000 4.12 330 20:55 15.02.2022
5321 Clouds 13 1026 60 10000 3.6 320 19:55 15.02.2022
5322 Clouds 14 1026 54 10000 5.14 330 18:52 15.02.2022
5323 Clouds 15 1024 51 10000 6.69 340 18:20 15.02.2022
5324 Clouds 15 1025 48 10000 5.14 330 17:48 15.02.2022
5325 Clouds 16 1029 46 10000 5.14 340 16:32 15.02.2022
5326 Clouds 16 1026 47 10000 5.14 340 15:22 15.02.2022
5327 Clouds 15 1032 54 10000 3.6 330 13:26 15.02.2022
5328 Clouds 14 1027 63 10000 3.6 10 11:57 15.02.2022
5329 Clouds 12 1031 73 10000 2.06 20 10:59 15.02.2022
5330 Clouds 8 1026 83 10000 3.09 20 09:28 15.02.2022
5331 Clear 8 1026 82 10000 2.57 310 06:50 15.02.2022
5332 Clear 10 1025 76 10000 2.06 290 02:36 15.02.2022
5333 Clear 11 1024 70 10000 3.09 320 22:36 14.02.2022
5334 Clouds 12 1024 68 10000 3.09 320 21:35 14.02.2022
5335 Clouds 12 1023 66 10000 3.6 330 20:30 14.02.2022
5336 Clouds 13 1023 61 10000 5.14 350 19:32 14.02.2022
5337 Clouds 14 1025 59 10000 4.63 310 18:42 14.02.2022
5338 Clouds 15 1022 55 10000 5.66 330 17:58 14.02.2022
5339 Clouds 15 1025 53 10000 5.66 340 17:25 14.02.2022
5340 Clouds 15 1024 49 10000 6.69 330 16:19 14.02.2022
5341 Clouds 15 1022 53 10000 6.17 340 14:29 14.02.2022
5342 Clouds 15 1022 56 10000 6.69 340 13:31 14.02.2022
5343 Clouds 14 1022 60 10000 4.12 340 12:48 14.02.2022
5344 Clouds 14 1022 64 10000 5.66 350 11:54 14.02.2022
5345 Clouds 13 1021 70 10000 2.06 320 10:44 14.02.2022
5346 Clouds 10 1020 80 10000 3.09 360 08:45 14.02.2022
5347 Clouds 11 1018 79 10000 2.06 280 07:31 14.02.2022
5348 Clouds 12 1017 80 10000 2.57 310 02:27 14.02.2022
5349 Clouds 13 1016 82 10000 3.09 310 22:42 13.02.2022
5350 Clouds 14 1016 84 10000 3.09 280 22:24 13.02.2022
5351 Clouds 14 1016 87 10000 4.12 260 21:32 13.02.2022
5352 Clouds 14 1016 90 7000 6.17 250 20:36 13.02.2022
5353 Drizzle 14 1016 88 4000 5.66 220 19:45 13.02.2022
5354 Mist 14 1016 85 3500 6.17 220 18:49 13.02.2022
5355 Mist 14 1018 82 5000 6.69 230 18:28 13.02.2022
5356 Clouds 15 1016 71 10000 7.2 200 16:34 13.02.2022
5357 Clouds 15 1017 68 10000 5.81 293 15:25 13.02.2022
5358 Rain 15 1018 68 10000 5.66 210 14:36 13.02.2022
5359 Clouds 15 1019 65 10000 6.26 258 12:51 13.02.2022
5360 Clouds 14 1019 67 10000 4.92 225 11:58 13.02.2022
5361 Clouds 13 1019 76 10000 1.54 220 10:35 13.02.2022
5362 Clouds 11 1019 85 10000 1.54 210 09:47 13.02.2022
5363 Clouds 9 1017 86 10000 1.54 130 07:52 13.02.2022
5364 Clear 11 1020 77 10000 2.06 330 00:36 13.02.2022
5365 Clear 12 1020 77 10000 4.12 320 23:54 12.02.2022
5366 Clouds 12 1020 76 10000 3.6 310 22:33 12.02.2022
5367 Clouds 13 1020 75 10000 3.09 290 21:36 12.02.2022
5368 Clouds 13 1020 75 10000 3.09 300 20:52 12.02.2022
5369 Clouds 14 1020 72 10000 3.6 260 19:48 12.02.2022
5370 Clouds 15 1020 69 10000 3.6 300 18:53 12.02.2022
5371 Clouds 15 1020 67 10000 3.6 250 18:35 12.02.2022
5372 Clouds 16 1020 67 10000 4.63 210 17:37 12.02.2022
5373 Clouds 16 1020 65 10000 4.92 273 16:43 12.02.2022
5374 Clouds 16 1020 66 10000 4.12 260 15:52 12.02.2022
5375 Clouds 16 1019 68 10000 3.6 200 15:20 12.02.2022
5376 Clouds 16 1024 71 10000 3.09 210 14:25 12.02.2022
5377 Clouds 16 1024 71 10000 3.09 210 14:25 12.02.2022
5378 Clouds 14 1022 85 10000 1.03 0 11:26 12.02.2022
5379 Clouds 13 1022 89 10000 2.06 20 10:29 12.02.2022
5380 Fog 12 1021 89 8000 2.57 340 09:36 12.02.2022
5381 Fog 12 1020 88 8000 2.06 50 08:46 12.02.2022
5382 Clouds 12 1019 87 7000 0.51 120 06:52 12.02.2022
5383 Clouds 13 1018 84 9000 0.89 340 04:44 12.02.2022
5384 Clouds 13 1020 83 10000 1.54 160 02:19 12.02.2022
5385 Clear 14 1021 75 10000 2.06 0 23:21 11.02.2022
5386 Clear 15 1019 66 10000 1.03 0 22:21 11.02.2022
5387 Clear 15 1021 69 10000 2.57 250 21:32 11.02.2022
5388 Clear 16 1022 67 10000 3.6 260 20:26 11.02.2022
5389 Clear 16 1021 66 10000 3.6 240 19:28 11.02.2022
5390 Clear 17 1021 62 10000 3.6 240 18:41 11.02.2022
5391 Clear 19 1021 54 10000 4.12 240 17:27 11.02.2022
5392 Clouds 19 1024 55 10000 3.6 210 16:40 11.02.2022
5393 Clouds 20 1025 53 10000 3.09 130 15:19 11.02.2022
5394 Clouds 19 1026 56 10000 2.06 90 14:37 11.02.2022
5395 Clouds 19 1026 56 10000 2.06 90 14:19 11.02.2022
5396 Clouds 18 1026 60 10000 3.6 200 13:44 11.02.2022
5397 Clouds 18 1026 59 10000 2.06 300 13:25 11.02.2022
5398 Clear 15 1026 72 10000 1.54 40 10:59 11.02.2022
5399 Fog 13 1023 81 10000 3.09 310 09:37 11.02.2022
5400 Clear 12 1023 82 10000 2.06 20 08:35 11.02.2022
5401 Clear 13 1022 77 10000 3.09 20 07:46 11.02.2022
5402 Clear 13 1022 77 10000 3.09 20 07:46 11.02.2022
5403 Clear 13 1021 76 10000 2.57 340 06:24 11.02.2022
5404 Clear 15 1021 70 10000 1.54 350 02:22 11.02.2022
5405 Clear 15 1022 68 10000 1.03 0 23:48 10.02.2022
5406 Rain 15 1023 69 10000 3.09 300 22:33 10.02.2022
5407 Rain 15 1023 71 10000 3.09 330 21:42 10.02.2022
5408 Clear 15 1023 71 10000 1.54 320 20:50 10.02.2022
5409 Clear 15 1024 73 10000 2.06 40 19:58 10.02.2022
5410 Clear 15 1024 73 10000 2.06 40 19:23 10.02.2022
5411 Clear 16 1023 69 10000 1.03 0 18:33 10.02.2022
5412 Clear 16 1023 68 10000 1.79 272 17:23 10.02.2022
5413 Clear 17 1023 66 10000 2.06 0 16:43 10.02.2022
5414 Rain 17 1024 62 10000 3.09 240 15:42 10.02.2022
5415 Clear 17 1024 64 10000 2.57 230 15:24 10.02.2022
5416 Clear 17 1024 61 10000 3.09 350 14:35 10.02.2022
5417 Clear 17 1024 59 10000 2.57 220 13:59 10.02.2022
5418 Clear 16 1024 61 10000 2.06 80 13:19 10.02.2022
5419 Clear 13 1024 67 10000 2.57 80 11:57 10.02.2022
5420 Clear 13 1028 68 10000 2.06 50 11:32 10.02.2022
5421 Clear 11 1024 76 10000 3.6 20 10:32 10.02.2022
5422 Clear 11 1023 75 10000 2.06 60 09:46 10.02.2022
5423 Clear 10 1022 78 10000 2.57 60 08:42 10.02.2022
5424 Clear 10 1023 80 10000 2.57 20 06:34 10.02.2022
5425 Clear 11 1022 75 10000 1.03 60 03:33 10.02.2022
5426 Clear 12 1023 73 10000 1.54 350 01:18 10.02.2022
5427 Clear 13 1024 71 10000 1.03 350 00:41 10.02.2022
5428 Clear 13 1024 69 10000 1.54 40 00:23 10.02.2022
5429 Clear 13 1024 67 10000 1.54 360 22:57 09.02.2022
5430 Clear 13 1024 68 10000 1.54 350 22:33 09.02.2022
5431 Clear 14 1024 66 10000 1.54 360 21:48 09.02.2022
5432 Clear 14 1024 66 10000 1.54 270 21:28 09.02.2022
5433 Clear 14 1024 64 10000 2.06 280 20:45 09.02.2022
5434 Clear 14 1024 63 10000 2.06 280 20:23 09.02.2022
5435 Clear 16 1024 58 10000 2.06 270 19:42 09.02.2022
5436 Clear 18 1024 52 10000 2.06 360 18:55 09.02.2022
5437 Clear 19 1024 49 10000 2.57 350 17:24 09.02.2022
5438 Clear 19 1027 52 10000 3.6 140 16:25 09.02.2022
5439 Clear 19 1024 51 10000 4.12 360 15:27 09.02.2022
5440 Clear 16 1025 59 10000 3.6 20 13:32 09.02.2022
5441 Clear 13 1026 72 10000 4.12 20 11:52 09.02.2022
5442 Clear 12 1024 76 10000 2.57 60 10:37 09.02.2022
5443 Clouds 10 1025 83 10000 3.6 40 09:56 09.02.2022
5444 Clouds 10 1025 83 10000 3.6 40 09:22 09.02.2022
5445 Clouds 10 1025 83 10000 4.12 30 08:51 09.02.2022
5446 Clear 10 1023 78 10000 4.12 40 06:56 09.02.2022
5447 Clear 10 1023 75 10000 2.57 70 04:36 09.02.2022
5448 Clear 10 1023 75 10000 1.54 10 03:49 09.02.2022
5449 Clear 13 1023 66 10000 1.54 320 23:57 08.02.2022
5450 Clear 14 1022 60 10000 1.54 320 23:19 08.02.2022
5451 Clear 14 1023 63 10000 3.09 320 22:39 08.02.2022
5452 Clear 14 1023 63 10000 3.09 320 22:20 08.02.2022
5453 Clear 14 1023 59 10000 1.54 290 21:22 08.02.2022
5454 Clear 15 1023 59 10000 2.06 250 20:59 08.02.2022
5455 Clear 15 1022 58 10000 2.06 250 20:41 08.02.2022
5456 Clear 16 1024 55 10000 2.06 300 19:31 08.02.2022
5457 Clear 19 1025 43 10000 2.06 240 18:24 08.02.2022
5458 Clear 19 1025 45 10000 4.63 190 17:30 08.02.2022
5459 Clear 19 1022 39 10000 3.6 360 15:52 08.02.2022
5460 Clear 19 1022 40 10000 3.6 360 15:28 08.02.2022
5461 Clear 17 1023 42 10000 4.12 10 13:50 08.02.2022
5462 Clear 15 1024 41 10000 4.63 70 12:39 08.02.2022
5463 Clear 14 1022 43 10000 5.66 60 10:55 08.02.2022
5464 Clear 13 1022 46 10000 4.63 50 09:50 08.02.2022
5465 Clear 12 1021 47 10000 4.12 50 08:54 08.02.2022
5466 Clear 12 1020 48 10000 3.6 20 06:50 08.02.2022
5467 Clear 12 1021 51 10000 4.63 30 04:40 08.02.2022
5468 Clear 13 1020 46 10000 2.57 30 04:22 08.02.2022
5469 Clear 13 1020 47 10000 2.57 30 03:36 08.02.2022
5470 Clear 13 1020 48 10000 2.57 30 03:18 08.02.2022
5471 Clear 13 1020 49 10000 1.03 0 02:59 08.02.2022
5472 Clear 13 1021 48 10000 2.06 40 02:36 08.02.2022
5473 Clear 12 1021 48 10000 2.06 40 02:18 08.02.2022
5474 Clear 13 1021 46 10000 2.57 20 01:45 08.02.2022
5475 Clear 13 1021 43 10000 2.57 10 01:25 08.02.2022
5476 Clear 13 1022 48 10000 2.57 360 00:55 08.02.2022
5477 Clear 13 1022 47 10000 3.6 350 00:32 08.02.2022
5478 Clear 14 1022 45 10000 3.6 340 23:45 07.02.2022
5479 Clear 14 1022 46 10000 3.6 330 23:18 07.02.2022
5480 Clear 14 1022 45 10000 3.6 20 22:59 07.02.2022
5481 Clear 14 1023 45 10000 3.6 340 22:19 07.02.2022
5482 Clear 15 1023 45 10000 4.12 350 21:51 07.02.2022
5483 Clear 15 1022 45 10000 4.63 20 21:28 07.02.2022
5484 Clear 16 1022 45 10000 4.12 350 20:47 07.02.2022
5485 Clear 16 1022 44 10000 4.12 10 20:29 07.02.2022
5486 Clear 17 1022 44 10000 3.6 340 19:47 07.02.2022
5487 Clear 19 1025 42 10000 4.12 30 18:40 07.02.2022
5488 Clear 20 1025 37 10000 6.17 40 17:33 07.02.2022
5489 Clear 19 1023 42 10000 5.66 40 16:52 07.02.2022
5490 Clear 19 1023 41 10000 4.12 360 15:48 07.02.2022
5491 Clear 18 1023 42 10000 4.12 50 14:30 07.02.2022
5492 Clear 16 1026 46 10000 4.63 50 13:27 07.02.2022
5493 Clear 15 1025 44 10000 3.09 60 12:36 07.02.2022
5494 Clear 14 1025 43 10000 2.57 60 11:50 07.02.2022
5495 Clear 13 1025 42 10000 4.12 50 11:24 07.02.2022
5496 Clear 13 1025 42 10000 3.09 50 10:42 07.02.2022
5497 Clear 12 1029 45 10000 3.6 40 10:24 07.02.2022
5498 Clear 10 1026 50 10000 2.57 50 09:52 07.02.2022
5499 Clear 9 1026 54 10000 3.6 30 09:18 07.02.2022
5500 Clear 10 1023 50 10000 2.57 20 07:58 07.02.2022
5501 Clear 10 1024 52 10000 2.57 360 06:34 07.02.2022
5502 Clear 10 1024 55 10000 2.57 360 05:18 07.02.2022
5503 Clear 10 1025 60 10000 1.03 10 02:38 07.02.2022
5504 Clear 12 1024 54 10000 2.57 340 00:29 07.02.2022
5505 Clear 12 1024 55 10000 3.6 340 23:33 06.02.2022
5506 Clear 13 1025 59 10000 3.6 350 22:45 06.02.2022
5507 Clear 13 1024 59 10000 4.63 330 21:47 06.02.2022
5508 Clear 13 1024 57 10000 5.66 330 21:21 06.02.2022
5509 Clear 13 1024 57 10000 5.66 330 21:21 06.02.2022
5510 Clear 13 1024 57 10000 5.66 330 21:21 06.02.2022
5511 Clear 14 1024 52 10000 4.63 330 20:48 06.02.2022
5512 Clear 14 1024 51 10000 4.12 330 20:24 06.02.2022
5513 Clear 16 1024 49 10000 4.12 30 19:30 06.02.2022
5514 Clear 17 1027 45 10000 3.6 20 18:34 06.02.2022
5515 Clear 18 1024 35 10000 5.66 20 17:54 06.02.2022
5516 Clear 19 1024 37 10000 3.6 60 16:52 06.02.2022
5517 Clear 19 1024 37 10000 3.6 60 16:30 06.02.2022
5518 Clear 18 1024 40 10000 3.6 50 15:47 06.02.2022
5519 Clear 18 1024 41 10000 3.09 50 15:25 06.02.2022
5520 Clear 17 1025 45 10000 2.57 50 14:25 06.02.2022
5521 Clear 15 1025 44 10000 3.6 50 13:24 06.02.2022
5522 Clear 14 1025 44 10000 4.63 40 12:34 06.02.2022
5523 Clear 12 1025 53 10000 5.14 30 10:43 06.02.2022
5524 Clear 10 1024 59 10000 3.6 30 09:48 06.02.2022
5525 Clear 9 1024 65 10000 1.54 10 08:47 06.02.2022
5526 Clear 9 1022 67 10000 2.57 320 07:36 06.02.2022
5527 Clear 10 1022 65 10000 3.09 330 05:29 06.02.2022
5528 Clear 12 1021 65 10000 3.6 330 02:26 06.02.2022
5529 Clear 11 1022 69 10000 4.63 340 01:21 06.02.2022
5530 Clear 12 1022 67 10000 5.66 330 00:24 06.02.2022
5531 Clear 12 1021 69 10000 6.17 340 22:18 05.02.2022
5532 Clear 13 1022 73 10000 6.17 330 20:52 05.02.2022
5533 Clear 13 1022 73 10000 5.14 320 20:24 05.02.2022
5534 Clouds 13 1022 70 10000 6.17 330 19:45 05.02.2022
5535 Clouds 14 1021 66 10000 6.17 330 18:49 05.02.2022
5536 Clouds 15 1021 62 10000 5.66 310 17:37 05.02.2022
5537 Clouds 16 1024 60 10000 5.66 320 16:37 05.02.2022
5538 Clouds 16 1021 58 10000 6.69 350 15:33 05.02.2022
5539 Clouds 16 1022 59 10000 7.2 350 14:40 05.02.2022
5540 Clouds 15 1023 63 10000 8.23 340 12:46 05.02.2022
5541 Clouds 14 1023 68 10000 6.69 330 11:49 05.02.2022
5542 Clouds 13 1023 72 10000 3.09 330 10:46 05.02.2022
5543 Clouds 12 1023 79 10000 2.57 310 09:52 05.02.2022
5544 Clouds 11 1023 81 10000 3.09 340 09:25 05.02.2022
5545 Clouds 11 1020 81 10000 5.66 330 07:38 05.02.2022
5546 Clouds 11 1021 82 10000 4.12 330 06:56 05.02.2022
5547 Clouds 11 1022 82 10000 3.6 350 03:55 05.02.2022
5548 Clouds 12 1021 78 10000 1.54 310 01:19 05.02.2022
5549 Clear 12 1022 78 10000 2.06 330 00:42 05.02.2022
5550 Clear 12 1022 75 10000 2.57 330 23:38 04.02.2022
5551 Clear 12 1022 74 10000 2.57 330 23:20 04.02.2022
5552 Clouds 13 1022 74 10000 3.09 340 21:37 04.02.2022
5553 Clouds 13 1022 74 10000 3.09 340 21:18 04.02.2022
5554 Clouds 14 1022 74 10000 2.57 340 20:50 04.02.2022
5555 Clouds 14 1022 72 10000 4.12 340 19:33 04.02.2022
5556 Clouds 16 1021 66 10000 3.6 310 17:27 04.02.2022
5557 Clouds 16 1021 64 10000 4.12 340 15:39 04.02.2022
5558 Clouds 16 1022 66 10000 3.6 340 14:52 04.02.2022
5559 Mist 15 1023 72 10000 3.09 330 12:43 04.02.2022
5560 Mist 14 1022 78 10000 1.54 320 11:47 04.02.2022
5561 Fog 13 1021 83 10000 0 0 11:22 04.02.2022
5562 Fog 12 1021 85 10000 0.51 0 10:32 04.02.2022
5563 Fog 11 1021 86 10000 1.03 0 08:34 04.02.2022
5564 Clear 12 1019 82 10000 1.54 260 05:23 04.02.2022
5565 Clear 11 1019 83 10000 1.03 0 02:40 04.02.2022
5566 Clear 12 1024 81 10000 0 0 00:31 04.02.2022
5567 Clear 12 1024 81 10000 0 0 23:21 03.02.2022
5568 Clear 13 1020 81 10000 0.51 0 22:26 03.02.2022
5569 Clear 13 1024 81 10000 1.54 320 21:47 03.02.2022
5570 Clear 13 1019 79 10000 2.06 300 20:27 03.02.2022
5571 Clouds 14 1019 77 10000 2.57 300 19:59 03.02.2022
5572 Clouds 14 1019 76 10000 2.57 330 19:26 03.02.2022
5573 Clouds 15 1019 74 10000 3.09 300 18:28 03.02.2022
5574 Clouds 15 1019 70 10000 1.03 0 17:32 03.02.2022
5575 Clouds 15 1019 71 10000 1.54 90 15:53 03.02.2022
5576 Clouds 15 1020 69 10000 1.03 0 14:26 03.02.2022
5577 Fog 14 1021 74 10000 1.54 80 12:40 03.02.2022
5578 Fog 11 1019 88 6000 1.54 70 10:36 03.02.2022
5579 Clouds 10 1016 87 9000 1.54 290 08:23 03.02.2022
5580 Clear 12 1016 80 10000 3.09 300 03:28 03.02.2022
5581 Clear 11 1016 70 10000 0.51 0 00:30 03.02.2022
5582 Clear 13 1019 69 10000 3.09 320 22:55 02.02.2022
5583 Clear 13 1020 66 10000 2.06 290 21:53 02.02.2022
5584 Clear 13 1020 65 10000 4.12 320 21:30 02.02.2022
5585 Clear 14 1017 61 10000 2.57 270 20:33 02.02.2022
5586 Clear 14 1018 62 10000 3.09 260 19:51 02.02.2022
5587 Clear 15 1018 59 10000 2.57 250 19:26 02.02.2022
5588 Clear 15 1018 55 10000 1.54 150 18:34 02.02.2022
5589 Clear 17 1025 51 10000 2.06 130 17:38 02.02.2022
5590 Clear 18 1025 46 10000 2.06 130 17:19 02.02.2022
5591 Clear 18 1025 48 10000 2.06 80 16:30 02.02.2022
5592 Clear 14 1023 53 10000 2.06 60 12:55 02.02.2022
5593 Clear 13 1023 56 10000 2.06 50 12:18 02.02.2022
5594 Clear 12 1027 58 10000 3.09 50 11:31 02.02.2022
5595 Clear 10 1021 64 10000 1.54 50 09:46 02.02.2022
5596 Clear 10 1019 67 10000 2.06 50 07:32 02.02.2022
5597 Clear 13 1021 54 10000 1.03 330 22:46 01.02.2022
5598 Clear 15 1021 45 10000 0 0 21:40 01.02.2022
5599 Clear 16 1022 43 10000 1.54 10 19:58 01.02.2022
5600 Clear 18 1026 36 10000 3.6 40 17:41 01.02.2022
5601 Clear 18 1022 35 10000 3.6 50 16:36 01.02.2022
5602 Clear 15 1025 41 10000 3.6 60 13:32 01.02.2022
5603 Clear 14 1025 42 10000 4.63 60 12:42 01.02.2022
5604 Clear 13 1025 44 10000 5.14 40 11:19 01.02.2022
5605 Clear 10 1021 71 10000 2.57 20 02:34 01.02.2022
5606 Clear 11 1023 73 10000 7.2 310 23:41 31.01.2022
5607 Clear 12 1023 74 10000 6.17 320 22:57 31.01.2022
5608 Clear 13 1024 59 10000 4.63 310 21:39 31.01.2022
5609 Clear 13 1024 62 10000 5.14 310 20:50 31.01.2022
5610 Clear 14 1024 64 10000 4.12 310 20:27 31.01.2022
5611 Clear 14 1024 69 10000 5.14 310 19:20 31.01.2022
5612 Clear 17 1024 55 10000 4.12 320 18:25 31.01.2022
5613 Clear 18 1024 50 10000 4.63 340 17:26 31.01.2022
5614 Clear 19 1024 45 10000 4.63 330 16:26 31.01.2022
5615 Clear 18 1029 49 10000 4.63 330 14:54 31.01.2022
5616 Clear 18 1025 45 10000 1.03 0 13:52 31.01.2022
5617 Clear 16 1026 49 10000 1.54 90 12:38 31.01.2022
5618 Clear 14 1026 57 10000 1.03 0 11:47 31.01.2022
5619 Clear 11 1025 67 10000 0 0 10:50 31.01.2022
5620 Clear 11 1029 69 10000 0.51 0 10:25 31.01.2022
5621 Clear 9 1025 72 10000 0 0 09:23 31.01.2022
5622 Clear 10 1023 69 10000 1.54 50 08:47 31.01.2022
5623 Clear 11 1023 65 10000 3.09 340 08:20 31.01.2022
5624 Clear 12 1020 43 10000 3.6 350 06:18 31.01.2022
5625 Clear 12 1022 48 10000 1.03 0 00:46 31.01.2022
5626 Clear 13 1021 46 10000 2.57 340 22:55 30.01.2022
5627 Clear 13 1019 40 10000 1.54 310 22:25 30.01.2022
5628 Clear 13 1021 45 10000 1.54 320 21:40 30.01.2022
5629 Clear 14 1019 40 10000 2.06 330 21:18 30.01.2022
5630 Clear 14 1022 43 10000 2.57 350 20:46 30.01.2022
5631 Clear 14 1022 44 10000 2.57 350 20:27 30.01.2022
5632 Clear 14 1022 46 10000 2.57 20 19:45 30.01.2022
5633 Clear 16 1022 46 10000 2.06 60 18:43 30.01.2022
5634 Clear 16 1022 40 10000 2.06 60 18:18 30.01.2022
5635 Clear 18 1022 32 10000 2.06 60 17:22 30.01.2022
5636 Clear 18 1022 26 10000 2.57 70 16:40 30.01.2022
5637 Clear 18 1026 28 10000 2.57 70 16:21 30.01.2022
5638 Clear 18 1020 25 10000 3.09 80 15:50 30.01.2022
5639 Clear 18 1020 28 10000 2.57 60 15:31 30.01.2022
5640 Clear 17 1022 35 10000 2.57 40 14:46 30.01.2022
5641 Clear 14 1024 38 10000 2.57 50 12:47 30.01.2022
5642 Clear 13 1022 35 10000 3.6 60 11:57 30.01.2022
5643 Clear 11 1022 38 10000 4.12 50 10:36 30.01.2022
5644 Clear 11 1022 39 10000 2.57 50 09:51 30.01.2022
5645 Clear 11 1021 39 10000 3.09 60 08:55 30.01.2022
5646 Clear 11 1019 38 10000 2.57 60 07:28 30.01.2022
5647 Clear 14 1020 31 10000 3.09 50 01:56 30.01.2022
5648 Clear 13 1022 40 10000 4.12 50 00:34 30.01.2022
5649 Clear 14 1022 41 10000 4.12 20 23:20 29.01.2022
5650 Clear 15 1020 38 10000 3.6 40 21:50 29.01.2022
5651 Clear 15 1020 38 10000 3.6 40 21:24 29.01.2022
5652 Clear 16 1022 39 10000 3.6 40 20:35 29.01.2022
5653 Clear 16 1023 40 10000 4.12 40 19:35 29.01.2022
5654 Clear 17 1022 38 10000 4.12 50 18:53 29.01.2022
5655 Clear 18 1023 36 10000 5.14 40 18:24 29.01.2022
5656 Clear 18 1023 36 10000 5.14 50 17:31 29.01.2022
5657 Clear 18 1021 35 10000 4.12 60 16:25 29.01.2022
5658 Clear 17 1024 38 10000 5.14 50 14:23 29.01.2022
5659 Clear 16 1023 39 10000 5.14 60 13:45 29.01.2022
5660 Clear 15 1023 36 10000 5.66 60 13:24 29.01.2022
5661 Clear 12 1024 39 10000 5.14 60 11:50 29.01.2022
5662 Clear 12 1024 41 10000 6.69 40 11:24 29.01.2022
5663 Clear 10 1023 44 10000 4.12 50 09:29 29.01.2022
5664 Clear 10 1020 42 10000 4.12 50 06:55 29.01.2022
5665 Clear 14 1020 46 10000 4.12 50 00:36 29.01.2022
5666 Clear 14 1019 47 10000 5.14 50 23:59 28.01.2022
5667 Clear 14 1019 47 10000 5.66 50 22:51 28.01.2022
5668 Clear 14 1019 46 10000 6.17 40 22:22 28.01.2022
5669 Clear 15 1021 46 10000 6.17 40 21:50 28.01.2022
5670 Clear 15 1020 48 10000 4.12 50 20:30 28.01.2022
5671 Clear 15 1022 48 10000 4.12 40 19:42 28.01.2022
5672 Clear 17 1021 43 10000 4.63 40 18:47 28.01.2022
5673 Clear 18 1021 41 10000 4.12 50 17:42 28.01.2022
5674 Clear 17 1020 43 10000 4.12 50 15:21 28.01.2022
5675 Clear 15 1023 47 10000 5.14 50 13:59 28.01.2022
5676 Clear 13 1023 49 10000 4.63 60 12:32 28.01.2022
5677 Clear 12 1022 48 10000 5.14 50 11:36 28.01.2022
5678 Clear 11 1021 52 10000 5.14 60 09:59 28.01.2022
5679 Clear 11 1020 49 10000 5.14 40 08:41 28.01.2022
5680 Clear 11 1018 49 10000 3.6 50 07:36 28.01.2022
5681 Clear 12 1017 51 10000 4.12 40 05:23 28.01.2022
5682 Clear 12 1020 54 10000 4.12 40 03:45 28.01.2022
5683 Clear 12 1018 51 10000 3.6 40 02:23 28.01.2022
5684 Clear 12 1018 52 10000 2.57 50 01:33 28.01.2022
5685 Clear 14 1018 49 10000 4.63 40 23:30 27.01.2022
5686 Clear 14 1019 53 10000 4.63 40 21:49 27.01.2022
5687 Clear 14 1019 54 10000 5.14 40 21:29 27.01.2022
5688 Clear 15 1019 55 10000 4.63 40 20:44 27.01.2022
5689 Clear 16 1020 55 10000 4.12 40 19:21 27.01.2022
5690 Clouds 17 1018 49 10000 6.17 40 17:56 27.01.2022
5691 Clouds 17 1025 54 10000 4.12 60 15:18 27.01.2022
5692 Clear 15 1025 57 10000 5.14 50 13:37 27.01.2022
5693 Clear 14 1022 61 10000 5.66 50 12:45 27.01.2022
5694 Clouds 12 1021 67 10000 5.14 40 10:24 27.01.2022
5695 Clouds 11 1020 66 10000 6.17 50 08:57 27.01.2022
5696 Clear 12 1019 64 10000 5.14 50 08:34 27.01.2022
5697 Clear 12 1016 61 10000 5.14 50 05:59 27.01.2022
5698 Clear 12 1018 59 10000 5.66 40 02:57 27.01.2022
5699 Clear 13 1018 58 10000 5.66 40 23:32 26.01.2022
5700 Clear 13 1016 57 10000 5.14 40 22:25 26.01.2022
5701 Clear 13 1018 59 10000 5.14 30 21:36 26.01.2022
5702 Clear 13 1020 61 10000 5.14 30 20:41 26.01.2022
5703 Clear 13 1020 61 10000 5.14 30 20:22 26.01.2022
5704 Clear 13 1019 59 10000 4.63 30 19:20 26.01.2022
5705 Clear 14 1019 57 10000 4.63 30 18:45 26.01.2022
5706 Clear 14 1019 55 10000 5.14 50 17:50 26.01.2022
5707 Clear 15 1019 53 10000 4.63 50 17:23 26.01.2022
5708 Clear 15 1019 52 10000 5.66 50 16:31 26.01.2022
5709 Clear 14 1019 54 10000 6.17 50 15:49 26.01.2022
5710 Clear 13 1021 58 10000 6.17 50 13:58 26.01.2022
5711 Clear 11 1022 62 10000 6.69 50 11:48 26.01.2022
5712 Clear 10 1020 65 10000 5.14 40 10:28 26.01.2022
5713 Clear 9 1021 68 10000 4.63 30 09:46 26.01.2022
5714 Clear 9 1019 71 10000 4.12 30 07:44 26.01.2022
5715 Clear 10 1021 66 10000 3.09 350 01:54 26.01.2022
5716 Clear 11 1021 63 10000 3.6 30 23:57 25.01.2022
5717 Clear 12 1021 64 10000 3.6 20 22:57 25.01.2022
5718 Clear 12 1021 63 10000 3.09 10 22:21 25.01.2022
5719 Clear 12 1023 63 10000 3.6 20 21:58 25.01.2022
5720 Clear 12 1022 60 10000 3.09 360 20:46 25.01.2022
5721 Clear 12 1022 58 10000 2.57 350 20:28 25.01.2022
5722 Clear 12 1022 58 10000 2.57 350 20:28 25.01.2022
5723 Clear 12 1022 58 10000 2.57 350 20:28 25.01.2022
5724 Clear 13 1022 56 10000 2.57 350 19:52 25.01.2022
5725 Clouds 15 1022 51 10000 4.63 30 18:37 25.01.2022
5726 Clouds 15 1022 49 10000 4.63 40 17:44 25.01.2022
5727 Clouds 16 1022 48 10000 4.12 60 16:35 25.01.2022
5728 Clear 16 1022 50 10000 3.6 70 15:49 25.01.2022
5729 Clear 16 1022 50 10000 3.6 70 15:31 25.01.2022
5730 Clear 15 1022 50 10000 4.63 50 14:57 25.01.2022
5731 Clear 14 1023 48 10000 4.63 60 13:42 25.01.2022
5732 Clear 10 1022 58 10000 5.66 50 10:42 25.01.2022
5733 Clear 8 1022 68 10000 4.63 50 08:37 25.01.2022
5734 Clear 9 1021 67 10000 5.14 40 07:29 25.01.2022
5735 Clear 9 1020 67 10000 4.63 50 06:49 25.01.2022
5736 Clear 10 1021 66 10000 5.14 40 05:22 25.01.2022
5737 Clear 12 1021 61 10000 3.6 20 23:37 24.01.2022
5738 Clear 12 1021 62 10000 3.6 20 23:18 24.01.2022
5739 Clear 12 1020 63 10000 3.6 20 22:59 24.01.2022
5740 Clear 12 1020 64 10000 3.6 20 22:41 24.01.2022
5741 Clear 12 1021 65 10000 3.09 360 21:53 24.01.2022
5742 Clear 12 1021 65 10000 3.09 360 21:28 24.01.2022
5743 Clear 13 1021 65 10000 2.57 360 20:30 24.01.2022
5744 Clear 13 1020 64 10000 3.6 20 19:44 24.01.2022
5745 Clear 14 1020 63 10000 4.12 30 19:24 24.01.2022
5746 Clear 15 1020 59 10000 4.12 30 17:59 24.01.2022
5747 Clear 15 1020 58 10000 3.6 40 17:24 24.01.2022
5748 Clear 15 1020 58 10000 3.09 30 16:52 24.01.2022
5749 Clear 15 1020 56 10000 3.09 40 16:19 24.01.2022
5750 Clear 14 1020 56 10000 4.12 50 14:38 24.01.2022
5751 Clear 12 1018 61 10000 4.63 50 12:58 24.01.2022
5752 Clear 11 1019 62 10000 5.14 50 12:23 24.01.2022
5753 Clear 9 1018 68 10000 5.14 40 10:30 24.01.2022
5754 Clear 8 1020 71 10000 4.63 30 09:48 24.01.2022
5755 Clear 8 1020 73 10000 4.12 30 08:34 24.01.2022
5756 Clear 8 1015 70 10000 4.12 30 06:40 24.01.2022
5757 Clear 10 1017 68 10000 3.6 40 01:30 24.01.2022
5758 Clear 11 1017 66 10000 4.63 30 00:36 24.01.2022
5759 Clear 11 1017 67 10000 4.12 30 23:52 23.01.2022
5760 Clear 12 1017 65 10000 3.09 40 22:32 23.01.2022
5761 Clear 12 1018 65 10000 2.57 10 21:49 23.01.2022
5762 Clear 12 1018 64 10000 2.57 360 21:26 23.01.2022
5763 Clear 12 1018 62 10000 2.57 360 20:44 23.01.2022
5764 Clear 13 1017 60 10000 3.09 20 19:52 23.01.2022
5765 Clear 14 1017 58 10000 3.6 40 18:52 23.01.2022
5766 Clear 15 1017 52 10000 2.57 60 17:49 23.01.2022
5767 Clear 15 1017 51 10000 3.6 60 16:47 23.01.2022
5768 Clear 14 1018 57 10000 4.63 50 15:00 23.01.2022
5769 Clear 13 1018 58 10000 5.66 50 14:25 23.01.2022
5770 Clear 12 1019 60 10000 5.14 50 13:22 23.01.2022
5771 Clear 11 1019 62 10000 6.17 50 12:36 23.01.2022
5772 Clear 11 1018 61 10000 6.17 50 12:18 23.01.2022
5773 Clear 9 1019 65 10000 5.14 60 11:23 23.01.2022
5774 Clear 8 1017 66 10000 5.66 40 10:28 23.01.2022
5775 Clear 8 1019 69 10000 4.12 50 09:51 23.01.2022
5776 Clear 7 1018 69 10000 4.63 40 08:59 23.01.2022
5777 Clear 8 1016 68 10000 4.12 50 05:58 23.01.2022
5778 Clear 10 1015 61 10000 4.12 50 01:53 23.01.2022
5779 Clear 10 1015 60 10000 4.63 50 01:33 23.01.2022
5780 Clear 11 1016 59 10000 5.14 50 00:23 23.01.2022
5781 Clear 10 1018 63 10000 4.63 40 23:57 22.01.2022
5782 Clear 11 1016 58 10000 4.63 40 22:46 22.01.2022
5783 Clear 12 1016 57 10000 3.6 50 21:38 22.01.2022
5784 Clear 13 1017 56 10000 3.6 50 20:23 22.01.2022
5785 Clear 13 1019 56 10000 3.09 50 19:21 22.01.2022
5786 Clear 15 1019 51 10000 4.63 40 18:25 22.01.2022
5787 Clear 16 1019 49 10000 3.09 40 17:41 22.01.2022
5788 Clear 15 1019 48 10000 4.12 40 16:56 22.01.2022
5789 Clear 15 1019 50 10000 3.6 60 15:55 22.01.2022
5790 Clear 14 1019 51 10000 4.12 70 15:37 22.01.2022
5791 Clear 12 1020 55 10000 5.66 50 13:59 22.01.2022
5792 Clear 11 1021 58 10000 4.63 50 12:55 22.01.2022
5793 Clear 11 1026 56 10000 5.66 50 12:30 22.01.2022
5794 Clear 9 1021 60 10000 5.14 50 11:57 22.01.2022
5795 Clear 8 1021 62 10000 4.12 50 10:38 22.01.2022
5796 Clear 7 1021 65 10000 4.12 50 10:19 22.01.2022
5797 Clear 6 1020 71 10000 4.12 50 08:54 22.01.2022
5798 Clear 6 1020 71 10000 4.12 40 08:27 22.01.2022
5799 Clear 7 1018 65 10000 3.6 50 05:20 22.01.2022
5800 Clear 9 1018 64 10000 3.6 50 01:58 22.01.2022
5801 Clear 10 1018 62 10000 2.57 50 23:48 21.01.2022
5802 Clear 11 1017 55 10000 3.6 40 22:44 21.01.2022
5803 Clear 12 1018 59 10000 4.12 30 20:45 21.01.2022
5804 Clear 15 1022 53 10000 4.12 40 18:41 21.01.2022
5805 Clear 16 1022 46 10000 4.63 40 17:45 21.01.2022
5806 Clear 16 1017 44 10000 4.12 40 15:48 21.01.2022
5807 Clear 15 1018 47 10000 3.6 50 14:37 21.01.2022
5808 Clear 12 1025 43 10000 4.39 74 12:42 21.01.2022
5809 Clear 11 1021 59 10000 4.12 50 11:29 21.01.2022
5810 Clear 9 1020 63 10000 3.6 40 10:27 21.01.2022
5811 Clear 7 1020 69 10000 2.57 20 08:50 21.01.2022
5812 Clear 8 1016 64 10000 2.57 10 07:37 21.01.2022
5813 Clear 11 1017 50 10000 2.06 320 01:48 21.01.2022
5814 Clear 11 1019 54 10000 3.09 350 22:46 20.01.2022
5815 Clear 12 1019 51 10000 3.09 350 21:48 20.01.2022
5816 Clear 12 1021 51 10000 3.09 350 21:24 20.01.2022
5817 Clear 13 1021 49 10000 3.09 350 19:46 20.01.2022
5818 Clear 14 1021 49 10000 2.57 350 19:18 20.01.2022
5819 Clear 16 1024 47 10000 3.6 40 17:36 20.01.2022
5820 Clear 15 1021 43 10000 3.09 50 15:46 20.01.2022
5821 Clear 16 1020 40 10000 3.09 50 15:26 20.01.2022
5822 Clear 15 1017 37 10000 0.89 148 14:18 20.01.2022
5823 Clear 12 1028 48 10000 3.6 60 12:44 20.01.2022
5824 Clear 11 1022 57 10000 3.6 60 12:26 20.01.2022
5825 Clouds 8 1023 68 10000 2.06 50 10:58 20.01.2022
5826 Fog 6 1023 75 10000 1.03 0 09:44 20.01.2022
5827 Clouds 6 1023 82 10000 2.57 360 08:37 20.01.2022
5828 Clouds 7 1019 73 8000 0 0 06:19 20.01.2022
5829 Fog 9 1023 70 10000 1.54 290 23:56 19.01.2022
5830 Clear 10 1023 70 10000 3.09 310 22:38 19.01.2022
5831 Clear 10 1021 64 10000 2.57 310 21:33 19.01.2022
5832 Clear 11 1023 64 10000 1.03 280 20:55 19.01.2022
5833 Clear 11 1023 64 10000 1.54 310 20:30 19.01.2022
5834 Clear 13 1023 57 10000 1.54 50 18:49 19.01.2022
5835 Clear 15 1028 56 10000 1.54 60 17:50 19.01.2022
5836 Clear 15 1028 54 10000 1.54 70 17:18 19.01.2022
5837 Clear 15 1028 54 10000 1.54 70 17:18 19.01.2022
5838 Clear 16 1029 50 10000 1.54 0 15:31 19.01.2022
5839 Clear 14 1021 51 10000 0.45 124 13:20 19.01.2022
5840 Clear 10 1027 67 10000 2.06 80 11:58 19.01.2022
5841 Clear 9 1027 70 10000 1.03 0 11:22 19.01.2022
5842 Clear 7 1026 77 10000 1.54 30 09:35 19.01.2022
5843 Clear 7 1026 77 10000 1.54 30 09:35 19.01.2022
5844 Clear 6 1025 80 10000 0.51 36 08:33 19.01.2022
5845 Clear 8 1023 76 10000 2.06 50 05:19 19.01.2022
5846 Clear 10 1024 68 10000 2.06 350 00:18 19.01.2022
5847 Clear 11 1024 68 10000 3.09 350 23:18 18.01.2022
5848 Clear 11 1023 70 10000 2.57 350 21:44 18.01.2022
5849 Clear 12 1024 68 10000 2.06 350 20:22 18.01.2022
5850 Clear 13 1024 65 10000 1.54 350 19:45 18.01.2022
5851 Clear 13 1024 64 10000 1.54 350 19:25 18.01.2022
5852 Clear 15 1028 58 10000 2.57 40 18:19 18.01.2022
5853 Clear 15 1028 58 10000 2.06 60 17:32 18.01.2022
5854 Clear 15 1024 57 10000 1.54 50 16:20 18.01.2022
5855 Clear 15 1024 58 10000 2.57 70 15:25 18.01.2022
5856 Clear 13 1029 61 10000 2.06 50 14:22 18.01.2022
5857 Clear 13 1029 61 10000 2.06 50 14:22 18.01.2022
5858 Clear 10 1030 65 10000 4.12 50 11:37 18.01.2022
5859 Clear 8 1023 71 10000 3.6 40 10:25 18.01.2022
5860 Clear 7 1023 72 10000 3.6 40 08:29 18.01.2022
5861 Clear 7 1023 76 10000 3.09 50 07:43 18.01.2022
5862 Clear 10 1021 70 10000 2.06 50 00:39 18.01.2022
5863 Clear 11 1023 71 10000 3.09 30 22:40 17.01.2022
5864 Clear 12 1023 67 10000 2.57 360 21:42 17.01.2022
5865 Clear 12 1024 68 10000 2.57 360 20:44 17.01.2022
5866 Clear 14 1023 62 10000 2.06 40 18:51 17.01.2022
5867 Clear 15 1023 58 10000 2.06 20 18:25 17.01.2022
5868 Clear 16 1023 56 10000 3.09 40 17:22 17.01.2022
5869 Clear 15 1025 55 10000 3.6 40 15:54 17.01.2022
5870 Clear 15 1025 57 10000 3.09 60 14:58 17.01.2022
5871 Clear 15 1025 57 10000 3.09 60 14:58 17.01.2022
5872 Clear 15 1025 56 10000 4.12 50 14:31 17.01.2022
5873 Clear 14 1026 63 10000 4.63 50 13:18 17.01.2022
5874 Clear 14 1026 63 10000 4.63 50 13:18 17.01.2022
5875 Clear 11 1027 72 10000 3.6 50 11:53 17.01.2022
5876 Clear 10 1028 73 10000 2.06 50 10:52 17.01.2022
5877 Clear 8 1027 79 10000 2.06 40 09:46 17.01.2022
5878 Clear 8 1025 80 10000 1.03 310 08:43 17.01.2022
5879 Clear 8 1024 81 10000 1.54 60 07:20 17.01.2022
5880 Clear 12 1023 76 10000 2.57 50 00:59 17.01.2022
5881 Clear 12 1023 78 10000 3.09 30 23:33 16.01.2022
5882 Clear 13 1024 79 10000 1.54 10 20:51 16.01.2022
5883 Clear 13 1026 79 10000 0 0 19:56 16.01.2022
5884 Clear 15 1025 73 10000 1.54 0 18:45 16.01.2022
5885 Clouds 16 1025 69 10000 1.54 60 17:47 16.01.2022
5886 Clouds 16 1029 69 10000 2.06 60 16:53 16.01.2022
5887 Clear 16 1023 67 10000 2.06 60 15:40 16.01.2022
5888 Clouds 14 1025 74 10000 2.06 60 14:29 16.01.2022
5889 Mist 13 1030 74 4000 4.63 10 13:21 16.01.2022
5890 Fog 12 1030 74 200 2.57 60 11:56 16.01.2022
5891 Mist 10 1027 80 10000 4.12 60 11:27 16.01.2022
5892 Clouds 9 1024 82 10000 2.57 50 10:27 16.01.2022
5893 Clouds 9 1024 83 10000 2.57 50 09:57 16.01.2022
5894 Clear 9 1024 84 10000 2.57 50 09:23 16.01.2022
5895 Clear 9 1024 87 10000 2.57 40 08:53 16.01.2022
5896 Clouds 9 1022 86 9000 2.06 40 05:52 16.01.2022
5897 Clouds 11 1022 80 10000 1.54 0 00:19 16.01.2022
5898 Clouds 12 1019 77 10000 1.54 30 22:49 15.01.2022
5899 Clouds 12 1020 75 10000 1.03 60 21:21 15.01.2022
5900 Clear 12 1021 76 10000 2.57 30 20:44 15.01.2022
5901 Clear 12 1022 76 10000 1.03 0 20:18 15.01.2022
5902 Clouds 13 1022 74 10000 1.03 0 19:25 15.01.2022
5903 Clouds 15 1022 66 10000 0.51 0 17:52 15.01.2022
5904 Clouds 14 1022 66 10000 1.54 90 16:43 15.01.2022
5905 Clear 13 1023 67 10000 2.57 70 14:32 15.01.2022
5906 Clear 11 1024 70 10000 3.09 70 12:38 15.01.2022
5907 Clear 10 1024 68 10000 3.09 60 11:20 15.01.2022
5908 Clouds 8 1022 70 10000 2.57 60 09:35 15.01.2022
5909 Clouds 11 1023 68 10000 2.57 50 01:25 15.01.2022
5910 Clouds 11 1024 64 10000 2.57 50 22:40 14.01.2022
5911 Clouds 12 1023 62 10000 2.57 50 20:54 14.01.2022
5912 Clouds 12 1023 62 10000 2.57 50 20:23 14.01.2022
5913 Clouds 12 1024 63 10000 3.09 40 19:49 14.01.2022
5914 Clouds 14 1024 59 10000 2.57 30 18:33 14.01.2022
5915 Clouds 15 1024 53 10000 3.6 50 16:57 14.01.2022
5916 Clouds 15 1024 54 10000 3.09 50 16:38 14.01.2022
5917 Clear 13 1024 57 10000 3.6 50 14:50 14.01.2022
5918 Clear 13 1025 58 10000 4.12 60 14:20 14.01.2022
5919 Clear 11 1025 63 10000 3.09 60 12:37 14.01.2022
5920 Clear 9 1025 67 10000 3.6 60 11:34 14.01.2022
5921 Clear 8 1024 70 10000 4.12 60 10:24 14.01.2022
5922 Clear 7 1024 73 10000 3.09 50 08:52 14.01.2022
5923 Clear 7 1023 71 10000 3.09 50 07:29 14.01.2022
5924 Clear 10 1025 66 10000 2.57 50 01:43 14.01.2022
5925 Clear 11 1025 64 10000 3.09 30 23:39 13.01.2022
5926 Clear 12 1023 64 10000 2.57 50 21:45 13.01.2022
5927 Clear 12 1024 64 10000 2.57 60 21:27 13.01.2022
5928 Clear 13 1024 62 10000 3.09 90 19:44 13.01.2022
5929 Clear 14 1023 60 10000 2.57 90 19:23 13.01.2022
5930 Clear 15 1024 55 10000 2.57 90 18:33 13.01.2022
5931 Clouds 16 1024 51 10000 2.57 60 16:48 13.01.2022
5932 Clear 15 1024 52 10000 3.09 60 15:38 13.01.2022
5933 Clear 14 1024 56 10000 4.12 50 14:50 13.01.2022
5934 Clear 13 1025 61 10000 3.6 60 13:22 13.01.2022
5935 Clear 9 1024 73 10000 4.12 50 10:29 13.01.2022
5936 Clear 8 1023 76 10000 2.57 50 09:23 13.01.2022
5937 Clear 8 1023 76 10000 3.09 40 08:28 13.01.2022
5938 Clear 8 1021 79 10000 3.09 50 07:58 13.01.2022
5939 Clear 8 1023 77 10000 2.57 50 07:18 13.01.2022
5940 Clear 9 1023 74 10000 3.09 60 05:20 13.01.2022
5941 Clear 10 1022 73 10000 3.09 60 03:33 13.01.2022
5942 Clear 11 1022 77 10000 4.63 40 00:57 13.01.2022
5943 Clear 13 1020 68 10000 2.57 60 23:53 12.01.2022
5944 Clear 13 1020 67 10000 3.09 40 23:33 12.01.2022
5945 Clear 13 1023 65 10000 3.09 40 21:59 12.01.2022
5946 Clear 14 1021 63 10000 3.09 50 21:39 12.01.2022
5947 Clear 14 1021 62 10000 3.09 50 21:18 12.01.2022
5948 Clear 14 1022 65 10000 4.63 50 20:41 12.01.2022
5949 Clear 16 1021 64 10000 4.12 40 18:48 12.01.2022
5950 Clear 17 1021 58 10000 4.63 50 17:54 12.01.2022
5951 Clear 18 1020 57 10000 4.12 50 16:43 12.01.2022
5952 Clear 16 1022 63 10000 4.63 40 14:49 12.01.2022
5953 Clear 15 1023 64 10000 4.12 50 13:40 12.01.2022
5954 Clear 14 1023 66 10000 5.14 50 12:57 12.01.2022
5955 Clear 10 1022 79 10000 3.6 50 09:26 12.01.2022
5956 Clear 10 1021 82 10000 3.09 50 07:57 12.01.2022
5957 Clear 11 1019 78 10000 2.57 60 07:33 12.01.2022
5958 Clear 12 1021 88 10000 3.6 360 02:20 12.01.2022
5959 Clear 14 1019 76 10000 3.09 320 23:26 11.01.2022
5960 Clear 14 1025 77 10000 3.6 320 22:25 11.01.2022
5961 Clear 14 1022 76 10000 4.12 320 21:58 11.01.2022
5962 Clear 15 1022 74 10000 3.6 320 20:39 11.01.2022
5963 Clear 15 1021 69 10000 1.03 350 19:31 11.01.2022
5964 Clear 17 1023 64 10000 2.06 70 17:54 11.01.2022
5965 Clear 18 1023 60 10000 3.09 70 16:40 11.01.2022
5966 Clear 18 1023 60 10000 3.09 70 16:18 11.01.2022
5967 Clear 18 1023 60 10000 3.09 70 16:18 11.01.2022
5968 Clear 17 1021 59 10000 4.12 50 14:53 11.01.2022
5969 Clear 17 1021 61 10000 3.09 50 14:34 11.01.2022
5970 Clouds 17 1022 60 10000 2.57 60 13:52 11.01.2022
5971 Clouds 16 1022 64 10000 2.57 60 13:28 11.01.2022
5972 Fog 14 1023 74 10000 3.6 70 12:34 11.01.2022
5973 Mist 11 1022 86 2500 3.09 50 10:32 11.01.2022
5974 Clear 11 1019 82 10000 3.09 20 07:55 11.01.2022
5975 Clear 11 1019 82 10000 4.12 330 04:28 11.01.2022
5976 Clear 12 1021 76 10000 4.12 330 00:27 11.01.2022
5977 Clouds 12 1021 77 10000 4.63 350 23:39 10.01.2022
5978 Clouds 12 1021 77 10000 5.14 340 22:42 10.01.2022
5979 Clouds 12 1021 77 10000 5.14 340 22:18 10.01.2022
5980 Clouds 12 1022 78 10000 4.63 340 21:36 10.01.2022
5981 Clouds 12 1022 78 10000 4.63 340 21:18 10.01.2022
5982 Clouds 13 1021 77 10000 5.66 350 20:54 10.01.2022
5983 Clouds 13 1021 77 10000 6.17 350 20:19 10.01.2022
5984 Clouds 14 1021 77 10000 4.63 360 19:39 10.01.2022
5985 Clouds 14 1021 76 10000 4.63 360 19:19 10.01.2022
5986 Clouds 14 1021 76 10000 3.6 350 18:47 10.01.2022
5987 Clouds 15 1021 72 10000 4.12 350 16:49 10.01.2022
5988 Clouds 15 1022 73 10000 3.6 330 16:27 10.01.2022
5989 Clouds 15 1022 73 10000 5.14 340 14:44 10.01.2022
5990 Clouds 15 1023 75 10000 5.14 350 13:35 10.01.2022
5991 Clouds 15 1023 75 10000 5.14 350 13:35 10.01.2022
5992 Clouds 14 1024 80 10000 3.6 340 11:57 10.01.2022
5993 Clouds 13 1024 84 10000 3.09 330 10:50 10.01.2022
5994 Clouds 12 1024 86 10000 2.57 310 09:40 10.01.2022
5995 Clouds 13 1023 82 10000 2.57 310 05:52 10.01.2022
5996 Clouds 13 1024 81 10000 3.09 320 02:38 10.01.2022
5997 Clouds 13 1024 80 10000 2.06 310 01:21 10.01.2022
5998 Clouds 13 1024 80 10000 1.54 290 00:21 10.01.2022
5999 Clouds 13 1025 78 10000 1.03 0 22:48 09.01.2022
6000 Clouds 13 1024 76 10000 2.06 300 22:21 09.01.2022
6001 Clouds 13 1025 76 10000 2.06 330 21:42 09.01.2022
6002 Clouds 13 1025 76 10000 2.06 330 21:22 09.01.2022
6003 Clouds 14 1028 75 10000 3.09 340 20:47 09.01.2022
6004 Clouds 14 1026 74 10000 3.6 320 20:29 09.01.2022
6005 Clouds 14 1025 74 10000 3.09 320 19:42 09.01.2022
6006 Clouds 14 1025 73 10000 3.09 320 19:21 09.01.2022
6007 Clouds 14 1028 72 10000 3.09 350 18:47 09.01.2022
6008 Clouds 14 1026 73 10000 3.6 350 18:28 09.01.2022
6009 Clouds 14 1026 72 10000 3.09 330 17:30 09.01.2022
6010 Clouds 15 1026 70 10000 2.57 330 16:51 09.01.2022
6011 Clouds 15 1026 67 10000 3.6 320 15:52 09.01.2022
6012 Clouds 15 1026 63 10000 4.12 330 15:33 09.01.2022
6013 Clouds 15 1027 64 10000 3.6 320 14:39 09.01.2022
6014 Clouds 15 1027 65 10000 4.12 330 13:50 09.01.2022
6015 Clouds 14 1028 66 10000 4.12 300 12:31 09.01.2022
6016 Clouds 14 1028 66 10000 3.09 310 11:47 09.01.2022
6017 Clouds 12 1027 72 10000 1.03 260 09:56 09.01.2022
6018 Clouds 12 1027 72 10000 1.03 0 09:29 09.01.2022
6019 Clouds 12 1027 72 10000 2.57 290 08:30 09.01.2022
6020 Clouds 9 1026 79 10000 1.03 0 02:31 09.01.2022
6021 Clear 9 1027 80 10000 1.54 320 01:20 09.01.2022
6022 Clear 9 1027 77 10000 1.54 280 23:38 08.01.2022
6023 Clear 10 1027 75 10000 0.51 0 22:59 08.01.2022
6024 Clear 11 1028 73 10000 3.09 350 21:33 08.01.2022
6025 Clear 11 1028 73 10000 4.63 360 20:45 08.01.2022
6026 Clear 11 1028 73 10000 4.63 350 20:24 08.01.2022
6027 Clear 11 1028 71 10000 4.12 340 19:58 08.01.2022
6028 Clear 14 1028 55 10000 4.12 350 17:51 08.01.2022
6029 Clear 15 1028 57 10000 2.57 30 17:21 08.01.2022
6030 Clear 14 1029 58 10000 1.03 0 15:47 08.01.2022
6031 Clear 14 1031 59 10000 2.57 70 14:41 08.01.2022
6032 Clear 13 1030 59 10000 2.06 60 12:44 08.01.2022
6033 Clear 11 1029 65 10000 1.54 70 10:59 08.01.2022
6034 Clear 9 1030 76 10000 0.51 30 10:25 08.01.2022
6035 Clear 8 1029 75 10000 0.51 0 09:47 08.01.2022
6036 Clear 8 1028 76 10000 2.06 360 07:19 08.01.2022
6037 Clear 10 1028 74 10000 2.06 340 02:39 08.01.2022
6038 Clear 11 1028 72 10000 2.57 340 00:41 08.01.2022
6039 Clear 11 1028 73 10000 3.6 340 22:47 07.01.2022
6040 Clear 12 1028 73 10000 5.14 340 20:56 07.01.2022
6041 Clear 13 1027 69 10000 5.14 340 19:56 07.01.2022
6042 Clear 13 1027 69 10000 5.14 340 19:56 07.01.2022
6043 Clear 14 1027 62 10000 4.63 350 18:58 07.01.2022
6044 Clear 14 1026 59 10000 4.63 10 18:38 07.01.2022
6045 Clouds 15 1026 52 10000 6.17 10 17:25 07.01.2022
6046 Clouds 15 1026 52 10000 7.72 10 16:30 07.01.2022
6047 Clouds 15 1027 59 10000 7.2 350 13:54 07.01.2022
6048 Clouds 15 1027 62 10000 7.72 350 13:22 07.01.2022
6049 Clouds 14 1027 65 10000 7.2 360 12:49 07.01.2022
6050 Clouds 12 1025 77 10000 7.72 350 09:37 07.01.2022
6051 Clouds 12 1022 81 10000 4.12 340 02:56 07.01.2022
6052 Clouds 12 1023 81 10000 2.57 350 01:54 07.01.2022
6053 Clouds 12 1023 80 10000 1.54 350 01:28 07.01.2022
6054 Clouds 12 1023 80 10000 1.54 340 00:58 07.01.2022
6055 Clouds 12 1023 80 10000 1.54 340 00:58 07.01.2022
6056 Clouds 11 1022 81 10000 2.57 350 22:54 06.01.2022
6057 Clouds 12 1021 78 10000 3.6 320 21:28 06.01.2022
6058 Clouds 13 1021 75 10000 4.12 330 20:22 06.01.2022
6059 Clouds 13 1021 74 10000 3.09 330 19:45 06.01.2022
6060 Clouds 14 1020 67 10000 3.09 340 18:29 06.01.2022
6061 Clouds 14 1020 64 10000 5.66 350 17:40 06.01.2022
6062 Clouds 15 1021 65 10000 4.63 350 16:52 06.01.2022
6063 Clouds 15 1021 62 10000 5.66 10 15:48 06.01.2022
6064 Clouds 15 1021 62 10000 5.66 340 15:26 06.01.2022
6065 Clouds 15 1021 65 10000 4.12 350 14:51 06.01.2022
6066 Clouds 14 1021 67 10000 4.63 330 14:18 06.01.2022
6067 Clouds 14 1022 69 10000 5.66 340 12:50 06.01.2022
6068 Clouds 13 1021 75 10000 3.09 330 11:43 06.01.2022
6069 Clouds 13 1021 76 10000 3.09 330 11:23 06.01.2022
6070 Clouds 10 1020 83 10000 1.54 260 08:59 06.01.2022
6071 Clouds 12 1018 73 10000 2.57 330 01:51 06.01.2022
6072 Clouds 13 1018 80 10000 3.6 330 23:40 05.01.2022
6073 Clouds 13 1018 82 10000 3.6 330 22:59 05.01.2022
6074 Clouds 13 1017 84 10000 2.57 320 22:33 05.01.2022
6075 Mist 13 1018 89 5000 4.12 340 21:52 05.01.2022
6076 Drizzle 13 1017 90 10000 4.12 330 21:21 05.01.2022
6077 Drizzle 14 1018 90 5000 5.66 300 20:19 05.01.2022
6078 Mist 14 1018 88 2500 6.69 260 18:54 05.01.2022
6079 Mist 14 1019 84 2500 5.66 250 17:50 05.01.2022
6080 Clouds 15 1019 75 10000 6.69 270 16:56 05.01.2022
6081 Clouds 16 1020 66 10000 6.17 270 15:46 05.01.2022
6082 Clouds 15 1021 65 10000 6.69 290 14:28 05.01.2022
6083 Clouds 15 1022 66 10000 5.14 270 13:32 05.01.2022
6084 Clouds 14 1023 78 10000 3.09 250 11:46 05.01.2022
6085 Clouds 11 1023 87 10000 2.06 230 08:20 05.01.2022
6086 Clouds 11 1022 84 10000 2.06 230 06:36 05.01.2022
6087 Clouds 12 1021 78 10000 4.12 300 00:59 05.01.2022
6088 Clouds 12 1022 77 10000 3.09 300 23:38 04.01.2022
6089 Clouds 12 1022 77 10000 3.09 300 23:18 04.01.2022
6090 Clouds 12 1020 76 10000 2.06 300 21:31 04.01.2022
6091 Clouds 12 1021 79 10000 2.06 280 19:55 04.01.2022
6092 Rain 13 1020 71 10000 3.6 300 18:35 04.01.2022
6093 Clouds 14 1019 66 10000 4.63 310 17:18 04.01.2022
6094 Clouds 15 1018 64 10000 6.69 320 16:31 04.01.2022
6095 Clouds 14 1017 76 10000 7.2 330 14:58 04.01.2022
6096 Clouds 14 1017 77 10000 7.72 320 14:36 04.01.2022
6097 Clouds 14 1016 78 10000 7.72 320 13:48 04.01.2022
6098 Rain 13 1016 84 10000 3.09 260 10:59 04.01.2022
6099 Rain 13 1016 82 10000 3.6 280 10:18 04.01.2022
6100 Clouds 13 1014 86 10000 8.23 260 08:36 04.01.2022
6101 Clouds 15 1014 91 10000 4.12 190 04:24 04.01.2022
6102 Fog 15 1017 89 10000 3.6 240 00:42 04.01.2022
6103 Fog 14 1018 90 10000 5.66 220 23:44 03.01.2022
6104 Clouds 14 1018 90 9000 5.14 220 22:21 03.01.2022
6105 Fog 14 1020 91 9000 4.12 220 21:38 03.01.2022
6106 Clouds 14 1021 91 9000 3.09 220 20:34 03.01.2022
6107 Clouds 14 1021 91 9000 3.09 220 18:55 03.01.2022
6108 Clouds 14 1021 91 9000 2.57 220 18:30 03.01.2022
6109 Fog 14 1024 94 8000 2.06 220 17:20 03.01.2022
6110 Fog 14 1024 95 3000 1.54 120 16:31 03.01.2022
6111 Fog 16 1023 91 1000 1.03 0 14:31 03.01.2022
6112 Fog 14 1027 96 300 1.54 60 12:52 03.01.2022
6113 Fog 13 1027 99 100 1.54 60 11:50 03.01.2022
6114 Fog 12 1026 99 100 2.57 50 10:38 03.01.2022
6115 Fog 12 1024 93 100 2.06 70 09:28 03.01.2022
6116 Fog 12 1023 92 150 2.06 60 07:53 03.01.2022
6117 Fog 13 1025 91 150 0 0 02:56 03.01.2022
6118 Fog 14 1026 91 150 1.03 0 23:23 02.01.2022
6119 Fog 14 1026 90 150 1.03 350 22:56 02.01.2022
6120 Fog 14 1025 88 200 1.54 330 21:58 02.01.2022
6121 Fog 15 1027 91 500 1.03 0 20:50 02.01.2022
6122 Mist 15 1027 91 1800 1.03 0 20:30 02.01.2022
6123 Mist 15 1026 89 4000 1.54 70 19:31 02.01.2022
6124 Fog 15 1027 89 2500 1.03 0 18:56 02.01.2022
6125 Mist 16 1027 86 1500 1.54 40 17:57 02.01.2022
6126 Mist 16 1026 86 1500 1.54 0 17:39 02.01.2022
6127 Clouds 17 1026 83 6000 2.57 360 17:20 02.01.2022
6128 Fog 17 1026 84 2200 1.54 80 16:28 02.01.2022
6129 Mist 17 1027 84 3500 2.57 70 14:44 02.01.2022
6130 Mist 16 1028 87 3000 1.54 100 13:37 02.01.2022
6131 Fog 16 1030 87 800 2.06 50 12:32 02.01.2022
6132 Mist 15 1028 91 2500 2.06 70 11:49 02.01.2022
6133 Mist 14 1027 92 2500 1.54 70 10:54 02.01.2022
6134 Mist 14 1027 92 2000 1.54 70 09:57 02.01.2022
6135 Clouds 14 1025 90 6000 1.03 350 07:35 02.01.2022
6136 Clouds 16 1024 89 7000 2.06 230 02:56 02.01.2022
6137 Clear 15 1023 85 10000 2.57 220 23:45 01.01.2022
6138 Clear 15 1023 83 10000 2.57 230 23:24 01.01.2022
6139 Clear 15 1023 81 10000 2.57 250 22:25 01.01.2022
6140 Clear 15 1023 80 10000 1.54 260 21:46 01.01.2022
6141 Clear 15 1023 79 10000 0.51 0 21:28 01.01.2022
6142 Clear 16 1022 76 10000 1.03 280 20:27 01.01.2022
6143 Clear 16 1022 71 10000 2.06 260 19:36 01.01.2022
6144 Clear 17 1023 69 10000 0 0 18:51 01.01.2022
6145 Clear 18 1025 64 10000 2.06 360 17:38 01.01.2022
6146 Clear 19 1025 58 10000 1.03 0 16:35 01.01.2022
6147 Clear 19 1025 58 10000 0.51 0 15:37 01.01.2022
6148 Clear 17 1023 65 10000 2.57 60 14:25 01.01.2022
6149 Clear 18 1024 60 10000 2.06 80 13:41 01.01.2022
6150 Clear 16 1025 69 10000 2.57 60 12:25 01.01.2022
6151 Clear 14 1024 74 10000 2.06 60 11:25 01.01.2022
6152 Clear 14 1023 73 10000 2.06 60 10:56 01.01.2022
6153 Clear 13 1022 75 10000 2.06 70 09:48 01.01.2022
6154 Clear 13 1022 77 10000 2.06 60 08:35 01.01.2022
6155 Clear 12 1022 80 10000 2.57 50 07:57 01.01.2022
6156 Clear 13 1020 77 10000 2.06 60 07:38 01.01.2022
6157 Clear 13 1021 80 10000 2.06 40 06:44 01.01.2022
6158 Clear 13 1022 78 10000 2.06 50 04:40 01.01.2022
6159 Clear 14 1021 75 10000 2.06 40 03:52 01.01.2022
6160 Clear 16 1022 74 10000 2.06 0 23:55 31.12.2021
6161 Clear 16 1021 71 10000 1.54 10 22:25 31.12.2021
6162 Clear 16 1021 73 10000 0 0 21:47 31.12.2021
6163 Clear 17 1022 72 10000 1.03 0 19:48 31.12.2021
6164 Clear 18 1021 66 10000 1.54 90 19:28 31.12.2021
6165 Clear 19 1020 61 10000 1.03 0 17:56 31.12.2021
6166 Clear 19 1020 60 10000 0 0 17:26 31.12.2021
6167 Clear 20 1020 59 10000 0 0 16:52 31.12.2021
6168 Clear 20 1021 62 10000 1.03 0 16:18 31.12.2021
6169 Clear 20 1020 60 10000 2.06 70 15:50 31.12.2021
6170 Clear 19 1021 64 10000 2.06 70 15:26 31.12.2021
6171 Clear 19 1021 63 10000 2.57 60 14:39 31.12.2021
6172 Clear 18 1021 64 10000 2.57 70 13:51 31.12.2021
6173 Clear 16 1023 72 10000 3.09 70 12:51 31.12.2021
6174 Clear 15 1023 78 10000 3.09 70 12:21 31.12.2021
6175 Clear 15 1025 73 10000 3.6 50 11:42 31.12.2021
6176 Clear 13 1022 84 10000 2.06 60 10:56 31.12.2021
6177 Clear 12 1022 85 10000 2.06 50 10:28 31.12.2021
6178 Clouds 11 1022 89 9000 2.06 50 09:35 31.12.2021
6179 Clouds 11 1021 90 10000 1.54 50 08:54 31.12.2021
6180 Clouds 11 1020 90 8000 2.06 60 07:59 31.12.2021
6181 Mist 12 1019 89 1000 2.06 60 04:55 31.12.2021
6182 Clear 13 1021 88 10000 1.03 0 23:19 30.12.2021
6183 Clear 14 1019 86 10000 1.54 20 22:32 30.12.2021
6184 Clear 14 1020 87 10000 1.54 40 21:40 30.12.2021
6185 Clear 14 1020 86 10000 1.54 40 21:20 30.12.2021
6186 Clear 15 1020 84 10000 2.57 110 20:40 30.12.2021
6187 Clear 15 1020 85 10000 3.09 100 19:58 30.12.2021
6188 Clear 15 1020 84 10000 1.54 120 19:34 30.12.2021
6189 Clear 15 1019 81 10000 2.57 110 18:29 30.12.2021
6190 Clear 16 1021 78 10000 3.09 110 17:34 30.12.2021
6191 Clouds 16 1021 78 10000 3.09 100 15:54 30.12.2021
6192 Clouds 16 1019 78 10000 1.54 0 15:22 30.12.2021
6193 Clouds 15 1019 81 10000 3.09 110 14:36 30.12.2021
6194 Clouds 14 1022 86 9000 3.6 100 13:31 30.12.2021
6195 Clouds 12 1020 89 10000 3.6 120 11:58 30.12.2021
6196 Clouds 12 1019 88 10000 4.12 110 10:44 30.12.2021
6197 Mist 12 1020 90 10000 2.57 120 09:50 30.12.2021
6198 Clouds 12 1022 90 6000 4.12 90 07:42 30.12.2021
6199 Clouds 12 1019 90 10000 3.6 110 06:38 30.12.2021
6200 Mist 13 1020 92 1500 2.57 80 03:41 30.12.2021
6201 Fog 13 1023 91 400 3.6 70 02:38 30.12.2021
6202 Clouds 14 1021 89 10000 2.06 50 23:41 29.12.2021
6203 Clouds 14 1021 89 10000 2.06 50 23:21 29.12.2021
6204 Clouds 14 1021 88 10000 1.03 90 22:19 29.12.2021
6205 Clouds 15 1020 86 10000 0 0 21:27 29.12.2021
6206 Clouds 15 1022 86 10000 0 0 20:34 29.12.2021
6207 Clouds 16 1022 84 10000 2.57 180 19:48 29.12.2021
6208 Clouds 17 1022 81 10000 2.06 140 18:47 29.12.2021
6209 Clouds 18 1024 74 10000 2.57 140 17:54 29.12.2021
6210 Clouds 18 1024 74 10000 2.57 130 17:27 29.12.2021
6211 Clouds 18 1022 73 10000 2.57 140 16:24 29.12.2021
6212 Fog 18 1022 77 10000 2.57 140 15:48 29.12.2021
6213 Clouds 18 1023 80 10000 3.09 150 14:19 29.12.2021
6214 Clouds 17 1024 87 10000 2.57 170 12:39 29.12.2021
6215 Clouds 16 1024 91 10000 1.54 130 11:43 29.12.2021
6216 Clouds 16 1023 93 10000 2.06 210 09:59 29.12.2021
6217 Clouds 16 1022 92 10000 2.06 220 07:52 29.12.2021
6218 Clouds 16 1022 92 10000 2.57 210 06:40 29.12.2021
6219 Clouds 16 1022 92 10000 2.57 210 06:22 29.12.2021
6220 Drizzle 16 1022 92 10000 2.57 220 05:39 29.12.2021
6221 Mist 16 1023 92 3000 2.06 180 02:48 29.12.2021
6222 Mist 16 1023 92 2200 2.57 220 00:23 29.12.2021
6223 Mist 16 1023 92 1500 3.09 210 23:35 28.12.2021
6224 Drizzle 16 1023 91 8000 4.12 230 22:42 28.12.2021
6225 Drizzle 16 1024 92 8000 4.12 230 22:24 28.12.2021
6226 Mist 16 1023 93 4500 2.57 230 21:38 28.12.2021
6227 Mist 16 1023 91 10000 2.57 230 20:40 28.12.2021
6228 Fog 16 1023 91 10000 3.6 240 19:31 28.12.2021
6229 Clouds 17 1023 90 10000 3.6 230 18:41 28.12.2021
6230 Clouds 17 1022 88 10000 4.63 230 18:19 28.12.2021
6231 Clouds 18 1022 89 10000 4.12 240 16:35 28.12.2021
6232 Clouds 18 1022 89 10000 4.63 230 15:51 28.12.2021
6233 Clouds 18 1022 89 10000 4.12 230 15:23 28.12.2021
6234 Clouds 18 1022 90 10000 4.12 240 14:50 28.12.2021
6235 Clouds 18 1022 89 10000 4.63 220 14:21 28.12.2021
6236 Clouds 18 1022 89 10000 4.63 220 14:21 28.12.2021
6237 Clouds 18 1023 90 10000 4.12 220 13:51 28.12.2021
6238 Fog 18 1023 90 10000 4.63 220 13:27 28.12.2021
6239 Fog 17 1023 93 10000 4.63 230 12:49 28.12.2021
6240 Drizzle 17 1023 92 10000 4.12 230 11:51 28.12.2021
6241 Drizzle 16 1022 92 7000 3.09 230 09:27 28.12.2021
6242 Clouds 16 1020 89 10000 3.09 230 07:28 28.12.2021
6243 Clouds 16 1017 89 10000 5.14 240 00:59 28.12.2021
6244 Clouds 16 1019 90 10000 4.12 240 23:26 27.12.2021
6245 Clouds 17 1019 89 10000 5.66 240 21:54 27.12.2021
6246 Clouds 16 1018 89 10000 4.63 240 21:26 27.12.2021
6247 Clouds 16 1018 90 10000 4.63 240 20:24 27.12.2021
6248 Clouds 17 1018 89 10000 5.66 240 19:45 27.12.2021
6249 Clouds 17 1017 90 10000 6.17 240 18:54 27.12.2021
6250 Clouds 17 1016 87 10000 6.69 220 17:50 27.12.2021
6251 Clouds 17 1016 86 10000 7.2 230 17:18 27.12.2021
6252 Clouds 18 1016 87 10000 6.17 230 15:53 27.12.2021
6253 Drizzle 17 1016 87 10000 6.69 220 14:34 27.12.2021
6254 Fog 18 1016 84 10000 5.66 230 13:58 27.12.2021
6255 Fog 17 1017 87 10000 4.63 220 12:49 27.12.2021
6256 Fog 16 1015 90 8000 4.12 230 10:37 27.12.2021
6257 Fog 16 1015 91 8000 4.12 230 10:18 27.12.2021
6258 Fog 16 1015 91 10000 2.57 240 08:42 27.12.2021
6259 Clouds 16 1014 88 10000 4.12 260 07:34 27.12.2021
6260 Clouds 16 1012 88 10000 5.66 240 02:29 27.12.2021
6261 Drizzle 16 1011 89 7000 6.69 240 00:57 27.12.2021
6262 Clouds 16 1011 91 10000 6.17 230 23:43 26.12.2021
6263 Clouds 16 1011 91 10000 5.14 220 23:18 26.12.2021
6264 Clouds 16 1011 91 6000 5.14 230 21:33 26.12.2021
6265 Drizzle 16 1011 92 3500 6.17 220 19:54 26.12.2021
6266 Mist 16 1010 92 2000 6.17 220 18:39 26.12.2021
6267 Mist 16 1010 92 2000 6.17 220 18:19 26.12.2021
6268 Clouds 17 1010 90 6000 6.69 230 15:35 26.12.2021
6269 Drizzle 17 1011 91 4500 7.2 230 13:43 26.12.2021
6270 Clouds 17 1011 91 10000 6.69 240 13:21 26.12.2021
6271 Mist 17 1011 91 4000 6.17 230 12:35 26.12.2021
6272 Mist 16 1011 92 3000 6.17 230 11:18 26.12.2021
6273 Mist 16 1010 93 3000 6.69 230 09:30 26.12.2021
6274 Mist 16 1010 93 3000 6.69 210 08:45 26.12.2021
6275 Mist 15 1009 93 2000 6.69 200 08:26 26.12.2021
6276 Clouds 14 1010 89 10000 2.06 230 01:50 26.12.2021
6277 Clouds 14 1009 88 10000 3.09 220 00:39 26.12.2021
6278 Clouds 14 1009 87 10000 2.57 200 23:35 25.12.2021
6279 Clouds 14 1009 90 10000 2.57 180 22:38 25.12.2021
6280 Clouds 14 1009 87 10000 2.57 180 22:20 25.12.2021
6281 Clouds 14 1008 83 10000 3.09 300 20:26 25.12.2021
6282 Clouds 15 1007 81 10000 2.57 300 19:19 25.12.2021
6283 Clouds 15 1007 82 10000 3.6 300 18:37 25.12.2021
6284 Clouds 16 1005 80 10000 4.63 310 16:50 25.12.2021
6285 Mist 16 1004 82 10000 6.69 300 15:38 25.12.2021
6286 Clouds 16 1002 83 10000 6.17 300 14:23 25.12.2021
6287 Mist 16 1001 88 5000 7.2 270 12:40 25.12.2021
6288 Mist 15 1001 88 3500 6.17 240 10:49 25.12.2021
6289 Mist 16 1000 86 5000 7.72 230 09:49 25.12.2021
6290 Clouds 15 996 91 8000 10.29 210 07:28 25.12.2021
6291 Rain 14 1005 83 10000 7.2 190 01:43 25.12.2021
6292 Rain 15 1003 87 10000 6.69 210 00:23 25.12.2021
6293 Rain 15 1004 87 10000 3.09 230 22:26 24.12.2021
6294 Clouds 14 1007 79 10000 3.6 240 19:29 24.12.2021
6295 Clouds 15 1008 76 10000 6.69 240 18:57 24.12.2021
6296 Clouds 16 1006 79 10000 6.17 220 16:49 24.12.2021
6297 Clouds 15 1006 86 10000 7.2 220 15:53 24.12.2021
6298 Clouds 15 1006 87 10000 4.63 230 15:34 24.12.2021
6299 Clouds 15 1007 86 10000 8.75 200 14:36 24.12.2021
6300 Rain 15 1007 84 10000 8.75 200 14:18 24.12.2021
6301 Rain 16 1010 79 10000 8.75 200 13:33 24.12.2021
6302 Rain 16 1008 81 10000 7.72 190 12:47 24.12.2021
6303 Clouds 15 1009 87 10000 5.14 170 11:47 24.12.2021
6304 Clouds 15 1009 90 10000 5.14 170 11:24 24.12.2021
6305 Clouds 15 1009 90 10000 5.66 180 10:46 24.12.2021
6306 Fog 14 1009 92 10000 3.6 160 09:32 24.12.2021
6307 Fog 14 1010 92 10000 3.09 160 08:23 24.12.2021
6308 Clouds 14 1009 91 10000 4.12 160 07:46 24.12.2021
6309 Clouds 13 1011 90 10000 1.03 0 01:30 24.12.2021
6310 Clouds 14 1012 90 10000 2.06 180 23:55 23.12.2021
6311 Clouds 14 1011 88 10000 2.57 200 22:56 23.12.2021
6312 Clouds 14 1011 88 10000 3.6 180 22:37 23.12.2021
6313 Clouds 14 1011 88 10000 3.6 180 22:18 23.12.2021
6314 Clouds 14 1012 89 10000 4.63 210 20:56 23.12.2021
6315 Clouds 15 1013 89 10000 3.6 210 19:47 23.12.2021
6316 Clouds 15 1013 87 10000 4.63 220 18:35 23.12.2021
6317 Clouds 16 1013 85 10000 4.12 220 17:56 23.12.2021
6318 Clouds 16 1011 76 10000 4.12 240 16:43 23.12.2021
6319 Clouds 17 1011 75 10000 4.12 230 16:23 23.12.2021
6320 Clouds 17 1015 76 10000 3.6 240 15:31 23.12.2021
6321 Clouds 17 1012 78 10000 3.6 230 14:49 23.12.2021
6322 Clouds 17 1012 79 10000 3.09 240 14:30 23.12.2021
6323 Clouds 16 1014 87 10000 4.12 270 12:54 23.12.2021
6324 Fog 15 1014 92 10000 3.09 250 10:44 23.12.2021
6325 Fog 16 1015 91 10000 3.6 230 09:42 23.12.2021
6326 Fog 15 1013 92 10000 4.12 220 08:59 23.12.2021
6327 Rain 15 1012 91 6000 3.6 190 06:55 23.12.2021
6328 Drizzle 16 1013 90 10000 5.14 180 04:30 23.12.2021
6329 Drizzle 15 1013 89 10000 5.14 170 23:20 22.12.2021
6330 Drizzle 15 1013 88 9000 4.63 180 22:42 22.12.2021
6331 Clouds 16 1013 87 10000 4.63 170 21:56 22.12.2021
6332 Clouds 16 1013 87 10000 4.63 180 21:29 22.12.2021
6333 Clouds 16 1014 88 10000 4.63 170 20:47 22.12.2021
6334 Clouds 16 1014 88 10000 5.14 190 20:26 22.12.2021
6335 Clouds 15 1013 85 10000 6.17 180 19:21 22.12.2021
6336 Clouds 16 1013 85 10000 5.66 180 17:42 22.12.2021
6337 Clouds 17 1013 83 10000 5.66 180 16:39 22.12.2021
6338 Clouds 17 1013 82 10000 5.66 180 15:39 22.12.2021
6339 Clouds 16 1016 85 10000 1.54 110 13:33 22.12.2021
6340 Mist 15 1014 90 3000 1.54 60 12:40 22.12.2021
6341 Mist 13 1014 90 3500 2.57 70 10:19 22.12.2021
6342 Fog 13 1013 90 800 3.6 0 09:38 22.12.2021
6343 Mist 14 1012 89 5000 1.54 100 07:30 22.12.2021
6344 Clouds 14 1012 89 10000 1.54 120 05:50 22.12.2021
6345 Clouds 14 1012 89 10000 2.57 170 05:26 22.12.2021
6346 Clouds 14 1012 89 10000 2.57 180 04:50 22.12.2021
6347 Clouds 14 1012 88 10000 3.6 170 04:29 22.12.2021
6348 Clouds 14 1011 83 10000 2.57 180 03:33 22.12.2021
6349 Clouds 15 1010 82 10000 4.12 160 00:50 22.12.2021
6350 Clouds 15 1010 84 10000 3.6 130 23:25 21.12.2021
6351 Clouds 15 1010 84 10000 3.6 150 22:28 21.12.2021
6352 Clouds 15 1010 83 10000 3.6 140 21:44 21.12.2021
6353 Clouds 15 1010 85 10000 3.6 170 21:23 21.12.2021
6354 Clouds 15 1010 85 6000 4.63 130 20:22 21.12.2021
6355 Clouds 16 1010 83 10000 4.12 130 19:43 21.12.2021
6356 Rain 16 1010 83 10000 4.63 140 18:48 21.12.2021
6357 Clouds 16 1010 83 10000 3.6 130 18:21 21.12.2021
6358 Clouds 16 1009 85 10000 5.14 140 17:47 21.12.2021
6359 Clouds 17 1009 82 8000 7.2 170 16:35 21.12.2021
6360 Clouds 17 1010 80 10000 5.14 150 15:25 21.12.2021
6361 Rain 18 1011 75 10000 4.63 130 13:51 21.12.2021
6362 Clouds 18 1011 77 10000 4.63 130 13:31 21.12.2021
6363 Clouds 17 1012 82 9000 3.6 120 11:57 21.12.2021
6364 Mist 15 1012 87 5000 4.63 110 10:25 21.12.2021
6365 Mist 15 1012 87 5000 5.66 110 09:33 21.12.2021
6366 Clouds 15 1012 87 8000 5.14 130 08:28 21.12.2021
6367 Clouds 14 1011 86 10000 5.14 130 07:32 21.12.2021
6368 Clouds 15 1011 86 10000 4.12 120 06:50 21.12.2021
6369 Clouds 16 1011 83 10000 5.66 160 03:18 21.12.2021
6370 Clouds 17 1012 85 10000 7.72 180 00:46 21.12.2021
6371 Clouds 17 1012 83 10000 6.69 170 23:34 20.12.2021
6372 Clouds 17 1012 82 10000 7.72 170 22:34 20.12.2021
6373 Clouds 17 1013 86 10000 8.75 170 21:48 20.12.2021
6374 Clouds 17 1013 86 10000 8.75 180 21:24 20.12.2021
6375 Clouds 17 1012 87 10000 7.72 180 20:48 20.12.2021
6376 Clouds 16 1012 90 10000 8.23 170 19:55 20.12.2021
6377 Clouds 16 1012 91 10000 8.75 170 19:32 20.12.2021
6378 Clouds 16 1012 88 10000 7.72 180 18:55 20.12.2021
6379 Clouds 16 1012 87 2000 5.14 170 17:56 20.12.2021
6380 Clouds 16 1012 87 10000 3.6 150 17:37 20.12.2021
6381 Clouds 16 1012 85 10000 2.57 140 16:43 20.12.2021
6382 Clouds 16 1013 84 10000 7.72 180 15:52 20.12.2021
6383 Clouds 15 1013 89 1500 8.23 180 14:56 20.12.2021
6384 Rain 16 1013 90 8000 4.63 130 13:24 20.12.2021
6385 Rain 15 1016 87 7000 3.6 130 11:27 20.12.2021
6386 Clouds 15 1016 88 10000 4.63 130 09:51 20.12.2021
6387 Clouds 15 1016 88 8000 4.63 130 09:31 20.12.2021
6388 Clouds 15 1016 88 9000 3.6 130 08:42 20.12.2021
6389 Drizzle 14 1012 90 7000 4.12 150 07:55 20.12.2021
6390 Drizzle 14 1012 90 7000 5.14 130 07:31 20.12.2021
6391 Rain 14 1013 88 8000 6.69 140 04:36 20.12.2021
6392 Rain 15 1013 73 10000 2.06 100 00:19 20.12.2021
6393 Rain 16 1014 67 10000 2.06 120 22:55 19.12.2021
6394 Clear 16 1014 63 10000 3.6 100 21:55 19.12.2021
6395 Clear 16 1014 62 10000 3.6 110 21:31 19.12.2021
6396 Clear 16 1014 60 10000 4.12 90 20:34 19.12.2021
6397 Clear 16 1014 58 10000 4.63 80 19:52 19.12.2021
6398 Clear 16 1014 58 10000 3.6 90 19:32 19.12.2021
6399 Clear 17 1013 56 10000 4.12 90 18:30 19.12.2021
6400 Clear 17 1013 55 10000 4.63 100 17:53 19.12.2021
6401 Clear 18 1013 54 10000 4.63 110 17:21 19.12.2021
6402 Clear 18 1013 55 10000 5.66 100 16:27 19.12.2021
6403 Clear 18 1014 55 10000 6.17 100 15:50 19.12.2021
6404 Clear 18 1014 55 10000 5.14 100 15:23 19.12.2021
6405 Clear 17 1015 58 10000 4.63 100 14:44 19.12.2021
6406 Clear 15 1016 62 10000 5.14 80 13:26 19.12.2021
6407 Clear 14 1019 62 10000 5.66 70 12:47 19.12.2021
6408 Clear 13 1017 68 10000 5.14 60 12:28 19.12.2021
6409 Clear 12 1020 65 10000 3.09 20 11:30 19.12.2021
6410 Clear 10 1018 74 10000 4.12 60 10:30 19.12.2021
6411 Clear 10 1017 74 10000 4.63 70 09:53 19.12.2021
6412 Clear 9 1018 74 10000 3.6 60 08:45 19.12.2021
6413 Clear 10 1018 72 10000 4.63 60 04:45 19.12.2021
6414 Clear 11 1018 70 10000 4.63 60 01:39 19.12.2021
6415 Clear 12 1019 69 10000 4.63 60 00:53 19.12.2021
6416 Clear 13 1020 67 10000 4.12 50 22:50 18.12.2021
6417 Clear 13 1019 64 10000 3.6 50 22:20 18.12.2021
6418 Clear 13 1020 65 10000 3.6 60 21:41 18.12.2021
6419 Clear 14 1020 65 10000 3.6 60 21:22 18.12.2021
6420 Clear 14 1021 64 10000 2.57 80 20:25 18.12.2021
6421 Clear 15 1020 60 10000 3.6 90 19:27 18.12.2021
6422 Clear 16 1020 58 10000 3.09 90 18:23 18.12.2021
6423 Clear 17 1020 56 10000 2.57 70 17:49 18.12.2021
6424 Clear 17 1020 55 10000 3.6 60 16:27 18.12.2021
6425 Clear 17 1020 57 10000 4.12 60 15:48 18.12.2021
6426 Clear 16 1023 61 10000 4.12 50 14:51 18.12.2021
6427 Clear 15 1021 60 10000 4.12 50 13:42 18.12.2021
6428 Clear 12 1022 71 10000 4.12 70 11:48 18.12.2021
6429 Clouds 10 1021 78 10000 4.63 60 09:53 18.12.2021
6430 Clouds 10 1021 79 10000 5.14 60 09:30 18.12.2021
6431 Clouds 10 1021 80 10000 3.6 60 08:35 18.12.2021
6432 Clouds 10 1020 75 10000 4.12 70 06:27 18.12.2021
6433 Clear 12 1021 69 10000 2.57 50 00:42 18.12.2021
6434 Clouds 12 1020 66 10000 2.06 80 23:47 17.12.2021
6435 Clouds 13 1021 65 10000 3.6 60 22:37 17.12.2021
6436 Clouds 14 1021 61 10000 3.09 50 21:28 17.12.2021
6437 Clouds 14 1021 60 10000 3.09 50 20:42 17.12.2021
6438 Clouds 14 1020 60 10000 2.57 50 19:51 17.12.2021
6439 Clear 15 1020 59 10000 2.57 80 18:39 17.12.2021
6440 Clouds 16 1019 57 10000 2.57 80 17:47 17.12.2021
6441 Clouds 16 1020 56 10000 2.57 80 16:50 17.12.2021
6442 Clouds 16 1020 56 10000 3.6 90 16:27 17.12.2021
6443 Clouds 16 1020 55 10000 4.12 70 15:27 17.12.2021
6444 Clouds 15 1020 57 10000 4.63 70 14:42 17.12.2021
6445 Clouds 14 1021 59 10000 5.14 70 13:45 17.12.2021
6446 Clear 12 1022 65 10000 4.63 60 12:36 17.12.2021
6447 Clear 10 1022 70 10000 6.17 60 10:42 17.12.2021
6448 Clear 9 1021 73 10000 4.63 50 09:47 17.12.2021
6449 Clear 9 1020 71 10000 3.6 50 08:32 17.12.2021
6450 Clear 10 1019 69 10000 4.12 60 07:30 17.12.2021
6451 Clear 10 1019 67 10000 3.6 50 04:40 17.12.2021
6452 Clear 12 1019 60 10000 3.6 50 00:22 17.12.2021
6453 Clear 13 1019 62 10000 2.57 50 22:25 16.12.2021
6454 Clear 13 1019 63 10000 2.57 50 21:54 16.12.2021
6455 Clear 13 1019 63 10000 3.09 40 21:36 16.12.2021
6456 Clouds 14 1019 61 10000 2.57 50 20:40 16.12.2021
6457 Clouds 14 1019 62 10000 3.09 50 19:52 16.12.2021
6458 Clouds 15 1019 58 10000 2.06 0 18:45 16.12.2021
6459 Clouds 16 1019 57 10000 1.54 70 18:26 16.12.2021
6460 Clouds 17 1021 56 10000 2.57 90 17:35 16.12.2021
6461 Clouds 17 1021 55 10000 4.12 50 16:23 16.12.2021
6462 Clear 16 1021 57 10000 2.57 60 15:22 16.12.2021
6463 Clear 15 1020 59 10000 3.09 50 13:45 16.12.2021
6464 Clear 12 1021 63 10000 4.63 50 11:48 16.12.2021
6465 Clear 11 1020 63 10000 4.12 60 11:18 16.12.2021
6466 Clear 10 1021 67 10000 3.6 50 10:39 16.12.2021
6467 Clear 9 1021 72 10000 3.6 30 09:42 16.12.2021
6468 Clear 9 1019 73 10000 2.57 40 06:23 16.12.2021
6469 Clear 10 1019 76 10000 1.54 40 03:54 16.12.2021
6470 Clear 11 1019 71 10000 1.54 360 23:36 15.12.2021
6471 Clear 12 1019 69 10000 1.03 340 22:49 15.12.2021
6472 Clear 12 1019 68 10000 2.06 350 22:20 15.12.2021
6473 Clear 13 1019 67 10000 2.57 350 21:31 15.12.2021
6474 Clear 14 1019 63 10000 2.57 350 20:36 15.12.2021
6475 Clear 14 1019 63 10000 2.57 10 19:53 15.12.2021
6476 Clear 15 1019 58 10000 3.6 30 18:41 15.12.2021
6477 Clear 16 1019 57 10000 3.6 30 18:18 15.12.2021
6478 Clear 17 1018 54 10000 2.06 50 17:40 15.12.2021
6479 Clear 17 1021 53 10000 3.09 50 16:59 15.12.2021
6480 Clear 17 1018 54 10000 2.57 0 15:47 15.12.2021
6481 Clear 16 1021 57 10000 2.57 80 15:29 15.12.2021
6482 Clear 16 1019 58 10000 2.06 70 14:44 15.12.2021
6483 Clear 15 1019 59 10000 3.09 80 13:27 15.12.2021
6484 Clear 12 1023 63 10000 4.12 60 11:40 15.12.2021
6485 Clear 9 1020 76 10000 2.57 60 09:38 15.12.2021
6486 Clear 10 1018 71 10000 2.57 60 07:52 15.12.2021
6487 Clear 12 1018 71 10000 3.6 50 04:22 15.12.2021
6488 Clear 13 1019 71 10000 3.09 40 23:53 14.12.2021
6489 Clear 13 1019 71 10000 3.6 30 22:55 14.12.2021
6490 Clear 14 1018 67 10000 2.57 10 22:37 14.12.2021
6491 Clear 14 1018 67 10000 3.6 30 21:38 14.12.2021
6492 Clear 15 1019 68 10000 2.06 20 20:20 14.12.2021
6493 Clear 15 1019 67 10000 0.51 0 19:21 14.12.2021
6494 Clear 16 1019 66 10000 2.57 60 18:38 14.12.2021
6495 Clear 17 1019 63 10000 3.09 90 17:51 14.12.2021
6496 Clouds 18 1020 61 10000 4.12 70 16:43 14.12.2021
6497 Clouds 17 1020 60 10000 4.12 50 15:54 14.12.2021
6498 Clear 15 1021 68 10000 3.6 60 13:58 14.12.2021
6499 Clouds 14 1022 71 10000 4.12 60 12:48 14.12.2021
6500 Clouds 12 1022 78 10000 5.14 60 11:25 14.12.2021
6501 Clouds 11 1022 80 10000 4.12 70 10:45 14.12.2021
6502 Clouds 11 1021 82 10000 4.12 60 09:54 14.12.2021
6503 Clouds 11 1021 86 10000 3.6 70 08:48 14.12.2021
6504 Clouds 11 1021 86 10000 3.6 70 08:21 14.12.2021
6505 Clouds 11 1020 88 10000 3.6 70 06:40 14.12.2021
6506 Clouds 15 1020 75 10000 2.57 110 23:51 13.12.2021
6507 Clouds 15 1019 74 10000 1.54 80 22:24 13.12.2021
6508 Clouds 16 1019 74 10000 1.54 110 21:39 13.12.2021
6509 Clouds 16 1019 72 10000 1.54 100 20:51 13.12.2021
6510 Clouds 16 1019 72 10000 1.54 100 20:21 13.12.2021
6511 Clouds 16 1019 71 10000 2.06 70 19:49 13.12.2021
6512 Clouds 16 1019 69 10000 2.06 70 17:27 13.12.2021
6513 Clouds 16 1019 66 10000 1.54 70 16:32 13.12.2021
6514 Clouds 16 1019 65 10000 2.06 0 15:43 13.12.2021
6515 Clouds 16 1020 64 10000 2.06 0 14:30 13.12.2021
6516 Clouds 15 1020 65 10000 2.57 110 13:36 13.12.2021
6517 Clouds 14 1021 71 10000 2.57 0 12:39 13.12.2021
6518 Clear 14 1022 71 10000 3.09 60 11:50 13.12.2021
6519 Clear 13 1021 76 10000 3.6 70 11:29 13.12.2021
6520 Clear 12 1020 79 10000 3.6 80 10:21 13.12.2021
6521 Clear 11 1020 81 10000 3.09 70 08:43 13.12.2021
6522 Clear 11 1020 81 10000 3.09 60 08:43 13.12.2021
6523 Clear 12 1019 81 10000 2.57 60 06:54 13.12.2021
6524 Clear 12 1019 81 10000 2.57 60 04:52 13.12.2021
6525 Clear 15 1021 74 10000 2.06 50 23:55 12.12.2021
6526 Clear 17 1020 69 10000 2.57 50 21:58 12.12.2021
6527 Clear 16 1020 71 10000 2.57 20 20:50 12.12.2021
6528 Clear 17 1020 71 10000 2.57 10 19:35 12.12.2021
6529 Clear 18 1020 67 10000 2.57 40 18:22 12.12.2021
6530 Clear 19 1021 63 10000 3.6 50 16:32 12.12.2021
6531 Clear 19 1020 60 10000 3.6 50 15:55 12.12.2021
6532 Clear 19 1021 63 10000 3.09 70 15:28 12.12.2021
6533 Clear 19 1021 59 10000 3.09 70 14:46 12.12.2021
6534 Clear 18 1022 63 10000 3.09 60 13:56 12.12.2021
6535 Clouds 16 1023 68 10000 3.09 70 12:48 12.12.2021
6536 Clouds 15 1025 72 10000 3.6 70 11:45 12.12.2021
6537 Clouds 13 1023 80 10000 4.12 60 11:27 12.12.2021
6538 Clouds 12 1025 84 10000 3.09 50 10:44 12.12.2021
6539 Fog 12 1023 88 10000 3.09 50 10:20 12.12.2021
6540 Fog 10 1022 89 400 2.06 80 08:46 12.12.2021
6541 Fog 11 1022 87 10000 2.06 30 07:25 12.12.2021
6542 Clear 11 1021 85 10000 2.06 50 05:29 12.12.2021
6543 Clear 11 1022 87 10000 3.09 50 04:51 12.12.2021
6544 Clear 12 1023 81 10000 0 0 00:57 12.12.2021
6545 Clear 13 1023 77 10000 3.09 320 22:56 11.12.2021
6546 Clear 13 1023 77 10000 3.6 320 22:20 11.12.2021
6547 Clear 13 1023 79 10000 4.12 330 21:35 11.12.2021
6548 Clear 14 1023 81 10000 5.14 330 20:19 11.12.2021
6549 Clouds 15 1023 79 10000 5.14 340 19:21 11.12.2021
6550 Clouds 15 1023 79 10000 5.14 350 18:45 11.12.2021
6551 Clouds 17 1023 74 10000 5.14 350 17:54 11.12.2021
6552 Clouds 18 1023 71 10000 5.66 340 16:37 11.12.2021
6553 Clouds 19 1023 67 10000 4.63 340 15:41 11.12.2021
6554 Clouds 18 1024 68 10000 5.66 350 14:36 11.12.2021
6555 Clouds 17 1026 73 10000 5.66 30 12:31 11.12.2021
6556 Clouds 15 1026 78 10000 3.6 350 10:50 11.12.2021
6557 Clouds 13 1025 82 10000 4.63 340 09:43 11.12.2021
6558 Clouds 14 1024 81 10000 3.6 340 03:58 11.12.2021
6559 Clouds 14 1025 82 10000 3.09 340 00:48 11.12.2021
6560 Clouds 15 1025 83 10000 3.6 340 23:44 10.12.2021
6561 Clouds 15 1026 84 10000 4.12 350 22:47 10.12.2021
6562 Mist 15 1026 85 5000 5.14 340 21:41 10.12.2021
6563 Drizzle 16 1026 84 10000 6.17 330 20:32 10.12.2021
6564 Drizzle 15 1025 85 10000 4.63 330 19:19 10.12.2021
6565 Drizzle 16 1025 85 10000 3.09 300 17:50 10.12.2021
6566 Clouds 16 1026 79 10000 3.6 300 16:39 10.12.2021
6567 Clouds 16 1026 79 10000 3.09 300 15:45 10.12.2021
6568 Clouds 16 1026 80 10000 4.12 300 15:27 10.12.2021
6569 Clouds 16 1027 79 10000 4.63 310 14:49 10.12.2021
6570 Clouds 16 1027 79 10000 4.12 310 13:50 10.12.2021
6571 Clouds 16 1028 80 10000 3.09 310 12:56 10.12.2021
6572 Clouds 15 1028 81 10000 2.57 300 11:43 10.12.2021
6573 Clouds 15 1028 82 10000 2.57 300 11:19 10.12.2021
6574 Clouds 14 1027 85 10000 3.6 290 09:49 10.12.2021
6575 Clouds 14 1026 81 10000 4.12 300 07:49 10.12.2021
6576 Clouds 14 1025 83 10000 2.57 290 04:58 10.12.2021
6577 Clouds 13 1025 84 10000 2.57 270 02:44 10.12.2021
6578 Clouds 14 1026 82 10000 3.09 310 23:43 09.12.2021
6579 Clouds 14 1026 80 10000 3.09 310 22:44 09.12.2021
6580 Clouds 14 1027 80 10000 3.09 300 22:23 09.12.2021
6581 Clouds 15 1027 78 10000 2.06 280 21:40 09.12.2021
6582 Clouds 15 1027 77 10000 1.54 280 20:38 09.12.2021
6583 Clouds 15 1027 76 10000 2.06 310 19:46 09.12.2021
6584 Clouds 15 1027 76 10000 2.06 310 19:21 09.12.2021
6585 Clouds 15 1027 73 10000 4.63 330 18:24 09.12.2021
6586 Clouds 15 1027 71 10000 3.09 310 17:51 09.12.2021
6587 Clouds 15 1027 73 10000 4.12 310 17:25 09.12.2021
6588 Clouds 16 1027 72 10000 3.6 320 16:43 09.12.2021
6589 Clouds 16 1027 70 10000 5.66 310 15:31 09.12.2021
6590 Clouds 16 1027 70 10000 5.14 310 14:43 09.12.2021
6591 Clouds 16 1028 75 10000 4.63 320 13:18 09.12.2021
6592 Clouds 16 1028 76 10000 6.17 300 12:31 09.12.2021
6593 Drizzle 14 1028 85 10000 4.12 290 10:50 09.12.2021
6594 Clouds 13 1027 85 10000 2.06 280 08:38 09.12.2021
6595 Clouds 12 1026 81 10000 2.57 320 05:54 09.12.2021
6596 Clouds 12 1025 79 10000 3.09 330 02:49 09.12.2021
6597 Clear 12 1025 78 10000 1.54 300 23:42 08.12.2021
6598 Clouds 12 1025 79 10000 2.57 320 23:20 08.12.2021
6599 Clear 12 1024 77 10000 3.6 330 22:45 08.12.2021
6600 Clouds 13 1024 77 10000 4.63 330 21:40 08.12.2021
6601 Clouds 13 1025 75 10000 3.09 300 20:59 08.12.2021
6602 Clouds 13 1025 75 10000 2.06 300 19:58 08.12.2021
6603 Clouds 13 1025 75 10000 2.57 300 19:33 08.12.2021
6604 Clouds 13 1023 74 10000 4.63 320 18:31 08.12.2021
6605 Clouds 14 1022 66 10000 6.17 320 17:26 08.12.2021
6606 Clouds 15 1022 62 10000 5.14 310 15:47 08.12.2021
6607 Clouds 16 1022 61 10000 6.17 310 15:26 08.12.2021
6608 Clouds 15 1022 64 10000 4.12 320 14:28 08.12.2021
6609 Clouds 13 1021 73 10000 2.06 300 10:54 08.12.2021
6610 Rain 13 1021 73 10000 1.54 290 10:28 08.12.2021
6611 Clouds 13 1020 73 10000 2.06 290 08:54 08.12.2021
6612 Clouds 13 1019 76 10000 2.57 300 07:21 08.12.2021
6613 Clouds 13 1018 74 10000 3.09 290 02:30 08.12.2021
6614 Clouds 14 1018 86 10000 2.06 310 23:33 07.12.2021
6615 Mist 15 1018 90 2800 5.66 250 21:40 07.12.2021
6616 Mist 16 1018 90 2800 5.66 250 21:18 07.12.2021
6617 Rain 16 1018 86 10000 5.66 230 20:19 07.12.2021
6618 Drizzle 16 1018 86 10000 6.17 240 18:43 07.12.2021
6619 Clouds 16 1018 83 10000 6.69 240 17:48 07.12.2021
6620 Clouds 16 1019 81 10000 6.17 240 17:19 07.12.2021
6621 Clouds 17 1019 78 10000 6.69 240 16:28 07.12.2021
6622 Clouds 17 1020 79 10000 6.17 250 15:23 07.12.2021
6623 Clouds 17 1021 84 10000 4.12 250 14:18 07.12.2021
6624 Mist 16 1022 87 5000 4.63 220 12:49 07.12.2021
6625 Clouds 15 1023 85 10000 4.12 220 11:27 07.12.2021
6626 Clouds 15 1022 85 10000 2.57 230 10:33 07.12.2021
6627 Clouds 15 1022 84 10000 2.57 260 07:57 07.12.2021
6628 Clouds 14 1023 89 10000 3.09 230 06:18 07.12.2021
6629 Clouds 14 1023 89 10000 3.6 230 05:33 07.12.2021
6630 Clouds